<?xml version="1.0" encoding="UTF-8" standalone="no" ?>
<gpx xmlns="http://www.topografix.com/GPX/1/1" xmlns:xsi="http://www.w3.org/2001/XMLSchema-instance" xsi:schemaLocation="http://www.topografix.com/GPX/1/1 http://www.topografix.com/GPX/1/1/gpx.xsd" version="1.1" creator="VisuGPX - https://www.visugpx.com">
  <metadata>
    <name>Dourdan / Montigny</name>
    <desc><![CDATA[vtt entre potes]]></desc>
  </metadata>
  <trk>
    <name><![CDATA[Tracé 001]]></name>
    <trkseg>
      <trkpt lat="48.53474" lon="1.99436">
        <ele>115.764061</ele>
        <time>2010-10-03T09:02:10Z</time>
      </trkpt>
      <trkpt lat="48.53473" lon="1.99407">
        <ele>115.864059</ele>
        <time>2010-10-03T09:02:54Z</time>
      </trkpt>
      <trkpt lat="48.53447" lon="1.99037">
        <ele>106.1092</ele>
        <time>2010-10-03T09:03:32Z</time>
      </trkpt>
      <trkpt lat="48.53439" lon="1.98959">
        <ele>105.712502</ele>
        <time>2010-10-03T09:03:41Z</time>
      </trkpt>
      <trkpt lat="48.53443" lon="1.98942">
        <ele>106.041252</ele>
        <time>2010-10-03T09:03:44Z</time>
      </trkpt>
      <trkpt lat="48.53464" lon="1.98914">
        <ele>106.796646</ele>
        <time>2010-10-03T09:03:52Z</time>
      </trkpt>
      <trkpt lat="48.53466" lon="1.98894">
        <ele>107.099998</ele>
        <time>2010-10-03T09:03:57Z</time>
      </trkpt>
      <trkpt lat="48.53421" lon="1.98812">
        <ele>108.764999</ele>
        <time>2010-10-03T09:04:48Z</time>
      </trkpt>
      <trkpt lat="48.53413" lon="1.9878">
        <ele>109.525002</ele>
        <time>2010-10-03T09:04:52Z</time>
      </trkpt>
      <trkpt lat="48.53391" lon="1.98565">
        <ele>113.498749</ele>
        <time>2010-10-03T09:05:18Z</time>
      </trkpt>
      <trkpt lat="48.53373" lon="1.98431">
        <ele>115.054649</ele>
        <time>2010-10-03T09:05:35Z</time>
      </trkpt>
      <trkpt lat="48.53378" lon="1.98412">
        <ele>115.659996</ele>
        <time>2010-10-03T09:05:39Z</time>
      </trkpt>
      <trkpt lat="48.53499" lon="1.98296">
        <ele>122.762497</ele>
        <time>2010-10-03T09:06:18Z</time>
      </trkpt>
      <trkpt lat="48.53527" lon="1.98264">
        <ele>124.93</ele>
        <time>2010-10-03T09:06:28Z</time>
      </trkpt>
      <trkpt lat="48.5356" lon="1.98232">
        <ele>127.342499</ele>
        <time>2010-10-03T09:06:38Z</time>
      </trkpt>
      <trkpt lat="48.53599" lon="1.98204">
        <ele>130.107498</ele>
        <time>2010-10-03T09:06:50Z</time>
      </trkpt>
      <trkpt lat="48.53629" lon="1.98173">
        <ele>133.082504</ele>
        <time>2010-10-03T09:07:01Z</time>
      </trkpt>
      <trkpt lat="48.53687" lon="1.98123">
        <ele>138.826248</ele>
        <time>2010-10-03T09:07:21Z</time>
      </trkpt>
      <trkpt lat="48.53759" lon="1.98046">
        <ele>145.432495</ele>
        <time>2010-10-03T09:07:50Z</time>
      </trkpt>
      <trkpt lat="48.53754" lon="1.98039">
        <ele>145.65625</ele>
        <time>2010-10-03T09:07:57Z</time>
      </trkpt>
      <trkpt lat="48.53755" lon="1.9803">
        <ele>146.038757</ele>
        <time>2010-10-03T09:08:03Z</time>
      </trkpt>
      <trkpt lat="48.53796" lon="1.9796">
        <ele>147.190002</ele>
        <time>2010-10-03T09:08:28Z</time>
      </trkpt>
      <trkpt lat="48.53815" lon="1.97932">
        <ele>147.380005</ele>
        <time>2010-10-03T09:08:36Z</time>
      </trkpt>
      <trkpt lat="48.53816" lon="1.97923">
        <ele>147.654999</ele>
        <time>2010-10-03T09:08:38Z</time>
      </trkpt>
      <trkpt lat="48.5381" lon="1.979">
        <ele>148.294205</ele>
        <time>2010-10-03T09:08:42Z</time>
      </trkpt>
      <trkpt lat="48.53806" lon="1.9786">
        <ele>149.327194</ele>
        <time>2010-10-03T09:08:49Z</time>
      </trkpt>
      <trkpt lat="48.53784" lon="1.97791">
        <ele>149.989685</ele>
        <time>2010-10-03T09:09:02Z</time>
      </trkpt>
      <trkpt lat="48.53786" lon="1.9777">
        <ele>151.306671</ele>
        <time>2010-10-03T09:09:06Z</time>
      </trkpt>
      <trkpt lat="48.53778" lon="1.97741">
        <ele>152.053345</ele>
        <time>2010-10-03T09:09:11Z</time>
      </trkpt>
      <trkpt lat="48.53777" lon="1.97729">
        <ele>152.460999</ele>
        <time>2010-10-03T09:09:13Z</time>
      </trkpt>
      <trkpt lat="48.53784" lon="1.9768">
        <ele>154.662003</ele>
        <time>2010-10-03T09:09:23Z</time>
      </trkpt>
      <trkpt lat="48.538" lon="1.97628">
        <ele>156.162796</ele>
        <time>2010-10-03T09:09:31Z</time>
      </trkpt>
      <trkpt lat="48.53807" lon="1.97618">
        <ele>157.152756</ele>
        <time>2010-10-03T09:09:33Z</time>
      </trkpt>
      <trkpt lat="48.53813" lon="1.97601">
        <ele>157.870193</ele>
        <time>2010-10-03T09:09:36Z</time>
      </trkpt>
      <trkpt lat="48.53807" lon="1.97551">
        <ele>156.411057</ele>
        <time>2010-10-03T09:09:47Z</time>
      </trkpt>
      <trkpt lat="48.5381" lon="1.97524">
        <ele>156.506363</ele>
        <time>2010-10-03T09:09:52Z</time>
      </trkpt>
      <trkpt lat="48.53817" lon="1.97514">
        <ele>156.646896</ele>
        <time>2010-10-03T09:09:54Z</time>
      </trkpt>
      <trkpt lat="48.53836" lon="1.97498">
        <ele>156.716309</ele>
        <time>2010-10-03T09:09:59Z</time>
      </trkpt>
      <trkpt lat="48.53845" lon="1.97483">
        <ele>156.787811</ele>
        <time>2010-10-03T09:10:07Z</time>
      </trkpt>
      <trkpt lat="48.53856" lon="1.97456">
        <ele>156.966248</ele>
        <time>2010-10-03T09:10:12Z</time>
      </trkpt>
      <trkpt lat="48.53869" lon="1.97412">
        <ele>157.279999</ele>
        <time>2010-10-03T09:10:17Z</time>
      </trkpt>
      <trkpt lat="48.53871" lon="1.97394">
        <ele>157.054031</ele>
        <time>2010-10-03T09:10:19Z</time>
      </trkpt>
      <trkpt lat="48.53866" lon="1.97364">
        <ele>156.136429</ele>
        <time>2010-10-03T09:10:22Z</time>
      </trkpt>
      <trkpt lat="48.53866" lon="1.97346">
        <ele>155.657593</ele>
        <time>2010-10-03T09:10:24Z</time>
      </trkpt>
      <trkpt lat="48.5387" lon="1.97332">
        <ele>155.474258</ele>
        <time>2010-10-03T09:10:26Z</time>
      </trkpt>
      <trkpt lat="48.53883" lon="1.97318">
        <ele>155.897934</ele>
        <time>2010-10-03T09:10:29Z</time>
      </trkpt>
      <trkpt lat="48.539" lon="1.97286">
        <ele>156.978561</ele>
        <time>2010-10-03T09:10:34Z</time>
      </trkpt>
      <trkpt lat="48.53906" lon="1.9727">
        <ele>157.125</ele>
        <time>2010-10-03T09:10:36Z</time>
      </trkpt>
      <trkpt lat="48.53909" lon="1.97253">
        <ele>156.763504</ele>
        <time>2010-10-03T09:10:38Z</time>
      </trkpt>
      <trkpt lat="48.5391" lon="1.97223">
        <ele>155.953506</ele>
        <time>2010-10-03T09:10:41Z</time>
      </trkpt>
      <trkpt lat="48.53905" lon="1.97187">
        <ele>154.792389</ele>
        <time>2010-10-03T09:10:45Z</time>
      </trkpt>
      <trkpt lat="48.53925" lon="1.97131">
        <ele>154.594193</ele>
        <time>2010-10-03T09:10:55Z</time>
      </trkpt>
      <trkpt lat="48.53929" lon="1.97105">
        <ele>154.273544</ele>
        <time>2010-10-03T09:10:58Z</time>
      </trkpt>
      <trkpt lat="48.53934" lon="1.97091">
        <ele>154.580917</ele>
        <time>2010-10-03T09:11:00Z</time>
      </trkpt>
      <trkpt lat="48.53942" lon="1.97079">
        <ele>155.532379</ele>
        <time>2010-10-03T09:11:02Z</time>
      </trkpt>
      <trkpt lat="48.53965" lon="1.97062">
        <ele>155.963562</ele>
        <time>2010-10-03T09:11:07Z</time>
      </trkpt>
      <trkpt lat="48.53971" lon="1.97052">
        <ele>155.912842</ele>
        <time>2010-10-03T09:11:09Z</time>
      </trkpt>
      <trkpt lat="48.53983" lon="1.9692">
        <ele>156.154999</ele>
        <time>2010-10-03T09:11:25Z</time>
      </trkpt>
      <trkpt lat="48.53978" lon="1.96816">
        <ele>157.701248</ele>
        <time>2010-10-03T09:11:37Z</time>
      </trkpt>
      <trkpt lat="48.53995" lon="1.9667">
        <ele>158</ele>
        <time>2010-10-03T09:11:54Z</time>
      </trkpt>
      <trkpt lat="48.53996" lon="1.96633">
        <ele>157.604996</ele>
        <time>2010-10-03T09:11:58Z</time>
      </trkpt>
      <trkpt lat="48.5399" lon="1.96593">
        <ele>157.009995</ele>
        <time>2010-10-03T09:12:03Z</time>
      </trkpt>
      <trkpt lat="48.53991" lon="1.96586">
        <ele>157</ele>
        <time>2010-10-03T09:12:04Z</time>
      </trkpt>
      <trkpt lat="48.54007" lon="1.96567">
        <ele>157</ele>
        <time>2010-10-03T09:12:08Z</time>
      </trkpt>
      <trkpt lat="48.54122" lon="1.96473">
        <ele>157</ele>
        <time>2010-10-03T09:12:32Z</time>
      </trkpt>
      <trkpt lat="48.54199" lon="1.96405">
        <ele>158</ele>
        <time>2010-10-03T09:12:47Z</time>
      </trkpt>
      <trkpt lat="48.54342" lon="1.96289">
        <ele>159.383896</ele>
        <time>2010-10-03T09:13:15Z</time>
      </trkpt>
      <trkpt lat="48.54425" lon="1.96214">
        <ele>160.406952</ele>
        <time>2010-10-03T09:13:31Z</time>
      </trkpt>
      <trkpt lat="48.54497" lon="1.96154">
        <ele>161</ele>
        <time>2010-10-03T09:13:46Z</time>
      </trkpt>
      <trkpt lat="48.5452" lon="1.96129">
        <ele>161</ele>
        <time>2010-10-03T09:13:49Z</time>
      </trkpt>
      <trkpt lat="48.54519" lon="1.96109">
        <ele>161</ele>
        <time>2010-10-03T09:13:51Z</time>
      </trkpt>
      <trkpt lat="48.54458" lon="1.95799">
        <ele>160</ele>
        <time>2010-10-03T09:14:29Z</time>
      </trkpt>
      <trkpt lat="48.54447" lon="1.9572">
        <ele>159.390869</ele>
        <time>2010-10-03T09:14:37Z</time>
      </trkpt>
      <trkpt lat="48.54437" lon="1.95673">
        <ele>159.016495</ele>
        <time>2010-10-03T09:14:42Z</time>
      </trkpt>
      <trkpt lat="48.54374" lon="1.9531">
        <ele>159</ele>
        <time>2010-10-03T09:15:24Z</time>
      </trkpt>
      <trkpt lat="48.54354" lon="1.95209">
        <ele>158.143936</ele>
        <time>2010-10-03T09:15:44Z</time>
      </trkpt>
      <trkpt lat="48.54343" lon="1.95139">
        <ele>157.573746</ele>
        <time>2010-10-03T09:15:52Z</time>
      </trkpt>
      <trkpt lat="48.54349" lon="1.9513">
        <ele>157.434998</ele>
        <time>2010-10-03T09:15:54Z</time>
      </trkpt>
      <trkpt lat="48.54382" lon="1.95116">
        <ele>157.237503</ele>
        <time>2010-10-03T09:16:00Z</time>
      </trkpt>
      <trkpt lat="48.54418" lon="1.95112">
        <ele>155.504379</ele>
        <time>2010-10-03T09:16:06Z</time>
      </trkpt>
      <trkpt lat="48.54436" lon="1.95118">
        <ele>154.861877</ele>
        <time>2010-10-03T09:16:08Z</time>
      </trkpt>
      <trkpt lat="48.54498" lon="1.95167">
        <ele>156.100006</ele>
        <time>2010-10-03T09:16:15Z</time>
      </trkpt>
      <trkpt lat="48.54555" lon="1.95184">
        <ele>154.553879</ele>
        <time>2010-10-03T09:16:30Z</time>
      </trkpt>
      <trkpt lat="48.54586" lon="1.95193">
        <ele>153.693375</ele>
        <time>2010-10-03T09:16:35Z</time>
      </trkpt>
      <trkpt lat="48.54614" lon="1.95212">
        <ele>154.065598</ele>
        <time>2010-10-03T09:16:39Z</time>
      </trkpt>
      <trkpt lat="48.54644" lon="1.95224">
        <ele>154.181747</ele>
        <time>2010-10-03T09:16:41Z</time>
      </trkpt>
      <trkpt lat="48.54662" lon="1.95225">
        <ele>153.856247</ele>
        <time>2010-10-03T09:16:43Z</time>
      </trkpt>
      <trkpt lat="48.54677" lon="1.95209">
        <ele>154.008118</ele>
        <time>2010-10-03T09:16:45Z</time>
      </trkpt>
      <trkpt lat="48.54682" lon="1.95161">
        <ele>153.685623</ele>
        <time>2010-10-03T09:16:48Z</time>
      </trkpt>
      <trkpt lat="48.54674" lon="1.95109">
        <ele>154.453506</ele>
        <time>2010-10-03T09:16:54Z</time>
      </trkpt>
      <trkpt lat="48.54677" lon="1.95092">
        <ele>154.9375</ele>
        <time>2010-10-03T09:16:55Z</time>
      </trkpt>
      <trkpt lat="48.54686" lon="1.95086">
        <ele>155.445007</ele>
        <time>2010-10-03T09:16:57Z</time>
      </trkpt>
      <trkpt lat="48.54705" lon="1.95096">
        <ele>156.123749</ele>
        <time>2010-10-03T09:17:05Z</time>
      </trkpt>
      <trkpt lat="48.54745" lon="1.95124">
        <ele>157.844818</ele>
        <time>2010-10-03T09:17:17Z</time>
      </trkpt>
      <trkpt lat="48.54839" lon="1.95188">
        <ele>160</ele>
        <time>2010-10-03T09:17:39Z</time>
      </trkpt>
      <trkpt lat="48.54906" lon="1.95238">
        <ele>160.520004</ele>
        <time>2010-10-03T09:17:55Z</time>
      </trkpt>
      <trkpt lat="48.55133" lon="1.95387">
        <ele>162.544998</ele>
        <time>2010-10-03T09:18:47Z</time>
      </trkpt>
      <trkpt lat="48.55223" lon="1.95449">
        <ele>163</ele>
        <time>2010-10-03T09:19:05Z</time>
      </trkpt>
      <trkpt lat="48.55254" lon="1.95473">
        <ele>163</ele>
        <time>2010-10-03T09:19:12Z</time>
      </trkpt>
      <trkpt lat="48.55272" lon="1.95484">
        <ele>163</ele>
        <time>2010-10-03T09:19:16Z</time>
      </trkpt>
      <trkpt lat="48.5529" lon="1.95486">
        <ele>163</ele>
        <time>2010-10-03T09:19:21Z</time>
      </trkpt>
      <trkpt lat="48.5536" lon="1.95439">
        <ele>162.404999</ele>
        <time>2010-10-03T09:19:34Z</time>
      </trkpt>
      <trkpt lat="48.5542" lon="1.95387">
        <ele>162</ele>
        <time>2010-10-03T09:19:47Z</time>
      </trkpt>
      <trkpt lat="48.55492" lon="1.95325">
        <ele>161.464996</ele>
        <time>2010-10-03T09:20:01Z</time>
      </trkpt>
      <trkpt lat="48.55521" lon="1.95301">
        <ele>161</ele>
        <time>2010-10-03T09:20:07Z</time>
      </trkpt>
      <trkpt lat="48.55602" lon="1.95242">
        <ele>161</ele>
        <time>2010-10-03T09:20:23Z</time>
      </trkpt>
      <trkpt lat="48.55606" lon="1.95241">
        <ele>161</ele>
        <time>2010-10-03T09:20:24Z</time>
      </trkpt>
      <trkpt lat="48.55615" lon="1.95247">
        <ele>161</ele>
        <time>2010-10-03T09:20:27Z</time>
      </trkpt>
      <trkpt lat="48.55642" lon="1.95252">
        <ele>161</ele>
        <time>2010-10-03T09:20:35Z</time>
      </trkpt>
      <trkpt lat="48.55681" lon="1.9527">
        <ele>161</ele>
        <time>2010-10-03T09:20:45Z</time>
      </trkpt>
      <trkpt lat="48.55703" lon="1.95294">
        <ele>161.252548</ele>
        <time>2010-10-03T09:20:52Z</time>
      </trkpt>
      <trkpt lat="48.55742" lon="1.95292">
        <ele>161.981247</ele>
        <time>2010-10-03T09:21:02Z</time>
      </trkpt>
      <trkpt lat="48.55754" lon="1.95299">
        <ele>162</ele>
        <time>2010-10-03T09:21:04Z</time>
      </trkpt>
      <trkpt lat="48.55785" lon="1.95287">
        <ele>161.854355</ele>
        <time>2010-10-03T09:21:10Z</time>
      </trkpt>
      <trkpt lat="48.55794" lon="1.95274">
        <ele>161.535629</ele>
        <time>2010-10-03T09:21:12Z</time>
      </trkpt>
      <trkpt lat="48.55837" lon="1.95187">
        <ele>160.875702</ele>
        <time>2010-10-03T09:21:24Z</time>
      </trkpt>
      <trkpt lat="48.55852" lon="1.9516">
        <ele>160.470673</ele>
        <time>2010-10-03T09:21:30Z</time>
      </trkpt>
      <trkpt lat="48.55879" lon="1.95155">
        <ele>159.839996</ele>
        <time>2010-10-03T09:21:38Z</time>
      </trkpt>
      <trkpt lat="48.5593" lon="1.95189">
        <ele>158.714996</ele>
        <time>2010-10-03T09:21:48Z</time>
      </trkpt>
      <trkpt lat="48.55939" lon="1.95198">
        <ele>158.5</ele>
        <time>2010-10-03T09:21:49Z</time>
      </trkpt>
      <trkpt lat="48.55943" lon="1.95211">
        <ele>158.414993</ele>
        <time>2010-10-03T09:21:51Z</time>
      </trkpt>
      <trkpt lat="48.55943" lon="1.9528">
        <ele>157.94223</ele>
        <time>2010-10-03T09:21:59Z</time>
      </trkpt>
      <trkpt lat="48.5595" lon="1.95398">
        <ele>157.274994</ele>
        <time>2010-10-03T09:22:12Z</time>
      </trkpt>
      <trkpt lat="48.55971" lon="1.95493">
        <ele>155.839996</ele>
        <time>2010-10-03T09:22:22Z</time>
      </trkpt>
      <trkpt lat="48.55979" lon="1.95526">
        <ele>155.639999</ele>
        <time>2010-10-03T09:22:25Z</time>
      </trkpt>
      <trkpt lat="48.55986" lon="1.95694">
        <ele>154.024994</ele>
        <time>2010-10-03T09:22:40Z</time>
      </trkpt>
      <trkpt lat="48.56001" lon="1.95857">
        <ele>154</ele>
        <time>2010-10-03T09:22:55Z</time>
      </trkpt>
      <trkpt lat="48.56004" lon="1.95907">
        <ele>154</ele>
        <time>2010-10-03T09:23:00Z</time>
      </trkpt>
      <trkpt lat="48.56007" lon="1.95932">
        <ele>154</ele>
        <time>2010-10-03T09:23:02Z</time>
      </trkpt>
      <trkpt lat="48.56012" lon="1.95943">
        <ele>153.902496</ele>
        <time>2010-10-03T09:23:03Z</time>
      </trkpt>
      <trkpt lat="48.56028" lon="1.95961">
        <ele>153.197815</ele>
        <time>2010-10-03T09:23:07Z</time>
      </trkpt>
      <trkpt lat="48.56058" lon="1.95989">
        <ele>151.798126</ele>
        <time>2010-10-03T09:23:12Z</time>
      </trkpt>
      <trkpt lat="48.56091" lon="1.96003">
        <ele>150.391251</ele>
        <time>2010-10-03T09:23:17Z</time>
      </trkpt>
      <trkpt lat="48.56113" lon="1.96001">
        <ele>149.067505</ele>
        <time>2010-10-03T09:23:19Z</time>
      </trkpt>
      <trkpt lat="48.56151" lon="1.9599">
        <ele>145.994995</ele>
        <time>2010-10-03T09:23:24Z</time>
      </trkpt>
      <trkpt lat="48.56238" lon="1.95953">
        <ele>141.26236</ele>
        <time>2010-10-03T09:23:32Z</time>
      </trkpt>
      <trkpt lat="48.56281" lon="1.95939">
        <ele>137.801926</ele>
        <time>2010-10-03T09:23:37Z</time>
      </trkpt>
      <trkpt lat="48.56294" lon="1.95931">
        <ele>136.801132</ele>
        <time>2010-10-03T09:23:39Z</time>
      </trkpt>
      <trkpt lat="48.56303" lon="1.9592">
        <ele>136.18924</ele>
        <time>2010-10-03T09:23:41Z</time>
      </trkpt>
      <trkpt lat="48.56305" lon="1.95914">
        <ele>136.07666</ele>
        <time>2010-10-03T09:23:42Z</time>
      </trkpt>
      <trkpt lat="48.56306" lon="1.959">
        <ele>136.17366</ele>
        <time>2010-10-03T09:23:44Z</time>
      </trkpt>
      <trkpt lat="48.5627" lon="1.95733">
        <ele>145.607132</ele>
        <time>2010-10-03T09:24:25Z</time>
      </trkpt>
      <trkpt lat="48.56264" lon="1.95625">
        <ele>148.667496</ele>
        <time>2010-10-03T09:24:48Z</time>
      </trkpt>
      <trkpt lat="48.56274" lon="1.95587">
        <ele>148.75</ele>
        <time>2010-10-03T09:24:58Z</time>
      </trkpt>
      <trkpt lat="48.56297" lon="1.95564">
        <ele>147.658279</ele>
        <time>2010-10-03T09:25:05Z</time>
      </trkpt>
      <trkpt lat="48.56328" lon="1.95531">
        <ele>145.491837</ele>
        <time>2010-10-03T09:25:11Z</time>
      </trkpt>
      <trkpt lat="48.56379" lon="1.95471">
        <ele>137.494995</ele>
        <time>2010-10-03T09:25:19Z</time>
      </trkpt>
      <trkpt lat="48.56396" lon="1.95462">
        <ele>134.961868</ele>
        <time>2010-10-03T09:25:21Z</time>
      </trkpt>
      <trkpt lat="48.56406" lon="1.95462">
        <ele>133.752502</ele>
        <time>2010-10-03T09:25:22Z</time>
      </trkpt>
      <trkpt lat="48.56429" lon="1.9548">
        <ele>132.057816</ele>
        <time>2010-10-03T09:25:25Z</time>
      </trkpt>
      <trkpt lat="48.56461" lon="1.95517">
        <ele>130.591187</ele>
        <time>2010-10-03T09:25:32Z</time>
      </trkpt>
      <trkpt lat="48.56491" lon="1.95552">
        <ele>129.024994</ele>
        <time>2010-10-03T09:25:36Z</time>
      </trkpt>
      <trkpt lat="48.56513" lon="1.95571">
        <ele>127.4375</ele>
        <time>2010-10-03T09:25:39Z</time>
      </trkpt>
      <trkpt lat="48.56562" lon="1.95602">
        <ele>125.097252</ele>
        <time>2010-10-03T09:25:46Z</time>
      </trkpt>
      <trkpt lat="48.56621" lon="1.95665">
        <ele>124.9617</ele>
        <time>2010-10-03T09:25:59Z</time>
      </trkpt>
      <trkpt lat="48.56654" lon="1.95684">
        <ele>126.090004</ele>
        <time>2010-10-03T09:26:05Z</time>
      </trkpt>
      <trkpt lat="48.56721" lon="1.95735">
        <ele>127.71875</ele>
        <time>2010-10-03T09:26:22Z</time>
      </trkpt>
      <trkpt lat="48.56773" lon="1.9577">
        <ele>125.980003</ele>
        <time>2010-10-03T09:26:33Z</time>
      </trkpt>
      <trkpt lat="48.56771" lon="1.95954">
        <ele>126.120003</ele>
        <time>2010-10-03T09:27:01Z</time>
      </trkpt>
      <trkpt lat="48.56759" lon="1.96148">
        <ele>129.470276</ele>
        <time>2010-10-03T09:27:31Z</time>
      </trkpt>
      <trkpt lat="48.56762" lon="1.96222">
        <ele>130.371246</ele>
        <time>2010-10-03T09:27:44Z</time>
      </trkpt>
      <trkpt lat="48.56764" lon="1.96238">
        <ele>130.493622</ele>
        <time>2010-10-03T09:27:47Z</time>
      </trkpt>
      <trkpt lat="48.56771" lon="1.96243">
        <ele>130.253891</ele>
        <time>2010-10-03T09:27:49Z</time>
      </trkpt>
      <trkpt lat="48.56834" lon="1.96241">
        <ele>127.427498</ele>
        <time>2010-10-03T09:27:59Z</time>
      </trkpt>
      <trkpt lat="48.56855" lon="1.96226">
        <ele>126.370255</ele>
        <time>2010-10-03T09:28:02Z</time>
      </trkpt>
      <trkpt lat="48.56894" lon="1.96183">
        <ele>124.68</ele>
        <time>2010-10-03T09:28:08Z</time>
      </trkpt>
      <trkpt lat="48.56909" lon="1.96174">
        <ele>124.010002</ele>
        <time>2010-10-03T09:28:10Z</time>
      </trkpt>
      <trkpt lat="48.5695" lon="1.9617">
        <ele>122.255074</ele>
        <time>2010-10-03T09:28:15Z</time>
      </trkpt>
      <trkpt lat="48.56967" lon="1.96167">
        <ele>121.4375</ele>
        <time>2010-10-03T09:28:22Z</time>
      </trkpt>
      <trkpt lat="48.56977" lon="1.96166">
        <ele>120.974998</ele>
        <time>2010-10-03T09:28:24Z</time>
      </trkpt>
      <trkpt lat="48.56984" lon="1.96165">
        <ele>120.639999</ele>
        <time>2010-10-03T09:28:27Z</time>
      </trkpt>
      <trkpt lat="48.56989" lon="1.96157">
        <ele>120.440002</ele>
        <time>2010-10-03T09:28:29Z</time>
      </trkpt>
      <trkpt lat="48.56997" lon="1.96101">
        <ele>120.07</ele>
        <time>2010-10-03T09:28:40Z</time>
      </trkpt>
      <trkpt lat="48.56997" lon="1.96063">
        <ele>119.548752</ele>
        <time>2010-10-03T09:28:52Z</time>
      </trkpt>
      <trkpt lat="48.57003" lon="1.96063">
        <ele>119.325287</ele>
        <time>2010-10-03T09:29:04Z</time>
      </trkpt>
      <trkpt lat="48.57018" lon="1.96072">
        <ele>118.912285</ele>
        <time>2010-10-03T09:29:07Z</time>
      </trkpt>
      <trkpt lat="48.571" lon="1.9611">
        <ele>114.631699</ele>
        <time>2010-10-03T09:29:19Z</time>
      </trkpt>
      <trkpt lat="48.57163" lon="1.9613">
        <ele>112.012474</ele>
        <time>2010-10-03T09:29:27Z</time>
      </trkpt>
      <trkpt lat="48.57181" lon="1.9613">
        <ele>111.415001</ele>
        <time>2010-10-03T09:29:29Z</time>
      </trkpt>
      <trkpt lat="48.57234" lon="1.96124">
        <ele>108.828987</ele>
        <time>2010-10-03T09:29:35Z</time>
      </trkpt>
      <trkpt lat="48.57252" lon="1.96125">
        <ele>107.855309</ele>
        <time>2010-10-03T09:29:37Z</time>
      </trkpt>
      <trkpt lat="48.57261" lon="1.9613">
        <ele>107.416214</ele>
        <time>2010-10-03T09:29:38Z</time>
      </trkpt>
      <trkpt lat="48.57273" lon="1.96149">
        <ele>106.800003</ele>
        <time>2010-10-03T09:29:40Z</time>
      </trkpt>
      <trkpt lat="48.5728" lon="1.96172">
        <ele>106.489998</ele>
        <time>2010-10-03T09:29:42Z</time>
      </trkpt>
      <trkpt lat="48.57284" lon="1.96196">
        <ele>106.32</ele>
        <time>2010-10-03T09:29:44Z</time>
      </trkpt>
      <trkpt lat="48.57287" lon="1.96255">
        <ele>106.199997</ele>
        <time>2010-10-03T09:29:49Z</time>
      </trkpt>
      <trkpt lat="48.5729" lon="1.96278">
        <ele>106.059998</ele>
        <time>2010-10-03T09:29:51Z</time>
      </trkpt>
      <trkpt lat="48.57322" lon="1.96411">
        <ele>105.660004</ele>
        <time>2010-10-03T09:30:03Z</time>
      </trkpt>
      <trkpt lat="48.57333" lon="1.96447">
        <ele>105.303902</ele>
        <time>2010-10-03T09:30:06Z</time>
      </trkpt>
      <trkpt lat="48.57345" lon="1.96464">
        <ele>104.761047</ele>
        <time>2010-10-03T09:30:08Z</time>
      </trkpt>
      <trkpt lat="48.57362" lon="1.96469">
        <ele>103.934998</ele>
        <time>2010-10-03T09:30:10Z</time>
      </trkpt>
      <trkpt lat="48.5738" lon="1.96467">
        <ele>103.535004</ele>
        <time>2010-10-03T09:30:12Z</time>
      </trkpt>
      <trkpt lat="48.57423" lon="1.96451">
        <ele>102.565002</ele>
        <time>2010-10-03T09:30:17Z</time>
      </trkpt>
      <trkpt lat="48.57439" lon="1.96441">
        <ele>102.209999</ele>
        <time>2010-10-03T09:30:19Z</time>
      </trkpt>
      <trkpt lat="48.57473" lon="1.964">
        <ele>102.544998</ele>
        <time>2010-10-03T09:30:25Z</time>
      </trkpt>
      <trkpt lat="48.57478" lon="1.96383">
        <ele>102.650002</ele>
        <time>2010-10-03T09:30:27Z</time>
      </trkpt>
      <trkpt lat="48.57487" lon="1.96229">
        <ele>103.855003</ele>
        <time>2010-10-03T09:30:43Z</time>
      </trkpt>
      <trkpt lat="48.57483" lon="1.96154">
        <ele>103.775002</ele>
        <time>2010-10-03T09:30:51Z</time>
      </trkpt>
      <trkpt lat="48.57469" lon="1.96068">
        <ele>103.656998</ele>
        <time>2010-10-03T09:31:01Z</time>
      </trkpt>
      <trkpt lat="48.5746" lon="1.95931">
        <ele>104.108658</ele>
        <time>2010-10-03T09:31:17Z</time>
      </trkpt>
      <trkpt lat="48.57452" lon="1.95874">
        <ele>104.258034</ele>
        <time>2010-10-03T09:31:24Z</time>
      </trkpt>
      <trkpt lat="48.57452" lon="1.95848">
        <ele>104.262253</ele>
        <time>2010-10-03T09:31:27Z</time>
      </trkpt>
      <trkpt lat="48.57453" lon="1.95816">
        <ele>104.516251</ele>
        <time>2010-10-03T09:31:31Z</time>
      </trkpt>
      <trkpt lat="48.5747" lon="1.95742">
        <ele>106.762497</ele>
        <time>2010-10-03T09:31:40Z</time>
      </trkpt>
      <trkpt lat="48.57464" lon="1.95634">
        <ele>107.93</ele>
        <time>2010-10-03T09:31:55Z</time>
      </trkpt>
      <trkpt lat="48.57419" lon="1.95445">
        <ele>109.763748</ele>
        <time>2010-10-03T09:32:24Z</time>
      </trkpt>
      <trkpt lat="48.57348" lon="1.95271">
        <ele>107.573997</ele>
        <time>2010-10-03T09:32:45Z</time>
      </trkpt>
      <trkpt lat="48.57256" lon="1.94983">
        <ele>113.404396</ele>
        <time>2010-10-03T09:33:19Z</time>
      </trkpt>
      <trkpt lat="48.57258" lon="1.94972">
        <ele>113.793053</ele>
        <time>2010-10-03T09:33:21Z</time>
      </trkpt>
      <trkpt lat="48.57295" lon="1.94956">
        <ele>115.854149</ele>
        <time>2010-10-03T09:33:30Z</time>
      </trkpt>
      <trkpt lat="48.57313" lon="1.94964">
        <ele>116.147934</ele>
        <time>2010-10-03T09:33:34Z</time>
      </trkpt>
      <trkpt lat="48.57331" lon="1.94963">
        <ele>116.427299</ele>
        <time>2010-10-03T09:33:38Z</time>
      </trkpt>
      <trkpt lat="48.57397" lon="1.94938">
        <ele>117.213898</ele>
        <time>2010-10-03T09:33:51Z</time>
      </trkpt>
      <trkpt lat="48.57412" lon="1.94943">
        <ele>116.675797</ele>
        <time>2010-10-03T09:33:53Z</time>
      </trkpt>
      <trkpt lat="48.57435" lon="1.94973">
        <ele>115.2155</ele>
        <time>2010-10-03T09:33:58Z</time>
      </trkpt>
      <trkpt lat="48.5744" lon="1.94975">
        <ele>115.060745</ele>
        <time>2010-10-03T09:34:11Z</time>
      </trkpt>
      <trkpt lat="48.57453" lon="1.9497">
        <ele>115.184998</ele>
        <time>2010-10-03T09:34:16Z</time>
      </trkpt>
      <trkpt lat="48.57493" lon="1.94908">
        <ele>116.940742</ele>
        <time>2010-10-03T09:34:28Z</time>
      </trkpt>
      <trkpt lat="48.57519" lon="1.94897">
        <ele>116.877762</ele>
        <time>2010-10-03T09:34:33Z</time>
      </trkpt>
      <trkpt lat="48.57535" lon="1.94904">
        <ele>116.550003</ele>
        <time>2010-10-03T09:34:36Z</time>
      </trkpt>
      <trkpt lat="48.57545" lon="1.94902">
        <ele>116.583748</ele>
        <time>2010-10-03T09:34:38Z</time>
      </trkpt>
      <trkpt lat="48.5756" lon="1.94879">
        <ele>116.921249</ele>
        <time>2010-10-03T09:34:42Z</time>
      </trkpt>
      <trkpt lat="48.57569" lon="1.94871">
        <ele>117.067497</ele>
        <time>2010-10-03T09:34:44Z</time>
      </trkpt>
      <trkpt lat="48.57674" lon="1.94822">
        <ele>119.497498</ele>
        <time>2010-10-03T09:35:03Z</time>
      </trkpt>
      <trkpt lat="48.57694" lon="1.94814">
        <ele>119.709999</ele>
        <time>2010-10-03T09:35:07Z</time>
      </trkpt>
      <trkpt lat="48.57703" lon="1.94807">
        <ele>119.927498</ele>
        <time>2010-10-03T09:35:09Z</time>
      </trkpt>
      <trkpt lat="48.57721" lon="1.94783">
        <ele>120.705772</ele>
        <time>2010-10-03T09:35:14Z</time>
      </trkpt>
      <trkpt lat="48.5773" lon="1.94785">
        <ele>120.687225</ele>
        <time>2010-10-03T09:35:16Z</time>
      </trkpt>
      <trkpt lat="48.57783" lon="1.94834">
        <ele>119.669998</ele>
        <time>2010-10-03T09:35:27Z</time>
      </trkpt>
      <trkpt lat="48.57865" lon="1.94941">
        <ele>120.784378</ele>
        <time>2010-10-03T09:35:47Z</time>
      </trkpt>
      <trkpt lat="48.57882" lon="1.94948">
        <ele>121.708565</ele>
        <time>2010-10-03T09:35:49Z</time>
      </trkpt>
      <trkpt lat="48.57914" lon="1.94951">
        <ele>123.359375</ele>
        <time>2010-10-03T09:35:57Z</time>
      </trkpt>
      <trkpt lat="48.57935" lon="1.94954">
        <ele>124.544685</ele>
        <time>2010-10-03T09:36:02Z</time>
      </trkpt>
      <trkpt lat="48.57984" lon="1.9496">
        <ele>126.983749</ele>
        <time>2010-10-03T09:36:11Z</time>
      </trkpt>
      <trkpt lat="48.5808" lon="1.94962">
        <ele>130.963547</ele>
        <time>2010-10-03T09:36:31Z</time>
      </trkpt>
      <trkpt lat="48.58083" lon="1.94957">
        <ele>130.926056</ele>
        <time>2010-10-03T09:36:33Z</time>
      </trkpt>
      <trkpt lat="48.58086" lon="1.94926">
        <ele>130.368744</ele>
        <time>2010-10-03T09:36:38Z</time>
      </trkpt>
      <trkpt lat="48.581" lon="1.94848">
        <ele>129.898743</ele>
        <time>2010-10-03T09:36:47Z</time>
      </trkpt>
      <trkpt lat="48.58134" lon="1.94598">
        <ele>130.736496</ele>
        <time>2010-10-03T09:37:19Z</time>
      </trkpt>
      <trkpt lat="48.5814" lon="1.94594">
        <ele>131.148773</ele>
        <time>2010-10-03T09:37:21Z</time>
      </trkpt>
      <trkpt lat="48.58218" lon="1.94624">
        <ele>135.498962</ele>
        <time>2010-10-03T09:37:40Z</time>
      </trkpt>
      <trkpt lat="48.58262" lon="1.94635">
        <ele>139.589066</ele>
        <time>2010-10-03T09:37:53Z</time>
      </trkpt>
      <trkpt lat="48.58354" lon="1.94641">
        <ele>150.324997</ele>
        <time>2010-10-03T09:38:26Z</time>
      </trkpt>
      <trkpt lat="48.58392" lon="1.9464">
        <ele>154.314087</ele>
        <time>2010-10-03T09:38:39Z</time>
      </trkpt>
      <trkpt lat="48.58413" lon="1.94641">
        <ele>156.114502</ele>
        <time>2010-10-03T09:38:47Z</time>
      </trkpt>
      <trkpt lat="48.58431" lon="1.94642">
        <ele>157.620255</ele>
        <time>2010-10-03T09:38:54Z</time>
      </trkpt>
      <trkpt lat="48.58472" lon="1.9465">
        <ele>159.035156</ele>
        <time>2010-10-03T09:39:19Z</time>
      </trkpt>
      <trkpt lat="48.58496" lon="1.94667">
        <ele>158.125565</ele>
        <time>2010-10-03T09:41:32Z</time>
      </trkpt>
      <trkpt lat="48.58515" lon="1.9468">
        <ele>157.121246</ele>
        <time>2010-10-03T09:41:37Z</time>
      </trkpt>
      <trkpt lat="48.58537" lon="1.94697">
        <ele>155.662506</ele>
        <time>2010-10-03T09:41:40Z</time>
      </trkpt>
      <trkpt lat="48.58573" lon="1.94719">
        <ele>152.964996</ele>
        <time>2010-10-03T09:41:47Z</time>
      </trkpt>
      <trkpt lat="48.5862" lon="1.94734">
        <ele>149.505005</ele>
        <time>2010-10-03T09:41:53Z</time>
      </trkpt>
      <trkpt lat="48.58652" lon="1.94755">
        <ele>147.485001</ele>
        <time>2010-10-03T09:42:00Z</time>
      </trkpt>
      <trkpt lat="48.58681" lon="1.9476">
        <ele>145.502502</ele>
        <time>2010-10-03T09:42:04Z</time>
      </trkpt>
      <trkpt lat="48.58698" lon="1.94771">
        <ele>144.057495</ele>
        <time>2010-10-03T09:42:06Z</time>
      </trkpt>
      <trkpt lat="48.58818" lon="1.94871">
        <ele>129.779999</ele>
        <time>2010-10-03T09:42:21Z</time>
      </trkpt>
      <trkpt lat="48.58862" lon="1.94911">
        <ele>127.931625</ele>
        <time>2010-10-03T09:42:33Z</time>
      </trkpt>
      <trkpt lat="48.58874" lon="1.94924">
        <ele>127.38031</ele>
        <time>2010-10-03T09:42:36Z</time>
      </trkpt>
      <trkpt lat="48.58907" lon="1.94958">
        <ele>126.217499</ele>
        <time>2010-10-03T09:42:42Z</time>
      </trkpt>
      <trkpt lat="48.59023" lon="1.95103">
        <ele>122.443748</ele>
        <time>2010-10-03T09:43:02Z</time>
      </trkpt>
      <trkpt lat="48.59037" lon="1.95116">
        <ele>122.2575</ele>
        <time>2010-10-03T09:43:08Z</time>
      </trkpt>
      <trkpt lat="48.59065" lon="1.95152">
        <ele>121.693604</ele>
        <time>2010-10-03T09:43:18Z</time>
      </trkpt>
      <trkpt lat="48.59199" lon="1.95281">
        <ele>118.998001</ele>
        <time>2010-10-03T09:43:40Z</time>
      </trkpt>
      <trkpt lat="48.59295" lon="1.95388">
        <ele>118</ele>
        <time>2010-10-03T09:43:56Z</time>
      </trkpt>
      <trkpt lat="48.59396" lon="1.95487">
        <ele>117.455704</ele>
        <time>2010-10-03T09:44:12Z</time>
      </trkpt>
      <trkpt lat="48.59409" lon="1.95497">
        <ele>117.197998</ele>
        <time>2010-10-03T09:44:14Z</time>
      </trkpt>
      <trkpt lat="48.59472" lon="1.95554">
        <ele>116.93</ele>
        <time>2010-10-03T09:44:26Z</time>
      </trkpt>
      <trkpt lat="48.59509" lon="1.95591">
        <ele>116.105003</ele>
        <time>2010-10-03T09:44:37Z</time>
      </trkpt>
      <trkpt lat="48.59522" lon="1.95611">
        <ele>116.124428</ele>
        <time>2010-10-03T09:44:43Z</time>
      </trkpt>
      <trkpt lat="48.59545" lon="1.95624">
        <ele>116.497253</ele>
        <time>2010-10-03T09:44:49Z</time>
      </trkpt>
      <trkpt lat="48.59562" lon="1.95642">
        <ele>117.21125</ele>
        <time>2010-10-03T09:44:53Z</time>
      </trkpt>
      <trkpt lat="48.59572" lon="1.95649">
        <ele>117.732117</ele>
        <time>2010-10-03T09:44:55Z</time>
      </trkpt>
      <trkpt lat="48.59594" lon="1.95654">
        <ele>118.476692</ele>
        <time>2010-10-03T09:44:59Z</time>
      </trkpt>
      <trkpt lat="48.59623" lon="1.95648">
        <ele>119.099998</ele>
        <time>2010-10-03T09:45:04Z</time>
      </trkpt>
      <trkpt lat="48.59726" lon="1.95693">
        <ele>121.337502</ele>
        <time>2010-10-03T09:45:24Z</time>
      </trkpt>
      <trkpt lat="48.59764" lon="1.95694">
        <ele>122.092499</ele>
        <time>2010-10-03T09:45:30Z</time>
      </trkpt>
      <trkpt lat="48.59798" lon="1.95699">
        <ele>123.5</ele>
        <time>2010-10-03T09:45:37Z</time>
      </trkpt>
      <trkpt lat="48.59819" lon="1.95698">
        <ele>124.402504</ele>
        <time>2010-10-03T09:45:41Z</time>
      </trkpt>
      <trkpt lat="48.59862" lon="1.95686">
        <ele>125.4375</ele>
        <time>2010-10-03T09:45:50Z</time>
      </trkpt>
      <trkpt lat="48.59887" lon="1.95685">
        <ele>126.083748</ele>
        <time>2010-10-03T09:45:57Z</time>
      </trkpt>
      <trkpt lat="48.59933" lon="1.95672">
        <ele>125.564499</ele>
        <time>2010-10-03T09:46:09Z</time>
      </trkpt>
      <trkpt lat="48.59948" lon="1.95658">
        <ele>124.480629</ele>
        <time>2010-10-03T09:46:18Z</time>
      </trkpt>
      <trkpt lat="48.59979" lon="1.95652">
        <ele>122.445625</ele>
        <time>2010-10-03T09:46:24Z</time>
      </trkpt>
      <trkpt lat="48.59999" lon="1.9567">
        <ele>120.895752</ele>
        <time>2010-10-03T09:46:26Z</time>
      </trkpt>
      <trkpt lat="48.60019" lon="1.95701">
        <ele>119.667938</ele>
        <time>2010-10-03T09:46:29Z</time>
      </trkpt>
      <trkpt lat="48.60031" lon="1.95727">
        <ele>118.9375</ele>
        <time>2010-10-03T09:46:31Z</time>
      </trkpt>
      <trkpt lat="48.60058" lon="1.95813">
        <ele>119.198746</ele>
        <time>2010-10-03T09:46:40Z</time>
      </trkpt>
      <trkpt lat="48.6008" lon="1.95846">
        <ele>119.339378</ele>
        <time>2010-10-03T09:46:44Z</time>
      </trkpt>
      <trkpt lat="48.60102" lon="1.95868">
        <ele>118.836998</ele>
        <time>2010-10-03T09:46:48Z</time>
      </trkpt>
      <trkpt lat="48.60123" lon="1.95895">
        <ele>119.577873</ele>
        <time>2010-10-03T09:46:51Z</time>
      </trkpt>
      <trkpt lat="48.60132" lon="1.95917">
        <ele>120.650627</ele>
        <time>2010-10-03T09:46:53Z</time>
      </trkpt>
      <trkpt lat="48.60142" lon="1.95959">
        <ele>123.165001</ele>
        <time>2010-10-03T09:46:58Z</time>
      </trkpt>
      <trkpt lat="48.60151" lon="1.9603">
        <ele>128.165939</ele>
        <time>2010-10-03T09:47:20Z</time>
      </trkpt>
      <trkpt lat="48.60146" lon="1.9607">
        <ele>128.319061</ele>
        <time>2010-10-03T09:47:23Z</time>
      </trkpt>
      <trkpt lat="48.60133" lon="1.96099">
        <ele>128.453125</ele>
        <time>2010-10-03T09:47:47Z</time>
      </trkpt>
      <trkpt lat="48.601" lon="1.96169">
        <ele>130.800003</ele>
        <time>2010-10-03T09:48:46Z</time>
      </trkpt>
      <trkpt lat="48.6009" lon="1.96189">
        <ele>134.156555</ele>
        <time>2010-10-03T09:48:55Z</time>
      </trkpt>
      <trkpt lat="48.60074" lon="1.96219">
        <ele>139.113129</ele>
        <time>2010-10-03T09:49:12Z</time>
      </trkpt>
      <trkpt lat="48.60056" lon="1.96252">
        <ele>143.292496</ele>
        <time>2010-10-03T09:50:27Z</time>
      </trkpt>
      <trkpt lat="48.59908" lon="1.96541">
        <ele>146.104874</ele>
        <time>2010-10-03T09:51:13Z</time>
      </trkpt>
      <trkpt lat="48.5987" lon="1.96611">
        <ele>153.975998</ele>
        <time>2010-10-03T09:51:36Z</time>
      </trkpt>
      <trkpt lat="48.59838" lon="1.96677">
        <ele>156.944305</ele>
        <time>2010-10-03T09:52:26Z</time>
      </trkpt>
      <trkpt lat="48.5978" lon="1.96792">
        <ele>149.384369</ele>
        <time>2010-10-03T09:52:57Z</time>
      </trkpt>
      <trkpt lat="48.59737" lon="1.96891">
        <ele>142.657761</ele>
        <time>2010-10-03T09:53:07Z</time>
      </trkpt>
      <trkpt lat="48.59734" lon="1.96901">
        <ele>142.014832</ele>
        <time>2010-10-03T09:53:09Z</time>
      </trkpt>
      <trkpt lat="48.59738" lon="1.96909">
        <ele>141.722626</ele>
        <time>2010-10-03T09:53:11Z</time>
      </trkpt>
      <trkpt lat="48.59791" lon="1.96957">
        <ele>140.050751</ele>
        <time>2010-10-03T09:53:21Z</time>
      </trkpt>
      <trkpt lat="48.59967" lon="1.97129">
        <ele>136.976746</ele>
        <time>2010-10-03T09:53:49Z</time>
      </trkpt>
      <trkpt lat="48.60045" lon="1.9721">
        <ele>140.952499</ele>
        <time>2010-10-03T09:54:04Z</time>
      </trkpt>
      <trkpt lat="48.60077" lon="1.97243">
        <ele>142.03125</ele>
        <time>2010-10-03T09:54:13Z</time>
      </trkpt>
      <trkpt lat="48.60116" lon="1.97285">
        <ele>142.021881</ele>
        <time>2010-10-03T09:54:23Z</time>
      </trkpt>
      <trkpt lat="48.60153" lon="1.97323">
        <ele>140.83374</ele>
        <time>2010-10-03T09:54:35Z</time>
      </trkpt>
      <trkpt lat="48.60166" lon="1.97322">
        <ele>140.044067</ele>
        <time>2010-10-03T09:54:37Z</time>
      </trkpt>
      <trkpt lat="48.60194" lon="1.97261">
        <ele>134.898758</ele>
        <time>2010-10-03T09:54:51Z</time>
      </trkpt>
      <trkpt lat="48.60222" lon="1.97197">
        <ele>127.974876</ele>
        <time>2010-10-03T09:54:58Z</time>
      </trkpt>
      <trkpt lat="48.60246" lon="1.97149">
        <ele>124.158127</ele>
        <time>2010-10-03T09:55:01Z</time>
      </trkpt>
      <trkpt lat="48.60327" lon="1.96965">
        <ele>127.512497</ele>
        <time>2010-10-03T09:55:22Z</time>
      </trkpt>
      <trkpt lat="48.60342" lon="1.96935">
        <ele>131.610626</ele>
        <time>2010-10-03T09:55:34Z</time>
      </trkpt>
      <trkpt lat="48.60361" lon="1.96895">
        <ele>136.874496</ele>
        <time>2010-10-03T09:55:55Z</time>
      </trkpt>
      <trkpt lat="48.60401" lon="1.96811">
        <ele>140.794006</ele>
        <time>2010-10-03T09:56:49Z</time>
      </trkpt>
      <trkpt lat="48.60474" lon="1.96655">
        <ele>134.471252</ele>
        <time>2010-10-03T09:57:29Z</time>
      </trkpt>
      <trkpt lat="48.60481" lon="1.96602">
        <ele>134.099197</ele>
        <time>2010-10-03T09:57:36Z</time>
      </trkpt>
      <trkpt lat="48.60471" lon="1.96554">
        <ele>136.669327</ele>
        <time>2010-10-03T09:57:48Z</time>
      </trkpt>
      <trkpt lat="48.60445" lon="1.96504">
        <ele>140.597504</ele>
        <time>2010-10-03T09:58:00Z</time>
      </trkpt>
      <trkpt lat="48.60388" lon="1.96447">
        <ele>143.433624</ele>
        <time>2010-10-03T09:58:22Z</time>
      </trkpt>
      <trkpt lat="48.60322" lon="1.96381">
        <ele>143.741257</ele>
        <time>2010-10-03T09:58:44Z</time>
      </trkpt>
      <trkpt lat="48.60313" lon="1.96371">
        <ele>143.046005</ele>
        <time>2010-10-03T09:58:47Z</time>
      </trkpt>
      <trkpt lat="48.60304" lon="1.96356">
        <ele>142.183121</ele>
        <time>2010-10-03T09:58:49Z</time>
      </trkpt>
      <trkpt lat="48.60306" lon="1.9634">
        <ele>142.318756</ele>
        <time>2010-10-03T09:58:52Z</time>
      </trkpt>
      <trkpt lat="48.603" lon="1.96293">
        <ele>142.517502</ele>
        <time>2010-10-03T09:59:00Z</time>
      </trkpt>
      <trkpt lat="48.60266" lon="1.96223">
        <ele>142.570007</ele>
        <time>2010-10-03T09:59:15Z</time>
      </trkpt>
      <trkpt lat="48.60263" lon="1.96209">
        <ele>142.982498</ele>
        <time>2010-10-03T09:59:18Z</time>
      </trkpt>
      <trkpt lat="48.60252" lon="1.96188">
        <ele>142.58255</ele>
        <time>2010-10-03T09:59:24Z</time>
      </trkpt>
      <trkpt lat="48.60241" lon="1.96133">
        <ele>141.03511</ele>
        <time>2010-10-03T09:59:35Z</time>
      </trkpt>
      <trkpt lat="48.60234" lon="1.96078">
        <ele>135.521881</ele>
        <time>2010-10-03T09:59:43Z</time>
      </trkpt>
      <trkpt lat="48.60248" lon="1.96034">
        <ele>130.044998</ele>
        <time>2010-10-03T09:59:45Z</time>
      </trkpt>
      <trkpt lat="48.60247" lon="1.95997">
        <ele>126.334373</ele>
        <time>2010-10-03T09:59:52Z</time>
      </trkpt>
      <trkpt lat="48.60254" lon="1.95978">
        <ele>124.029999</ele>
        <time>2010-10-03T09:59:55Z</time>
      </trkpt>
      <trkpt lat="48.60263" lon="1.95965">
        <ele>122.35556</ele>
        <time>2010-10-03T09:59:56Z</time>
      </trkpt>
      <trkpt lat="48.60264" lon="1.95953">
        <ele>121.073128</ele>
        <time>2010-10-03T09:59:59Z</time>
      </trkpt>
      <trkpt lat="48.60255" lon="1.95883">
        <ele>115.578751</ele>
        <time>2010-10-03T10:00:07Z</time>
      </trkpt>
      <trkpt lat="48.60253" lon="1.95865">
        <ele>114.382378</ele>
        <time>2010-10-03T10:00:09Z</time>
      </trkpt>
      <trkpt lat="48.60256" lon="1.95849">
        <ele>113.75</ele>
        <time>2010-10-03T10:00:12Z</time>
      </trkpt>
      <trkpt lat="48.60268" lon="1.95825">
        <ele>112.386566</ele>
        <time>2010-10-03T10:00:22Z</time>
      </trkpt>
      <trkpt lat="48.60313" lon="1.95736">
        <ele>110.441566</ele>
        <time>2010-10-03T10:00:39Z</time>
      </trkpt>
      <trkpt lat="48.60327" lon="1.9571">
        <ele>109.925003</ele>
        <time>2010-10-03T10:00:43Z</time>
      </trkpt>
      <trkpt lat="48.60381" lon="1.956">
        <ele>109.962502</ele>
        <time>2010-10-03T10:01:02Z</time>
      </trkpt>
      <trkpt lat="48.60395" lon="1.9557">
        <ele>110.247498</ele>
        <time>2010-10-03T10:01:07Z</time>
      </trkpt>
      <trkpt lat="48.60511" lon="1.95338">
        <ele>111.963249</ele>
        <time>2010-10-03T10:01:47Z</time>
      </trkpt>
      <trkpt lat="48.60588" lon="1.95179">
        <ele>111.216934</ele>
        <time>2010-10-03T10:02:15Z</time>
      </trkpt>
      <trkpt lat="48.60625" lon="1.95106">
        <ele>111.239998</ele>
        <time>2010-10-03T10:02:28Z</time>
      </trkpt>
      <trkpt lat="48.60659" lon="1.95038">
        <ele>111.224998</ele>
        <time>2010-10-03T10:02:38Z</time>
      </trkpt>
      <trkpt lat="48.60684" lon="1.94962">
        <ele>112</ele>
        <time>2010-10-03T10:02:51Z</time>
      </trkpt>
      <trkpt lat="48.60697" lon="1.94941">
        <ele>112</ele>
        <time>2010-10-03T10:03:01Z</time>
      </trkpt>
      <trkpt lat="48.60713" lon="1.94911">
        <ele>112.099998</ele>
        <time>2010-10-03T10:03:05Z</time>
      </trkpt>
      <trkpt lat="48.60755" lon="1.94816">
        <ele>112.659966</ele>
        <time>2010-10-03T10:03:26Z</time>
      </trkpt>
      <trkpt lat="48.60897" lon="1.94538">
        <ele>115.08625</ele>
        <time>2010-10-03T10:04:09Z</time>
      </trkpt>
      <trkpt lat="48.60932" lon="1.94461">
        <ele>115.260063</ele>
        <time>2010-10-03T10:04:14Z</time>
      </trkpt>
      <trkpt lat="48.60948" lon="1.94443">
        <ele>115.014626</ele>
        <time>2010-10-03T10:04:19Z</time>
      </trkpt>
      <trkpt lat="48.60957" lon="1.94441">
        <ele>115</ele>
        <time>2010-10-03T10:04:24Z</time>
      </trkpt>
      <trkpt lat="48.60974" lon="1.94439">
        <ele>115</ele>
        <time>2010-10-03T10:04:26Z</time>
      </trkpt>
      <trkpt lat="48.61013" lon="1.94444">
        <ele>115.919998</ele>
        <time>2010-10-03T10:04:38Z</time>
      </trkpt>
      <trkpt lat="48.61115" lon="1.94466">
        <ele>127.720001</ele>
        <time>2010-10-03T10:05:07Z</time>
      </trkpt>
      <trkpt lat="48.61138" lon="1.94472">
        <ele>130.861252</ele>
        <time>2010-10-03T10:05:20Z</time>
      </trkpt>
      <trkpt lat="48.61151" lon="1.94475">
        <ele>132.052246</ele>
        <time>2010-10-03T10:05:26Z</time>
      </trkpt>
      <trkpt lat="48.61277" lon="1.94506">
        <ele>143.603745</ele>
        <time>2010-10-03T10:06:57Z</time>
      </trkpt>
      <trkpt lat="48.6131" lon="1.94513">
        <ele>144.94519</ele>
        <time>2010-10-03T10:07:15Z</time>
      </trkpt>
      <trkpt lat="48.61312" lon="1.94509">
        <ele>145.061569</ele>
        <time>2010-10-03T10:07:17Z</time>
      </trkpt>
      <trkpt lat="48.61312" lon="1.94505">
        <ele>145.099991</ele>
        <time>2010-10-03T10:07:18Z</time>
      </trkpt>
      <trkpt lat="48.6127" lon="1.94459">
        <ele>143.432007</ele>
        <time>2010-10-03T10:07:30Z</time>
      </trkpt>
      <trkpt lat="48.61143" lon="1.94317">
        <ele>133.077927</ele>
        <time>2010-10-03T10:07:51Z</time>
      </trkpt>
      <trkpt lat="48.61102" lon="1.94276">
        <ele>126.400002</ele>
        <time>2010-10-03T10:07:56Z</time>
      </trkpt>
      <trkpt lat="48.61066" lon="1.94234">
        <ele>120.544746</ele>
        <time>2010-10-03T10:08:01Z</time>
      </trkpt>
      <trkpt lat="48.61058" lon="1.94209">
        <ele>120.068123</ele>
        <time>2010-10-03T10:08:06Z</time>
      </trkpt>
      <trkpt lat="48.61073" lon="1.94177">
        <ele>120.824936</ele>
        <time>2010-10-03T10:08:16Z</time>
      </trkpt>
      <trkpt lat="48.61104" lon="1.94113">
        <ele>122.199875</ele>
        <time>2010-10-03T10:08:28Z</time>
      </trkpt>
      <trkpt lat="48.61128" lon="1.94064">
        <ele>124.346497</ele>
        <time>2010-10-03T10:08:38Z</time>
      </trkpt>
      <trkpt lat="48.61165" lon="1.93981">
        <ele>128.418243</ele>
        <time>2010-10-03T10:08:56Z</time>
      </trkpt>
      <trkpt lat="48.61186" lon="1.93913">
        <ele>130.880005</ele>
        <time>2010-10-03T10:09:08Z</time>
      </trkpt>
      <trkpt lat="48.61202" lon="1.93844">
        <ele>132.851028</ele>
        <time>2010-10-03T10:09:20Z</time>
      </trkpt>
      <trkpt lat="48.61217" lon="1.93766">
        <ele>131.313049</ele>
        <time>2010-10-03T10:09:36Z</time>
      </trkpt>
      <trkpt lat="48.61227" lon="1.93757">
        <ele>131.945007</ele>
        <time>2010-10-03T10:09:38Z</time>
      </trkpt>
      <trkpt lat="48.6126" lon="1.93795">
        <ele>135.947495</ele>
        <time>2010-10-03T10:09:51Z</time>
      </trkpt>
      <trkpt lat="48.61327" lon="1.93873">
        <ele>147.173431</ele>
        <time>2010-10-03T10:10:40Z</time>
      </trkpt>
      <trkpt lat="48.61354" lon="1.93905">
        <ele>154.6875</ele>
        <time>2010-10-03T10:11:05Z</time>
      </trkpt>
      <trkpt lat="48.61366" lon="1.93918">
        <ele>158.102509</ele>
        <time>2010-10-03T10:11:11Z</time>
      </trkpt>
      <trkpt lat="48.61376" lon="1.93931">
        <ele>160.884995</ele>
        <time>2010-10-03T10:11:27Z</time>
      </trkpt>
      <trkpt lat="48.61388" lon="1.93944">
        <ele>163.584</ele>
        <time>2010-10-03T10:12:01Z</time>
      </trkpt>
      <trkpt lat="48.61402" lon="1.93963">
        <ele>166.193756</ele>
        <time>2010-10-03T10:12:29Z</time>
      </trkpt>
      <trkpt lat="48.61414" lon="1.93978">
        <ele>166.714996</ele>
        <time>2010-10-03T10:13:01Z</time>
      </trkpt>
      <trkpt lat="48.61434" lon="1.93999">
        <ele>167.252686</ele>
        <time>2010-10-03T10:13:14Z</time>
      </trkpt>
      <trkpt lat="48.61443" lon="1.93992">
        <ele>167.582504</ele>
        <time>2010-10-03T10:13:18Z</time>
      </trkpt>
      <trkpt lat="48.61484" lon="1.93908">
        <ele>167.9673</ele>
        <time>2010-10-03T10:13:43Z</time>
      </trkpt>
      <trkpt lat="48.61531" lon="1.93827">
        <ele>168.999908</ele>
        <time>2010-10-03T10:14:00Z</time>
      </trkpt>
      <trkpt lat="48.61544" lon="1.93797">
        <ele>168.867981</ele>
        <time>2010-10-03T10:14:05Z</time>
      </trkpt>
      <trkpt lat="48.61595" lon="1.93716">
        <ele>166.756256</ele>
        <time>2010-10-03T10:14:19Z</time>
      </trkpt>
      <trkpt lat="48.61581" lon="1.93693">
        <ele>166.896866</ele>
        <time>2010-10-03T10:14:25Z</time>
      </trkpt>
      <trkpt lat="48.6156" lon="1.93664">
        <ele>164.953751</ele>
        <time>2010-10-03T10:14:29Z</time>
      </trkpt>
      <trkpt lat="48.61523" lon="1.93625">
        <ele>159.404999</ele>
        <time>2010-10-03T10:14:33Z</time>
      </trkpt>
      <trkpt lat="48.61444" lon="1.93538">
        <ele>148.700119</ele>
        <time>2010-10-03T10:14:41Z</time>
      </trkpt>
      <trkpt lat="48.61365" lon="1.93457">
        <ele>144.817688</ele>
        <time>2010-10-03T10:14:52Z</time>
      </trkpt>
      <trkpt lat="48.61319" lon="1.93401">
        <ele>140.949997</ele>
        <time>2010-10-03T10:15:00Z</time>
      </trkpt>
      <trkpt lat="48.6132" lon="1.93384">
        <ele>141.100006</ele>
        <time>2010-10-03T10:15:04Z</time>
      </trkpt>
      <trkpt lat="48.61332" lon="1.93336">
        <ele>143.307816</ele>
        <time>2010-10-03T10:15:19Z</time>
      </trkpt>
      <trkpt lat="48.61352" lon="1.93265">
        <ele>147.550003</ele>
        <time>2010-10-03T10:15:48Z</time>
      </trkpt>
      <trkpt lat="48.61355" lon="1.93242">
        <ele>149.350006</ele>
        <time>2010-10-03T10:15:54Z</time>
      </trkpt>
      <trkpt lat="48.61383" lon="1.93191">
        <ele>156.184998</ele>
        <time>2010-10-03T10:16:29Z</time>
      </trkpt>
      <trkpt lat="48.61396" lon="1.93178">
        <ele>158.891754</ele>
        <time>2010-10-03T10:16:40Z</time>
      </trkpt>
      <trkpt lat="48.61419" lon="1.93151">
        <ele>165.916</ele>
        <time>2010-10-03T10:17:03Z</time>
      </trkpt>
      <trkpt lat="48.61427" lon="1.93141">
        <ele>167.75</ele>
        <time>2010-10-03T10:17:14Z</time>
      </trkpt>
      <trkpt lat="48.61451" lon="1.93112">
        <ele>170.464066</ele>
        <time>2010-10-03T10:17:33Z</time>
      </trkpt>
      <trkpt lat="48.61456" lon="1.93104">
        <ele>170.779633</ele>
        <time>2010-10-03T10:17:38Z</time>
      </trkpt>
      <trkpt lat="48.61478" lon="1.93078">
        <ele>172.662186</ele>
        <time>2010-10-03T10:18:00Z</time>
      </trkpt>
      <trkpt lat="48.61508" lon="1.93046">
        <ele>173</ele>
        <time>2010-10-03T10:18:27Z</time>
      </trkpt>
      <trkpt lat="48.61525" lon="1.93033">
        <ele>173</ele>
        <time>2010-10-03T10:18:42Z</time>
      </trkpt>
      <trkpt lat="48.61551" lon="1.93016">
        <ele>173</ele>
        <time>2010-10-03T10:18:54Z</time>
      </trkpt>
      <trkpt lat="48.61648" lon="1.9295">
        <ele>173</ele>
        <time>2010-10-03T10:19:30Z</time>
      </trkpt>
      <trkpt lat="48.61674" lon="1.92941">
        <ele>173</ele>
        <time>2010-10-03T10:19:42Z</time>
      </trkpt>
      <trkpt lat="48.6169" lon="1.92944">
        <ele>173</ele>
        <time>2010-10-03T10:19:46Z</time>
      </trkpt>
      <trkpt lat="48.61805" lon="1.92954">
        <ele>173</ele>
        <time>2010-10-03T10:20:17Z</time>
      </trkpt>
      <trkpt lat="48.61828" lon="1.92956">
        <ele>173</ele>
        <time>2010-10-03T10:20:24Z</time>
      </trkpt>
      <trkpt lat="48.61933" lon="1.92964">
        <ele>172.990005</ele>
        <time>2010-10-03T10:20:42Z</time>
      </trkpt>
      <trkpt lat="48.61964" lon="1.92975">
        <ele>172.289993</ele>
        <time>2010-10-03T10:20:45Z</time>
      </trkpt>
      <trkpt lat="48.62092" lon="1.93118">
        <ele>166.214005</ele>
        <time>2010-10-03T10:21:10Z</time>
      </trkpt>
      <trkpt lat="48.62105" lon="1.93133">
        <ele>166.144379</ele>
        <time>2010-10-03T10:21:11Z</time>
      </trkpt>
      <trkpt lat="48.62094" lon="1.93154">
        <ele>165.919556</ele>
        <time>2010-10-03T10:21:13Z</time>
      </trkpt>
      <trkpt lat="48.62086" lon="1.93165">
        <ele>165.876999</ele>
        <time>2010-10-03T10:21:15Z</time>
      </trkpt>
      <trkpt lat="48.62119" lon="1.93111">
        <ele>166.649704</ele>
        <time>2011-11-14T11:19:35Z</time>
      </trkpt>
      <trkpt lat="48.62151" lon="1.93047">
        <ele>169.594955</ele>
        <time>2011-11-14T11:19:56Z</time>
      </trkpt>
      <trkpt lat="48.62166" lon="1.93011">
        <ele>170.386932</ele>
        <time>2011-11-14T11:20:07Z</time>
      </trkpt>
      <trkpt lat="48.62226" lon="1.92885">
        <ele>171</ele>
        <time>2011-11-14T11:20:48Z</time>
      </trkpt>
      <trkpt lat="48.62229" lon="1.92875">
        <ele>171</ele>
        <time>2011-11-14T11:20:51Z</time>
      </trkpt>
      <trkpt lat="48.62258" lon="1.92812">
        <ele>170.906509</ele>
        <time>2011-11-14T11:21:11Z</time>
      </trkpt>
      <trkpt lat="48.6227" lon="1.92788">
        <ele>171</ele>
        <time>2011-11-14T11:21:19Z</time>
      </trkpt>
      <trkpt lat="48.62299" lon="1.92723">
        <ele>171</ele>
        <time>2011-11-14T11:21:40Z</time>
      </trkpt>
      <trkpt lat="48.62321" lon="1.92679">
        <ele>171</ele>
        <time>2011-11-14T11:21:54Z</time>
      </trkpt>
      <trkpt lat="48.62348" lon="1.92621">
        <ele>171</ele>
        <time>2011-11-14T11:22:14Z</time>
      </trkpt>
      <trkpt lat="48.62368" lon="1.92574">
        <ele>171</ele>
        <time>2011-11-14T11:22:28Z</time>
      </trkpt>
      <trkpt lat="48.62396" lon="1.92516">
        <ele>171</ele>
        <time>2011-11-14T11:22:47Z</time>
      </trkpt>
      <trkpt lat="48.62425" lon="1.9246">
        <ele>171</ele>
        <time>2011-11-14T11:23:06Z</time>
      </trkpt>
      <trkpt lat="48.62448" lon="1.92408">
        <ele>171</ele>
        <time>2011-11-14T11:23:22Z</time>
      </trkpt>
      <trkpt lat="48.62457" lon="1.92359">
        <ele>171.036514</ele>
        <time>2011-11-14T11:23:36Z</time>
      </trkpt>
      <trkpt lat="48.62453" lon="1.92359">
        <ele>171.043045</ele>
        <time>2011-11-14T11:23:37Z</time>
      </trkpt>
      <trkpt lat="48.62477" lon="1.92347">
        <ele>171.071976</ele>
        <time>2011-11-14T11:23:48Z</time>
      </trkpt>
      <trkpt lat="48.62505" lon="1.92289">
        <ele>171</ele>
        <time>2011-11-14T11:24:07Z</time>
      </trkpt>
      <trkpt lat="48.62533" lon="1.92228">
        <ele>171</ele>
        <time>2011-11-14T11:24:26Z</time>
      </trkpt>
      <trkpt lat="48.62552" lon="1.92191">
        <ele>171</ele>
        <time>2011-11-14T11:24:39Z</time>
      </trkpt>
      <trkpt lat="48.6257" lon="1.92152">
        <ele>171.02121</ele>
        <time>2011-11-14T11:24:51Z</time>
      </trkpt>
      <trkpt lat="48.62634" lon="1.92016">
        <ele>171.082764</ele>
        <time>2011-11-14T11:25:35Z</time>
      </trkpt>
      <trkpt lat="48.62643" lon="1.91998">
        <ele>171.354599</ele>
        <time>2011-11-14T11:25:42Z</time>
      </trkpt>
      <trkpt lat="48.62785" lon="1.91721">
        <ele>171</ele>
        <time>2011-11-14T12:14:47Z</time>
      </trkpt>
      <trkpt lat="48.62808" lon="1.91741">
        <ele>171</ele>
        <time>2011-11-14T12:14:37Z</time>
      </trkpt>
      <trkpt lat="48.62843" lon="1.91777">
        <ele>171</ele>
        <time>2011-11-14T12:14:19Z</time>
      </trkpt>
      <trkpt lat="48.6289" lon="1.91832">
        <ele>171.699524</ele>
        <time>2011-11-14T12:13:56Z</time>
      </trkpt>
      <trkpt lat="48.62933" lon="1.91877">
        <ele>171.87233</ele>
        <time>2011-11-14T12:13:35Z</time>
      </trkpt>
      <trkpt lat="48.63017" lon="1.91972">
        <ele>172</ele>
        <time>2011-11-14T12:12:53Z</time>
      </trkpt>
      <trkpt lat="48.63044" lon="1.91995">
        <ele>172</ele>
        <time>2011-11-14T12:12:41Z</time>
      </trkpt>
      <trkpt lat="48.63077" lon="1.92034">
        <ele>171.703033</ele>
        <time>2011-11-14T12:12:24Z</time>
      </trkpt>
      <trkpt lat="48.631" lon="1.92016">
        <ele>170.862213</ele>
        <time>2011-11-14T12:12:13Z</time>
      </trkpt>
      <trkpt lat="48.63122" lon="1.91963">
        <ele>168.683792</ele>
        <time>2011-11-14T12:11:57Z</time>
      </trkpt>
      <trkpt lat="48.63131" lon="1.91944">
        <ele>166.51004</ele>
        <time>2011-11-14T12:11:51Z</time>
      </trkpt>
      <trkpt lat="48.63161" lon="1.91874">
        <ele>160.610413</ele>
        <time>2011-11-14T12:11:28Z</time>
      </trkpt>
      <trkpt lat="48.63171" lon="1.91855">
        <ele>159.607986</ele>
        <time>2011-11-14T12:11:22Z</time>
      </trkpt>
      <trkpt lat="48.6323" lon="1.91729">
        <ele>162.235291</ele>
        <time>2011-11-14T12:10:41Z</time>
      </trkpt>
      <trkpt lat="48.63247" lon="1.91695">
        <ele>164.979721</ele>
        <time>2011-11-14T12:10:30Z</time>
      </trkpt>
      <trkpt lat="48.63305" lon="1.91572">
        <ele>170.286545</ele>
        <time>2011-11-14T12:09:50Z</time>
      </trkpt>
      <trkpt lat="48.63328" lon="1.91516">
        <ele>171.356155</ele>
        <time>2011-11-14T12:09:33Z</time>
      </trkpt>
      <trkpt lat="48.63358" lon="1.91457">
        <ele>171.835632</ele>
        <time>2011-11-14T12:09:13Z</time>
      </trkpt>
      <trkpt lat="48.63387" lon="1.91401">
        <ele>171.999771</ele>
        <time>2011-11-14T12:08:54Z</time>
      </trkpt>
      <trkpt lat="48.63396" lon="1.91382">
        <ele>172</ele>
        <time>2011-11-14T12:08:48Z</time>
      </trkpt>
      <trkpt lat="48.63427" lon="1.91321">
        <ele>172</ele>
        <time>2011-11-14T12:08:28Z</time>
      </trkpt>
      <trkpt lat="48.63447" lon="1.9128">
        <ele>172</ele>
        <time>2011-11-14T12:08:14Z</time>
      </trkpt>
      <trkpt lat="48.63495" lon="1.9118">
        <ele>172</ele>
        <time>2011-11-14T12:07:41Z</time>
      </trkpt>
      <trkpt lat="48.63513" lon="1.91141">
        <ele>172</ele>
        <time>2011-11-14T12:07:29Z</time>
      </trkpt>
      <trkpt lat="48.63544" lon="1.9107">
        <ele>172</ele>
        <time>2011-11-14T12:07:06Z</time>
      </trkpt>
      <trkpt lat="48.63551" lon="1.91052">
        <ele>172</ele>
        <time>2011-11-14T12:07:01Z</time>
      </trkpt>
      <trkpt lat="48.63582" lon="1.90985">
        <ele>172</ele>
        <time>2011-11-14T12:06:39Z</time>
      </trkpt>
      <trkpt lat="48.6361" lon="1.90933">
        <ele>172</ele>
        <time>2011-11-14T12:06:22Z</time>
      </trkpt>
      <trkpt lat="48.63629" lon="1.90889">
        <ele>172</ele>
        <time>2011-11-14T12:06:08Z</time>
      </trkpt>
      <trkpt lat="48.63644" lon="1.90852">
        <ele>172.130615</ele>
        <time>2011-11-14T12:05:56Z</time>
      </trkpt>
      <trkpt lat="48.63663" lon="1.90818">
        <ele>172.523376</ele>
        <time>2011-11-14T12:05:44Z</time>
      </trkpt>
      <trkpt lat="48.63694" lon="1.90751">
        <ele>172.128723</ele>
        <time>2011-11-14T12:05:23Z</time>
      </trkpt>
      <trkpt lat="48.63724" lon="1.90683">
        <ele>172.275055</ele>
        <time>2011-11-14T12:05:01Z</time>
      </trkpt>
      <trkpt lat="48.63744" lon="1.90642">
        <ele>172</ele>
        <time>2011-11-14T12:04:47Z</time>
      </trkpt>
      <trkpt lat="48.63769" lon="1.90595">
        <ele>172</ele>
        <time>2011-11-14T12:04:31Z</time>
      </trkpt>
      <trkpt lat="48.63777" lon="1.90575">
        <ele>172.053238</ele>
        <time>2011-11-14T12:04:25Z</time>
      </trkpt>
      <trkpt lat="48.63796" lon="1.90536">
        <ele>172</ele>
        <time>2011-11-14T12:04:13Z</time>
      </trkpt>
      <trkpt lat="48.6381" lon="1.90518">
        <ele>172</ele>
        <time>2011-11-14T12:04:05Z</time>
      </trkpt>
      <trkpt lat="48.63836" lon="1.90464">
        <ele>172</ele>
        <time>2011-11-14T12:03:48Z</time>
      </trkpt>
      <trkpt lat="48.63858" lon="1.90415">
        <ele>172</ele>
        <time>2011-11-14T12:03:32Z</time>
      </trkpt>
      <trkpt lat="48.63919" lon="1.90289">
        <ele>172</ele>
        <time>2011-11-14T12:02:51Z</time>
      </trkpt>
      <trkpt lat="48.63947" lon="1.90239">
        <ele>172</ele>
        <time>2011-11-14T12:02:33Z</time>
      </trkpt>
      <trkpt lat="48.63973" lon="1.90186">
        <ele>172</ele>
        <time>2011-11-14T12:02:16Z</time>
      </trkpt>
      <trkpt lat="48.64014" lon="1.90162">
        <ele>172</ele>
        <time>2011-11-14T12:01:58Z</time>
      </trkpt>
      <trkpt lat="48.64056" lon="1.90209">
        <ele>172</ele>
        <time>2011-11-14T12:01:37Z</time>
      </trkpt>
      <trkpt lat="48.64076" lon="1.90235">
        <ele>172</ele>
        <time>2011-11-14T12:01:27Z</time>
      </trkpt>
      <trkpt lat="48.641" lon="1.90258">
        <ele>172</ele>
        <time>2011-11-14T12:01:15Z</time>
      </trkpt>
      <trkpt lat="48.64135" lon="1.90299">
        <ele>172</ele>
        <time>2011-11-14T12:00:58Z</time>
      </trkpt>
      <trkpt lat="48.64173" lon="1.90344">
        <ele>172</ele>
        <time>2011-11-14T12:00:38Z</time>
      </trkpt>
      <trkpt lat="48.64242" lon="1.90418">
        <ele>172</ele>
        <time>2011-11-14T12:00:05Z</time>
      </trkpt>
      <trkpt lat="48.64284" lon="1.90466">
        <ele>172</ele>
        <time>2011-11-14T11:59:43Z</time>
      </trkpt>
      <trkpt lat="48.64358" lon="1.90551">
        <ele>172</ele>
        <time>2011-11-14T11:59:06Z</time>
      </trkpt>
      <trkpt lat="48.64375" lon="1.90584">
        <ele>172.039658</ele>
        <time>2011-11-14T11:58:55Z</time>
      </trkpt>
      <trkpt lat="48.6439" lon="1.90635">
        <ele>172.084183</ele>
        <time>2011-11-14T11:58:40Z</time>
      </trkpt>
      <trkpt lat="48.64426" lon="1.90678">
        <ele>172</ele>
        <time>2011-11-14T11:58:22Z</time>
      </trkpt>
      <trkpt lat="48.64446" lon="1.90704">
        <ele>172</ele>
        <time>2011-11-14T11:58:11Z</time>
      </trkpt>
      <trkpt lat="48.64477" lon="1.90736">
        <ele>172</ele>
        <time>2011-11-14T11:57:56Z</time>
      </trkpt>
      <trkpt lat="48.64523" lon="1.90793">
        <ele>172</ele>
        <time>2011-11-14T11:57:33Z</time>
      </trkpt>
      <trkpt lat="48.64559" lon="1.90835">
        <ele>172</ele>
        <time>2011-11-14T11:57:14Z</time>
      </trkpt>
      <trkpt lat="48.64594" lon="1.90879">
        <ele>172</ele>
        <time>2011-11-14T11:56:56Z</time>
      </trkpt>
      <trkpt lat="48.64629" lon="1.9092">
        <ele>172</ele>
        <time>2011-11-14T11:56:38Z</time>
      </trkpt>
      <trkpt lat="48.64655" lon="1.9095">
        <ele>172</ele>
        <time>2011-11-14T11:56:25Z</time>
      </trkpt>
      <trkpt lat="48.64693" lon="1.90996">
        <ele>171.877731</ele>
        <time>2011-11-14T11:56:06Z</time>
      </trkpt>
      <trkpt lat="48.64721" lon="1.91032">
        <ele>171.351105</ele>
        <time>2011-11-14T11:55:51Z</time>
      </trkpt>
      <trkpt lat="48.64719" lon="1.91067">
        <ele>171</ele>
        <time>2011-11-14T11:55:42Z</time>
      </trkpt>
      <trkpt lat="48.64667" lon="1.91178">
        <ele>171</ele>
        <time>2011-11-14T11:55:06Z</time>
      </trkpt>
      <trkpt lat="48.64652" lon="1.91207">
        <ele>171</ele>
        <time>2011-11-14T11:54:56Z</time>
      </trkpt>
      <trkpt lat="48.64622" lon="1.91271">
        <ele>171</ele>
        <time>2011-11-14T11:54:35Z</time>
      </trkpt>
      <trkpt lat="48.64567" lon="1.91386">
        <ele>170.914063</ele>
        <time>2011-11-14T11:53:58Z</time>
      </trkpt>
      <trkpt lat="48.64584" lon="1.9136">
        <ele>170.906281</ele>
        <time>2011-11-14T11:53:48Z</time>
      </trkpt>
      <trkpt lat="48.6457" lon="1.914">
        <ele>170.591766</ele>
        <time>2011-11-14T11:53:36Z</time>
      </trkpt>
      <trkpt lat="48.6455" lon="1.91441">
        <ele>169.286041</ele>
        <time>2011-11-14T11:53:22Z</time>
      </trkpt>
      <trkpt lat="48.64521" lon="1.91493">
        <ele>167.396942</ele>
        <time>2011-11-14T11:53:04Z</time>
      </trkpt>
      <trkpt lat="48.64514" lon="1.91571">
        <ele>170.795532</ele>
        <time>2011-11-14T11:52:43Z</time>
      </trkpt>
      <trkpt lat="48.64511" lon="1.91699">
        <ele>171.494141</ele>
        <time>2011-11-14T11:52:10Z</time>
      </trkpt>
      <trkpt lat="48.64506" lon="1.91762">
        <ele>170.352554</ele>
        <time>2011-11-14T11:51:53Z</time>
      </trkpt>
      <trkpt lat="48.64518" lon="1.91836">
        <ele>169.714874</ele>
        <time>2011-11-14T11:51:33Z</time>
      </trkpt>
      <trkpt lat="48.64533" lon="1.91881">
        <ele>169.89679</ele>
        <time>2011-11-14T11:51:19Z</time>
      </trkpt>
      <trkpt lat="48.64545" lon="1.91913">
        <ele>170.41098</ele>
        <time>2011-11-14T11:51:10Z</time>
      </trkpt>
      <trkpt lat="48.64563" lon="1.9197">
        <ele>171</ele>
        <time>2011-11-14T11:50:53Z</time>
      </trkpt>
      <trkpt lat="48.6461" lon="1.92093">
        <ele>168.888855</ele>
        <time>2011-11-14T11:50:15Z</time>
      </trkpt>
      <trkpt lat="48.64627" lon="1.92157">
        <ele>169.058609</ele>
        <time>2011-11-14T11:49:57Z</time>
      </trkpt>
      <trkpt lat="48.64637" lon="1.92187">
        <ele>169.462021</ele>
        <time>2011-11-14T11:49:48Z</time>
      </trkpt>
      <trkpt lat="48.64659" lon="1.92245">
        <ele>170.111313</ele>
        <time>2011-11-14T11:49:31Z</time>
      </trkpt>
      <trkpt lat="48.64678" lon="1.92301">
        <ele>169.869156</ele>
        <time>2011-11-14T11:49:14Z</time>
      </trkpt>
      <trkpt lat="48.64701" lon="1.92365">
        <ele>169.700653</ele>
        <time>2011-11-14T11:48:55Z</time>
      </trkpt>
      <trkpt lat="48.64702" lon="1.92408">
        <ele>169.064041</ele>
        <time>2011-11-14T11:48:43Z</time>
      </trkpt>
      <trkpt lat="48.64681" lon="1.92455">
        <ele>167.935638</ele>
        <time>2011-11-14T11:48:28Z</time>
      </trkpt>
      <trkpt lat="48.64651" lon="1.92524">
        <ele>167.336319</ele>
        <time>2011-11-14T11:48:06Z</time>
      </trkpt>
      <trkpt lat="48.64638" lon="1.92549">
        <ele>166.992905</ele>
        <time>2011-11-14T11:47:58Z</time>
      </trkpt>
      <trkpt lat="48.64607" lon="1.92624">
        <ele>166.955566</ele>
        <time>2011-11-14T11:47:35Z</time>
      </trkpt>
      <trkpt lat="48.64594" lon="1.92654">
        <ele>166.867416</ele>
        <time>2011-11-14T11:47:25Z</time>
      </trkpt>
      <trkpt lat="48.6457" lon="1.92701">
        <ele>165.916931</ele>
        <time>2011-11-14T11:47:09Z</time>
      </trkpt>
      <trkpt lat="48.64551" lon="1.92745">
        <ele>163.742935</ele>
        <time>2011-11-14T11:46:56Z</time>
      </trkpt>
      <trkpt lat="48.64521" lon="1.92804">
        <ele>157.913956</ele>
        <time>2011-11-14T11:46:36Z</time>
      </trkpt>
      <trkpt lat="48.64513" lon="1.92826">
        <ele>156.415955</ele>
        <time>2011-11-14T11:46:29Z</time>
      </trkpt>
      <trkpt lat="48.645" lon="1.92871">
        <ele>154.059814</ele>
        <time>2011-11-14T11:46:16Z</time>
      </trkpt>
      <trkpt lat="48.64477" lon="1.92916">
        <ele>150.275482</ele>
        <time>2011-11-14T11:46:01Z</time>
      </trkpt>
      <trkpt lat="48.6443" lon="1.93015">
        <ele>145.368057</ele>
        <time>2011-11-14T11:45:29Z</time>
      </trkpt>
      <trkpt lat="48.64412" lon="1.93065">
        <ele>146.195969</ele>
        <time>2011-11-14T11:45:14Z</time>
      </trkpt>
      <trkpt lat="48.64411" lon="1.93144">
        <ele>146.478271</ele>
        <time>2011-11-14T11:44:53Z</time>
      </trkpt>
      <trkpt lat="48.64399" lon="1.93217">
        <ele>144.914185</ele>
        <time>2011-11-14T11:44:33Z</time>
      </trkpt>
      <trkpt lat="48.64396" lon="1.93266">
        <ele>143.589905</ele>
        <time>2011-11-14T11:44:20Z</time>
      </trkpt>
      <trkpt lat="48.6439" lon="1.93338">
        <ele>142.584534</ele>
        <time>2011-11-14T11:44:01Z</time>
      </trkpt>
      <trkpt lat="48.64377" lon="1.93425">
        <ele>142.043869</ele>
        <time>2011-11-14T11:43:37Z</time>
      </trkpt>
      <trkpt lat="48.64256" lon="1.93454">
        <ele>144.335205</ele>
        <time>2009-03-29T09:05:20Z</time>
      </trkpt>
      <trkpt lat="48.64281" lon="1.93469">
        <ele>143.373657</ele>
        <time>2009-03-29T09:05:25Z</time>
      </trkpt>
      <trkpt lat="48.64319" lon="1.9349">
        <ele>141.45105</ele>
        <time>2009-03-29T09:05:32Z</time>
      </trkpt>
      <trkpt lat="48.64336" lon="1.93494">
        <ele>139.047852</ele>
        <time>2009-03-29T09:05:37Z</time>
      </trkpt>
      <trkpt lat="48.64355" lon="1.93471">
        <ele>140.009155</ele>
        <time>2009-03-29T09:05:49Z</time>
      </trkpt>
      <trkpt lat="48.64379" lon="1.93454">
        <ele>139.528442</ele>
        <time>2009-03-29T09:05:56Z</time>
      </trkpt>
      <trkpt lat="48.64393" lon="1.93489">
        <ele>139.047852</ele>
        <time>2009-03-29T09:06:04Z</time>
      </trkpt>
      <trkpt lat="48.64392" lon="1.93496">
        <ele>140.009155</ele>
        <time>2009-03-29T09:06:05Z</time>
      </trkpt>
      <trkpt lat="48.64371" lon="1.93548">
        <ele>137.605835</ele>
        <time>2009-03-29T09:06:15Z</time>
      </trkpt>
      <trkpt lat="48.64362" lon="1.93567">
        <ele>137.605835</ele>
        <time>2009-03-29T09:06:19Z</time>
      </trkpt>
      <trkpt lat="48.64347" lon="1.93618">
        <ele>137.125244</ele>
        <time>2009-03-29T09:06:30Z</time>
      </trkpt>
      <trkpt lat="48.64347" lon="1.93621">
        <ele>138.567261</ele>
        <time>2009-03-29T09:06:31Z</time>
      </trkpt>
      <trkpt lat="48.64343" lon="1.93636">
        <ele>138.567261</ele>
        <time>2009-03-29T09:06:36Z</time>
      </trkpt>
      <trkpt lat="48.64343" lon="1.93664">
        <ele>138.086548</ele>
        <time>2009-03-29T09:06:43Z</time>
      </trkpt>
      <trkpt lat="48.64341" lon="1.93683">
        <ele>138.086548</ele>
        <time>2009-03-29T09:06:47Z</time>
      </trkpt>
      <trkpt lat="48.64344" lon="1.93746">
        <ele>137.125244</ele>
        <time>2009-03-29T09:06:57Z</time>
      </trkpt>
      <trkpt lat="48.64344" lon="1.93754">
        <ele>137.125244</ele>
        <time>2009-03-29T09:06:58Z</time>
      </trkpt>
      <trkpt lat="48.64344" lon="1.93767">
        <ele>137.605835</ele>
        <time>2009-03-29T09:07:00Z</time>
      </trkpt>
      <trkpt lat="48.64341" lon="1.93798">
        <ele>136.16394</ele>
        <time>2009-03-29T09:07:04Z</time>
      </trkpt>
      <trkpt lat="48.64337" lon="1.93828">
        <ele>135.683105</ele>
        <time>2009-03-29T09:07:08Z</time>
      </trkpt>
      <trkpt lat="48.64339" lon="1.93876">
        <ele>134.241211</ele>
        <time>2009-03-29T09:07:14Z</time>
      </trkpt>
      <trkpt lat="48.64338" lon="1.93892">
        <ele>134.721924</ele>
        <time>2009-03-29T09:07:16Z</time>
      </trkpt>
      <trkpt lat="48.64338" lon="1.93909">
        <ele>134.241211</ele>
        <time>2009-03-29T09:07:18Z</time>
      </trkpt>
      <trkpt lat="48.64337" lon="1.93931">
        <ele>134.241211</ele>
        <time>2009-03-29T09:07:21Z</time>
      </trkpt>
      <trkpt lat="48.64342" lon="1.93975">
        <ele>133.279907</ele>
        <time>2009-03-29T09:07:27Z</time>
      </trkpt>
      <trkpt lat="48.64346" lon="1.94025">
        <ele>133.760498</ele>
        <time>2009-03-29T09:07:34Z</time>
      </trkpt>
      <trkpt lat="48.64341" lon="1.94047">
        <ele>132.318604</ele>
        <time>2009-03-29T09:07:37Z</time>
      </trkpt>
      <trkpt lat="48.64334" lon="1.94071">
        <ele>131.3573</ele>
        <time>2009-03-29T09:07:41Z</time>
      </trkpt>
      <trkpt lat="48.64309" lon="1.94074">
        <ele>131.3573</ele>
        <time>2009-03-29T09:07:49Z</time>
      </trkpt>
      <trkpt lat="48.64303" lon="1.94086">
        <ele>130.876709</ele>
        <time>2009-03-29T09:07:52Z</time>
      </trkpt>
      <trkpt lat="48.64291" lon="1.94165">
        <ele>130.876709</ele>
        <time>2009-03-29T09:08:04Z</time>
      </trkpt>
      <trkpt lat="48.64283" lon="1.94216">
        <ele>130.395996</ele>
        <time>2009-03-29T09:08:12Z</time>
      </trkpt>
      <trkpt lat="48.64281" lon="1.94275">
        <ele>129.915283</ele>
        <time>2009-03-29T09:08:20Z</time>
      </trkpt>
      <trkpt lat="48.64284" lon="1.9433">
        <ele>130.395996</ele>
        <time>2009-03-29T09:08:28Z</time>
      </trkpt>
      <trkpt lat="48.64283" lon="1.94353">
        <ele>130.395996</ele>
        <time>2009-03-29T09:08:31Z</time>
      </trkpt>
      <trkpt lat="48.64282" lon="1.94367">
        <ele>129.434692</ele>
        <time>2009-03-29T09:08:33Z</time>
      </trkpt>
      <trkpt lat="48.64283" lon="1.94397">
        <ele>128.954102</ele>
        <time>2009-03-29T09:08:37Z</time>
      </trkpt>
      <trkpt lat="48.64291" lon="1.94464">
        <ele>128.954102</ele>
        <time>2009-03-29T09:08:47Z</time>
      </trkpt>
      <trkpt lat="48.64301" lon="1.94522">
        <ele>128.954102</ele>
        <time>2009-03-29T09:08:54Z</time>
      </trkpt>
      <trkpt lat="48.64305" lon="1.94565">
        <ele>128.954102</ele>
        <time>2009-03-29T09:09:01Z</time>
      </trkpt>
      <trkpt lat="48.64295" lon="1.94602">
        <ele>129.434692</ele>
        <time>2009-03-29T09:09:08Z</time>
      </trkpt>
      <trkpt lat="48.64286" lon="1.94631">
        <ele>128.954102</ele>
        <time>2009-03-29T09:09:13Z</time>
      </trkpt>
      <trkpt lat="48.64283" lon="1.94642">
        <ele>128.954102</ele>
        <time>2009-03-29T09:09:15Z</time>
      </trkpt>
      <trkpt lat="48.64279" lon="1.94662">
        <ele>127.992554</ele>
        <time>2009-03-29T09:09:18Z</time>
      </trkpt>
      <trkpt lat="48.64282" lon="1.94686">
        <ele>128.954102</ele>
        <time>2009-03-29T09:09:23Z</time>
      </trkpt>
      <trkpt lat="48.64295" lon="1.94707">
        <ele>130.395996</ele>
        <time>2009-03-29T09:09:33Z</time>
      </trkpt>
      <trkpt lat="48.64305" lon="1.94724">
        <ele>133.279907</ele>
        <time>2009-03-29T09:09:45Z</time>
      </trkpt>
      <trkpt lat="48.64309" lon="1.94731">
        <ele>135.202515</ele>
        <time>2009-03-29T09:09:49Z</time>
      </trkpt>
      <trkpt lat="48.6431" lon="1.94734">
        <ele>135.202515</ele>
        <time>2009-03-29T09:09:51Z</time>
      </trkpt>
      <trkpt lat="48.64319" lon="1.94747">
        <ele>137.605835</ele>
        <time>2009-03-29T09:10:01Z</time>
      </trkpt>
      <trkpt lat="48.64334" lon="1.94762">
        <ele>140.970459</ele>
        <time>2009-03-29T09:10:19Z</time>
      </trkpt>
      <trkpt lat="48.64341" lon="1.94769">
        <ele>144.335205</ele>
        <time>2009-03-29T09:10:33Z</time>
      </trkpt>
      <trkpt lat="48.64357" lon="1.94786">
        <ele>145.296387</ele>
        <time>2009-03-29T09:10:50Z</time>
      </trkpt>
      <trkpt lat="48.64359" lon="1.94787">
        <ele>146.257812</ele>
        <time>2009-03-29T09:10:52Z</time>
      </trkpt>
      <trkpt lat="48.64374" lon="1.94803">
        <ele>147.218994</ele>
        <time>2009-03-29T09:11:07Z</time>
      </trkpt>
      <trkpt lat="48.64399" lon="1.94825">
        <ele>147.699707</ele>
        <time>2009-03-29T09:11:20Z</time>
      </trkpt>
      <trkpt lat="48.64424" lon="1.94848">
        <ele>148.18042</ele>
        <time>2009-03-29T09:11:31Z</time>
      </trkpt>
      <trkpt lat="48.64434" lon="1.94856">
        <ele>150.103027</ele>
        <time>2009-03-29T09:11:37Z</time>
      </trkpt>
      <trkpt lat="48.64446" lon="1.94864">
        <ele>150.103027</ele>
        <time>2009-03-29T09:11:42Z</time>
      </trkpt>
      <trkpt lat="48.6447" lon="1.94883">
        <ele>146.257812</ele>
        <time>2009-03-29T09:11:49Z</time>
      </trkpt>
      <trkpt lat="48.64481" lon="1.94887">
        <ele>146.257812</ele>
        <time>2009-03-29T09:11:52Z</time>
      </trkpt>
      <trkpt lat="48.64487" lon="1.94879">
        <ele>149.622314</ele>
        <time>2009-03-29T09:11:58Z</time>
      </trkpt>
      <trkpt lat="48.64494" lon="1.9486">
        <ele>151.544922</ele>
        <time>2009-03-29T09:12:12Z</time>
      </trkpt>
      <trkpt lat="48.64499" lon="1.94851">
        <ele>154.428955</ele>
        <time>2009-03-29T09:12:20Z</time>
      </trkpt>
      <trkpt lat="48.64505" lon="1.9484">
        <ele>158.27417</ele>
        <time>2009-03-29T09:12:30Z</time>
      </trkpt>
      <trkpt lat="48.6451" lon="1.94826">
        <ele>161.158203</ele>
        <time>2009-03-29T09:12:41Z</time>
      </trkpt>
      <trkpt lat="48.64512" lon="1.94822">
        <ele>161.638916</ele>
        <time>2009-03-29T09:12:45Z</time>
      </trkpt>
      <trkpt lat="48.6452" lon="1.94806">
        <ele>163.561523</ele>
        <time>2009-03-29T09:13:00Z</time>
      </trkpt>
      <trkpt lat="48.64527" lon="1.94787">
        <ele>166.445312</ele>
        <time>2009-03-29T09:13:15Z</time>
      </trkpt>
      <trkpt lat="48.64535" lon="1.94767">
        <ele>167.887329</ele>
        <time>2009-03-29T09:13:29Z</time>
      </trkpt>
      <trkpt lat="48.64548" lon="1.94745">
        <ele>169.810059</ele>
        <time>2009-03-29T09:13:40Z</time>
      </trkpt>
      <trkpt lat="48.64568" lon="1.94702">
        <ele>170.290649</ele>
        <time>2009-03-29T09:13:52Z</time>
      </trkpt>
      <trkpt lat="48.64591" lon="1.94647">
        <ele>170.771362</ele>
        <time>2009-03-29T09:14:05Z</time>
      </trkpt>
      <trkpt lat="48.64614" lon="1.94595">
        <ele>170.771362</ele>
        <time>2009-03-29T09:14:18Z</time>
      </trkpt>
      <trkpt lat="48.64637" lon="1.94541">
        <ele>171.252075</ele>
        <time>2009-03-29T09:14:30Z</time>
      </trkpt>
      <trkpt lat="48.64656" lon="1.94497">
        <ele>171.252075</ele>
        <time>2009-03-29T09:14:40Z</time>
      </trkpt>
      <trkpt lat="48.64674" lon="1.9445">
        <ele>170.771362</ele>
        <time>2009-03-29T09:14:50Z</time>
      </trkpt>
      <trkpt lat="48.64693" lon="1.94408">
        <ele>171.252075</ele>
        <time>2009-03-29T09:15:00Z</time>
      </trkpt>
      <trkpt lat="48.64715" lon="1.94352">
        <ele>170.771362</ele>
        <time>2009-03-29T09:15:13Z</time>
      </trkpt>
      <trkpt lat="48.64734" lon="1.94307">
        <ele>171.252075</ele>
        <time>2009-03-29T09:15:24Z</time>
      </trkpt>
      <trkpt lat="48.64754" lon="1.94263">
        <ele>171.252075</ele>
        <time>2009-03-29T09:15:34Z</time>
      </trkpt>
      <trkpt lat="48.64781" lon="1.94202">
        <ele>170.771362</ele>
        <time>2009-03-29T09:15:46Z</time>
      </trkpt>
      <trkpt lat="48.64802" lon="1.94152">
        <ele>171.252075</ele>
        <time>2009-03-29T09:15:56Z</time>
      </trkpt>
      <trkpt lat="48.64841" lon="1.94069">
        <ele>168.848755</ele>
        <time>2009-03-29T09:16:11Z</time>
      </trkpt>
      <trkpt lat="48.64866" lon="1.94012">
        <ele>168.368042</ele>
        <time>2009-03-29T09:16:21Z</time>
      </trkpt>
      <trkpt lat="48.6488" lon="1.94007">
        <ele>168.848755</ele>
        <time>2009-03-29T09:16:25Z</time>
      </trkpt>
      <trkpt lat="48.64892" lon="1.94019">
        <ele>167.887329</ele>
        <time>2009-03-29T09:16:28Z</time>
      </trkpt>
      <trkpt lat="48.64928" lon="1.94056">
        <ele>164.522705</ele>
        <time>2009-03-29T09:16:36Z</time>
      </trkpt>
      <trkpt lat="48.64954" lon="1.94087">
        <ele>162.600098</ele>
        <time>2009-03-29T09:16:46Z</time>
      </trkpt>
      <trkpt lat="48.64981" lon="1.94114">
        <ele>160.196899</ele>
        <time>2009-03-29T09:16:56Z</time>
      </trkpt>
      <trkpt lat="48.64994" lon="1.9413">
        <ele>158.754761</ele>
        <time>2009-03-29T09:17:00Z</time>
      </trkpt>
      <trkpt lat="48.65013" lon="1.9415">
        <ele>156.351562</ele>
        <time>2009-03-29T09:17:06Z</time>
      </trkpt>
      <trkpt lat="48.65021" lon="1.9416">
        <ele>155.390259</ele>
        <time>2009-03-29T09:17:09Z</time>
      </trkpt>
      <trkpt lat="48.65037" lon="1.94181">
        <ele>152.506348</ele>
        <time>2009-03-29T09:17:13Z</time>
      </trkpt>
      <trkpt lat="48.65058" lon="1.94206">
        <ele>150.103027</ele>
        <time>2009-03-29T09:17:19Z</time>
      </trkpt>
      <trkpt lat="48.65075" lon="1.94231">
        <ele>148.661011</ele>
        <time>2009-03-29T09:17:24Z</time>
      </trkpt>
      <trkpt lat="48.6508" lon="1.9424">
        <ele>147.218994</ele>
        <time>2009-03-29T09:17:32Z</time>
      </trkpt>
      <trkpt lat="48.65086" lon="1.94242">
        <ele>147.218994</ele>
        <time>2009-03-29T09:17:39Z</time>
      </trkpt>
      <trkpt lat="48.65106" lon="1.94253">
        <ele>148.18042</ele>
        <time>2009-03-29T09:23:51Z</time>
      </trkpt>
      <trkpt lat="48.65134" lon="1.94283">
        <ele>146.738403</ele>
        <time>2009-03-29T09:24:01Z</time>
      </trkpt>
      <trkpt lat="48.6517" lon="1.94319">
        <ele>143.373657</ele>
        <time>2009-03-29T09:24:11Z</time>
      </trkpt>
      <trkpt lat="48.65202" lon="1.94355">
        <ele>142.412476</ele>
        <time>2009-03-29T09:24:22Z</time>
      </trkpt>
      <trkpt lat="48.65237" lon="1.94402">
        <ele>140.970459</ele>
        <time>2009-03-29T09:24:33Z</time>
      </trkpt>
      <trkpt lat="48.65251" lon="1.94417">
        <ele>140.970459</ele>
        <time>2009-03-29T09:24:40Z</time>
      </trkpt>
      <trkpt lat="48.65253" lon="1.94423">
        <ele>140.970459</ele>
        <time>2009-03-29T09:24:45Z</time>
      </trkpt>
      <trkpt lat="48.65264" lon="1.94413">
        <ele>141.45105</ele>
        <time>2009-03-29T09:24:50Z</time>
      </trkpt>
      <trkpt lat="48.65322" lon="1.94279">
        <ele>143.373657</ele>
        <time>2009-03-29T09:25:11Z</time>
      </trkpt>
      <trkpt lat="48.65347" lon="1.94277">
        <ele>140.970459</ele>
        <time>2009-03-29T09:25:17Z</time>
      </trkpt>
      <trkpt lat="48.65354" lon="1.94288">
        <ele>141.45105</ele>
        <time>2009-03-29T09:25:19Z</time>
      </trkpt>
      <trkpt lat="48.6536" lon="1.943">
        <ele>141.45105</ele>
        <time>2009-03-29T09:25:21Z</time>
      </trkpt>
      <trkpt lat="48.65366" lon="1.94311">
        <ele>141.931763</ele>
        <time>2009-03-29T09:25:23Z</time>
      </trkpt>
      <trkpt lat="48.65378" lon="1.9433">
        <ele>141.931763</ele>
        <time>2009-03-29T09:25:27Z</time>
      </trkpt>
      <trkpt lat="48.65408" lon="1.94341">
        <ele>143.373657</ele>
        <time>2009-03-29T09:25:37Z</time>
      </trkpt>
      <trkpt lat="48.65437" lon="1.94333">
        <ele>145.7771</ele>
        <time>2009-03-29T09:25:50Z</time>
      </trkpt>
      <trkpt lat="48.65462" lon="1.94331">
        <ele>148.661011</ele>
        <time>2009-03-29T09:26:02Z</time>
      </trkpt>
      <trkpt lat="48.65482" lon="1.94327">
        <ele>150.103027</ele>
        <time>2009-03-29T09:26:13Z</time>
      </trkpt>
      <trkpt lat="48.65496" lon="1.94323">
        <ele>153.467651</ele>
        <time>2009-03-29T09:26:22Z</time>
      </trkpt>
      <trkpt lat="48.65504" lon="1.9432">
        <ele>154.909546</ele>
        <time>2009-03-29T09:26:28Z</time>
      </trkpt>
      <trkpt lat="48.65527" lon="1.94322">
        <ele>155.870972</ele>
        <time>2009-03-29T09:26:44Z</time>
      </trkpt>
      <trkpt lat="48.65534" lon="1.94333">
        <ele>156.351562</ele>
        <time>2009-03-29T09:26:51Z</time>
      </trkpt>
      <trkpt lat="48.65536" lon="1.94341">
        <ele>157.793579</ele>
        <time>2009-03-29T09:26:55Z</time>
      </trkpt>
      <trkpt lat="48.65536" lon="1.94349">
        <ele>158.754761</ele>
        <time>2009-03-29T09:26:59Z</time>
      </trkpt>
      <trkpt lat="48.65538" lon="1.94371">
        <ele>162.600098</ele>
        <time>2009-03-29T09:27:11Z</time>
      </trkpt>
      <trkpt lat="48.65539" lon="1.94396">
        <ele>165.484131</ele>
        <time>2009-03-29T09:27:23Z</time>
      </trkpt>
      <trkpt lat="48.6554" lon="1.94407">
        <ele>166.926025</ele>
        <time>2009-03-29T09:27:31Z</time>
      </trkpt>
      <trkpt lat="48.65545" lon="1.94433">
        <ele>168.848755</ele>
        <time>2009-03-29T09:27:47Z</time>
      </trkpt>
      <trkpt lat="48.65554" lon="1.94462">
        <ele>171.252075</ele>
        <time>2009-03-29T09:28:00Z</time>
      </trkpt>
      <trkpt lat="48.65574" lon="1.94492">
        <ele>172.69397</ele>
        <time>2009-03-29T09:28:13Z</time>
      </trkpt>
      <trkpt lat="48.65601" lon="1.94492">
        <ele>173.174683</ele>
        <time>2009-03-29T09:28:23Z</time>
      </trkpt>
      <trkpt lat="48.65644" lon="1.9448">
        <ele>173.174683</ele>
        <time>2009-03-29T09:28:35Z</time>
      </trkpt>
      <trkpt lat="48.65681" lon="1.94485">
        <ele>174.135864</ele>
        <time>2009-03-29T09:28:46Z</time>
      </trkpt>
      <trkpt lat="48.65703" lon="1.94542">
        <ele>173.655273</ele>
        <time>2009-03-29T09:28:58Z</time>
      </trkpt>
      <trkpt lat="48.65718" lon="1.94582">
        <ele>174.616577</ele>
        <time>2009-03-29T09:29:06Z</time>
      </trkpt>
      <trkpt lat="48.65731" lon="1.94581">
        <ele>174.135864</ele>
        <time>2009-03-29T09:29:10Z</time>
      </trkpt>
      <trkpt lat="48.65784" lon="1.94553">
        <ele>174.616577</ele>
        <time>2009-03-29T09:29:26Z</time>
      </trkpt>
      <trkpt lat="48.65814" lon="1.94632">
        <ele>175.09729</ele>
        <time>2009-03-29T09:29:42Z</time>
      </trkpt>
      <trkpt lat="48.65819" lon="1.94648">
        <ele>174.616577</ele>
        <time>2009-03-29T09:29:45Z</time>
      </trkpt>
      <trkpt lat="48.65821" lon="1.94759">
        <ele>175.09729</ele>
        <time>2009-03-29T09:30:03Z</time>
      </trkpt>
      <trkpt lat="48.65818" lon="1.9485">
        <ele>175.09729</ele>
        <time>2009-03-29T09:30:18Z</time>
      </trkpt>
      <trkpt lat="48.6586" lon="1.94968">
        <ele>176.058594</ele>
        <time>2009-03-29T09:30:38Z</time>
      </trkpt>
      <trkpt lat="48.65921" lon="1.95126">
        <ele>175.09729</ele>
        <time>2009-03-29T09:31:03Z</time>
      </trkpt>
      <trkpt lat="48.6598" lon="1.95274">
        <ele>176.058594</ele>
        <time>2009-03-29T09:31:25Z</time>
      </trkpt>
      <trkpt lat="48.66043" lon="1.9534">
        <ele>175.09729</ele>
        <time>2009-03-29T09:31:41Z</time>
      </trkpt>
      <trkpt lat="48.66048" lon="1.95344">
        <ele>175.09729</ele>
        <time>2009-03-29T09:31:42Z</time>
      </trkpt>
      <trkpt lat="48.66135" lon="1.95377">
        <ele>174.616577</ele>
        <time>2009-03-29T09:32:02Z</time>
      </trkpt>
      <trkpt lat="48.66239" lon="1.95424">
        <ele>174.135864</ele>
        <time>2009-03-29T09:32:29Z</time>
      </trkpt>
      <trkpt lat="48.6634" lon="1.95479">
        <ele>172.213257</ele>
        <time>2009-03-29T09:32:54Z</time>
      </trkpt>
      <trkpt lat="48.66449" lon="1.95538">
        <ele>169.329468</ele>
        <time>2009-03-29T09:33:20Z</time>
      </trkpt>
      <trkpt lat="48.66576" lon="1.9561">
        <ele>167.887329</ele>
        <time>2009-03-29T09:33:49Z</time>
      </trkpt>
      <trkpt lat="48.66624" lon="1.95636">
        <ele>168.848755</ele>
        <time>2009-03-29T09:34:03Z</time>
      </trkpt>
      <trkpt lat="48.66668" lon="1.95655">
        <ele>170.771362</ele>
        <time>2009-03-29T09:34:21Z</time>
      </trkpt>
      <trkpt lat="48.66712" lon="1.95667">
        <ele>171.252075</ele>
        <time>2009-03-29T09:34:36Z</time>
      </trkpt>
      <trkpt lat="48.66754" lon="1.95642">
        <ele>171.252075</ele>
        <time>2009-03-29T09:34:51Z</time>
      </trkpt>
      <trkpt lat="48.66806" lon="1.95622">
        <ele>169.810059</ele>
        <time>2009-03-29T09:35:08Z</time>
      </trkpt>
      <trkpt lat="48.66858" lon="1.95601">
        <ele>169.810059</ele>
        <time>2009-03-29T09:35:24Z</time>
      </trkpt>
      <trkpt lat="48.66912" lon="1.95583">
        <ele>169.329468</ele>
        <time>2009-03-29T09:35:42Z</time>
      </trkpt>
      <trkpt lat="48.66923" lon="1.95609">
        <ele>169.329468</ele>
        <time>2009-03-29T09:35:52Z</time>
      </trkpt>
      <trkpt lat="48.66933" lon="1.95659">
        <ele>169.810059</ele>
        <time>2009-03-29T09:36:01Z</time>
      </trkpt>
      <trkpt lat="48.66955" lon="1.95667">
        <ele>170.290649</ele>
        <time>2009-03-29T09:36:07Z</time>
      </trkpt>
      <trkpt lat="48.66969" lon="1.95661">
        <ele>170.771362</ele>
        <time>2009-03-29T09:36:10Z</time>
      </trkpt>
      <trkpt lat="48.67021" lon="1.95651">
        <ele>169.329468</ele>
        <time>2009-03-29T09:36:22Z</time>
      </trkpt>
      <trkpt lat="48.67028" lon="1.95636">
        <ele>167.887329</ele>
        <time>2009-03-29T09:36:26Z</time>
      </trkpt>
      <trkpt lat="48.67045" lon="1.95622">
        <ele>167.406738</ele>
        <time>2009-03-29T09:36:31Z</time>
      </trkpt>
      <trkpt lat="48.67061" lon="1.95613">
        <ele>166.445312</ele>
        <time>2009-03-29T09:36:35Z</time>
      </trkpt>
      <trkpt lat="48.67075" lon="1.9561">
        <ele>166.445312</ele>
        <time>2009-03-29T09:36:38Z</time>
      </trkpt>
      <trkpt lat="48.67104" lon="1.95612">
        <ele>163.561523</ele>
        <time>2009-03-29T09:36:45Z</time>
      </trkpt>
      <trkpt lat="48.67108" lon="1.95612">
        <ele>163.080811</ele>
        <time>2009-03-29T09:36:46Z</time>
      </trkpt>
      <trkpt lat="48.67125" lon="1.95622">
        <ele>161.158203</ele>
        <time>2009-03-29T09:36:50Z</time>
      </trkpt>
      <trkpt lat="48.67135" lon="1.95627">
        <ele>160.196899</ele>
        <time>2009-03-29T09:36:53Z</time>
      </trkpt>
      <trkpt lat="48.67143" lon="1.9563">
        <ele>157.793579</ele>
        <time>2009-03-29T09:36:55Z</time>
      </trkpt>
      <trkpt lat="48.6715" lon="1.95633">
        <ele>156.351562</ele>
        <time>2009-03-29T09:36:57Z</time>
      </trkpt>
      <trkpt lat="48.67173" lon="1.95644">
        <ele>154.909546</ele>
        <time>2009-03-29T09:37:04Z</time>
      </trkpt>
      <trkpt lat="48.67198" lon="1.95674">
        <ele>152.025757</ele>
        <time>2009-03-29T09:37:11Z</time>
      </trkpt>
      <trkpt lat="48.67205" lon="1.95683">
        <ele>151.064209</ele>
        <time>2009-03-29T09:37:13Z</time>
      </trkpt>
      <trkpt lat="48.67215" lon="1.95699">
        <ele>149.622314</ele>
        <time>2009-03-29T09:37:16Z</time>
      </trkpt>
      <trkpt lat="48.67237" lon="1.95731">
        <ele>147.699707</ele>
        <time>2009-03-29T09:37:22Z</time>
      </trkpt>
      <trkpt lat="48.67238" lon="1.95733">
        <ele>146.738403</ele>
        <time>2009-03-29T09:37:24Z</time>
      </trkpt>
      <trkpt lat="48.67249" lon="1.95744">
        <ele>146.257812</ele>
        <time>2009-03-29T09:37:29Z</time>
      </trkpt>
      <trkpt lat="48.67273" lon="1.95775">
        <ele>142.412476</ele>
        <time>2009-03-29T09:37:35Z</time>
      </trkpt>
      <trkpt lat="48.67292" lon="1.95792">
        <ele>140.009155</ele>
        <time>2009-03-29T09:37:38Z</time>
      </trkpt>
      <trkpt lat="48.67313" lon="1.95804">
        <ele>136.644653</ele>
        <time>2009-03-29T09:37:41Z</time>
      </trkpt>
      <trkpt lat="48.67338" lon="1.95822">
        <ele>131.837891</ele>
        <time>2009-03-29T09:37:45Z</time>
      </trkpt>
      <trkpt lat="48.67349" lon="1.95836">
        <ele>130.395996</ele>
        <time>2009-03-29T09:37:47Z</time>
      </trkpt>
      <trkpt lat="48.67367" lon="1.95862">
        <ele>128.473389</ele>
        <time>2009-03-29T09:37:50Z</time>
      </trkpt>
      <trkpt lat="48.67373" lon="1.9587">
        <ele>127.031372</ele>
        <time>2009-03-29T09:37:51Z</time>
      </trkpt>
      <trkpt lat="48.67394" lon="1.95892">
        <ele>126.069946</ele>
        <time>2009-03-29T09:37:54Z</time>
      </trkpt>
      <trkpt lat="48.6742" lon="1.95918">
        <ele>123.186157</ele>
        <time>2009-03-29T09:37:58Z</time>
      </trkpt>
      <trkpt lat="48.67425" lon="1.95923">
        <ele>122.705444</ele>
        <time>2009-03-29T09:37:59Z</time>
      </trkpt>
      <trkpt lat="48.67427" lon="1.95947">
        <ele>120.302124</ele>
        <time>2009-03-29T09:38:02Z</time>
      </trkpt>
      <trkpt lat="48.67419" lon="1.95984">
        <ele>119.34082</ele>
        <time>2009-03-29T09:38:06Z</time>
      </trkpt>
      <trkpt lat="48.67415" lon="1.96009">
        <ele>123.5625</ele>
      </trkpt>
      <trkpt lat="48.67418" lon="1.96009">
        <ele>123.3671875</ele>
      </trkpt>
      <trkpt lat="48.6744" lon="1.96032">
        <ele>122.1328125</ele>
      </trkpt>
      <trkpt lat="48.67453" lon="1.9606">
        <ele>120.921875</ele>
      </trkpt>
      <trkpt lat="48.67485" lon="1.96091">
        <ele>119.65625</ele>
      </trkpt>
      <trkpt lat="48.67484" lon="1.96091">
        <ele>119.7265625</ele>
      </trkpt>
      <trkpt lat="48.67518" lon="1.96119">
        <ele>118.7851563</ele>
      </trkpt>
      <trkpt lat="48.67518" lon="1.96118">
        <ele>118.7265625</ele>
      </trkpt>
      <trkpt lat="48.67518" lon="1.96118">
        <ele>118.7265625</ele>
      </trkpt>
      <trkpt lat="48.67574" lon="1.96118">
        <ele>116.0976563</ele>
      </trkpt>
      <trkpt lat="48.67631" lon="1.96134">
        <ele>114.8632813</ele>
      </trkpt>
      <trkpt lat="48.67673" lon="1.96138">
        <ele>116.7265625</ele>
      </trkpt>
      <trkpt lat="48.67693" lon="1.9609">
        <ele>119.875</ele>
      </trkpt>
      <trkpt lat="48.67712" lon="1.96014">
        <ele>121.5195313</ele>
      </trkpt>
      <trkpt lat="48.67736" lon="1.95978">
        <ele>125.4101563</ele>
      </trkpt>
      <trkpt lat="48.67786" lon="1.95881">
        <ele>128.5</ele>
      </trkpt>
      <trkpt lat="48.67829" lon="1.95823">
        <ele>133.1757813</ele>
      </trkpt>
      <trkpt lat="48.67861" lon="1.95748">
        <ele>135.6601563</ele>
      </trkpt>
      <trkpt lat="48.67899" lon="1.95692">
        <ele>142.03125</ele>
      </trkpt>
      <trkpt lat="48.67938" lon="1.95633">
        <ele>149.1523438</ele>
      </trkpt>
      <trkpt lat="48.67983" lon="1.95573">
        <ele>154.8867188</ele>
      </trkpt>
      <trkpt lat="48.68003" lon="1.95516">
        <ele>154.3867188</ele>
      </trkpt>
      <trkpt lat="48.68018" lon="1.95435">
        <ele>151.6445313</ele>
      </trkpt>
      <trkpt lat="48.68037" lon="1.95358">
        <ele>153.9296875</ele>
      </trkpt>
      <trkpt lat="48.68065" lon="1.95338">
        <ele>160.0039063</ele>
      </trkpt>
      <trkpt lat="48.68072" lon="1.95335">
        <ele>166.45</ele>
        <time>2011-10-22T12:50:49Z</time>
      </trkpt>
      <trkpt lat="48.68071" lon="1.9534">
        <ele>166.45</ele>
        <time>2011-10-22T12:50:48Z</time>
      </trkpt>
      <trkpt lat="48.6807" lon="1.95344">
        <ele>166.93</ele>
        <time>2011-10-22T12:50:47Z</time>
      </trkpt>
      <trkpt lat="48.68068" lon="1.95346">
        <ele>166.45</ele>
        <time>2011-10-22T12:50:46Z</time>
      </trkpt>
      <trkpt lat="48.68066" lon="1.95349">
        <ele>166.45</ele>
        <time>2011-10-22T12:50:45Z</time>
      </trkpt>
      <trkpt lat="48.6806" lon="1.95366">
        <ele>166.45</ele>
        <time>2011-10-22T12:50:39Z</time>
      </trkpt>
      <trkpt lat="48.68059" lon="1.95384">
        <ele>166.93</ele>
        <time>2011-10-22T12:50:23Z</time>
      </trkpt>
      <trkpt lat="48.68057" lon="1.95393">
        <ele>166.93</ele>
        <time>2011-10-22T12:50:13Z</time>
      </trkpt>
      <trkpt lat="48.68056" lon="1.95396">
        <ele>167.41</ele>
        <time>2011-10-22T12:50:12Z</time>
      </trkpt>
      <trkpt lat="48.68054" lon="1.954">
        <ele>167.41</ele>
        <time>2011-10-22T12:50:11Z</time>
      </trkpt>
      <trkpt lat="48.68053" lon="1.95405">
        <ele>167.89</ele>
        <time>2011-10-22T12:50:10Z</time>
      </trkpt>
      <trkpt lat="48.68051" lon="1.9541">
        <ele>168.37</ele>
        <time>2011-10-22T12:50:09Z</time>
      </trkpt>
      <trkpt lat="48.68048" lon="1.9542">
        <ele>167.89</ele>
        <time>2011-10-22T12:50:07Z</time>
      </trkpt>
      <trkpt lat="48.68047" lon="1.95425">
        <ele>168.37</ele>
        <time>2011-10-22T12:50:06Z</time>
      </trkpt>
      <trkpt lat="48.68044" lon="1.95446">
        <ele>168.85</ele>
        <time>2011-10-22T12:50:02Z</time>
      </trkpt>
      <trkpt lat="48.68044" lon="1.95492">
        <ele>168.37</ele>
        <time>2011-10-22T12:49:52Z</time>
      </trkpt>
      <trkpt lat="48.68043" lon="1.95498">
        <ele>167.89</ele>
        <time>2011-10-22T12:49:51Z</time>
      </trkpt>
      <trkpt lat="48.68041" lon="1.95504">
        <ele>167.41</ele>
        <time>2011-10-22T12:49:50Z</time>
      </trkpt>
      <trkpt lat="48.68031" lon="1.95526">
        <ele>165.96</ele>
        <time>2011-10-22T12:49:47Z</time>
      </trkpt>
      <trkpt lat="48.68021" lon="1.9555">
        <ele>166.45</ele>
        <time>2011-10-22T12:49:44Z</time>
      </trkpt>
      <trkpt lat="48.67998" lon="1.95618">
        <ele>168.85</ele>
        <time>2011-10-22T12:49:36Z</time>
      </trkpt>
      <trkpt lat="48.67995" lon="1.95626">
        <ele>169.33</ele>
        <time>2011-10-22T12:49:35Z</time>
      </trkpt>
      <trkpt lat="48.67987" lon="1.95651">
        <ele>169.81</ele>
        <time>2011-10-22T12:49:32Z</time>
      </trkpt>
      <trkpt lat="48.67985" lon="1.9566">
        <ele>169.33</ele>
        <time>2011-10-22T12:49:31Z</time>
      </trkpt>
      <trkpt lat="48.67984" lon="1.95668">
        <ele>170.29</ele>
        <time>2011-10-22T12:49:30Z</time>
      </trkpt>
      <trkpt lat="48.67981" lon="1.95675">
        <ele>170.29</ele>
        <time>2011-10-22T12:49:29Z</time>
      </trkpt>
      <trkpt lat="48.67978" lon="1.95683">
        <ele>169.81</ele>
        <time>2011-10-22T12:49:28Z</time>
      </trkpt>
      <trkpt lat="48.67975" lon="1.95692">
        <ele>169.33</ele>
        <time>2011-10-22T12:49:27Z</time>
      </trkpt>
      <trkpt lat="48.67965" lon="1.95715">
        <ele>170.77</ele>
        <time>2011-10-22T12:49:24Z</time>
      </trkpt>
      <trkpt lat="48.67962" lon="1.95722">
        <ele>170.77</ele>
        <time>2011-10-22T12:49:23Z</time>
      </trkpt>
      <trkpt lat="48.67959" lon="1.95729">
        <ele>171.73</ele>
        <time>2011-10-22T12:49:22Z</time>
      </trkpt>
      <trkpt lat="48.6795" lon="1.95752">
        <ele>172.21</ele>
        <time>2011-10-22T12:49:19Z</time>
      </trkpt>
      <trkpt lat="48.67949" lon="1.95759">
        <ele>172.21</ele>
        <time>2011-10-22T12:49:18Z</time>
      </trkpt>
      <trkpt lat="48.67938" lon="1.95793">
        <ele>172.69</ele>
        <time>2011-10-22T12:49:12Z</time>
      </trkpt>
      <trkpt lat="48.67912" lon="1.95871">
        <ele>171.25</ele>
        <time>2011-10-22T12:49:00Z</time>
      </trkpt>
      <trkpt lat="48.67881" lon="1.95931">
        <ele>168.85</ele>
        <time>2011-10-22T12:48:49Z</time>
      </trkpt>
      <trkpt lat="48.67866" lon="1.95967">
        <ele>167.89</ele>
        <time>2011-10-22T12:48:43Z</time>
      </trkpt>
      <trkpt lat="48.67856" lon="1.95985">
        <ele>167.41</ele>
        <time>2011-10-22T12:48:40Z</time>
      </trkpt>
      <trkpt lat="48.67853" lon="1.9599">
        <ele>166.93</ele>
        <time>2011-10-22T12:48:39Z</time>
      </trkpt>
      <trkpt lat="48.67843" lon="1.96015">
        <ele>166.93</ele>
        <time>2011-10-22T12:48:35Z</time>
      </trkpt>
      <trkpt lat="48.67822" lon="1.96056">
        <ele>165.96</ele>
        <time>2011-10-22T12:48:29Z</time>
      </trkpt>
      <trkpt lat="48.67819" lon="1.96063">
        <ele>165.48</ele>
        <time>2011-10-22T12:48:28Z</time>
      </trkpt>
      <trkpt lat="48.67817" lon="1.9607">
        <ele>165.48</ele>
        <time>2011-10-22T12:48:27Z</time>
      </trkpt>
      <trkpt lat="48.67814" lon="1.96078">
        <ele>165.96</ele>
        <time>2011-10-22T12:48:26Z</time>
      </trkpt>
      <trkpt lat="48.67812" lon="1.96085">
        <ele>166.93</ele>
        <time>2011-10-22T12:48:25Z</time>
      </trkpt>
      <trkpt lat="48.6781" lon="1.96092">
        <ele>167.41</ele>
        <time>2011-10-22T12:48:24Z</time>
      </trkpt>
      <trkpt lat="48.6781" lon="1.96092">
        <ele>167.41</ele>
        <time>2011-10-22T12:48:24Z</time>
      </trkpt>
      <trkpt lat="48.67797" lon="1.96156">
        <ele>167.89</ele>
        <time>2011-10-22T12:48:14Z</time>
      </trkpt>
      <trkpt lat="48.67807" lon="1.96206">
        <ele>166.45</ele>
        <time>2011-10-22T12:48:05Z</time>
      </trkpt>
      <trkpt lat="48.67808" lon="1.96212">
        <ele>165.96</ele>
        <time>2011-10-22T12:48:04Z</time>
      </trkpt>
      <trkpt lat="48.67808" lon="1.96217">
        <ele>166.93</ele>
        <time>2011-10-22T12:48:03Z</time>
      </trkpt>
      <trkpt lat="48.6781" lon="1.96222">
        <ele>167.41</ele>
        <time>2011-10-22T12:48:02Z</time>
      </trkpt>
      <trkpt lat="48.67812" lon="1.96227">
        <ele>167.89</ele>
        <time>2011-10-22T12:48:01Z</time>
      </trkpt>
      <trkpt lat="48.67815" lon="1.9623">
        <ele>167.89</ele>
        <time>2011-10-22T12:48:00Z</time>
      </trkpt>
      <trkpt lat="48.67819" lon="1.96232">
        <ele>168.37</ele>
        <time>2011-10-22T12:47:59Z</time>
      </trkpt>
      <trkpt lat="48.67822" lon="1.96236">
        <ele>168.85</ele>
        <time>2011-10-22T12:47:58Z</time>
      </trkpt>
      <trkpt lat="48.67843" lon="1.96274">
        <ele>170.29</ele>
        <time>2011-10-22T12:47:49Z</time>
      </trkpt>
      <trkpt lat="48.6787" lon="1.96292">
        <ele>170.29</ele>
        <time>2011-10-22T12:47:41Z</time>
      </trkpt>
      <trkpt lat="48.67875" lon="1.96294">
        <ele>169.81</ele>
        <time>2011-10-22T12:47:40Z</time>
      </trkpt>
      <trkpt lat="48.67879" lon="1.96296">
        <ele>170.29</ele>
        <time>2011-10-22T12:47:39Z</time>
      </trkpt>
      <trkpt lat="48.67883" lon="1.96298">
        <ele>170.29</ele>
        <time>2011-10-22T12:47:38Z</time>
      </trkpt>
      <trkpt lat="48.67887" lon="1.963">
        <ele>169.33</ele>
        <time>2011-10-22T12:47:37Z</time>
      </trkpt>
      <trkpt lat="48.67891" lon="1.96303">
        <ele>169.33</ele>
        <time>2011-10-22T12:47:36Z</time>
      </trkpt>
      <trkpt lat="48.67896" lon="1.96306">
        <ele>168.37</ele>
        <time>2011-10-22T12:47:35Z</time>
      </trkpt>
      <trkpt lat="48.67901" lon="1.96308">
        <ele>168.37</ele>
        <time>2011-10-22T12:47:34Z</time>
      </trkpt>
      <trkpt lat="48.67912" lon="1.9631">
        <ele>168.85</ele>
        <time>2011-10-22T12:47:32Z</time>
      </trkpt>
      <trkpt lat="48.67926" lon="1.9631">
        <ele>168.85</ele>
        <time>2011-10-22T12:47:29Z</time>
      </trkpt>
      <trkpt lat="48.67931" lon="1.96309">
        <ele>169.81</ele>
        <time>2011-10-22T12:47:28Z</time>
      </trkpt>
      <trkpt lat="48.67935" lon="1.96307">
        <ele>168.85</ele>
        <time>2011-10-22T12:47:27Z</time>
      </trkpt>
      <trkpt lat="48.67981" lon="1.963">
        <ele>169.81</ele>
        <time>2011-10-22T12:47:19Z</time>
      </trkpt>
      <trkpt lat="48.67986" lon="1.96299">
        <ele>169.81</ele>
        <time>2011-10-22T12:47:18Z</time>
      </trkpt>
      <trkpt lat="48.67991" lon="1.96298">
        <ele>169.81</ele>
        <time>2011-10-22T12:47:17Z</time>
      </trkpt>
      <trkpt lat="48.67996" lon="1.96296">
        <ele>169.81</ele>
        <time>2011-10-22T12:47:16Z</time>
      </trkpt>
      <trkpt lat="48.68002" lon="1.96294">
        <ele>169.33</ele>
        <time>2011-10-22T12:47:15Z</time>
      </trkpt>
      <trkpt lat="48.68008" lon="1.96293">
        <ele>169.33</ele>
        <time>2011-10-22T12:47:14Z</time>
      </trkpt>
      <trkpt lat="48.6802" lon="1.96292">
        <ele>169.81</ele>
        <time>2011-10-22T12:47:12Z</time>
      </trkpt>
      <trkpt lat="48.68025" lon="1.96291">
        <ele>169.33</ele>
        <time>2011-10-22T12:47:11Z</time>
      </trkpt>
      <trkpt lat="48.68031" lon="1.9629">
        <ele>169.33</ele>
        <time>2011-10-22T12:47:10Z</time>
      </trkpt>
      <trkpt lat="48.68036" lon="1.96289">
        <ele>169.33</ele>
        <time>2011-10-22T12:47:09Z</time>
      </trkpt>
      <trkpt lat="48.68042" lon="1.96286">
        <ele>169.81</ele>
        <time>2011-10-22T12:47:08Z</time>
      </trkpt>
      <trkpt lat="48.68047" lon="1.96283">
        <ele>170.29</ele>
        <time>2011-10-22T12:47:07Z</time>
      </trkpt>
      <trkpt lat="48.68051" lon="1.96283">
        <ele>170.29</ele>
        <time>2011-10-22T12:47:06Z</time>
      </trkpt>
      <trkpt lat="48.68055" lon="1.96282">
        <ele>170.77</ele>
        <time>2011-10-22T12:47:05Z</time>
      </trkpt>
      <trkpt lat="48.6806" lon="1.96281">
        <ele>170.77</ele>
        <time>2011-10-22T12:47:04Z</time>
      </trkpt>
      <trkpt lat="48.68089" lon="1.96273">
        <ele>169.81</ele>
        <time>2011-10-22T12:46:57Z</time>
      </trkpt>
      <trkpt lat="48.68094" lon="1.96273">
        <ele>169.81</ele>
        <time>2011-10-22T12:46:56Z</time>
      </trkpt>
      <trkpt lat="48.68099" lon="1.96274">
        <ele>169.33</ele>
        <time>2011-10-22T12:46:55Z</time>
      </trkpt>
      <trkpt lat="48.6811" lon="1.96274">
        <ele>167.89</ele>
        <time>2011-10-22T12:46:53Z</time>
      </trkpt>
      <trkpt lat="48.68116" lon="1.96273">
        <ele>166.93</ele>
        <time>2011-10-22T12:46:52Z</time>
      </trkpt>
      <trkpt lat="48.68128" lon="1.96268">
        <ele>167.41</ele>
        <time>2011-10-22T12:46:50Z</time>
      </trkpt>
      <trkpt lat="48.68134" lon="1.96265">
        <ele>167.89</ele>
        <time>2011-10-22T12:46:49Z</time>
      </trkpt>
      <trkpt lat="48.68155" lon="1.96252">
        <ele>168.37</ele>
        <time>2011-10-22T12:46:45Z</time>
      </trkpt>
      <trkpt lat="48.68188" lon="1.96231">
        <ele>167.89</ele>
        <time>2011-10-22T12:46:39Z</time>
      </trkpt>
      <trkpt lat="48.68206" lon="1.96217">
        <ele>169.81</ele>
        <time>2011-10-22T12:46:35Z</time>
      </trkpt>
      <trkpt lat="48.6825" lon="1.9619">
        <ele>170.29</ele>
        <time>2011-10-22T12:46:22Z</time>
      </trkpt>
      <trkpt lat="48.68288" lon="1.96173">
        <ele>169.33</ele>
        <time>2011-10-22T12:46:09Z</time>
      </trkpt>
      <trkpt lat="48.68314" lon="1.96154">
        <ele>168.85</ele>
        <time>2011-10-22T12:45:57Z</time>
      </trkpt>
      <trkpt lat="48.68316" lon="1.96153">
        <ele>169.33</ele>
        <time>2011-10-22T12:45:39Z</time>
      </trkpt>
      <trkpt lat="48.68316" lon="1.96153">
        <ele>168.85</ele>
        <time>2011-10-22T12:45:13Z</time>
      </trkpt>
      <trkpt lat="48.68324" lon="1.96154">
        <ele>168.85</ele>
        <time>2011-10-22T12:44:59Z</time>
      </trkpt>
      <trkpt lat="48.68331" lon="1.96164">
        <ele>167.41</ele>
        <time>2011-10-22T12:44:51Z</time>
      </trkpt>
      <trkpt lat="48.68341" lon="1.96184">
        <ele>165.96</ele>
        <time>2011-10-22T12:44:42Z</time>
      </trkpt>
      <trkpt lat="48.68343" lon="1.96187">
        <ele>165</ele>
        <time>2011-10-22T12:44:41Z</time>
      </trkpt>
      <trkpt lat="48.68345" lon="1.96189">
        <ele>165</ele>
        <time>2011-10-22T12:44:40Z</time>
      </trkpt>
      <trkpt lat="48.68345" lon="1.96192">
        <ele>165</ele>
        <time>2011-10-22T12:44:39Z</time>
      </trkpt>
      <trkpt lat="48.68346" lon="1.96193">
        <ele>165</ele>
        <time>2011-10-22T12:44:38Z</time>
      </trkpt>
      <trkpt lat="48.68346" lon="1.96195">
        <ele>164.04</ele>
        <time>2011-10-22T12:44:37Z</time>
      </trkpt>
      <trkpt lat="48.68348" lon="1.962">
        <ele>163.08</ele>
        <time>2011-10-22T12:44:24Z</time>
      </trkpt>
      <trkpt lat="48.68354" lon="1.96217">
        <ele>162.12</ele>
        <time>2011-10-22T12:44:12Z</time>
      </trkpt>
      <trkpt lat="48.68361" lon="1.96222">
        <ele>160.68</ele>
        <time>2011-10-22T12:44:04Z</time>
      </trkpt>
      <trkpt lat="48.68361" lon="1.96222">
        <ele>155.39</ele>
        <time>2011-10-22T12:44:03Z</time>
      </trkpt>
      <trkpt lat="48.68362" lon="1.96222">
        <ele>160.68</ele>
        <time>2011-10-22T12:44:01Z</time>
      </trkpt>
      <trkpt lat="48.68367" lon="1.96229">
        <ele>159.72</ele>
        <time>2011-10-22T12:43:55Z</time>
      </trkpt>
      <trkpt lat="48.68367" lon="1.9623">
        <ele>159.24</ele>
        <time>2011-10-22T12:43:54Z</time>
      </trkpt>
      <trkpt lat="48.68373" lon="1.96234">
        <ele>157.31</ele>
        <time>2011-10-22T12:43:48Z</time>
      </trkpt>
      <trkpt lat="48.68374" lon="1.96235">
        <ele>156.35</ele>
        <time>2011-10-22T12:43:46Z</time>
      </trkpt>
      <trkpt lat="48.68375" lon="1.96236">
        <ele>155.87</ele>
        <time>2011-10-22T12:43:45Z</time>
      </trkpt>
      <trkpt lat="48.68377" lon="1.96236">
        <ele>155.39</ele>
        <time>2011-10-22T12:43:44Z</time>
      </trkpt>
      <trkpt lat="48.68377" lon="1.96236">
        <ele>155.39</ele>
        <time>2011-10-22T12:43:43Z</time>
      </trkpt>
      <trkpt lat="48.68378" lon="1.96238">
        <ele>154.91</ele>
        <time>2011-10-22T12:43:42Z</time>
      </trkpt>
      <trkpt lat="48.6838" lon="1.96239">
        <ele>154.91</ele>
        <time>2011-10-22T12:43:41Z</time>
      </trkpt>
      <trkpt lat="48.6838" lon="1.96241">
        <ele>154.43</ele>
        <time>2011-10-22T12:43:40Z</time>
      </trkpt>
      <trkpt lat="48.68382" lon="1.96243">
        <ele>153.95</ele>
        <time>2011-10-22T12:43:39Z</time>
      </trkpt>
      <trkpt lat="48.68382" lon="1.96244">
        <ele>153.47</ele>
        <time>2011-10-22T12:43:38Z</time>
      </trkpt>
      <trkpt lat="48.68383" lon="1.96245">
        <ele>153.47</ele>
        <time>2011-10-22T12:43:37Z</time>
      </trkpt>
      <trkpt lat="48.68386" lon="1.9625">
        <ele>152.51</ele>
        <time>2011-10-22T12:43:34Z</time>
      </trkpt>
      <trkpt lat="48.68387" lon="1.96251">
        <ele>152.51</ele>
        <time>2011-10-22T12:43:33Z</time>
      </trkpt>
      <trkpt lat="48.68388" lon="1.96252">
        <ele>152.03</ele>
        <time>2011-10-22T12:43:32Z</time>
      </trkpt>
      <trkpt lat="48.68388" lon="1.96254">
        <ele>151.54</ele>
        <time>2011-10-22T12:43:31Z</time>
      </trkpt>
      <trkpt lat="48.6839" lon="1.96255">
        <ele>151.54</ele>
        <time>2011-10-22T12:43:30Z</time>
      </trkpt>
      <trkpt lat="48.68391" lon="1.96256">
        <ele>151.06</ele>
        <time>2011-10-22T12:43:29Z</time>
      </trkpt>
      <trkpt lat="48.68392" lon="1.96256">
        <ele>151.06</ele>
        <time>2011-10-22T12:43:28Z</time>
      </trkpt>
      <trkpt lat="48.68397" lon="1.96258">
        <ele>149.62</ele>
        <time>2011-10-22T12:43:24Z</time>
      </trkpt>
      <trkpt lat="48.68399" lon="1.96259">
        <ele>149.14</ele>
        <time>2011-10-22T12:43:23Z</time>
      </trkpt>
      <trkpt lat="48.68402" lon="1.9626">
        <ele>148.66</ele>
        <time>2011-10-22T12:43:20Z</time>
      </trkpt>
      <trkpt lat="48.68415" lon="1.96283">
        <ele>145.78</ele>
        <time>2011-10-22T12:43:06Z</time>
      </trkpt>
      <trkpt lat="48.68422" lon="1.96311">
        <ele>143.85</ele>
        <time>2011-10-22T12:42:56Z</time>
      </trkpt>
      <trkpt lat="48.68431" lon="1.96353">
        <ele>141.45</ele>
        <time>2011-10-22T12:42:43Z</time>
      </trkpt>
      <trkpt lat="48.68441" lon="1.96389">
        <ele>139.05</ele>
        <time>2011-10-22T12:42:30Z</time>
      </trkpt>
      <trkpt lat="48.68441" lon="1.96391">
        <ele>138.57</ele>
        <time>2011-10-22T12:42:29Z</time>
      </trkpt>
      <trkpt lat="48.68441" lon="1.96394">
        <ele>138.57</ele>
        <time>2011-10-22T12:42:28Z</time>
      </trkpt>
      <trkpt lat="48.68443" lon="1.96397">
        <ele>138.09</ele>
        <time>2011-10-22T12:42:26Z</time>
      </trkpt>
      <trkpt lat="48.68444" lon="1.96397">
        <ele>138.57</ele>
        <time>2011-10-22T12:42:25Z</time>
      </trkpt>
      <trkpt lat="48.68458" lon="1.96395">
        <ele>137.13</ele>
        <time>2011-10-22T12:42:08Z</time>
      </trkpt>
      <trkpt lat="48.6846" lon="1.96395">
        <ele>137.13</ele>
        <time>2011-10-22T12:42:06Z</time>
      </trkpt>
      <trkpt lat="48.68488" lon="1.96392">
        <ele>134.24</ele>
        <time>2011-10-22T12:41:54Z</time>
      </trkpt>
      <trkpt lat="48.68509" lon="1.96387">
        <ele>131.84</ele>
        <time>2011-10-22T12:41:48Z</time>
      </trkpt>
      <trkpt lat="48.68529" lon="1.96379">
        <ele>129.92</ele>
        <time>2011-10-22T12:41:43Z</time>
      </trkpt>
      <trkpt lat="48.68552" lon="1.96367">
        <ele>127.03</ele>
        <time>2011-10-22T12:41:38Z</time>
      </trkpt>
      <trkpt lat="48.68566" lon="1.96364">
        <ele>129.92</ele>
        <time>2011-10-22T12:41:34Z</time>
      </trkpt>
      <trkpt lat="48.68579" lon="1.96372">
        <ele>133.28</ele>
        <time>2011-10-22T12:41:28Z</time>
      </trkpt>
      <trkpt lat="48.68579" lon="1.96374">
        <ele>133.76</ele>
        <time>2011-10-22T12:41:20Z</time>
      </trkpt>
      <trkpt lat="48.6858" lon="1.96375">
        <ele>133.76</ele>
        <time>2011-10-22T12:41:19Z</time>
      </trkpt>
      <trkpt lat="48.68583" lon="1.96388">
        <ele>134.72</ele>
        <time>2011-10-22T12:41:10Z</time>
      </trkpt>
      <trkpt lat="48.68592" lon="1.964">
        <ele>133.76</ele>
        <time>2011-10-22T12:41:03Z</time>
      </trkpt>
      <trkpt lat="48.68592" lon="1.96402">
        <ele>134.24</ele>
        <time>2011-10-22T12:41:02Z</time>
      </trkpt>
      <trkpt lat="48.68605" lon="1.96424">
        <ele>131.84</ele>
        <time>2011-10-22T12:40:53Z</time>
      </trkpt>
      <trkpt lat="48.68612" lon="1.96435">
        <ele>130.4</ele>
        <time>2011-10-22T12:40:50Z</time>
      </trkpt>
      <trkpt lat="48.68666" lon="1.96457">
        <ele>127.51</ele>
        <time>2011-10-22T12:40:36Z</time>
      </trkpt>
      <trkpt lat="48.68671" lon="1.96459">
        <ele>127.99</ele>
        <time>2011-10-22T12:40:35Z</time>
      </trkpt>
      <trkpt lat="48.68676" lon="1.96461">
        <ele>127.51</ele>
        <time>2011-10-22T12:40:34Z</time>
      </trkpt>
      <trkpt lat="48.68697" lon="1.96466">
        <ele>127.51</ele>
        <time>2011-10-22T12:40:29Z</time>
      </trkpt>
      <trkpt lat="48.68762" lon="1.96485">
        <ele>125.11</ele>
        <time>2011-10-22T12:40:16Z</time>
      </trkpt>
      <trkpt lat="48.68792" lon="1.96488">
        <ele>123.19</ele>
        <time>2011-10-22T12:40:08Z</time>
      </trkpt>
      <trkpt lat="48.68816" lon="1.96477">
        <ele>123.19</ele>
        <time>2011-10-22T12:39:55Z</time>
      </trkpt>
      <trkpt lat="48.68826" lon="1.96408">
        <ele>123.19</ele>
        <time>2011-10-22T12:39:42Z</time>
      </trkpt>
      <trkpt lat="48.68827" lon="1.96405">
        <ele>123.67</ele>
        <time>2011-10-22T12:39:41Z</time>
      </trkpt>
      <trkpt lat="48.68829" lon="1.96402">
        <ele>123.67</ele>
        <time>2011-10-22T12:39:40Z</time>
      </trkpt>
      <trkpt lat="48.68829" lon="1.964">
        <ele>123.67</ele>
        <time>2011-10-22T12:39:39Z</time>
      </trkpt>
      <trkpt lat="48.68831" lon="1.96397">
        <ele>123.67</ele>
        <time>2011-10-22T12:39:38Z</time>
      </trkpt>
      <trkpt lat="48.68832" lon="1.96395">
        <ele>124.63</ele>
        <time>2011-10-22T12:39:18Z</time>
      </trkpt>
      <trkpt lat="48.68835" lon="1.96389">
        <ele>125.11</ele>
        <time>2011-10-22T12:39:06Z</time>
      </trkpt>
      <trkpt lat="48.68872" lon="1.96304">
        <ele>125.59</ele>
        <time>2011-10-22T12:38:53Z</time>
      </trkpt>
      <trkpt lat="48.68879" lon="1.96282">
        <ele>128.95</ele>
        <time>2011-10-22T12:38:48Z</time>
      </trkpt>
      <trkpt lat="48.68879" lon="1.96279">
        <ele>128.95</ele>
        <time>2011-10-22T12:38:47Z</time>
      </trkpt>
      <trkpt lat="48.68881" lon="1.96277">
        <ele>129.92</ele>
        <time>2011-10-22T12:38:28Z</time>
      </trkpt>
      <trkpt lat="48.68942" lon="1.96252">
        <ele>129.92</ele>
        <time>2011-10-22T12:38:16Z</time>
      </trkpt>
      <trkpt lat="48.68967" lon="1.96274">
        <ele>133.28</ele>
        <time>2011-10-22T12:38:12Z</time>
      </trkpt>
      <trkpt lat="48.68972" lon="1.96304">
        <ele>136.64</ele>
        <time>2011-10-22T12:38:05Z</time>
      </trkpt>
      <trkpt lat="48.68972" lon="1.96307">
        <ele>136.64</ele>
        <time>2011-10-22T12:38:04Z</time>
      </trkpt>
      <trkpt lat="48.68972" lon="1.9631">
        <ele>137.13</ele>
        <time>2011-10-22T12:38:03Z</time>
      </trkpt>
      <trkpt lat="48.68972" lon="1.96314">
        <ele>137.61</ele>
        <time>2011-10-22T12:38:02Z</time>
      </trkpt>
      <trkpt lat="48.68972" lon="1.96317">
        <ele>138.57</ele>
        <time>2011-10-22T12:38:01Z</time>
      </trkpt>
      <trkpt lat="48.68973" lon="1.96319">
        <ele>139.05</ele>
        <time>2011-10-22T12:38:00Z</time>
      </trkpt>
      <trkpt lat="48.68973" lon="1.9632">
        <ele>140.97</ele>
        <time>2011-10-22T12:37:51Z</time>
      </trkpt>
      <trkpt lat="48.68973" lon="1.9632">
        <ele>134.24</ele>
        <time>2011-10-22T12:37:50Z</time>
      </trkpt>
      <trkpt lat="48.68973" lon="1.9632">
        <ele>140.49</ele>
        <time>2011-10-22T12:37:49Z</time>
      </trkpt>
      <trkpt lat="48.68973" lon="1.9632">
        <ele>137.61</ele>
        <time>2011-10-22T12:37:48Z</time>
      </trkpt>
      <trkpt lat="48.68982" lon="1.96327">
        <ele>141.93</ele>
        <time>2011-10-22T12:37:36Z</time>
      </trkpt>
      <trkpt lat="48.68996" lon="1.96327">
        <ele>144.82</ele>
        <time>2011-10-22T12:37:32Z</time>
      </trkpt>
      <trkpt lat="48.68999" lon="1.96327">
        <ele>146.26</ele>
        <time>2011-10-22T12:37:31Z</time>
      </trkpt>
      <trkpt lat="48.69001" lon="1.96327">
        <ele>147.22</ele>
        <time>2011-10-22T12:37:30Z</time>
      </trkpt>
      <trkpt lat="48.69005" lon="1.96321">
        <ele>149.62</ele>
        <time>2011-10-22T12:37:27Z</time>
      </trkpt>
      <trkpt lat="48.69004" lon="1.96309">
        <ele>150.58</ele>
        <time>2011-10-22T12:37:24Z</time>
      </trkpt>
      <trkpt lat="48.69004" lon="1.96305">
        <ele>151.54</ele>
        <time>2011-10-22T12:37:23Z</time>
      </trkpt>
      <trkpt lat="48.69004" lon="1.96301">
        <ele>151.06</ele>
        <time>2011-10-22T12:37:22Z</time>
      </trkpt>
      <trkpt lat="48.69004" lon="1.96295">
        <ele>152.51</ele>
        <time>2011-10-22T12:37:17Z</time>
      </trkpt>
      <trkpt lat="48.69004" lon="1.96288">
        <ele>152.03</ele>
        <time>2011-10-22T12:37:05Z</time>
      </trkpt>
      <trkpt lat="48.69004" lon="1.96286">
        <ele>152.03</ele>
        <time>2011-10-22T12:37:04Z</time>
      </trkpt>
      <trkpt lat="48.69003" lon="1.96284">
        <ele>152.99</ele>
        <time>2011-10-22T12:37:03Z</time>
      </trkpt>
      <trkpt lat="48.69006" lon="1.96265">
        <ele>153.47</ele>
        <time>2011-10-22T12:36:57Z</time>
      </trkpt>
      <trkpt lat="48.69027" lon="1.96224">
        <ele>156.35</ele>
        <time>2011-10-22T12:36:49Z</time>
      </trkpt>
      <trkpt lat="48.69031" lon="1.96218">
        <ele>156.83</ele>
        <time>2011-10-22T12:36:48Z</time>
      </trkpt>
      <trkpt lat="48.69037" lon="1.96189">
        <ele>161.16</ele>
        <time>2011-10-22T12:36:44Z</time>
      </trkpt>
      <trkpt lat="48.69037" lon="1.96175">
        <ele>164.52</ele>
        <time>2011-10-22T12:36:42Z</time>
      </trkpt>
      <trkpt lat="48.69034" lon="1.96156">
        <ele>167.41</ele>
        <time>2011-10-22T12:36:38Z</time>
      </trkpt>
      <trkpt lat="48.69033" lon="1.96152">
        <ele>168.37</ele>
        <time>2011-10-22T12:36:37Z</time>
      </trkpt>
      <trkpt lat="48.69033" lon="1.96149">
        <ele>170.29</ele>
        <time>2011-10-22T12:36:28Z</time>
      </trkpt>
      <trkpt lat="48.69033" lon="1.96149">
        <ele>174.14</ele>
        <time>2011-10-22T12:36:27Z</time>
      </trkpt>
      <trkpt lat="48.69033" lon="1.96149">
        <ele>170.29</ele>
        <time>2011-10-22T12:36:26Z</time>
      </trkpt>
      <trkpt lat="48.69033" lon="1.96149">
        <ele>165</ele>
        <time>2011-10-22T12:36:25Z</time>
      </trkpt>
      <trkpt lat="48.69033" lon="1.96149">
        <ele>172.21</ele>
        <time>2011-10-22T12:36:24Z</time>
      </trkpt>
      <trkpt lat="48.69033" lon="1.96149">
        <ele>163.08</ele>
        <time>2011-10-22T12:36:23Z</time>
      </trkpt>
      <trkpt lat="48.69033" lon="1.96149">
        <ele>170.29</ele>
        <time>2011-10-22T12:36:19Z</time>
      </trkpt>
      <trkpt lat="48.69033" lon="1.96149">
        <ele>177.98</ele>
        <time>2011-10-22T12:36:18Z</time>
      </trkpt>
      <trkpt lat="48.69033" lon="1.96149">
        <ele>169.81</ele>
        <time>2011-10-22T12:36:10Z</time>
      </trkpt>
      <trkpt lat="48.6903" lon="1.96137">
        <ele>169.81</ele>
        <time>2011-10-22T12:35:57Z</time>
      </trkpt>
      <trkpt lat="48.69029" lon="1.96123">
        <ele>171.25</ele>
        <time>2011-10-22T12:35:54Z</time>
      </trkpt>
      <trkpt lat="48.69032" lon="1.96112">
        <ele>172.21</ele>
        <time>2011-10-22T12:35:51Z</time>
      </trkpt>
      <trkpt lat="48.69051" lon="1.96085">
        <ele>174.14</ele>
        <time>2011-10-22T12:35:40Z</time>
      </trkpt>
      <trkpt lat="48.69078" lon="1.96062">
        <ele>174.62</ele>
        <time>2011-10-22T12:35:28Z</time>
      </trkpt>
      <trkpt lat="48.69093" lon="1.96045">
        <ele>174.62</ele>
        <time>2011-10-22T12:35:14Z</time>
      </trkpt>
      <trkpt lat="48.69094" lon="1.96044">
        <ele>175.1</ele>
        <time>2011-10-22T12:35:13Z</time>
      </trkpt>
      <trkpt lat="48.69095" lon="1.96043">
        <ele>174.62</ele>
        <time>2011-10-22T12:35:12Z</time>
      </trkpt>
      <trkpt lat="48.69095" lon="1.96041">
        <ele>174.62</ele>
        <time>2011-10-22T12:35:11Z</time>
      </trkpt>
      <trkpt lat="48.69096" lon="1.96038">
        <ele>174.62</ele>
        <time>2011-10-22T12:34:55Z</time>
      </trkpt>
      <trkpt lat="48.69096" lon="1.96038">
        <ele>174.62</ele>
        <time>2011-10-22T12:34:31Z</time>
      </trkpt>
      <trkpt lat="48.69096" lon="1.96038">
        <ele>174.14</ele>
        <time>2011-10-22T12:34:03Z</time>
      </trkpt>
      <trkpt lat="48.69095" lon="1.96038">
        <ele>174.62</ele>
        <time>2011-10-22T12:33:45Z</time>
      </trkpt>
      <trkpt lat="48.69095" lon="1.96038">
        <ele>174.14</ele>
        <time>2011-10-22T12:33:24Z</time>
      </trkpt>
      <trkpt lat="48.69095" lon="1.96037">
        <ele>174.14</ele>
        <time>2011-10-22T12:32:57Z</time>
      </trkpt>
      <trkpt lat="48.69095" lon="1.96037">
        <ele>174.14</ele>
        <time>2011-10-22T12:32:23Z</time>
      </trkpt>
      <trkpt lat="48.69094" lon="1.96038">
        <ele>174.14</ele>
        <time>2011-10-22T12:31:44Z</time>
      </trkpt>
      <trkpt lat="48.69093" lon="1.96038">
        <ele>174.14</ele>
        <time>2011-10-22T12:31:09Z</time>
      </trkpt>
      <trkpt lat="48.69094" lon="1.96038">
        <ele>174.62</ele>
        <time>2011-10-22T12:30:32Z</time>
      </trkpt>
      <trkpt lat="48.69093" lon="1.96038">
        <ele>174.62</ele>
        <time>2011-10-22T12:29:53Z</time>
      </trkpt>
      <trkpt lat="48.69093" lon="1.96038">
        <ele>174.14</ele>
        <time>2011-10-22T12:29:17Z</time>
      </trkpt>
      <trkpt lat="48.69094" lon="1.96037">
        <ele>174.62</ele>
        <time>2011-10-22T12:28:41Z</time>
      </trkpt>
      <trkpt lat="48.69094" lon="1.96038">
        <ele>174.62</ele>
        <time>2011-10-22T12:28:05Z</time>
      </trkpt>
      <trkpt lat="48.69095" lon="1.96037">
        <ele>174.14</ele>
        <time>2011-10-22T12:27:32Z</time>
      </trkpt>
      <trkpt lat="48.69095" lon="1.96037">
        <ele>174.14</ele>
        <time>2011-10-22T12:26:56Z</time>
      </trkpt>
      <trkpt lat="48.69095" lon="1.96037">
        <ele>172.69</ele>
        <time>2011-10-22T12:26:27Z</time>
      </trkpt>
      <trkpt lat="48.69095" lon="1.96037">
        <ele>176.54</ele>
        <time>2011-10-22T12:26:22Z</time>
      </trkpt>
      <trkpt lat="48.69095" lon="1.96037">
        <ele>171.25</ele>
        <time>2011-10-22T12:26:21Z</time>
      </trkpt>
      <trkpt lat="48.69095" lon="1.96037">
        <ele>177.02</ele>
        <time>2011-10-22T12:26:20Z</time>
      </trkpt>
      <trkpt lat="48.69095" lon="1.96037">
        <ele>173.66</ele>
        <time>2011-10-22T12:26:01Z</time>
      </trkpt>
      <trkpt lat="48.69094" lon="1.96036">
        <ele>173.66</ele>
        <time>2011-10-22T12:25:34Z</time>
      </trkpt>
      <trkpt lat="48.69094" lon="1.96036">
        <ele>172.69</ele>
        <time>2011-10-22T12:25:00Z</time>
      </trkpt>
      <trkpt lat="48.69094" lon="1.96036">
        <ele>173.66</ele>
        <time>2011-10-22T12:24:40Z</time>
      </trkpt>
      <trkpt lat="48.69104" lon="1.96034">
        <ele>173.66</ele>
        <time>2011-10-22T12:24:28Z</time>
      </trkpt>
      <trkpt lat="48.69136" lon="1.96009">
        <ele>172.69</ele>
        <time>2011-10-22T12:24:16Z</time>
      </trkpt>
      <trkpt lat="48.69167" lon="1.95984">
        <ele>172.21</ele>
        <time>2011-10-22T12:24:03Z</time>
      </trkpt>
      <trkpt lat="48.69192" lon="1.95963">
        <ele>171.25</ele>
        <time>2011-10-22T12:23:50Z</time>
      </trkpt>
      <trkpt lat="48.69219" lon="1.9595">
        <ele>170.29</ele>
        <time>2011-10-22T12:23:36Z</time>
      </trkpt>
      <trkpt lat="48.69221" lon="1.9595">
        <ele>170.29</ele>
        <time>2011-10-22T12:23:35Z</time>
      </trkpt>
      <trkpt lat="48.69222" lon="1.9595">
        <ele>170.29</ele>
        <time>2011-10-22T12:23:34Z</time>
      </trkpt>
      <trkpt lat="48.69224" lon="1.95951">
        <ele>170.29</ele>
        <time>2011-10-22T12:23:33Z</time>
      </trkpt>
      <trkpt lat="48.69225" lon="1.95951">
        <ele>169.81</ele>
        <time>2011-10-22T12:23:32Z</time>
      </trkpt>
      <trkpt lat="48.69226" lon="1.95951">
        <ele>169.81</ele>
        <time>2011-10-22T12:23:31Z</time>
      </trkpt>
      <trkpt lat="48.69227" lon="1.95953">
        <ele>169.81</ele>
        <time>2011-10-22T12:23:30Z</time>
      </trkpt>
      <trkpt lat="48.69227" lon="1.95955">
        <ele>169.81</ele>
        <time>2011-10-22T12:23:29Z</time>
      </trkpt>
      <trkpt lat="48.69228" lon="1.95957">
        <ele>169.81</ele>
        <time>2011-10-22T12:23:28Z</time>
      </trkpt>
      <trkpt lat="48.69244" lon="1.95985">
        <ele>166.45</ele>
        <time>2011-10-22T12:23:13Z</time>
      </trkpt>
      <trkpt lat="48.69259" lon="1.96007">
        <ele>163.56</ele>
        <time>2011-10-22T12:23:02Z</time>
      </trkpt>
      <trkpt lat="48.69273" lon="1.96031">
        <ele>160.2</ele>
        <time>2011-10-22T12:22:54Z</time>
      </trkpt>
      <trkpt lat="48.69297" lon="1.96071">
        <ele>158.75</ele>
        <time>2011-10-22T12:22:41Z</time>
      </trkpt>
      <trkpt lat="48.69316" lon="1.96107">
        <ele>156.35</ele>
        <time>2011-10-22T12:22:28Z</time>
      </trkpt>
      <trkpt lat="48.69331" lon="1.96135">
        <ele>155.87</ele>
        <time>2011-10-22T12:22:18Z</time>
      </trkpt>
      <trkpt lat="48.6935" lon="1.9616">
        <ele>154.43</ele>
        <time>2011-10-22T12:22:08Z</time>
      </trkpt>
      <trkpt lat="48.6937" lon="1.96192">
        <ele>151.06</ele>
        <time>2011-10-22T12:21:58Z</time>
      </trkpt>
      <trkpt lat="48.69373" lon="1.96197">
        <ele>150.58</ele>
        <time>2011-10-22T12:21:57Z</time>
      </trkpt>
      <trkpt lat="48.69396" lon="1.96241">
        <ele>147.22</ele>
        <time>2011-10-22T12:21:48Z</time>
      </trkpt>
      <trkpt lat="48.69399" lon="1.96246">
        <ele>147.22</ele>
        <time>2011-10-22T12:21:47Z</time>
      </trkpt>
      <trkpt lat="48.69402" lon="1.96251">
        <ele>147.7</ele>
        <time>2011-10-22T12:21:46Z</time>
      </trkpt>
      <trkpt lat="48.69405" lon="1.96257">
        <ele>147.22</ele>
        <time>2011-10-22T12:21:45Z</time>
      </trkpt>
      <trkpt lat="48.69408" lon="1.96263">
        <ele>147.22</ele>
        <time>2011-10-22T12:21:44Z</time>
      </trkpt>
      <trkpt lat="48.69411" lon="1.96269">
        <ele>146.26</ele>
        <time>2011-10-22T12:21:43Z</time>
      </trkpt>
      <trkpt lat="48.69449" lon="1.96337">
        <ele>149.14</ele>
        <time>2011-10-22T12:21:34Z</time>
      </trkpt>
      <trkpt lat="48.69453" lon="1.96343">
        <ele>150.58</ele>
        <time>2011-10-22T12:21:33Z</time>
      </trkpt>
      <trkpt lat="48.69457" lon="1.9635">
        <ele>151.06</ele>
        <time>2011-10-22T12:21:32Z</time>
      </trkpt>
      <trkpt lat="48.69461" lon="1.96356">
        <ele>152.03</ele>
        <time>2011-10-22T12:21:31Z</time>
      </trkpt>
      <trkpt lat="48.69473" lon="1.96374">
        <ele>156.35</ele>
        <time>2011-10-22T12:21:28Z</time>
      </trkpt>
      <trkpt lat="48.69481" lon="1.96386">
        <ele>159.24</ele>
        <time>2011-10-22T12:21:26Z</time>
      </trkpt>
      <trkpt lat="48.69492" lon="1.96404">
        <ele>162.6</ele>
        <time>2011-10-22T12:21:23Z</time>
      </trkpt>
      <trkpt lat="48.69506" lon="1.96425">
        <ele>165.96</ele>
        <time>2011-10-22T12:21:19Z</time>
      </trkpt>
      <trkpt lat="48.69531" lon="1.96464">
        <ele>168.37</ele>
        <time>2011-10-22T12:21:10Z</time>
      </trkpt>
      <trkpt lat="48.69565" lon="1.96524">
        <ele>168.37</ele>
        <time>2011-10-22T12:20:56Z</time>
      </trkpt>
      <trkpt lat="48.69599" lon="1.96578">
        <ele>169.33</ele>
        <time>2011-10-22T12:20:43Z</time>
      </trkpt>
      <trkpt lat="48.69623" lon="1.96619">
        <ele>169.33</ele>
        <time>2011-10-22T12:20:32Z</time>
      </trkpt>
      <trkpt lat="48.69669" lon="1.96646">
        <ele>168.85</ele>
        <time>2011-10-22T12:20:17Z</time>
      </trkpt>
      <trkpt lat="48.69703" lon="1.96672">
        <ele>167.89</ele>
        <time>2011-10-22T12:20:07Z</time>
      </trkpt>
      <trkpt lat="48.69709" lon="1.96665">
        <ele>167.41</ele>
        <time>2011-10-22T12:20:04Z</time>
      </trkpt>
      <trkpt lat="48.69736" lon="1.96613">
        <ele>167.89</ele>
        <time>2011-10-22T12:19:51Z</time>
      </trkpt>
      <trkpt lat="48.69756" lon="1.96566">
        <ele>168.85</ele>
        <time>2011-10-22T12:19:37Z</time>
      </trkpt>
      <trkpt lat="48.69756" lon="1.96562">
        <ele>168.85</ele>
        <time>2011-10-22T12:19:36Z</time>
      </trkpt>
      <trkpt lat="48.69758" lon="1.96559">
        <ele>168.85</ele>
        <time>2011-10-22T12:19:35Z</time>
      </trkpt>
      <trkpt lat="48.69759" lon="1.96555">
        <ele>168.85</ele>
        <time>2011-10-22T12:19:34Z</time>
      </trkpt>
      <trkpt lat="48.69761" lon="1.96552">
        <ele>168.85</ele>
        <time>2011-10-22T12:19:33Z</time>
      </trkpt>
      <trkpt lat="48.69762" lon="1.96549">
        <ele>169.33</ele>
        <time>2011-10-22T12:19:32Z</time>
      </trkpt>
      <trkpt lat="48.69764" lon="1.96546">
        <ele>168.85</ele>
        <time>2011-10-22T12:19:31Z</time>
      </trkpt>
      <trkpt lat="48.69771" lon="1.96537">
        <ele>168.85</ele>
        <time>2011-10-22T12:19:25Z</time>
      </trkpt>
      <trkpt lat="48.69774" lon="1.96538">
        <ele>169.33</ele>
        <time>2011-10-22T12:19:24Z</time>
      </trkpt>
      <trkpt lat="48.69777" lon="1.96544">
        <ele>168.85</ele>
        <time>2011-10-22T12:19:21Z</time>
      </trkpt>
      <trkpt lat="48.69786" lon="1.96592">
        <ele>167.89</ele>
        <time>2011-10-22T12:19:07Z</time>
      </trkpt>
      <trkpt lat="48.6979" lon="1.96632">
        <ele>166.45</ele>
        <time>2011-10-22T12:18:54Z</time>
      </trkpt>
      <trkpt lat="48.69799" lon="1.96663">
        <ele>164.52</ele>
        <time>2011-10-22T12:18:41Z</time>
      </trkpt>
      <trkpt lat="48.69801" lon="1.96666">
        <ele>164.52</ele>
        <time>2011-10-22T12:18:40Z</time>
      </trkpt>
      <trkpt lat="48.69801" lon="1.96668">
        <ele>164.52</ele>
        <time>2011-10-22T12:18:39Z</time>
      </trkpt>
      <trkpt lat="48.69803" lon="1.96673">
        <ele>164.04</ele>
        <time>2011-10-22T12:18:37Z</time>
      </trkpt>
      <trkpt lat="48.69804" lon="1.96676">
        <ele>164.04</ele>
        <time>2011-10-22T12:18:36Z</time>
      </trkpt>
      <trkpt lat="48.69812" lon="1.96708">
        <ele>162.12</ele>
        <time>2011-10-22T12:18:19Z</time>
      </trkpt>
      <trkpt lat="48.69814" lon="1.96723">
        <ele>159.72</ele>
        <time>2011-10-22T12:18:10Z</time>
      </trkpt>
      <trkpt lat="48.69825" lon="1.96746">
        <ele>156.83</ele>
        <time>2011-10-22T12:17:57Z</time>
      </trkpt>
      <trkpt lat="48.69833" lon="1.96762">
        <ele>153.47</ele>
        <time>2011-10-22T12:17:48Z</time>
      </trkpt>
      <trkpt lat="48.69844" lon="1.9678">
        <ele>150.58</ele>
        <time>2011-10-22T12:17:37Z</time>
      </trkpt>
      <trkpt lat="48.69867" lon="1.96798">
        <ele>147.7</ele>
        <time>2011-10-22T12:17:24Z</time>
      </trkpt>
      <trkpt lat="48.69889" lon="1.96811">
        <ele>144.34</ele>
        <time>2011-10-22T12:17:13Z</time>
      </trkpt>
      <trkpt lat="48.69903" lon="1.96825">
        <ele>140.97</ele>
        <time>2011-10-22T12:17:04Z</time>
      </trkpt>
      <trkpt lat="48.69928" lon="1.9684">
        <ele>137.61</ele>
        <time>2011-10-22T12:16:51Z</time>
      </trkpt>
      <trkpt lat="48.69955" lon="1.96852">
        <ele>134.72</ele>
        <time>2011-10-22T12:16:39Z</time>
      </trkpt>
      <trkpt lat="48.69967" lon="1.96872">
        <ele>131.84</ele>
        <time>2011-10-22T12:16:31Z</time>
      </trkpt>
      <trkpt lat="48.69984" lon="1.96891">
        <ele>130.4</ele>
        <time>2011-10-22T12:16:19Z</time>
      </trkpt>
      <trkpt lat="48.69983" lon="1.9688">
        <ele>133.28</ele>
        <time>2011-10-22T12:16:06Z</time>
      </trkpt>
      <trkpt lat="48.69988" lon="1.96879">
        <ele>133.28</ele>
        <time>2011-10-22T12:16:03Z</time>
      </trkpt>
      <trkpt lat="48.6999" lon="1.96878">
        <ele>132.8</ele>
        <time>2011-10-22T12:16:02Z</time>
      </trkpt>
      <trkpt lat="48.69997" lon="1.9682">
        <ele>130.88</ele>
        <time>2011-10-22T12:15:50Z</time>
      </trkpt>
      <trkpt lat="48.70001" lon="1.96739">
        <ele>129.92</ele>
        <time>2011-10-22T12:15:37Z</time>
      </trkpt>
      <trkpt lat="48.70011" lon="1.96718">
        <ele>131.84</ele>
        <time>2011-10-22T12:15:23Z</time>
      </trkpt>
      <trkpt lat="48.70015" lon="1.96716">
        <ele>131.84</ele>
        <time>2011-10-22T12:15:20Z</time>
      </trkpt>
      <trkpt lat="48.70018" lon="1.96718">
        <ele>131.84</ele>
        <time>2011-10-22T12:15:04Z</time>
      </trkpt>
      <trkpt lat="48.70024" lon="1.96722">
        <ele>131.36</ele>
        <time>2011-10-22T12:14:58Z</time>
      </trkpt>
      <trkpt lat="48.70032" lon="1.96727">
        <ele>128.95</ele>
        <time>2011-10-22T12:14:44Z</time>
      </trkpt>
      <trkpt lat="48.70032" lon="1.96727">
        <ele>127.51</ele>
        <time>2011-10-22T12:14:30Z</time>
      </trkpt>
      <trkpt lat="48.70037" lon="1.96725">
        <ele>126.55</ele>
        <time>2011-10-22T12:14:19Z</time>
      </trkpt>
      <trkpt lat="48.70046" lon="1.96723">
        <ele>126.07</ele>
        <time>2011-10-22T12:14:14Z</time>
      </trkpt>
      <trkpt lat="48.70048" lon="1.96722">
        <ele>126.07</ele>
        <time>2011-10-22T12:14:13Z</time>
      </trkpt>
      <trkpt lat="48.70053" lon="1.96718">
        <ele>125.11</ele>
        <time>2011-10-22T12:14:08Z</time>
      </trkpt>
      <trkpt lat="48.70054" lon="1.96717">
        <ele>125.11</ele>
        <time>2011-10-22T12:14:07Z</time>
      </trkpt>
      <trkpt lat="48.70055" lon="1.96715">
        <ele>125.11</ele>
        <time>2011-10-22T12:14:06Z</time>
      </trkpt>
      <trkpt lat="48.70057" lon="1.96714">
        <ele>125.59</ele>
        <time>2011-10-22T12:14:05Z</time>
      </trkpt>
      <trkpt lat="48.70058" lon="1.96714">
        <ele>124.63</ele>
        <time>2011-10-22T12:14:04Z</time>
      </trkpt>
      <trkpt lat="48.7006" lon="1.96714">
        <ele>124.63</ele>
        <time>2011-10-22T12:14:03Z</time>
      </trkpt>
      <trkpt lat="48.70063" lon="1.96711">
        <ele>124.63</ele>
        <time>2011-10-22T12:14:01Z</time>
      </trkpt>
      <trkpt lat="48.70065" lon="1.9671">
        <ele>124.63</ele>
        <time>2011-10-22T12:14:00Z</time>
      </trkpt>
      <trkpt lat="48.70067" lon="1.96709">
        <ele>124.15</ele>
        <time>2011-10-22T12:13:59Z</time>
      </trkpt>
      <trkpt lat="48.70072" lon="1.96703">
        <ele>124.63</ele>
        <time>2011-10-22T12:13:53Z</time>
      </trkpt>
      <trkpt lat="48.70073" lon="1.96703">
        <ele>124.15</ele>
        <time>2011-10-22T12:13:52Z</time>
      </trkpt>
      <trkpt lat="48.70075" lon="1.96703">
        <ele>124.63</ele>
        <time>2011-10-22T12:13:51Z</time>
      </trkpt>
      <trkpt lat="48.70076" lon="1.96702">
        <ele>124.63</ele>
        <time>2011-10-22T12:13:50Z</time>
      </trkpt>
      <trkpt lat="48.70078" lon="1.96702">
        <ele>124.15</ele>
        <time>2011-10-22T12:13:49Z</time>
      </trkpt>
      <trkpt lat="48.7008" lon="1.96701">
        <ele>124.15</ele>
        <time>2011-10-22T12:13:48Z</time>
      </trkpt>
      <trkpt lat="48.70082" lon="1.96701">
        <ele>124.15</ele>
        <time>2011-10-22T12:13:47Z</time>
      </trkpt>
      <trkpt lat="48.70084" lon="1.967">
        <ele>124.15</ele>
        <time>2011-10-22T12:13:46Z</time>
      </trkpt>
      <trkpt lat="48.70087" lon="1.967">
        <ele>124.15</ele>
        <time>2011-10-22T12:13:44Z</time>
      </trkpt>
      <trkpt lat="48.70092" lon="1.96697">
        <ele>123.67</ele>
        <time>2011-10-22T12:13:36Z</time>
      </trkpt>
      <trkpt lat="48.70098" lon="1.96691">
        <ele>123.67</ele>
        <time>2011-10-22T12:13:26Z</time>
      </trkpt>
      <trkpt lat="48.70101" lon="1.9669">
        <ele>123.67</ele>
        <time>2011-10-22T12:13:25Z</time>
      </trkpt>
      <trkpt lat="48.70104" lon="1.96689">
        <ele>123.19</ele>
        <time>2011-10-22T12:13:24Z</time>
      </trkpt>
      <trkpt lat="48.70108" lon="1.96687">
        <ele>123.19</ele>
        <time>2011-10-22T12:13:23Z</time>
      </trkpt>
      <trkpt lat="48.70113" lon="1.96684">
        <ele>122.71</ele>
        <time>2011-10-22T12:13:22Z</time>
      </trkpt>
      <trkpt lat="48.70145" lon="1.96666">
        <ele>124.15</ele>
        <time>2011-10-22T12:13:16Z</time>
      </trkpt>
      <trkpt lat="48.70149" lon="1.96662">
        <ele>124.15</ele>
        <time>2011-10-22T12:13:15Z</time>
      </trkpt>
      <trkpt lat="48.70166" lon="1.96646">
        <ele>127.03</ele>
        <time>2011-10-22T12:13:09Z</time>
      </trkpt>
      <trkpt lat="48.70203" lon="1.96645">
        <ele>126.07</ele>
        <time>2011-10-22T12:12:56Z</time>
      </trkpt>
      <trkpt lat="48.70205" lon="1.96646">
        <ele>126.07</ele>
        <time>2011-10-22T12:12:55Z</time>
      </trkpt>
      <trkpt lat="48.70207" lon="1.96647">
        <ele>126.07</ele>
        <time>2011-10-22T12:12:54Z</time>
      </trkpt>
      <trkpt lat="48.70214" lon="1.96642">
        <ele>125.59</ele>
        <time>2011-10-22T12:12:50Z</time>
      </trkpt>
      <trkpt lat="48.70245" lon="1.96644">
        <ele>122.22</ele>
        <time>2011-10-22T12:12:37Z</time>
      </trkpt>
      <trkpt lat="48.70249" lon="1.96646">
        <ele>121.26</ele>
        <time>2011-10-22T12:12:35Z</time>
      </trkpt>
      <trkpt lat="48.70263" lon="1.96649">
        <ele>117.9</ele>
        <time>2011-10-22T12:12:28Z</time>
      </trkpt>
      <trkpt lat="48.70281" lon="1.96672">
        <ele>115.01</ele>
        <time>2011-10-22T12:12:19Z</time>
      </trkpt>
      <trkpt lat="48.70281" lon="1.96675">
        <ele>115.01</ele>
        <time>2011-10-22T12:12:18Z</time>
      </trkpt>
      <trkpt lat="48.70282" lon="1.96678">
        <ele>114.53</ele>
        <time>2011-10-22T12:12:17Z</time>
      </trkpt>
      <trkpt lat="48.70282" lon="1.96681">
        <ele>115.01</ele>
        <time>2011-10-22T12:12:16Z</time>
      </trkpt>
      <trkpt lat="48.70284" lon="1.96683">
        <ele>114.53</ele>
        <time>2011-10-22T12:12:15Z</time>
      </trkpt>
      <trkpt lat="48.70285" lon="1.96686">
        <ele>114.53</ele>
        <time>2011-10-22T12:12:14Z</time>
      </trkpt>
      <trkpt lat="48.70287" lon="1.96689">
        <ele>114.53</ele>
        <time>2011-10-22T12:12:13Z</time>
      </trkpt>
      <trkpt lat="48.70287" lon="1.9669">
        <ele>115.01</ele>
        <time>2011-10-22T12:12:12Z</time>
      </trkpt>
      <trkpt lat="48.70289" lon="1.96693">
        <ele>114.53</ele>
        <time>2011-10-22T12:12:11Z</time>
      </trkpt>
      <trkpt lat="48.70287" lon="1.96731">
        <ele>112.61</ele>
        <time>2011-10-22T12:12:01Z</time>
      </trkpt>
      <trkpt lat="48.70292" lon="1.96772">
        <ele>112.13</ele>
        <time>2011-10-22T12:11:52Z</time>
      </trkpt>
      <trkpt lat="48.70292" lon="1.96778">
        <ele>112.13</ele>
        <time>2011-10-22T12:11:51Z</time>
      </trkpt>
      <trkpt lat="48.70293" lon="1.96784">
        <ele>112.61</ele>
        <time>2011-10-22T12:11:50Z</time>
      </trkpt>
      <trkpt lat="48.70295" lon="1.96796">
        <ele>112.61</ele>
        <time>2011-10-22T12:11:48Z</time>
      </trkpt>
      <trkpt lat="48.70296" lon="1.96801">
        <ele>112.61</ele>
        <time>2011-10-22T12:11:47Z</time>
      </trkpt>
      <trkpt lat="48.70296" lon="1.96808">
        <ele>112.61</ele>
        <time>2011-10-22T12:11:46Z</time>
      </trkpt>
      <trkpt lat="48.70297" lon="1.9683">
        <ele>112.61</ele>
        <time>2011-10-22T12:11:43Z</time>
      </trkpt>
      <trkpt lat="48.70301" lon="1.96881">
        <ele>114.05</ele>
        <time>2011-10-22T12:11:33Z</time>
      </trkpt>
      <trkpt lat="48.70302" lon="1.96885">
        <ele>114.05</ele>
        <time>2011-10-22T12:11:32Z</time>
      </trkpt>
      <trkpt lat="48.70303" lon="1.9689">
        <ele>115.01</ele>
        <time>2011-10-22T12:11:31Z</time>
      </trkpt>
      <trkpt lat="48.70304" lon="1.96893">
        <ele>115.01</ele>
        <time>2011-10-22T12:11:30Z</time>
      </trkpt>
      <trkpt lat="48.70305" lon="1.96899">
        <ele>115.01</ele>
        <time>2011-10-22T12:11:29Z</time>
      </trkpt>
      <trkpt lat="48.70306" lon="1.96903">
        <ele>115.01</ele>
        <time>2011-10-22T12:11:28Z</time>
      </trkpt>
      <trkpt lat="48.70308" lon="1.96905">
        <ele>115.5</ele>
        <time>2011-10-22T12:11:27Z</time>
      </trkpt>
      <trkpt lat="48.70309" lon="1.96905">
        <ele>115.5</ele>
        <time>2011-10-22T12:11:26Z</time>
      </trkpt>
      <trkpt lat="48.70312" lon="1.96902">
        <ele>115.5</ele>
        <time>2011-10-22T12:11:25Z</time>
      </trkpt>
      <trkpt lat="48.70314" lon="1.96897">
        <ele>115.98</ele>
        <time>2011-10-22T12:11:24Z</time>
      </trkpt>
      <trkpt lat="48.70317" lon="1.96891">
        <ele>116.46</ele>
        <time>2011-10-22T12:11:23Z</time>
      </trkpt>
      <trkpt lat="48.7032" lon="1.96885">
        <ele>115.98</ele>
        <time>2011-10-22T12:11:22Z</time>
      </trkpt>
      <trkpt lat="48.70323" lon="1.96871">
        <ele>118.38</ele>
        <time>2011-10-22T12:11:20Z</time>
      </trkpt>
      <trkpt lat="48.70324" lon="1.96863">
        <ele>118.86</ele>
        <time>2011-10-22T12:11:19Z</time>
      </trkpt>
      <trkpt lat="48.70326" lon="1.96855">
        <ele>119.82</ele>
        <time>2011-10-22T12:11:18Z</time>
      </trkpt>
      <trkpt lat="48.70342" lon="1.96818">
        <ele>122.22</ele>
        <time>2011-10-22T12:11:15Z</time>
      </trkpt>
      <trkpt lat="48.70355" lon="1.96796">
        <ele>125.59</ele>
        <time>2011-10-22T12:11:11Z</time>
      </trkpt>
      <trkpt lat="48.7037" lon="1.96759">
        <ele>129.92</ele>
        <time>2011-10-22T12:11:06Z</time>
      </trkpt>
      <trkpt lat="48.70384" lon="1.96717">
        <ele>133.76</ele>
        <time>2011-10-22T12:11:02Z</time>
      </trkpt>
      <trkpt lat="48.70393" lon="1.96687">
        <ele>137.61</ele>
        <time>2011-10-22T12:10:58Z</time>
      </trkpt>
      <trkpt lat="48.7041" lon="1.96649">
        <ele>141.45</ele>
        <time>2011-10-22T12:10:54Z</time>
      </trkpt>
      <trkpt lat="48.70412" lon="1.96639">
        <ele>141.93</ele>
        <time>2011-10-22T12:10:53Z</time>
      </trkpt>
      <trkpt lat="48.70415" lon="1.96625">
        <ele>145.3</ele>
        <time>2011-10-22T12:10:51Z</time>
      </trkpt>
      <trkpt lat="48.7042" lon="1.96603">
        <ele>148.66</ele>
        <time>2011-10-22T12:10:47Z</time>
      </trkpt>
      <trkpt lat="48.70422" lon="1.9659">
        <ele>152.03</ele>
        <time>2011-10-22T12:10:44Z</time>
      </trkpt>
      <trkpt lat="48.70422" lon="1.96586">
        <ele>152.51</ele>
        <time>2011-10-22T12:10:43Z</time>
      </trkpt>
      <trkpt lat="48.70425" lon="1.96581">
        <ele>152.99</ele>
        <time>2011-10-22T12:10:27Z</time>
      </trkpt>
      <trkpt lat="48.70428" lon="1.96585">
        <ele>153.47</ele>
        <time>2011-10-22T12:10:17Z</time>
      </trkpt>
      <trkpt lat="48.70429" lon="1.96589">
        <ele>153.47</ele>
        <time>2011-10-22T12:10:16Z</time>
      </trkpt>
      <trkpt lat="48.70443" lon="1.96668">
        <ele>155.39</ele>
        <time>2011-10-22T12:10:02Z</time>
      </trkpt>
      <trkpt lat="48.70445" lon="1.96678">
        <ele>156.35</ele>
        <time>2011-10-22T12:10:00Z</time>
      </trkpt>
      <trkpt lat="48.70447" lon="1.96691">
        <ele>159.72</ele>
        <time>2011-10-22T12:09:57Z</time>
      </trkpt>
      <trkpt lat="48.7045" lon="1.96769">
        <ele>160.2</ele>
        <time>2011-10-22T12:09:44Z</time>
      </trkpt>
      <trkpt lat="48.70452" lon="1.96837">
        <ele>160.2</ele>
        <time>2011-10-22T12:09:32Z</time>
      </trkpt>
      <trkpt lat="48.70444" lon="1.96896">
        <ele>158.27</ele>
        <time>2011-10-22T12:09:21Z</time>
      </trkpt>
      <trkpt lat="48.70443" lon="1.96899">
        <ele>158.27</ele>
        <time>2011-10-22T12:09:20Z</time>
      </trkpt>
      <trkpt lat="48.70441" lon="1.96903">
        <ele>158.27</ele>
        <time>2011-10-22T12:09:19Z</time>
      </trkpt>
      <trkpt lat="48.70439" lon="1.96914">
        <ele>159.24</ele>
        <time>2011-10-22T12:09:15Z</time>
      </trkpt>
      <trkpt lat="48.70436" lon="1.96933">
        <ele>160.2</ele>
        <time>2011-10-22T12:09:04Z</time>
      </trkpt>
      <trkpt lat="48.70421" lon="1.96976">
        <ele>158.27</ele>
        <time>2011-10-22T12:08:53Z</time>
      </trkpt>
      <trkpt lat="48.7042" lon="1.96983">
        <ele>158.27</ele>
        <time>2011-10-22T12:08:52Z</time>
      </trkpt>
      <trkpt lat="48.70419" lon="1.9699">
        <ele>158.27</ele>
        <time>2011-10-22T12:08:51Z</time>
      </trkpt>
      <trkpt lat="48.70417" lon="1.96997">
        <ele>157.79</ele>
        <time>2011-10-22T12:08:50Z</time>
      </trkpt>
      <trkpt lat="48.70416" lon="1.97003">
        <ele>157.79</ele>
        <time>2011-10-22T12:08:49Z</time>
      </trkpt>
      <trkpt lat="48.70415" lon="1.9701">
        <ele>157.79</ele>
        <time>2011-10-22T12:08:48Z</time>
      </trkpt>
      <trkpt lat="48.70402" lon="1.97103">
        <ele>156.83</ele>
        <time>2011-10-22T12:08:33Z</time>
      </trkpt>
      <trkpt lat="48.704" lon="1.97147">
        <ele>155.87</ele>
        <time>2011-10-22T12:08:26Z</time>
      </trkpt>
      <trkpt lat="48.70415" lon="1.97215">
        <ele>156.35</ele>
        <time>2011-10-22T12:08:12Z</time>
      </trkpt>
      <trkpt lat="48.70411" lon="1.97261">
        <ele>156.35</ele>
        <time>2011-10-22T12:08:01Z</time>
      </trkpt>
      <trkpt lat="48.70386" lon="1.9734">
        <ele>155.39</ele>
        <time>2011-10-22T12:07:47Z</time>
      </trkpt>
      <trkpt lat="48.70375" lon="1.974">
        <ele>156.83</ele>
        <time>2011-10-22T12:07:38Z</time>
      </trkpt>
      <trkpt lat="48.70361" lon="1.9747">
        <ele>156.35</ele>
        <time>2011-10-22T12:07:24Z</time>
      </trkpt>
      <trkpt lat="48.7036" lon="1.97498">
        <ele>158.27</ele>
        <time>2011-10-22T12:07:20Z</time>
      </trkpt>
      <trkpt lat="48.70347" lon="1.97536">
        <ele>158.75</ele>
        <time>2011-10-22T12:07:13Z</time>
      </trkpt>
      <trkpt lat="48.70333" lon="1.97594">
        <ele>156.83</ele>
        <time>2011-10-22T12:07:00Z</time>
      </trkpt>
      <trkpt lat="48.70324" lon="1.97667">
        <ele>155.39</ele>
        <time>2011-10-22T12:06:47Z</time>
      </trkpt>
      <trkpt lat="48.70347" lon="1.97724">
        <ele>154.43</ele>
        <time>2011-10-22T12:06:35Z</time>
      </trkpt>
      <trkpt lat="48.70388" lon="1.97767">
        <ele>154.91</ele>
        <time>2011-10-22T12:06:23Z</time>
      </trkpt>
      <trkpt lat="48.70432" lon="1.97789">
        <ele>153.95</ele>
        <time>2011-10-22T12:06:12Z</time>
      </trkpt>
      <trkpt lat="48.70478" lon="1.97836">
        <ele>152.51</ele>
        <time>2011-10-22T12:05:59Z</time>
      </trkpt>
      <trkpt lat="48.70521" lon="1.97893">
        <ele>149.14</ele>
        <time>2011-10-22T12:05:47Z</time>
      </trkpt>
      <trkpt lat="48.7058" lon="1.97923">
        <ele>149.62</ele>
        <time>2011-10-22T12:05:32Z</time>
      </trkpt>
      <trkpt lat="48.70583" lon="1.97927">
        <ele>149.62</ele>
        <time>2011-10-22T12:05:31Z</time>
      </trkpt>
      <trkpt lat="48.70586" lon="1.97933">
        <ele>149.14</ele>
        <time>2011-10-22T12:05:30Z</time>
      </trkpt>
      <trkpt lat="48.70588" lon="1.97938">
        <ele>149.62</ele>
        <time>2011-10-22T12:05:29Z</time>
      </trkpt>
      <trkpt lat="48.70591" lon="1.97945">
        <ele>149.14</ele>
        <time>2011-10-22T12:05:28Z</time>
      </trkpt>
      <trkpt lat="48.70594" lon="1.97951">
        <ele>149.14</ele>
        <time>2011-10-22T12:05:27Z</time>
      </trkpt>
      <trkpt lat="48.70596" lon="1.97957">
        <ele>150.1</ele>
        <time>2011-10-22T12:05:26Z</time>
      </trkpt>
      <trkpt lat="48.70598" lon="1.97961">
        <ele>149.62</ele>
        <time>2011-10-22T12:05:25Z</time>
      </trkpt>
      <trkpt lat="48.70601" lon="1.97965">
        <ele>150.1</ele>
        <time>2011-10-22T12:05:24Z</time>
      </trkpt>
      <trkpt lat="48.70604" lon="1.97968">
        <ele>150.1</ele>
        <time>2011-10-22T12:05:23Z</time>
      </trkpt>
      <trkpt lat="48.70606" lon="1.9797">
        <ele>150.1</ele>
        <time>2011-10-22T12:05:22Z</time>
      </trkpt>
      <trkpt lat="48.70608" lon="1.97971">
        <ele>149.62</ele>
        <time>2011-10-22T12:05:21Z</time>
      </trkpt>
      <trkpt lat="48.7061" lon="1.9797">
        <ele>150.1</ele>
        <time>2011-10-22T12:05:20Z</time>
      </trkpt>
      <trkpt lat="48.70612" lon="1.97968">
        <ele>150.1</ele>
        <time>2011-10-22T12:05:19Z</time>
      </trkpt>
      <trkpt lat="48.70614" lon="1.97961">
        <ele>150.58</ele>
        <time>2011-10-22T12:05:18Z</time>
      </trkpt>
      <trkpt lat="48.70616" lon="1.97952">
        <ele>150.58</ele>
        <time>2011-10-22T12:05:17Z</time>
      </trkpt>
      <trkpt lat="48.70617" lon="1.97941">
        <ele>150.58</ele>
        <time>2011-10-22T12:05:16Z</time>
      </trkpt>
      <trkpt lat="48.70615" lon="1.97932">
        <ele>150.58</ele>
        <time>2011-10-22T12:05:05Z</time>
      </trkpt>
      <trkpt lat="48.70614" lon="1.97991">
        <ele>150.58</ele>
        <time>2011-10-22T12:04:52Z</time>
      </trkpt>
      <trkpt lat="48.70614" lon="1.98061">
        <ele>150.1</ele>
        <time>2011-10-22T12:04:40Z</time>
      </trkpt>
      <trkpt lat="48.70615" lon="1.98119">
        <ele>150.1</ele>
        <time>2011-10-22T12:04:27Z</time>
      </trkpt>
      <trkpt lat="48.7063" lon="1.98168">
        <ele>148.66</ele>
        <time>2011-10-22T12:04:12Z</time>
      </trkpt>
      <trkpt lat="48.70641" lon="1.98215">
        <ele>146.74</ele>
        <time>2011-10-22T12:03:59Z</time>
      </trkpt>
      <trkpt lat="48.70648" lon="1.98257">
        <ele>144.34</ele>
        <time>2011-10-22T12:03:45Z</time>
      </trkpt>
      <trkpt lat="48.70655" lon="1.98294">
        <ele>141.93</ele>
        <time>2011-10-22T12:03:31Z</time>
      </trkpt>
      <trkpt lat="48.70662" lon="1.98325">
        <ele>140.49</ele>
        <time>2011-10-22T12:03:18Z</time>
      </trkpt>
      <trkpt lat="48.70669" lon="1.9835">
        <ele>137.13</ele>
        <time>2011-10-22T12:03:06Z</time>
      </trkpt>
      <trkpt lat="48.70673" lon="1.98375">
        <ele>133.76</ele>
        <time>2011-10-22T12:02:54Z</time>
      </trkpt>
      <trkpt lat="48.7067" lon="1.98406">
        <ele>130.4</ele>
        <time>2011-10-22T12:02:41Z</time>
      </trkpt>
      <trkpt lat="48.70675" lon="1.98441">
        <ele>127.51</ele>
        <time>2011-10-22T12:02:28Z</time>
      </trkpt>
      <trkpt lat="48.70686" lon="1.9846">
        <ele>124.63</ele>
        <time>2011-10-22T12:02:19Z</time>
      </trkpt>
      <trkpt lat="48.7069" lon="1.98466">
        <ele>123.19</ele>
        <time>2011-10-22T12:02:17Z</time>
      </trkpt>
      <trkpt lat="48.70701" lon="1.98492">
        <ele>119.82</ele>
        <time>2011-10-22T12:02:06Z</time>
      </trkpt>
      <trkpt lat="48.70708" lon="1.98507">
        <ele>117.9</ele>
        <time>2011-10-22T12:02:00Z</time>
      </trkpt>
      <trkpt lat="48.70719" lon="1.98528">
        <ele>115.01</ele>
        <time>2011-10-22T12:01:51Z</time>
      </trkpt>
      <trkpt lat="48.70735" lon="1.98558">
        <ele>111.65</ele>
        <time>2011-10-22T12:01:39Z</time>
      </trkpt>
      <trkpt lat="48.70749" lon="1.98587">
        <ele>107.81</ele>
        <time>2011-10-22T12:01:28Z</time>
      </trkpt>
      <trkpt lat="48.70771" lon="1.98623">
        <ele>105.4</ele>
        <time>2011-10-22T12:01:14Z</time>
      </trkpt>
      <trkpt lat="48.7078" lon="1.98637">
        <ele>104.44</ele>
        <time>2011-10-22T12:01:07Z</time>
      </trkpt>
      <trkpt lat="48.70781" lon="1.98641">
        <ele>103.96</ele>
        <time>2011-10-22T12:01:05Z</time>
      </trkpt>
      <trkpt lat="48.70788" lon="1.98645">
        <ele>103.48</ele>
        <time>2011-10-22T12:01:00Z</time>
      </trkpt>
      <trkpt lat="48.70788" lon="1.98649">
        <ele>103</ele>
        <time>2011-10-22T12:00:56Z</time>
      </trkpt>
      <trkpt lat="48.70791" lon="1.9864">
        <ele>103.48</ele>
        <time>2011-10-22T12:00:51Z</time>
      </trkpt>
      <trkpt lat="48.70792" lon="1.98645">
        <ele>104.44</ele>
        <time>2011-10-22T12:00:45Z</time>
      </trkpt>
      <trkpt lat="48.70788" lon="1.98652">
        <ele>103</ele>
        <time>2011-10-22T12:00:41Z</time>
      </trkpt>
      <trkpt lat="48.70787" lon="1.9864">
        <ele>103.48</ele>
        <time>2011-10-22T12:00:33Z</time>
      </trkpt>
      <trkpt lat="48.70786" lon="1.98647">
        <ele>103.48</ele>
        <time>2011-10-22T12:00:26Z</time>
      </trkpt>
      <trkpt lat="48.70784" lon="1.98648">
        <ele>103</ele>
        <time>2011-10-22T12:00:21Z</time>
      </trkpt>
      <trkpt lat="48.70787" lon="1.98641">
        <ele>103</ele>
        <time>2011-10-22T12:00:17Z</time>
      </trkpt>
      <trkpt lat="48.70787" lon="1.98642">
        <ele>103.48</ele>
        <time>2011-10-22T12:00:16Z</time>
      </trkpt>
      <trkpt lat="48.70787" lon="1.98643">
        <ele>103.48</ele>
        <time>2011-10-22T12:00:15Z</time>
      </trkpt>
      <trkpt lat="48.70787" lon="1.98645">
        <ele>103</ele>
        <time>2011-10-22T12:00:14Z</time>
      </trkpt>
      <trkpt lat="48.70786" lon="1.98648">
        <ele>103.48</ele>
        <time>2011-10-22T12:00:13Z</time>
      </trkpt>
      <trkpt lat="48.70783" lon="1.98649">
        <ele>102.52</ele>
        <time>2011-10-22T12:00:07Z</time>
      </trkpt>
      <trkpt lat="48.70784" lon="1.98644">
        <ele>102.52</ele>
        <time>2011-10-22T12:00:06Z</time>
      </trkpt>
      <trkpt lat="48.70787" lon="1.98638">
        <ele>102.52</ele>
        <time>2011-10-22T12:00:05Z</time>
      </trkpt>
      <trkpt lat="48.70794" lon="1.98637">
        <ele>103</ele>
        <time>2011-10-22T11:59:58Z</time>
      </trkpt>
      <trkpt lat="48.7079" lon="1.98645">
        <ele>103</ele>
        <time>2011-10-22T11:59:54Z</time>
      </trkpt>
      <trkpt lat="48.70789" lon="1.98646">
        <ele>103.48</ele>
        <time>2011-10-22T11:59:53Z</time>
      </trkpt>
      <trkpt lat="48.70788" lon="1.98648">
        <ele>103</ele>
        <time>2011-10-22T11:59:52Z</time>
      </trkpt>
      <trkpt lat="48.70786" lon="1.98649">
        <ele>103</ele>
        <time>2011-10-22T11:59:51Z</time>
      </trkpt>
      <trkpt lat="48.70785" lon="1.98651">
        <ele>103</ele>
        <time>2011-10-22T11:59:50Z</time>
      </trkpt>
      <trkpt lat="48.70783" lon="1.98651">
        <ele>103</ele>
        <time>2011-10-22T11:59:47Z</time>
      </trkpt>
      <trkpt lat="48.70783" lon="1.9865">
        <ele>102.52</ele>
        <time>2011-10-22T11:59:46Z</time>
      </trkpt>
      <trkpt lat="48.70783" lon="1.98647">
        <ele>103</ele>
        <time>2011-10-22T11:59:33Z</time>
      </trkpt>
      <trkpt lat="48.70783" lon="1.98648">
        <ele>103</ele>
        <time>2011-10-22T11:59:12Z</time>
      </trkpt>
      <trkpt lat="48.70783" lon="1.98648">
        <ele>103</ele>
        <time>2011-10-22T11:58:43Z</time>
      </trkpt>
      <trkpt lat="48.70783" lon="1.98647">
        <ele>102.52</ele>
        <time>2011-10-22T11:58:18Z</time>
      </trkpt>
      <trkpt lat="48.70783" lon="1.98647">
        <ele>103</ele>
        <time>2011-10-22T11:57:46Z</time>
      </trkpt>
      <trkpt lat="48.70783" lon="1.98647">
        <ele>103</ele>
        <time>2011-10-22T11:57:14Z</time>
      </trkpt>
      <trkpt lat="48.70783" lon="1.98647">
        <ele>103</ele>
        <time>2011-10-22T11:56:52Z</time>
      </trkpt>
      <trkpt lat="48.70783" lon="1.98647">
        <ele>102.52</ele>
        <time>2011-10-22T11:56:27Z</time>
      </trkpt>
      <trkpt lat="48.70783" lon="1.98647">
        <ele>103</ele>
        <time>2011-10-22T11:56:05Z</time>
      </trkpt>
      <trkpt lat="48.70786" lon="1.98646">
        <ele>103</ele>
        <time>2011-10-22T11:55:52Z</time>
      </trkpt>
      <trkpt lat="48.70787" lon="1.98645">
        <ele>103.48</ele>
        <time>2011-10-22T11:55:51Z</time>
      </trkpt>
      <trkpt lat="48.70788" lon="1.98644">
        <ele>103.48</ele>
        <time>2011-10-22T11:55:50Z</time>
      </trkpt>
      <trkpt lat="48.70789" lon="1.98645">
        <ele>103.48</ele>
        <time>2011-10-22T11:55:44Z</time>
      </trkpt>
      <trkpt lat="48.70789" lon="1.98648">
        <ele>103</ele>
        <time>2011-10-22T11:55:41Z</time>
      </trkpt>
      <trkpt lat="48.70799" lon="1.98621">
        <ele>103.48</ele>
        <time>2011-10-22T11:55:29Z</time>
      </trkpt>
      <trkpt lat="48.70826" lon="1.98551">
        <ele>103.96</ele>
        <time>2011-10-22T11:55:13Z</time>
      </trkpt>
      <trkpt lat="48.70826" lon="1.98547">
        <ele>103.96</ele>
        <time>2011-10-22T11:55:12Z</time>
      </trkpt>
      <trkpt lat="48.70828" lon="1.98544">
        <ele>104.44</ele>
        <time>2011-10-22T11:55:11Z</time>
      </trkpt>
      <trkpt lat="48.70829" lon="1.98541">
        <ele>103.96</ele>
        <time>2011-10-22T11:55:10Z</time>
      </trkpt>
      <trkpt lat="48.70831" lon="1.9854">
        <ele>103.48</ele>
        <time>2011-10-22T11:55:09Z</time>
      </trkpt>
      <trkpt lat="48.70833" lon="1.9854">
        <ele>103.96</ele>
        <time>2011-10-22T11:55:08Z</time>
      </trkpt>
      <trkpt lat="48.7086" lon="1.9854">
        <ele>100.6</ele>
        <time>2011-10-22T11:54:57Z</time>
      </trkpt>
      <trkpt lat="48.70902" lon="1.98548">
        <ele>97.71</ele>
        <time>2011-10-22T11:54:44Z</time>
      </trkpt>
      <trkpt lat="48.70932" lon="1.98564">
        <ele>94.35</ele>
        <time>2011-10-22T11:54:34Z</time>
      </trkpt>
      <trkpt lat="48.70945" lon="1.98576">
        <ele>92.42</ele>
        <time>2011-10-22T11:54:29Z</time>
      </trkpt>
      <trkpt lat="48.7099" lon="1.98594">
        <ele>89.54</ele>
        <time>2011-10-22T11:54:16Z</time>
      </trkpt>
      <trkpt lat="48.71006" lon="1.98589">
        <ele>88.58</ele>
        <time>2011-10-22T11:54:12Z</time>
      </trkpt>
      <trkpt lat="48.7101" lon="1.98588">
        <ele>88.58</ele>
        <time>2011-10-22T11:54:11Z</time>
      </trkpt>
      <trkpt lat="48.71022" lon="1.98583">
        <ele>87.62</ele>
        <time>2011-10-22T11:54:08Z</time>
      </trkpt>
      <trkpt lat="48.711" lon="1.98581">
        <ele>85.21</ele>
        <time>2011-10-22T11:53:50Z</time>
      </trkpt>
      <trkpt lat="48.71163" lon="1.98589">
        <ele>83.77</ele>
        <time>2011-10-22T11:53:37Z</time>
      </trkpt>
      <trkpt lat="48.71168" lon="1.9859">
        <ele>83.77</ele>
        <time>2011-10-22T11:53:36Z</time>
      </trkpt>
      <trkpt lat="48.71173" lon="1.9859">
        <ele>83.77</ele>
        <time>2011-10-22T11:53:35Z</time>
      </trkpt>
      <trkpt lat="48.71177" lon="1.98591">
        <ele>83.29</ele>
        <time>2011-10-22T11:53:34Z</time>
      </trkpt>
      <trkpt lat="48.71182" lon="1.98589">
        <ele>83.77</ele>
        <time>2011-10-22T11:53:33Z</time>
      </trkpt>
      <trkpt lat="48.71191" lon="1.98584">
        <ele>83.29</ele>
        <time>2011-10-22T11:53:31Z</time>
      </trkpt>
      <trkpt lat="48.71196" lon="1.9858">
        <ele>83.77</ele>
        <time>2011-10-22T11:53:30Z</time>
      </trkpt>
      <trkpt lat="48.71202" lon="1.98577">
        <ele>83.29</ele>
        <time>2011-10-22T11:53:29Z</time>
      </trkpt>
      <trkpt lat="48.71207" lon="1.98575">
        <ele>82.81</ele>
        <time>2011-10-22T11:53:28Z</time>
      </trkpt>
      <trkpt lat="48.71213" lon="1.98573">
        <ele>83.29</ele>
        <time>2011-10-22T11:53:27Z</time>
      </trkpt>
      <trkpt lat="48.71219" lon="1.9857">
        <ele>83.77</ele>
        <time>2011-10-22T11:53:26Z</time>
      </trkpt>
      <trkpt lat="48.71229" lon="1.98564">
        <ele>84.25</ele>
        <time>2011-10-22T11:53:24Z</time>
      </trkpt>
      <trkpt lat="48.71234" lon="1.98559">
        <ele>84.25</ele>
        <time>2011-10-22T11:53:23Z</time>
      </trkpt>
      <trkpt lat="48.71238" lon="1.98553">
        <ele>84.25</ele>
        <time>2011-10-22T11:53:22Z</time>
      </trkpt>
      <trkpt lat="48.71247" lon="1.98542">
        <ele>83.77</ele>
        <time>2011-10-22T11:53:20Z</time>
      </trkpt>
      <trkpt lat="48.71251" lon="1.98536">
        <ele>84.25</ele>
        <time>2011-10-22T11:53:19Z</time>
      </trkpt>
      <trkpt lat="48.71255" lon="1.98533">
        <ele>84.73</ele>
        <time>2011-10-22T11:53:18Z</time>
      </trkpt>
      <trkpt lat="48.71293" lon="1.98511">
        <ele>86.66</ele>
        <time>2011-10-22T11:53:07Z</time>
      </trkpt>
      <trkpt lat="48.71296" lon="1.9851">
        <ele>86.66</ele>
        <time>2011-10-22T11:53:06Z</time>
      </trkpt>
      <trkpt lat="48.713" lon="1.9851">
        <ele>86.18</ele>
        <time>2011-10-22T11:53:05Z</time>
      </trkpt>
      <trkpt lat="48.71319" lon="1.98508">
        <ele>88.1</ele>
        <time>2011-10-22T11:52:57Z</time>
      </trkpt>
      <trkpt lat="48.71352" lon="1.98515">
        <ele>90.5</ele>
        <time>2011-10-22T11:52:48Z</time>
      </trkpt>
      <trkpt lat="48.71355" lon="1.98516">
        <ele>90.5</ele>
        <time>2011-10-22T11:52:47Z</time>
      </trkpt>
      <trkpt lat="48.71358" lon="1.98516">
        <ele>90.98</ele>
        <time>2011-10-22T11:52:46Z</time>
      </trkpt>
      <trkpt lat="48.7136" lon="1.98517">
        <ele>90.98</ele>
        <time>2011-10-22T11:52:45Z</time>
      </trkpt>
      <trkpt lat="48.71365" lon="1.9852">
        <ele>91.46</ele>
        <time>2011-10-22T11:52:44Z</time>
      </trkpt>
      <trkpt lat="48.71377" lon="1.98526">
        <ele>91.94</ele>
        <time>2011-10-22T11:52:42Z</time>
      </trkpt>
      <trkpt lat="48.71383" lon="1.98528">
        <ele>92.9</ele>
        <time>2011-10-22T11:52:41Z</time>
      </trkpt>
      <trkpt lat="48.71389" lon="1.9853">
        <ele>93.87</ele>
        <time>2011-10-22T11:52:40Z</time>
      </trkpt>
      <trkpt lat="48.71396" lon="1.98533">
        <ele>94.35</ele>
        <time>2011-10-22T11:52:39Z</time>
      </trkpt>
      <trkpt lat="48.71402" lon="1.98535">
        <ele>94.83</ele>
        <time>2011-10-22T11:52:38Z</time>
      </trkpt>
      <trkpt lat="48.71407" lon="1.98538">
        <ele>95.31</ele>
        <time>2011-10-22T11:52:37Z</time>
      </trkpt>
      <trkpt lat="48.71411" lon="1.9854">
        <ele>95.79</ele>
        <time>2011-10-22T11:52:36Z</time>
      </trkpt>
      <trkpt lat="48.71413" lon="1.98544">
        <ele>96.27</ele>
        <time>2011-10-22T11:52:35Z</time>
      </trkpt>
      <trkpt lat="48.71417" lon="1.98546">
        <ele>96.27</ele>
        <time>2011-10-22T11:52:34Z</time>
      </trkpt>
      <trkpt lat="48.71421" lon="1.98547">
        <ele>96.27</ele>
        <time>2011-10-22T11:52:33Z</time>
      </trkpt>
      <trkpt lat="48.71446" lon="1.98554">
        <ele>98.67</ele>
        <time>2011-10-22T11:52:28Z</time>
      </trkpt>
      <trkpt lat="48.7145" lon="1.98552">
        <ele>99.15</ele>
        <time>2011-10-22T11:52:27Z</time>
      </trkpt>
      <trkpt lat="48.71459" lon="1.98548">
        <ele>99.63</ele>
        <time>2011-10-22T11:52:25Z</time>
      </trkpt>
      <trkpt lat="48.7147" lon="1.98542">
        <ele>100.11</ele>
        <time>2011-10-22T11:52:23Z</time>
      </trkpt>
      <trkpt lat="48.71482" lon="1.98537">
        <ele>101.08</ele>
        <time>2011-10-22T11:52:21Z</time>
      </trkpt>
      <trkpt lat="48.71495" lon="1.98533">
        <ele>101.56</ele>
        <time>2011-10-22T11:52:19Z</time>
      </trkpt>
      <trkpt lat="48.71504" lon="1.98531">
        <ele>101.56</ele>
        <time>2011-10-22T11:52:18Z</time>
      </trkpt>
      <trkpt lat="48.71511" lon="1.98528">
        <ele>102.04</ele>
        <time>2011-10-22T11:52:17Z</time>
      </trkpt>
      <trkpt lat="48.71522" lon="1.98519">
        <ele>103.48</ele>
        <time>2011-10-22T11:52:15Z</time>
      </trkpt>
      <trkpt lat="48.71539" lon="1.98513">
        <ele>105.88</ele>
        <time>2011-10-22T11:52:12Z</time>
      </trkpt>
      <trkpt lat="48.7156" lon="1.98504">
        <ele>107.81</ele>
        <time>2011-10-22T11:52:08Z</time>
      </trkpt>
      <trkpt lat="48.71566" lon="1.98501">
        <ele>108.29</ele>
        <time>2011-10-22T11:52:07Z</time>
      </trkpt>
      <trkpt lat="48.71572" lon="1.98499">
        <ele>108.77</ele>
        <time>2011-10-22T11:52:06Z</time>
      </trkpt>
      <trkpt lat="48.71592" lon="1.98493">
        <ele>111.17</ele>
        <time>2011-10-22T11:52:03Z</time>
      </trkpt>
      <trkpt lat="48.71599" lon="1.98492">
        <ele>112.13</ele>
        <time>2011-10-22T11:52:02Z</time>
      </trkpt>
      <trkpt lat="48.71606" lon="1.9849">
        <ele>113.09</ele>
        <time>2011-10-22T11:52:01Z</time>
      </trkpt>
      <trkpt lat="48.71622" lon="1.98487">
        <ele>115.98</ele>
        <time>2011-10-22T11:51:58Z</time>
      </trkpt>
      <trkpt lat="48.71628" lon="1.98486">
        <ele>115.98</ele>
        <time>2011-10-22T11:51:57Z</time>
      </trkpt>
      <trkpt lat="48.71643" lon="1.98482">
        <ele>118.86</ele>
        <time>2011-10-22T11:51:54Z</time>
      </trkpt>
      <trkpt lat="48.71661" lon="1.98477">
        <ele>122.71</ele>
        <time>2011-10-22T11:51:50Z</time>
      </trkpt>
      <trkpt lat="48.71677" lon="1.9847">
        <ele>125.11</ele>
        <time>2011-10-22T11:51:46Z</time>
      </trkpt>
      <trkpt lat="48.71691" lon="1.98464">
        <ele>128.47</ele>
        <time>2011-10-22T11:51:41Z</time>
      </trkpt>
      <trkpt lat="48.71707" lon="1.98454">
        <ele>131.84</ele>
        <time>2011-10-22T11:51:37Z</time>
      </trkpt>
      <trkpt lat="48.71724" lon="1.98442">
        <ele>136.16</ele>
        <time>2011-10-22T11:51:32Z</time>
      </trkpt>
      <trkpt lat="48.71731" lon="1.98437">
        <ele>137.13</ele>
        <time>2011-10-22T11:51:30Z</time>
      </trkpt>
      <trkpt lat="48.71749" lon="1.98434">
        <ele>139.05</ele>
        <time>2011-10-22T11:51:25Z</time>
      </trkpt>
      <trkpt lat="48.71761" lon="1.98425">
        <ele>142.41</ele>
        <time>2011-10-22T11:51:21Z</time>
      </trkpt>
      <trkpt lat="48.71777" lon="1.98396">
        <ele>147.22</ele>
        <time>2011-10-22T11:51:16Z</time>
      </trkpt>
      <trkpt lat="48.71793" lon="1.98376">
        <ele>150.1</ele>
        <time>2011-10-22T11:51:10Z</time>
      </trkpt>
      <trkpt lat="48.71829" lon="1.98376">
        <ele>151.06</ele>
        <time>2011-10-22T11:51:01Z</time>
      </trkpt>
      <trkpt lat="48.7185" lon="1.98374">
        <ele>154.91</ele>
        <time>2011-10-22T11:50:55Z</time>
      </trkpt>
      <trkpt lat="48.71852" lon="1.98375">
        <ele>154.91</ele>
        <time>2011-10-22T11:50:54Z</time>
      </trkpt>
      <trkpt lat="48.71854" lon="1.98377">
        <ele>154.91</ele>
        <time>2011-10-22T11:50:53Z</time>
      </trkpt>
      <trkpt lat="48.71857" lon="1.98405">
        <ele>155.87</ele>
        <time>2011-10-22T11:50:47Z</time>
      </trkpt>
      <trkpt lat="48.71857" lon="1.98408">
        <ele>156.35</ele>
        <time>2011-10-22T11:50:46Z</time>
      </trkpt>
      <trkpt lat="48.71857" lon="1.98412">
        <ele>156.83</ele>
        <time>2011-10-22T11:50:45Z</time>
      </trkpt>
      <trkpt lat="48.71858" lon="1.98414">
        <ele>157.31</ele>
        <time>2011-10-22T11:50:44Z</time>
      </trkpt>
      <trkpt lat="48.71858" lon="1.98417">
        <ele>157.31</ele>
        <time>2011-10-22T11:50:43Z</time>
      </trkpt>
      <trkpt lat="48.71858" lon="1.9842">
        <ele>157.31</ele>
        <time>2011-10-22T11:50:42Z</time>
      </trkpt>
      <trkpt lat="48.71847" lon="1.98435">
        <ele>157.31</ele>
        <time>2011-10-22T11:50:38Z</time>
      </trkpt>
      <trkpt lat="48.71843" lon="1.98439">
        <ele>157.31</ele>
        <time>2011-10-22T11:50:37Z</time>
      </trkpt>
      <trkpt lat="48.71837" lon="1.98447">
        <ele>157.31</ele>
        <time>2011-10-22T11:50:35Z</time>
      </trkpt>
      <trkpt lat="48.71833" lon="1.98451">
        <ele>157.79</ele>
        <time>2011-10-22T11:50:34Z</time>
      </trkpt>
      <trkpt lat="48.7183" lon="1.98457">
        <ele>157.79</ele>
        <time>2011-10-22T11:50:33Z</time>
      </trkpt>
      <trkpt lat="48.718" lon="1.98519">
        <ele>156.35</ele>
        <time>2011-10-22T11:50:24Z</time>
      </trkpt>
      <trkpt lat="48.71744" lon="1.98625">
        <ele>157.31</ele>
        <time>2011-10-22T11:50:10Z</time>
      </trkpt>
      <trkpt lat="48.7169" lon="1.98728">
        <ele>157.79</ele>
        <time>2011-10-22T11:49:54Z</time>
      </trkpt>
      <trkpt lat="48.71649" lon="1.988">
        <ele>157.79</ele>
        <time>2011-10-22T11:49:44Z</time>
      </trkpt>
      <trkpt lat="48.71645" lon="1.98807">
        <ele>157.79</ele>
        <time>2011-10-22T11:49:43Z</time>
      </trkpt>
      <trkpt lat="48.71642" lon="1.98815">
        <ele>157.79</ele>
        <time>2011-10-22T11:49:42Z</time>
      </trkpt>
      <trkpt lat="48.71631" lon="1.98851">
        <ele>158.75</ele>
        <time>2011-10-22T11:49:37Z</time>
      </trkpt>
      <trkpt lat="48.71622" lon="1.98898">
        <ele>158.75</ele>
        <time>2011-10-22T11:49:29Z</time>
      </trkpt>
      <trkpt lat="48.71633" lon="1.98988">
        <ele>158.27</ele>
        <time>2011-10-22T11:49:18Z</time>
      </trkpt>
      <trkpt lat="48.71658" lon="1.99073">
        <ele>159.24</ele>
        <time>2011-10-22T11:49:07Z</time>
      </trkpt>
      <trkpt lat="48.71708" lon="1.992">
        <ele>157.31</ele>
        <time>2011-10-22T11:48:48Z</time>
      </trkpt>
      <trkpt lat="48.71711" lon="1.99207">
        <ele>157.79</ele>
        <time>2011-10-22T11:48:47Z</time>
      </trkpt>
      <trkpt lat="48.71713" lon="1.99213">
        <ele>157.79</ele>
        <time>2011-10-22T11:48:46Z</time>
      </trkpt>
      <trkpt lat="48.71716" lon="1.99219">
        <ele>156.83</ele>
        <time>2011-10-22T11:48:45Z</time>
      </trkpt>
      <trkpt lat="48.7172" lon="1.99225">
        <ele>157.31</ele>
        <time>2011-10-22T11:48:44Z</time>
      </trkpt>
      <trkpt lat="48.71724" lon="1.9923">
        <ele>156.83</ele>
        <time>2011-10-22T11:48:43Z</time>
      </trkpt>
      <trkpt lat="48.71732" lon="1.99239">
        <ele>156.35</ele>
        <time>2011-10-22T11:48:41Z</time>
      </trkpt>
      <trkpt lat="48.71811" lon="1.99296">
        <ele>156.35</ele>
        <time>2011-10-22T11:48:23Z</time>
      </trkpt>
      <trkpt lat="48.71816" lon="1.99299">
        <ele>155.39</ele>
        <time>2011-10-22T11:48:22Z</time>
      </trkpt>
      <trkpt lat="48.71882" lon="1.99358">
        <ele>155.39</ele>
        <time>2011-10-22T11:48:07Z</time>
      </trkpt>
      <trkpt lat="48.71942" lon="1.99393">
        <ele>155.39</ele>
        <time>2011-10-22T11:47:54Z</time>
      </trkpt>
      <trkpt lat="48.71946" lon="1.99396">
        <ele>154.91</ele>
        <time>2011-10-22T11:47:53Z</time>
      </trkpt>
      <trkpt lat="48.71984" lon="1.99431">
        <ele>155.87</ele>
        <time>2011-10-22T11:47:41Z</time>
      </trkpt>
      <trkpt lat="48.71988" lon="1.99435">
        <ele>155.39</ele>
        <time>2011-10-22T11:47:40Z</time>
      </trkpt>
      <trkpt lat="48.7203" lon="1.99472">
        <ele>155.87</ele>
        <time>2011-10-22T11:47:30Z</time>
      </trkpt>
      <trkpt lat="48.72035" lon="1.99476">
        <ele>156.35</ele>
        <time>2011-10-22T11:47:29Z</time>
      </trkpt>
      <trkpt lat="48.72039" lon="1.99479">
        <ele>156.35</ele>
        <time>2011-10-22T11:47:28Z</time>
      </trkpt>
      <trkpt lat="48.72045" lon="1.99481">
        <ele>156.35</ele>
        <time>2011-10-22T11:47:27Z</time>
      </trkpt>
      <trkpt lat="48.7205" lon="1.99483">
        <ele>156.35</ele>
        <time>2011-10-22T11:47:26Z</time>
      </trkpt>
      <trkpt lat="48.72055" lon="1.99484">
        <ele>156.35</ele>
        <time>2011-10-22T11:47:25Z</time>
      </trkpt>
      <trkpt lat="48.72061" lon="1.99484">
        <ele>156.35</ele>
        <time>2011-10-22T11:47:24Z</time>
      </trkpt>
      <trkpt lat="48.72067" lon="1.99484">
        <ele>156.35</ele>
        <time>2011-10-22T11:47:23Z</time>
      </trkpt>
      <trkpt lat="48.72076" lon="1.99481">
        <ele>156.83</ele>
        <time>2011-10-22T11:47:21Z</time>
      </trkpt>
      <trkpt lat="48.72107" lon="1.99464">
        <ele>156.83</ele>
        <time>2011-10-22T11:47:15Z</time>
      </trkpt>
      <trkpt lat="48.72178" lon="1.99428">
        <ele>156.83</ele>
        <time>2011-10-22T11:47:00Z</time>
      </trkpt>
      <trkpt lat="48.72221" lon="1.99413">
        <ele>157.31</ele>
        <time>2011-10-22T11:46:50Z</time>
      </trkpt>
      <trkpt lat="48.72224" lon="1.99411">
        <ele>157.31</ele>
        <time>2011-10-22T11:46:49Z</time>
      </trkpt>
      <trkpt lat="48.72228" lon="1.9941">
        <ele>157.79</ele>
        <time>2011-10-22T11:46:48Z</time>
      </trkpt>
      <trkpt lat="48.72261" lon="1.99422">
        <ele>157.79</ele>
        <time>2011-10-22T11:46:38Z</time>
      </trkpt>
      <trkpt lat="48.72326" lon="1.99454">
        <ele>156.83</ele>
        <time>2011-10-22T11:46:22Z</time>
      </trkpt>
      <trkpt lat="48.72345" lon="1.99457">
        <ele>156.83</ele>
        <time>2011-10-22T11:46:18Z</time>
      </trkpt>
      <trkpt lat="48.7235" lon="1.99459">
        <ele>156.83</ele>
        <time>2011-10-22T11:46:17Z</time>
      </trkpt>
      <trkpt lat="48.72355" lon="1.99459">
        <ele>156.83</ele>
        <time>2011-10-22T11:46:16Z</time>
      </trkpt>
      <trkpt lat="48.72431" lon="1.99473">
        <ele>156.83</ele>
        <time>2011-10-22T11:46:01Z</time>
      </trkpt>
      <trkpt lat="48.72436" lon="1.99474">
        <ele>156.83</ele>
        <time>2011-10-22T11:46:00Z</time>
      </trkpt>
      <trkpt lat="48.72441" lon="1.99476">
        <ele>156.83</ele>
        <time>2011-10-22T11:45:59Z</time>
      </trkpt>
      <trkpt lat="48.72445" lon="1.99479">
        <ele>156.83</ele>
        <time>2011-10-22T11:45:58Z</time>
      </trkpt>
      <trkpt lat="48.7245" lon="1.99483">
        <ele>156.83</ele>
        <time>2011-10-22T11:45:57Z</time>
      </trkpt>
      <trkpt lat="48.72453" lon="1.99488">
        <ele>156.83</ele>
        <time>2011-10-22T11:45:56Z</time>
      </trkpt>
      <trkpt lat="48.72455" lon="1.99495">
        <ele>156.35</ele>
        <time>2011-10-22T11:45:55Z</time>
      </trkpt>
      <trkpt lat="48.72455" lon="1.99524">
        <ele>156.83</ele>
        <time>2011-10-22T11:45:51Z</time>
      </trkpt>
      <trkpt lat="48.72454" lon="1.99532">
        <ele>156.83</ele>
        <time>2011-10-22T11:45:50Z</time>
      </trkpt>
      <trkpt lat="48.72454" lon="1.99539">
        <ele>156.83</ele>
        <time>2011-10-22T11:45:49Z</time>
      </trkpt>
      <trkpt lat="48.72455" lon="1.99546">
        <ele>156.35</ele>
        <time>2011-10-22T11:45:48Z</time>
      </trkpt>
      <trkpt lat="48.72456" lon="1.99552">
        <ele>156.35</ele>
        <time>2011-10-22T11:45:47Z</time>
      </trkpt>
      <trkpt lat="48.7246" lon="1.99557">
        <ele>156.35</ele>
        <time>2011-10-22T11:45:46Z</time>
      </trkpt>
      <trkpt lat="48.72465" lon="1.99559">
        <ele>155.87</ele>
        <time>2011-10-22T11:45:45Z</time>
      </trkpt>
      <trkpt lat="48.72547" lon="1.99577">
        <ele>156.83</ele>
        <time>2011-10-22T11:45:29Z</time>
      </trkpt>
      <trkpt lat="48.72553" lon="1.99579">
        <ele>156.83</ele>
        <time>2011-10-22T11:45:28Z</time>
      </trkpt>
      <trkpt lat="48.72558" lon="1.9958">
        <ele>156.83</ele>
        <time>2011-10-22T11:45:27Z</time>
      </trkpt>
      <trkpt lat="48.72563" lon="1.99582">
        <ele>156.83</ele>
        <time>2011-10-22T11:45:26Z</time>
      </trkpt>
      <trkpt lat="48.72568" lon="1.99586">
        <ele>156.83</ele>
        <time>2011-10-22T11:45:25Z</time>
      </trkpt>
      <trkpt lat="48.72571" lon="1.99592">
        <ele>156.83</ele>
        <time>2011-10-22T11:45:24Z</time>
      </trkpt>
      <trkpt lat="48.72572" lon="1.996">
        <ele>156.83</ele>
        <time>2011-10-22T11:45:23Z</time>
      </trkpt>
      <trkpt lat="48.72572" lon="1.99608">
        <ele>156.83</ele>
        <time>2011-10-22T11:45:22Z</time>
      </trkpt>
      <trkpt lat="48.72567" lon="1.99633">
        <ele>156.83</ele>
        <time>2011-10-22T11:45:19Z</time>
      </trkpt>
      <trkpt lat="48.72566" lon="1.99642">
        <ele>156.83</ele>
        <time>2011-10-22T11:45:18Z</time>
      </trkpt>
      <trkpt lat="48.72565" lon="1.99649">
        <ele>156.83</ele>
        <time>2011-10-22T11:45:17Z</time>
      </trkpt>
      <trkpt lat="48.72565" lon="1.99657">
        <ele>156.35</ele>
        <time>2011-10-22T11:45:16Z</time>
      </trkpt>
      <trkpt lat="48.72567" lon="1.99665">
        <ele>156.35</ele>
        <time>2011-10-22T11:45:15Z</time>
      </trkpt>
      <trkpt lat="48.7257" lon="1.99671">
        <ele>156.35</ele>
        <time>2011-10-22T11:45:14Z</time>
      </trkpt>
      <trkpt lat="48.72586" lon="1.99683">
        <ele>156.35</ele>
        <time>2011-10-22T11:45:11Z</time>
      </trkpt>
      <trkpt lat="48.7267" lon="1.99741">
        <ele>157.79</ele>
        <time>2011-10-22T11:44:55Z</time>
      </trkpt>
      <trkpt lat="48.72723" lon="1.99807">
        <ele>157.79</ele>
        <time>2011-10-22T11:44:41Z</time>
      </trkpt>
      <trkpt lat="48.72726" lon="1.9981">
        <ele>157.79</ele>
        <time>2011-10-22T11:44:40Z</time>
      </trkpt>
      <trkpt lat="48.72736" lon="1.99812">
        <ele>158.27</ele>
        <time>2011-10-22T11:44:38Z</time>
      </trkpt>
      <trkpt lat="48.7274" lon="1.99813">
        <ele>157.79</ele>
        <time>2011-10-22T11:44:37Z</time>
      </trkpt>
      <trkpt lat="48.72745" lon="1.99814">
        <ele>157.79</ele>
        <time>2011-10-22T11:44:36Z</time>
      </trkpt>
      <trkpt lat="48.72754" lon="1.9982">
        <ele>157.79</ele>
        <time>2011-10-22T11:44:34Z</time>
      </trkpt>
      <trkpt lat="48.7279" lon="1.9985">
        <ele>158.75</ele>
        <time>2011-10-22T11:44:26Z</time>
      </trkpt>
      <trkpt lat="48.72795" lon="1.99853">
        <ele>158.75</ele>
        <time>2011-10-22T11:44:25Z</time>
      </trkpt>
      <trkpt lat="48.72871" lon="1.99885">
        <ele>158.75</ele>
        <time>2011-10-22T11:44:09Z</time>
      </trkpt>
      <trkpt lat="48.72875" lon="1.99887">
        <ele>158.27</ele>
        <time>2011-10-22T11:44:08Z</time>
      </trkpt>
      <trkpt lat="48.7288" lon="1.99888">
        <ele>158.75</ele>
        <time>2011-10-22T11:44:07Z</time>
      </trkpt>
      <trkpt lat="48.72885" lon="1.99889">
        <ele>158.27</ele>
        <time>2011-10-22T11:44:06Z</time>
      </trkpt>
      <trkpt lat="48.72889" lon="1.99888">
        <ele>158.27</ele>
        <time>2011-10-22T11:44:05Z</time>
      </trkpt>
      <trkpt lat="48.72912" lon="1.99883">
        <ele>158.27</ele>
        <time>2011-10-22T11:44:00Z</time>
      </trkpt>
      <trkpt lat="48.72916" lon="1.99882">
        <ele>158.27</ele>
        <time>2011-10-22T11:43:59Z</time>
      </trkpt>
      <trkpt lat="48.72979" lon="1.99866">
        <ele>158.27</ele>
        <time>2011-10-22T11:43:45Z</time>
      </trkpt>
      <trkpt lat="48.73005" lon="1.99873">
        <ele>155.39</ele>
        <time>2011-10-22T11:43:39Z</time>
      </trkpt>
      <trkpt lat="48.73029" lon="1.99884">
        <ele>157.31</ele>
        <time>2011-10-22T11:43:33Z</time>
      </trkpt>
      <trkpt lat="48.73034" lon="1.99885">
        <ele>156.83</ele>
        <time>2011-10-22T11:43:32Z</time>
      </trkpt>
      <trkpt lat="48.73081" lon="1.9992">
        <ele>155.87</ele>
        <time>2011-10-22T11:43:20Z</time>
      </trkpt>
      <trkpt lat="48.73089" lon="1.99925">
        <ele>155.87</ele>
        <time>2011-10-22T11:43:18Z</time>
      </trkpt>
      <trkpt lat="48.73119" lon="1.99953">
        <ele>155.39</ele>
        <time>2011-10-22T11:43:10Z</time>
      </trkpt>
      <trkpt lat="48.73154" lon="1.99982">
        <ele>154.43</ele>
        <time>2011-10-22T11:43:01Z</time>
      </trkpt>
      <trkpt lat="48.73158" lon="1.99985">
        <ele>154.43</ele>
        <time>2011-10-22T11:43:00Z</time>
      </trkpt>
      <trkpt lat="48.73169" lon="1.99994">
        <ele>153.95</ele>
        <time>2011-10-22T11:42:57Z</time>
      </trkpt>
      <trkpt lat="48.73175" lon="2">
        <ele>153.47</ele>
        <time>2011-10-22T11:42:55Z</time>
      </trkpt>
      <trkpt lat="48.73231" lon="2.00045">
        <ele>152.51</ele>
        <time>2011-10-22T11:42:40Z</time>
      </trkpt>
      <trkpt lat="48.73291" lon="2.00094">
        <ele>150.58</ele>
        <time>2011-10-22T11:42:24Z</time>
      </trkpt>
      <trkpt lat="48.73351" lon="2.00134">
        <ele>149.62</ele>
        <time>2011-10-22T11:42:08Z</time>
      </trkpt>
      <trkpt lat="48.73395" lon="2.00154">
        <ele>149.14</ele>
        <time>2011-10-22T11:41:56Z</time>
      </trkpt>
      <trkpt lat="48.73422" lon="2.00093">
        <ele>148.66</ele>
        <time>2011-10-22T11:41:42Z</time>
      </trkpt>
      <trkpt lat="48.73423" lon="2.00079">
        <ele>148.66</ele>
        <time>2011-10-22T11:41:38Z</time>
      </trkpt>
      <trkpt lat="48.73425" lon="2.00076">
        <ele>148.66</ele>
        <time>2011-10-22T11:41:37Z</time>
      </trkpt>
      <trkpt lat="48.73447" lon="2.00065">
        <ele>146.74</ele>
        <time>2011-10-22T11:41:28Z</time>
      </trkpt>
      <trkpt lat="48.73462" lon="2.00066">
        <ele>145.3</ele>
        <time>2011-10-22T11:41:24Z</time>
      </trkpt>
      <trkpt lat="48.7348" lon="2.00064">
        <ele>142.89</ele>
        <time>2011-10-22T11:41:19Z</time>
      </trkpt>
      <trkpt lat="48.73502" lon="2.00034">
        <ele>142.89</ele>
        <time>2011-10-22T11:41:12Z</time>
      </trkpt>
      <trkpt lat="48.73495" lon="1.99978">
        <ele>144.82</ele>
        <time>2011-10-22T11:41:03Z</time>
      </trkpt>
      <trkpt lat="48.73499" lon="1.99957">
        <ele>145.3</ele>
        <time>2011-10-22T11:41:00Z</time>
      </trkpt>
      <trkpt lat="48.73506" lon="1.99948">
        <ele>147.22</ele>
        <time>2011-10-22T11:40:58Z</time>
      </trkpt>
      <trkpt lat="48.73512" lon="1.9993">
        <ele>149.14</ele>
        <time>2011-10-22T11:40:54Z</time>
      </trkpt>
      <trkpt lat="48.73501" lon="1.99882">
        <ele>149.14</ele>
        <time>2011-10-22T11:40:44Z</time>
      </trkpt>
      <trkpt lat="48.73501" lon="1.99826">
        <ele>148.66</ele>
        <time>2011-10-22T11:40:37Z</time>
      </trkpt>
      <trkpt lat="48.73504" lon="1.99803">
        <ele>149.14</ele>
        <time>2011-10-22T11:40:34Z</time>
      </trkpt>
      <trkpt lat="48.73504" lon="1.99796">
        <ele>149.14</ele>
        <time>2011-10-22T11:40:33Z</time>
      </trkpt>
      <trkpt lat="48.73504" lon="1.99787">
        <ele>149.62</ele>
        <time>2011-10-22T11:40:32Z</time>
      </trkpt>
      <trkpt lat="48.73504" lon="1.99755">
        <ele>149.14</ele>
        <time>2011-10-22T11:40:28Z</time>
      </trkpt>
      <trkpt lat="48.73501" lon="1.99698">
        <ele>148.66</ele>
        <time>2011-10-22T11:40:20Z</time>
      </trkpt>
      <trkpt lat="48.73505" lon="1.99658">
        <ele>148.66</ele>
        <time>2011-10-22T11:40:15Z</time>
      </trkpt>
      <trkpt lat="48.73506" lon="1.99649">
        <ele>149.14</ele>
        <time>2011-10-22T11:40:14Z</time>
      </trkpt>
      <trkpt lat="48.73516" lon="1.99611">
        <ele>149.14</ele>
        <time>2011-10-22T11:40:09Z</time>
      </trkpt>
      <trkpt lat="48.73521" lon="1.99592">
        <ele>149.62</ele>
        <time>2011-10-22T11:40:06Z</time>
      </trkpt>
      <trkpt lat="48.73523" lon="1.99586">
        <ele>149.14</ele>
        <time>2011-10-22T11:40:05Z</time>
      </trkpt>
      <trkpt lat="48.73525" lon="1.99579">
        <ele>149.62</ele>
        <time>2011-10-22T11:40:04Z</time>
      </trkpt>
      <trkpt lat="48.73534" lon="1.99551">
        <ele>149.62</ele>
        <time>2011-10-22T11:39:59Z</time>
      </trkpt>
      <trkpt lat="48.73547" lon="1.99508">
        <ele>151.06</ele>
        <time>2011-10-22T11:39:47Z</time>
      </trkpt>
      <trkpt lat="48.73547" lon="1.99508">
        <ele>150.1</ele>
        <time>2011-10-22T11:39:41Z</time>
      </trkpt>
      <trkpt lat="48.73551" lon="1.99506">
        <ele>157.296875</ele>
      </trkpt>
      <trkpt lat="48.73568" lon="1.99532">
        <ele>157.3515625</ele>
      </trkpt>
      <trkpt lat="48.73672" lon="1.99685">
        <ele>159.9570313</ele>
      </trkpt>
      <trkpt lat="48.73801" lon="1.99867">
        <ele>160</ele>
      </trkpt>
      <trkpt lat="48.73986" lon="2.00127">
        <ele>159</ele>
      </trkpt>
      <trkpt lat="48.74184" lon="2.00415">
        <ele>160.5351563</ele>
      </trkpt>
      <trkpt lat="48.74401" lon="2.00732">
        <ele>155.609375</ele>
      </trkpt>
      <trkpt lat="48.74449" lon="2.00662">
        <ele>154.4882813</ele>
      </trkpt>
      <trkpt lat="48.74526" lon="2.00538">
        <ele>149.0976563</ele>
      </trkpt>
      <trkpt lat="48.74585" lon="2.00453">
        <ele>141.9140625</ele>
      </trkpt>
      <trkpt lat="48.74612" lon="2.00401">
        <ele>130.4</ele>
        <time>2011-10-22T11:31:01Z</time>
      </trkpt>
      <trkpt lat="48.74612" lon="2.004">
        <ele>129.92</ele>
        <time>2011-10-22T11:30:43Z</time>
      </trkpt>
      <trkpt lat="48.7462" lon="2.00384">
        <ele>129.43</ele>
        <time>2011-10-22T11:30:29Z</time>
      </trkpt>
      <trkpt lat="48.74625" lon="2.00372">
        <ele>126.07</ele>
        <time>2011-10-22T11:30:23Z</time>
      </trkpt>
      <trkpt lat="48.74628" lon="2.00365">
        <ele>124.63</ele>
        <time>2011-10-22T11:30:19Z</time>
      </trkpt>
      <trkpt lat="48.74633" lon="2.00359">
        <ele>123.19</ele>
        <time>2011-10-22T11:30:16Z</time>
      </trkpt>
      <trkpt lat="48.74643" lon="2.00344">
        <ele>119.82</ele>
        <time>2011-10-22T11:30:10Z</time>
      </trkpt>
      <trkpt lat="48.74646" lon="2.00338">
        <ele>118.86</ele>
        <time>2011-10-22T11:30:08Z</time>
      </trkpt>
      <trkpt lat="48.74672" lon="2.00307">
        <ele>115.5</ele>
        <time>2011-10-22T11:29:58Z</time>
      </trkpt>
      <trkpt lat="48.74674" lon="2.00305">
        <ele>115.98</ele>
        <time>2011-10-22T11:29:57Z</time>
      </trkpt>
      <trkpt lat="48.74677" lon="2.00304">
        <ele>115.5</ele>
        <time>2011-10-22T11:29:56Z</time>
      </trkpt>
      <trkpt lat="48.74679" lon="2.00305">
        <ele>115.98</ele>
        <time>2011-10-22T11:29:55Z</time>
      </trkpt>
      <trkpt lat="48.74693" lon="2.00339">
        <ele>114.53</ele>
        <time>2011-10-22T11:29:46Z</time>
      </trkpt>
      <trkpt lat="48.74709" lon="2.00431">
        <ele>113.57</ele>
        <time>2011-10-22T11:29:33Z</time>
      </trkpt>
      <trkpt lat="48.74702" lon="2.00463">
        <ele>116.46</ele>
        <time>2011-10-22T11:29:29Z</time>
      </trkpt>
      <trkpt lat="48.74696" lon="2.00499">
        <ele>119.82</ele>
        <time>2011-10-22T11:29:22Z</time>
      </trkpt>
      <trkpt lat="48.74693" lon="2.00529">
        <ele>115.98</ele>
        <time>2011-10-22T11:29:14Z</time>
      </trkpt>
      <trkpt lat="48.74693" lon="2.00533">
        <ele>115.98</ele>
        <time>2011-10-22T11:29:13Z</time>
      </trkpt>
      <trkpt lat="48.74694" lon="2.00568">
        <ele>113.09</ele>
        <time>2011-10-22T11:29:05Z</time>
      </trkpt>
      <trkpt lat="48.74714" lon="2.00612">
        <ele>111.65</ele>
        <time>2011-10-22T11:28:53Z</time>
      </trkpt>
      <trkpt lat="48.74715" lon="2.00613">
        <ele>111.65</ele>
        <time>2011-10-22T11:28:52Z</time>
      </trkpt>
      <trkpt lat="48.74723" lon="2.00632">
        <ele>111.65</ele>
        <time>2011-10-22T11:28:42Z</time>
      </trkpt>
      <trkpt lat="48.74726" lon="2.00634">
        <ele>112.13</ele>
        <time>2011-10-22T11:28:41Z</time>
      </trkpt>
      <trkpt lat="48.74729" lon="2.00637">
        <ele>112.13</ele>
        <time>2011-10-22T11:28:40Z</time>
      </trkpt>
      <trkpt lat="48.74731" lon="2.0064">
        <ele>112.61</ele>
        <time>2011-10-22T11:28:39Z</time>
      </trkpt>
      <trkpt lat="48.74733" lon="2.00643">
        <ele>113.09</ele>
        <time>2011-10-22T11:28:38Z</time>
      </trkpt>
      <trkpt lat="48.74735" lon="2.00646">
        <ele>115.98</ele>
        <time>2011-10-22T11:28:31Z</time>
      </trkpt>
      <trkpt lat="48.7474" lon="2.00639">
        <ele>116.46</ele>
        <time>2011-10-22T11:28:25Z</time>
      </trkpt>
      <trkpt lat="48.74741" lon="2.00636">
        <ele>116.46</ele>
        <time>2011-10-22T11:28:24Z</time>
      </trkpt>
      <trkpt lat="48.74742" lon="2.00634">
        <ele>115.98</ele>
        <time>2011-10-22T11:28:23Z</time>
      </trkpt>
      <trkpt lat="48.74743" lon="2.00631">
        <ele>116.46</ele>
        <time>2011-10-22T11:28:22Z</time>
      </trkpt>
      <trkpt lat="48.74744" lon="2.00628">
        <ele>116.46</ele>
        <time>2011-10-22T11:28:21Z</time>
      </trkpt>
      <trkpt lat="48.74746" lon="2.00621">
        <ele>116.94</ele>
        <time>2011-10-22T11:28:13Z</time>
      </trkpt>
      <trkpt lat="48.74748" lon="2.00616">
        <ele>116.94</ele>
        <time>2011-10-22T11:28:08Z</time>
      </trkpt>
      <trkpt lat="48.74748" lon="2.00579">
        <ele>116.46</ele>
        <time>2011-10-22T11:27:56Z</time>
      </trkpt>
      <trkpt lat="48.74764" lon="2.00518">
        <ele>118.38</ele>
        <time>2011-10-22T11:27:46Z</time>
      </trkpt>
      <trkpt lat="48.74768" lon="2.00497">
        <ele>121.74</ele>
        <time>2011-10-22T11:27:41Z</time>
      </trkpt>
      <trkpt lat="48.7477" lon="2.00479">
        <ele>122.71</ele>
        <time>2011-10-22T11:27:38Z</time>
      </trkpt>
      <trkpt lat="48.74773" lon="2.0046">
        <ele>124.63</ele>
        <time>2011-10-22T11:27:34Z</time>
      </trkpt>
      <trkpt lat="48.74775" lon="2.00456">
        <ele>125.11</ele>
        <time>2011-10-22T11:27:33Z</time>
      </trkpt>
      <trkpt lat="48.74782" lon="2.00423">
        <ele>126.07</ele>
        <time>2011-10-22T11:27:23Z</time>
      </trkpt>
      <trkpt lat="48.7478" lon="2.00414">
        <ele>126.55</ele>
        <time>2011-10-22T11:27:14Z</time>
      </trkpt>
      <trkpt lat="48.74779" lon="2.00403">
        <ele>126.55</ele>
        <time>2011-10-22T11:27:00Z</time>
      </trkpt>
      <trkpt lat="48.74778" lon="2.00403">
        <ele>136.7109375</ele>
      </trkpt>
      <trkpt lat="48.74799" lon="2.00412">
        <ele>142.8632813</ele>
      </trkpt>
      <trkpt lat="48.74809" lon="2.00448">
        <ele>145.1640625</ele>
      </trkpt>
      <trkpt lat="48.74811" lon="2.00474">
        <ele>145.46875</ele>
      </trkpt>
      <trkpt lat="48.74812" lon="2.00487">
        <ele>145.7265625</ele>
      </trkpt>
      <trkpt lat="48.74809" lon="2.00536">
        <ele>145.6992188</ele>
      </trkpt>
      <trkpt lat="48.74813" lon="2.00545">
        <ele>146.9453125</ele>
      </trkpt>
      <trkpt lat="48.74819" lon="2.00585">
        <ele>149.6171875</ele>
      </trkpt>
      <trkpt lat="48.74825" lon="2.00599">
        <ele>151.9296875</ele>
      </trkpt>
      <trkpt lat="48.74835" lon="2.00621">
        <ele>157.53125</ele>
      </trkpt>
      <trkpt lat="48.74835" lon="2.00646">
        <ele>159.8242188</ele>
      </trkpt>
      <trkpt lat="48.7484" lon="2.00667">
        <ele>154.43</ele>
        <time>2011-10-22T11:23:35Z</time>
      </trkpt>
      <trkpt lat="48.7484" lon="2.00673">
        <ele>155.39</ele>
        <time>2011-10-22T11:23:34Z</time>
      </trkpt>
      <trkpt lat="48.7484" lon="2.00679">
        <ele>155.39</ele>
        <time>2011-10-22T11:23:33Z</time>
      </trkpt>
      <trkpt lat="48.7484" lon="2.00685">
        <ele>155.87</ele>
        <time>2011-10-22T11:23:32Z</time>
      </trkpt>
      <trkpt lat="48.74841" lon="2.00692">
        <ele>156.35</ele>
        <time>2011-10-22T11:23:31Z</time>
      </trkpt>
      <trkpt lat="48.74841" lon="2.00695">
        <ele>156.83</ele>
        <time>2011-10-22T11:23:30Z</time>
      </trkpt>
      <trkpt lat="48.74841" lon="2.00699">
        <ele>157.31</ele>
        <time>2011-10-22T11:23:29Z</time>
      </trkpt>
      <trkpt lat="48.74842" lon="2.00706">
        <ele>157.79</ele>
        <time>2011-10-22T11:23:23Z</time>
      </trkpt>
      <trkpt lat="48.7485" lon="2.00713">
        <ele>157.79</ele>
        <time>2011-10-22T11:23:11Z</time>
      </trkpt>
      <trkpt lat="48.74889" lon="2.00703">
        <ele>157.79</ele>
        <time>2011-10-22T11:23:00Z</time>
      </trkpt>
      <trkpt lat="48.74931" lon="2.00688">
        <ele>157.79</ele>
        <time>2011-10-22T11:22:49Z</time>
      </trkpt>
      <trkpt lat="48.74983" lon="2.00696">
        <ele>156.83</ele>
        <time>2011-10-22T11:22:34Z</time>
      </trkpt>
      <trkpt lat="48.75003" lon="2.007">
        <ele>157.31</ele>
        <time>2011-10-22T11:22:28Z</time>
      </trkpt>
      <trkpt lat="48.75024" lon="2.00731">
        <ele>157.31</ele>
        <time>2011-10-22T11:22:17Z</time>
      </trkpt>
      <trkpt lat="48.75031" lon="2.00743">
        <ele>156.83</ele>
        <time>2011-10-22T11:22:10Z</time>
      </trkpt>
      <trkpt lat="48.75034" lon="2.00742">
        <ele>156.83</ele>
        <time>2011-10-22T11:22:09Z</time>
      </trkpt>
      <trkpt lat="48.75069" lon="2.00699">
        <ele>155.87</ele>
        <time>2011-10-22T11:21:58Z</time>
      </trkpt>
      <trkpt lat="48.75073" lon="2.00695">
        <ele>156.35</ele>
        <time>2011-10-22T11:21:57Z</time>
      </trkpt>
      <trkpt lat="48.75097" lon="2.00664">
        <ele>155.87</ele>
        <time>2011-10-22T11:21:50Z</time>
      </trkpt>
      <trkpt lat="48.75117" lon="2.00645">
        <ele>155.87</ele>
        <time>2011-10-22T11:21:45Z</time>
      </trkpt>
      <trkpt lat="48.75127" lon="2.00633">
        <ele>155.39</ele>
        <time>2011-10-22T11:21:42Z</time>
      </trkpt>
      <trkpt lat="48.75142" lon="2.00616">
        <ele>155.87</ele>
        <time>2011-10-22T11:21:38Z</time>
      </trkpt>
      <trkpt lat="48.75153" lon="2.00602">
        <ele>155.87</ele>
        <time>2011-10-22T11:21:35Z</time>
      </trkpt>
      <trkpt lat="48.75157" lon="2.00597">
        <ele>155.39</ele>
        <time>2011-10-22T11:21:34Z</time>
      </trkpt>
      <trkpt lat="48.75172" lon="2.00577">
        <ele>155.87</ele>
        <time>2011-10-22T11:21:30Z</time>
      </trkpt>
      <trkpt lat="48.75183" lon="2.00565">
        <ele>155.39</ele>
        <time>2011-10-22T11:21:27Z</time>
      </trkpt>
      <trkpt lat="48.75187" lon="2.00561">
        <ele>155.39</ele>
        <time>2011-10-22T11:21:26Z</time>
      </trkpt>
      <trkpt lat="48.7519" lon="2.00557">
        <ele>155.39</ele>
        <time>2011-10-22T11:21:25Z</time>
      </trkpt>
      <trkpt lat="48.75192" lon="2.00553">
        <ele>154.91</ele>
        <time>2011-10-22T11:21:24Z</time>
      </trkpt>
      <trkpt lat="48.75195" lon="2.00551">
        <ele>155.39</ele>
        <time>2011-10-22T11:21:23Z</time>
      </trkpt>
      <trkpt lat="48.75197" lon="2.00549">
        <ele>155.87</ele>
        <time>2011-10-22T11:21:22Z</time>
      </trkpt>
      <trkpt lat="48.752" lon="2.00549">
        <ele>155.39</ele>
        <time>2011-10-22T11:21:21Z</time>
      </trkpt>
      <trkpt lat="48.75202" lon="2.00553">
        <ele>155.87</ele>
        <time>2011-10-22T11:21:20Z</time>
      </trkpt>
      <trkpt lat="48.75204" lon="2.00559">
        <ele>155.87</ele>
        <time>2011-10-22T11:21:19Z</time>
      </trkpt>
      <trkpt lat="48.75205" lon="2.00566">
        <ele>155.39</ele>
        <time>2011-10-22T11:21:18Z</time>
      </trkpt>
      <trkpt lat="48.75206" lon="2.00573">
        <ele>154.91</ele>
        <time>2011-10-22T11:21:17Z</time>
      </trkpt>
      <trkpt lat="48.75208" lon="2.00581">
        <ele>155.39</ele>
        <time>2011-10-22T11:21:16Z</time>
      </trkpt>
      <trkpt lat="48.7521" lon="2.00588">
        <ele>155.39</ele>
        <time>2011-10-22T11:21:15Z</time>
      </trkpt>
      <trkpt lat="48.75213" lon="2.0061">
        <ele>154.91</ele>
        <time>2011-10-22T11:21:12Z</time>
      </trkpt>
      <trkpt lat="48.75214" lon="2.00617">
        <ele>154.43</ele>
        <time>2011-10-22T11:21:11Z</time>
      </trkpt>
      <trkpt lat="48.75216" lon="2.00624">
        <ele>154.91</ele>
        <time>2011-10-22T11:21:10Z</time>
      </trkpt>
      <trkpt lat="48.75219" lon="2.0063">
        <ele>154.91</ele>
        <time>2011-10-22T11:21:09Z</time>
      </trkpt>
      <trkpt lat="48.75221" lon="2.00636">
        <ele>154.91</ele>
        <time>2011-10-22T11:21:08Z</time>
      </trkpt>
      <trkpt lat="48.75224" lon="2.00642">
        <ele>155.39</ele>
        <time>2011-10-22T11:21:07Z</time>
      </trkpt>
      <trkpt lat="48.75225" lon="2.00647">
        <ele>154.91</ele>
        <time>2011-10-22T11:21:06Z</time>
      </trkpt>
      <trkpt lat="48.75227" lon="2.00653">
        <ele>154.91</ele>
        <time>2011-10-22T11:21:05Z</time>
      </trkpt>
      <trkpt lat="48.7523" lon="2.00658">
        <ele>154.91</ele>
        <time>2011-10-22T11:21:04Z</time>
      </trkpt>
      <trkpt lat="48.75234" lon="2.00663">
        <ele>154.91</ele>
        <time>2011-10-22T11:21:03Z</time>
      </trkpt>
      <trkpt lat="48.75238" lon="2.00667">
        <ele>154.91</ele>
        <time>2011-10-22T11:21:02Z</time>
      </trkpt>
      <trkpt lat="48.75245" lon="2.00687">
        <ele>154.91</ele>
        <time>2011-10-22T11:20:59Z</time>
      </trkpt>
      <trkpt lat="48.75247" lon="2.00694">
        <ele>154.43</ele>
        <time>2011-10-22T11:20:58Z</time>
      </trkpt>
      <trkpt lat="48.7525" lon="2.00701">
        <ele>154.91</ele>
        <time>2011-10-22T11:20:57Z</time>
      </trkpt>
      <trkpt lat="48.75253" lon="2.00707">
        <ele>154.43</ele>
        <time>2011-10-22T11:20:56Z</time>
      </trkpt>
      <trkpt lat="48.75256" lon="2.00712">
        <ele>154.43</ele>
        <time>2011-10-22T11:20:55Z</time>
      </trkpt>
      <trkpt lat="48.75259" lon="2.00718">
        <ele>154.43</ele>
        <time>2011-10-22T11:20:54Z</time>
      </trkpt>
      <trkpt lat="48.75263" lon="2.00723">
        <ele>154.43</ele>
        <time>2011-10-22T11:20:53Z</time>
      </trkpt>
      <trkpt lat="48.75275" lon="2.0075">
        <ele>153.95</ele>
        <time>2011-10-22T11:20:49Z</time>
      </trkpt>
      <trkpt lat="48.75278" lon="2.00757">
        <ele>153.95</ele>
        <time>2011-10-22T11:20:48Z</time>
      </trkpt>
      <trkpt lat="48.75281" lon="2.00762">
        <ele>153.95</ele>
        <time>2011-10-22T11:20:47Z</time>
      </trkpt>
      <trkpt lat="48.75285" lon="2.00768">
        <ele>153.95</ele>
        <time>2011-10-22T11:20:46Z</time>
      </trkpt>
      <trkpt lat="48.75289" lon="2.00773">
        <ele>153.95</ele>
        <time>2011-10-22T11:20:45Z</time>
      </trkpt>
      <trkpt lat="48.75293" lon="2.0078">
        <ele>153.95</ele>
        <time>2011-10-22T11:20:44Z</time>
      </trkpt>
      <trkpt lat="48.75296" lon="2.00785">
        <ele>153.95</ele>
        <time>2011-10-22T11:20:43Z</time>
      </trkpt>
      <trkpt lat="48.753" lon="2.00791">
        <ele>153.47</ele>
        <time>2011-10-22T11:20:42Z</time>
      </trkpt>
      <trkpt lat="48.75304" lon="2.00796">
        <ele>153.47</ele>
        <time>2011-10-22T11:20:41Z</time>
      </trkpt>
      <trkpt lat="48.75308" lon="2.00802">
        <ele>153.47</ele>
        <time>2011-10-22T11:20:40Z</time>
      </trkpt>
      <trkpt lat="48.75312" lon="2.00806">
        <ele>153.47</ele>
        <time>2011-10-22T11:20:39Z</time>
      </trkpt>
      <trkpt lat="48.75317" lon="2.00812">
        <ele>153.95</ele>
        <time>2011-10-22T11:20:38Z</time>
      </trkpt>
      <trkpt lat="48.75327" lon="2.00832">
        <ele>153.95</ele>
        <time>2011-10-22T11:20:35Z</time>
      </trkpt>
      <trkpt lat="48.7533" lon="2.00838">
        <ele>153.47</ele>
        <time>2011-10-22T11:20:34Z</time>
      </trkpt>
      <trkpt lat="48.75334" lon="2.00845">
        <ele>153.47</ele>
        <time>2011-10-22T11:20:33Z</time>
      </trkpt>
      <trkpt lat="48.75339" lon="2.0085">
        <ele>153.47</ele>
        <time>2011-10-22T11:20:32Z</time>
      </trkpt>
      <trkpt lat="48.75344" lon="2.00855">
        <ele>153.47</ele>
        <time>2011-10-22T11:20:31Z</time>
      </trkpt>
      <trkpt lat="48.75348" lon="2.00861">
        <ele>153.47</ele>
        <time>2011-10-22T11:20:30Z</time>
      </trkpt>
      <trkpt lat="48.75353" lon="2.00868">
        <ele>153.47</ele>
        <time>2011-10-22T11:20:29Z</time>
      </trkpt>
      <trkpt lat="48.75357" lon="2.00875">
        <ele>153.47</ele>
        <time>2011-10-22T11:20:28Z</time>
      </trkpt>
      <trkpt lat="48.75392" lon="2.00918">
        <ele>152.51</ele>
        <time>2011-10-22T11:20:21Z</time>
      </trkpt>
      <trkpt lat="48.754" lon="2.00929">
        <ele>152.03</ele>
        <time>2011-10-22T11:20:19Z</time>
      </trkpt>
      <trkpt lat="48.75404" lon="2.00935">
        <ele>152.51</ele>
        <time>2011-10-22T11:20:18Z</time>
      </trkpt>
      <trkpt lat="48.75407" lon="2.00941">
        <ele>152.51</ele>
        <time>2011-10-22T11:20:17Z</time>
      </trkpt>
      <trkpt lat="48.75411" lon="2.00947">
        <ele>152.03</ele>
        <time>2011-10-22T11:20:16Z</time>
      </trkpt>
      <trkpt lat="48.75415" lon="2.00953">
        <ele>152.03</ele>
        <time>2011-10-22T11:20:15Z</time>
      </trkpt>
      <trkpt lat="48.75419" lon="2.00958">
        <ele>152.51</ele>
        <time>2011-10-22T11:20:14Z</time>
      </trkpt>
      <trkpt lat="48.75422" lon="2.00965">
        <ele>152.51</ele>
        <time>2011-10-22T11:20:13Z</time>
      </trkpt>
      <trkpt lat="48.75425" lon="2.00972">
        <ele>152.03</ele>
        <time>2011-10-22T11:20:12Z</time>
      </trkpt>
      <trkpt lat="48.75426" lon="2.00979">
        <ele>152.03</ele>
        <time>2011-10-22T11:20:11Z</time>
      </trkpt>
      <trkpt lat="48.75426" lon="2.00987">
        <ele>152.51</ele>
        <time>2011-10-22T11:20:10Z</time>
      </trkpt>
      <trkpt lat="48.75427" lon="2.01003">
        <ele>152.03</ele>
        <time>2011-10-22T11:20:08Z</time>
      </trkpt>
      <trkpt lat="48.7543" lon="2.01019">
        <ele>152.03</ele>
        <time>2011-10-22T11:20:06Z</time>
      </trkpt>
      <trkpt lat="48.75431" lon="2.01027">
        <ele>152.03</ele>
        <time>2011-10-22T11:20:05Z</time>
      </trkpt>
      <trkpt lat="48.75432" lon="2.01036">
        <ele>152.03</ele>
        <time>2011-10-22T11:20:04Z</time>
      </trkpt>
      <trkpt lat="48.75435" lon="2.01071">
        <ele>152.03</ele>
        <time>2011-10-22T11:20:00Z</time>
      </trkpt>
      <trkpt lat="48.75435" lon="2.01079">
        <ele>152.03</ele>
        <time>2011-10-22T11:19:59Z</time>
      </trkpt>
      <trkpt lat="48.75434" lon="2.01087">
        <ele>151.54</ele>
        <time>2011-10-22T11:19:58Z</time>
      </trkpt>
      <trkpt lat="48.75433" lon="2.01095">
        <ele>152.03</ele>
        <time>2011-10-22T11:19:57Z</time>
      </trkpt>
      <trkpt lat="48.75432" lon="2.01103">
        <ele>151.54</ele>
        <time>2011-10-22T11:19:56Z</time>
      </trkpt>
      <trkpt lat="48.75432" lon="2.01111">
        <ele>152.03</ele>
        <time>2011-10-22T11:19:55Z</time>
      </trkpt>
      <trkpt lat="48.75431" lon="2.01124">
        <ele>151.54</ele>
        <time>2011-10-22T11:19:53Z</time>
      </trkpt>
      <trkpt lat="48.75433" lon="2.01152">
        <ele>151.54</ele>
        <time>2011-10-22T11:19:48Z</time>
      </trkpt>
      <trkpt lat="48.75434" lon="2.01159">
        <ele>151.54</ele>
        <time>2011-10-22T11:19:47Z</time>
      </trkpt>
      <trkpt lat="48.75434" lon="2.01168">
        <ele>151.54</ele>
        <time>2011-10-22T11:19:46Z</time>
      </trkpt>
      <trkpt lat="48.75433" lon="2.01176">
        <ele>151.54</ele>
        <time>2011-10-22T11:19:45Z</time>
      </trkpt>
      <trkpt lat="48.75431" lon="2.01185">
        <ele>151.06</ele>
        <time>2011-10-22T11:19:44Z</time>
      </trkpt>
      <trkpt lat="48.7543" lon="2.01193">
        <ele>151.06</ele>
        <time>2011-10-22T11:19:43Z</time>
      </trkpt>
      <trkpt lat="48.75428" lon="2.01202">
        <ele>151.06</ele>
        <time>2011-10-22T11:19:42Z</time>
      </trkpt>
      <trkpt lat="48.75426" lon="2.0121">
        <ele>151.06</ele>
        <time>2011-10-22T11:19:41Z</time>
      </trkpt>
      <trkpt lat="48.75419" lon="2.01223">
        <ele>151.06</ele>
        <time>2011-10-22T11:19:39Z</time>
      </trkpt>
      <trkpt lat="48.75412" lon="2.01236">
        <ele>151.06</ele>
        <time>2011-10-22T11:19:37Z</time>
      </trkpt>
      <trkpt lat="48.75408" lon="2.0125">
        <ele>151.06</ele>
        <time>2011-10-22T11:19:35Z</time>
      </trkpt>
      <trkpt lat="48.75404" lon="2.01273">
        <ele>150.58</ele>
        <time>2011-10-22T11:19:32Z</time>
      </trkpt>
      <trkpt lat="48.75403" lon="2.01289">
        <ele>150.58</ele>
        <time>2011-10-22T11:19:30Z</time>
      </trkpt>
      <trkpt lat="48.75403" lon="2.01298">
        <ele>150.58</ele>
        <time>2011-10-22T11:19:29Z</time>
      </trkpt>
      <trkpt lat="48.75408" lon="2.01323">
        <ele>150.1</ele>
        <time>2011-10-22T11:19:26Z</time>
      </trkpt>
      <trkpt lat="48.75411" lon="2.01332">
        <ele>149.62</ele>
        <time>2011-10-22T11:19:25Z</time>
      </trkpt>
      <trkpt lat="48.75413" lon="2.01341">
        <ele>149.62</ele>
        <time>2011-10-22T11:19:24Z</time>
      </trkpt>
      <trkpt lat="48.75418" lon="2.01359">
        <ele>149.14</ele>
        <time>2011-10-22T11:19:22Z</time>
      </trkpt>
      <trkpt lat="48.75434" lon="2.01396">
        <ele>149.14</ele>
        <time>2011-10-22T11:19:17Z</time>
      </trkpt>
      <trkpt lat="48.75438" lon="2.01403">
        <ele>149.62</ele>
        <time>2011-10-22T11:19:16Z</time>
      </trkpt>
      <trkpt lat="48.75467" lon="2.01455">
        <ele>148.18</ele>
        <time>2011-10-22T11:19:08Z</time>
      </trkpt>
      <trkpt lat="48.75471" lon="2.01461">
        <ele>148.18</ele>
        <time>2011-10-22T11:19:07Z</time>
      </trkpt>
      <trkpt lat="48.75476" lon="2.01476">
        <ele>148.18</ele>
        <time>2011-10-22T11:19:05Z</time>
      </trkpt>
      <trkpt lat="48.75478" lon="2.01484">
        <ele>147.7</ele>
        <time>2011-10-22T11:19:04Z</time>
      </trkpt>
      <trkpt lat="48.7548" lon="2.01493">
        <ele>148.18</ele>
        <time>2011-10-22T11:19:03Z</time>
      </trkpt>
      <trkpt lat="48.75481" lon="2.01517">
        <ele>147.22</ele>
        <time>2011-10-22T11:19:00Z</time>
      </trkpt>
      <trkpt lat="48.75483" lon="2.01526">
        <ele>147.22</ele>
        <time>2011-10-22T11:18:59Z</time>
      </trkpt>
      <trkpt lat="48.75485" lon="2.01534">
        <ele>147.22</ele>
        <time>2011-10-22T11:18:58Z</time>
      </trkpt>
      <trkpt lat="48.75486" lon="2.01542">
        <ele>147.22</ele>
        <time>2011-10-22T11:18:57Z</time>
      </trkpt>
      <trkpt lat="48.75486" lon="2.01548">
        <ele>147.22</ele>
        <time>2011-10-22T11:18:56Z</time>
      </trkpt>
      <trkpt lat="48.75487" lon="2.01555">
        <ele>147.22</ele>
        <time>2011-10-22T11:18:55Z</time>
      </trkpt>
      <trkpt lat="48.75487" lon="2.01579">
        <ele>146.74</ele>
        <time>2011-10-22T11:18:52Z</time>
      </trkpt>
      <trkpt lat="48.75487" lon="2.01588">
        <ele>146.74</ele>
        <time>2011-10-22T11:18:51Z</time>
      </trkpt>
      <trkpt lat="48.7549" lon="2.01605">
        <ele>146.74</ele>
        <time>2011-10-22T11:18:49Z</time>
      </trkpt>
      <trkpt lat="48.75499" lon="2.01643">
        <ele>145.78</ele>
        <time>2011-10-22T11:18:44Z</time>
      </trkpt>
      <trkpt lat="48.75501" lon="2.01661">
        <ele>145.78</ele>
        <time>2011-10-22T11:18:42Z</time>
      </trkpt>
      <trkpt lat="48.75506" lon="2.01686">
        <ele>145.78</ele>
        <time>2011-10-22T11:18:39Z</time>
      </trkpt>
      <trkpt lat="48.75508" lon="2.01695">
        <ele>145.78</ele>
        <time>2011-10-22T11:18:38Z</time>
      </trkpt>
      <trkpt lat="48.75509" lon="2.01704">
        <ele>145.3</ele>
        <time>2011-10-22T11:18:37Z</time>
      </trkpt>
      <trkpt lat="48.75507" lon="2.01729">
        <ele>145.3</ele>
        <time>2011-10-22T11:18:34Z</time>
      </trkpt>
      <trkpt lat="48.75507" lon="2.01736">
        <ele>145.78</ele>
        <time>2011-10-22T11:18:33Z</time>
      </trkpt>
      <trkpt lat="48.75506" lon="2.01743">
        <ele>145.3</ele>
        <time>2011-10-22T11:18:32Z</time>
      </trkpt>
      <trkpt lat="48.75505" lon="2.01749">
        <ele>144.82</ele>
        <time>2011-10-22T11:18:31Z</time>
      </trkpt>
      <trkpt lat="48.75506" lon="2.01754">
        <ele>145.3</ele>
        <time>2011-10-22T11:18:30Z</time>
      </trkpt>
      <trkpt lat="48.75509" lon="2.01757">
        <ele>145.3</ele>
        <time>2011-10-22T11:18:29Z</time>
      </trkpt>
      <trkpt lat="48.75512" lon="2.0176">
        <ele>145.3</ele>
        <time>2011-10-22T11:18:28Z</time>
      </trkpt>
      <trkpt lat="48.75517" lon="2.01759">
        <ele>145.78</ele>
        <time>2011-10-22T11:18:27Z</time>
      </trkpt>
      <trkpt lat="48.75522" lon="2.01757">
        <ele>145.78</ele>
        <time>2011-10-22T11:18:26Z</time>
      </trkpt>
      <trkpt lat="48.7554" lon="2.01757">
        <ele>145.3</ele>
        <time>2011-10-22T11:18:23Z</time>
      </trkpt>
      <trkpt lat="48.75546" lon="2.01758">
        <ele>145.78</ele>
        <time>2011-10-22T11:18:22Z</time>
      </trkpt>
      <trkpt lat="48.75551" lon="2.01757">
        <ele>146.26</ele>
        <time>2011-10-22T11:18:21Z</time>
      </trkpt>
      <trkpt lat="48.75557" lon="2.01755">
        <ele>146.26</ele>
        <time>2011-10-22T11:18:20Z</time>
      </trkpt>
      <trkpt lat="48.75561" lon="2.01752">
        <ele>146.26</ele>
        <time>2011-10-22T11:18:19Z</time>
      </trkpt>
      <trkpt lat="48.75566" lon="2.01751">
        <ele>146.26</ele>
        <time>2011-10-22T11:18:18Z</time>
      </trkpt>
      <trkpt lat="48.75571" lon="2.0175">
        <ele>146.74</ele>
        <time>2011-10-22T11:18:17Z</time>
      </trkpt>
      <trkpt lat="48.75576" lon="2.0175">
        <ele>146.74</ele>
        <time>2011-10-22T11:18:16Z</time>
      </trkpt>
      <trkpt lat="48.75581" lon="2.01751">
        <ele>146.74</ele>
        <time>2011-10-22T11:18:15Z</time>
      </trkpt>
      <trkpt lat="48.75587" lon="2.0175">
        <ele>146.26</ele>
        <time>2011-10-22T11:18:14Z</time>
      </trkpt>
      <trkpt lat="48.75603" lon="2.01752">
        <ele>146.74</ele>
        <time>2011-10-22T11:18:11Z</time>
      </trkpt>
      <trkpt lat="48.75625" lon="2.01765">
        <ele>146.74</ele>
        <time>2011-10-22T11:18:07Z</time>
      </trkpt>
      <trkpt lat="48.75631" lon="2.01769">
        <ele>146.74</ele>
        <time>2011-10-22T11:18:06Z</time>
      </trkpt>
      <trkpt lat="48.75638" lon="2.01772">
        <ele>147.22</ele>
        <time>2011-10-22T11:18:05Z</time>
      </trkpt>
      <trkpt lat="48.75645" lon="2.01774">
        <ele>147.7</ele>
        <time>2011-10-22T11:18:04Z</time>
      </trkpt>
      <trkpt lat="48.75652" lon="2.01774">
        <ele>147.7</ele>
        <time>2011-10-22T11:18:03Z</time>
      </trkpt>
      <trkpt lat="48.75657" lon="2.01772">
        <ele>147.7</ele>
        <time>2011-10-22T11:18:02Z</time>
      </trkpt>
      <trkpt lat="48.75662" lon="2.01768">
        <ele>147.7</ele>
        <time>2011-10-22T11:18:01Z</time>
      </trkpt>
      <trkpt lat="48.75668" lon="2.01763">
        <ele>147.7</ele>
        <time>2011-10-22T11:18:00Z</time>
      </trkpt>
      <trkpt lat="48.75683" lon="2.01748">
        <ele>148.18</ele>
        <time>2011-10-22T11:17:57Z</time>
      </trkpt>
      <trkpt lat="48.75687" lon="2.01743">
        <ele>148.18</ele>
        <time>2011-10-22T11:17:56Z</time>
      </trkpt>
      <trkpt lat="48.7569" lon="2.01737">
        <ele>148.66</ele>
        <time>2011-10-22T11:17:55Z</time>
      </trkpt>
      <trkpt lat="48.75692" lon="2.01729">
        <ele>148.66</ele>
        <time>2011-10-22T11:17:54Z</time>
      </trkpt>
      <trkpt lat="48.75702" lon="2.01679">
        <ele>148.66</ele>
        <time>2011-10-22T11:17:47Z</time>
      </trkpt>
      <trkpt lat="48.75705" lon="2.01674">
        <ele>148.66</ele>
        <time>2011-10-22T11:17:46Z</time>
      </trkpt>
      <trkpt lat="48.75724" lon="2.01655">
        <ele>149.14</ele>
        <time>2011-10-22T11:17:39Z</time>
      </trkpt>
      <trkpt lat="48.75729" lon="2.01651">
        <ele>148.66</ele>
        <time>2011-10-22T11:17:38Z</time>
      </trkpt>
      <trkpt lat="48.75733" lon="2.01647">
        <ele>149.14</ele>
        <time>2011-10-22T11:17:37Z</time>
      </trkpt>
      <trkpt lat="48.75737" lon="2.01644">
        <ele>148.66</ele>
        <time>2011-10-22T11:17:36Z</time>
      </trkpt>
      <trkpt lat="48.75741" lon="2.01642">
        <ele>149.14</ele>
        <time>2011-10-22T11:17:35Z</time>
      </trkpt>
      <trkpt lat="48.75774" lon="2.01658">
        <ele>148.66</ele>
        <time>2011-10-22T11:17:28Z</time>
      </trkpt>
      <trkpt lat="48.75779" lon="2.01661">
        <ele>148.66</ele>
        <time>2011-10-22T11:17:27Z</time>
      </trkpt>
      <trkpt lat="48.75785" lon="2.01665">
        <ele>148.66</ele>
        <time>2011-10-22T11:17:26Z</time>
      </trkpt>
      <trkpt lat="48.75794" lon="2.01674">
        <ele>148.18</ele>
        <time>2011-10-22T11:17:24Z</time>
      </trkpt>
      <trkpt lat="48.75859" lon="2.01726">
        <ele>147.22</ele>
        <time>2011-10-22T11:17:12Z</time>
      </trkpt>
      <trkpt lat="48.75921" lon="2.0177">
        <ele>146.26</ele>
        <time>2011-10-22T11:16:59Z</time>
      </trkpt>
      <trkpt lat="48.75925" lon="2.01773">
        <ele>145.3</ele>
        <time>2011-10-22T11:16:58Z</time>
      </trkpt>
      <trkpt lat="48.7593" lon="2.01778">
        <ele>145.78</ele>
        <time>2011-10-22T11:16:57Z</time>
      </trkpt>
      <trkpt lat="48.75961" lon="2.0186">
        <ele>144.34</ele>
        <time>2011-10-22T11:16:47Z</time>
      </trkpt>
      <trkpt lat="48.75999" lon="2.01959">
        <ele>146.74</ele>
        <time>2011-10-22T11:16:36Z</time>
      </trkpt>
      <trkpt lat="48.76014" lon="2.02001">
        <ele>147.22</ele>
        <time>2011-10-22T11:16:31Z</time>
      </trkpt>
      <trkpt lat="48.76017" lon="2.02009">
        <ele>147.7</ele>
        <time>2011-10-22T11:16:30Z</time>
      </trkpt>
      <trkpt lat="48.76021" lon="2.02017">
        <ele>148.18</ele>
        <time>2011-10-22T11:16:29Z</time>
      </trkpt>
      <trkpt lat="48.76025" lon="2.02024">
        <ele>147.7</ele>
        <time>2011-10-22T11:16:28Z</time>
      </trkpt>
      <trkpt lat="48.76031" lon="2.0203">
        <ele>148.18</ele>
        <time>2011-10-22T11:16:27Z</time>
      </trkpt>
      <trkpt lat="48.76038" lon="2.02035">
        <ele>149.14</ele>
        <time>2011-10-22T11:16:26Z</time>
      </trkpt>
      <trkpt lat="48.76056" lon="2.0204">
        <ele>149.62</ele>
        <time>2011-10-22T11:16:23Z</time>
      </trkpt>
      <trkpt lat="48.76062" lon="2.02042">
        <ele>150.1</ele>
        <time>2011-10-22T11:16:22Z</time>
      </trkpt>
      <trkpt lat="48.76069" lon="2.02042">
        <ele>150.1</ele>
        <time>2011-10-22T11:16:21Z</time>
      </trkpt>
      <trkpt lat="48.76075" lon="2.02043">
        <ele>150.1</ele>
        <time>2011-10-22T11:16:20Z</time>
      </trkpt>
      <trkpt lat="48.76081" lon="2.02045">
        <ele>150.58</ele>
        <time>2011-10-22T11:16:19Z</time>
      </trkpt>
      <trkpt lat="48.76088" lon="2.02049">
        <ele>150.58</ele>
        <time>2011-10-22T11:16:18Z</time>
      </trkpt>
      <trkpt lat="48.76094" lon="2.02054">
        <ele>151.06</ele>
        <time>2011-10-22T11:16:17Z</time>
      </trkpt>
      <trkpt lat="48.76101" lon="2.02056">
        <ele>151.54</ele>
        <time>2011-10-22T11:16:16Z</time>
      </trkpt>
      <trkpt lat="48.76108" lon="2.02057">
        <ele>152.03</ele>
        <time>2011-10-22T11:16:15Z</time>
      </trkpt>
      <trkpt lat="48.76114" lon="2.02057">
        <ele>152.51</ele>
        <time>2011-10-22T11:16:14Z</time>
      </trkpt>
      <trkpt lat="48.7612" lon="2.02057">
        <ele>152.51</ele>
        <time>2011-10-22T11:16:13Z</time>
      </trkpt>
      <trkpt lat="48.76126" lon="2.02057">
        <ele>153.47</ele>
        <time>2011-10-22T11:16:12Z</time>
      </trkpt>
      <trkpt lat="48.76137" lon="2.0206">
        <ele>153.47</ele>
        <time>2011-10-22T11:16:10Z</time>
      </trkpt>
      <trkpt lat="48.76149" lon="2.02064">
        <ele>153.47</ele>
        <time>2011-10-22T11:16:08Z</time>
      </trkpt>
      <trkpt lat="48.76166" lon="2.02071">
        <ele>153.47</ele>
        <time>2011-10-22T11:16:05Z</time>
      </trkpt>
      <trkpt lat="48.76171" lon="2.02074">
        <ele>153.47</ele>
        <time>2011-10-22T11:16:04Z</time>
      </trkpt>
      <trkpt lat="48.76194" lon="2.02079">
        <ele>155.39</ele>
        <time>2011-10-22T11:16:00Z</time>
      </trkpt>
      <trkpt lat="48.76198" lon="2.02081">
        <ele>155.87</ele>
        <time>2011-10-22T11:15:59Z</time>
      </trkpt>
      <trkpt lat="48.76202" lon="2.02083">
        <ele>155.39</ele>
        <time>2011-10-22T11:15:58Z</time>
      </trkpt>
      <trkpt lat="48.76205" lon="2.02086">
        <ele>155.87</ele>
        <time>2011-10-22T11:15:57Z</time>
      </trkpt>
      <trkpt lat="48.76209" lon="2.02092">
        <ele>155.87</ele>
        <time>2011-10-22T11:15:56Z</time>
      </trkpt>
      <trkpt lat="48.76212" lon="2.02098">
        <ele>155.39</ele>
        <time>2011-10-22T11:15:55Z</time>
      </trkpt>
      <trkpt lat="48.76215" lon="2.02104">
        <ele>155.39</ele>
        <time>2011-10-22T11:15:54Z</time>
      </trkpt>
      <trkpt lat="48.76219" lon="2.02108">
        <ele>155.87</ele>
        <time>2011-10-22T11:15:53Z</time>
      </trkpt>
      <trkpt lat="48.76223" lon="2.02112">
        <ele>155.87</ele>
        <time>2011-10-22T11:15:52Z</time>
      </trkpt>
      <trkpt lat="48.76226" lon="2.02115">
        <ele>155.87</ele>
        <time>2011-10-22T11:15:51Z</time>
      </trkpt>
      <trkpt lat="48.7623" lon="2.02118">
        <ele>155.87</ele>
        <time>2011-10-22T11:15:50Z</time>
      </trkpt>
      <trkpt lat="48.76237" lon="2.02132">
        <ele>156.35</ele>
        <time>2011-10-22T11:15:47Z</time>
      </trkpt>
      <trkpt lat="48.76252" lon="2.02164">
        <ele>156.35</ele>
        <time>2011-10-22T11:15:40Z</time>
      </trkpt>
      <trkpt lat="48.76254" lon="2.02167">
        <ele>156.35</ele>
        <time>2011-10-22T11:15:39Z</time>
      </trkpt>
      <trkpt lat="48.76256" lon="2.0217">
        <ele>156.35</ele>
        <time>2011-10-22T11:15:38Z</time>
      </trkpt>
      <trkpt lat="48.76259" lon="2.02174">
        <ele>156.35</ele>
        <time>2011-10-22T11:15:36Z</time>
      </trkpt>
      <trkpt lat="48.7626" lon="2.02176">
        <ele>155.87</ele>
        <time>2011-10-22T11:15:35Z</time>
      </trkpt>
      <trkpt lat="48.76261" lon="2.02179">
        <ele>155.87</ele>
        <time>2011-10-22T11:15:34Z</time>
      </trkpt>
      <trkpt lat="48.76262" lon="2.02181">
        <ele>156.35</ele>
        <time>2011-10-22T11:15:33Z</time>
      </trkpt>
      <trkpt lat="48.76262" lon="2.02183">
        <ele>156.35</ele>
        <time>2011-10-22T11:15:32Z</time>
      </trkpt>
      <trkpt lat="48.76262" lon="2.02186">
        <ele>156.35</ele>
        <time>2011-10-22T11:15:31Z</time>
      </trkpt>
      <trkpt lat="48.76262" lon="2.02188">
        <ele>155.87</ele>
        <time>2011-10-22T11:15:30Z</time>
      </trkpt>
      <trkpt lat="48.76293" lon="2.0221">
        <ele>155.39</ele>
        <time>2011-10-22T11:15:20Z</time>
      </trkpt>
      <trkpt lat="48.76379" lon="2.02219">
        <ele>154.43</ele>
        <time>2011-10-22T11:15:05Z</time>
      </trkpt>
      <trkpt lat="48.76386" lon="2.02218">
        <ele>153.95</ele>
        <time>2011-10-22T11:15:04Z</time>
      </trkpt>
      <trkpt lat="48.76392" lon="2.02216">
        <ele>153.95</ele>
        <time>2011-10-22T11:15:03Z</time>
      </trkpt>
      <trkpt lat="48.76399" lon="2.02213">
        <ele>153.95</ele>
        <time>2011-10-22T11:15:02Z</time>
      </trkpt>
      <trkpt lat="48.76404" lon="2.02209">
        <ele>153.95</ele>
        <time>2011-10-22T11:15:01Z</time>
      </trkpt>
      <trkpt lat="48.7641" lon="2.02203">
        <ele>153.95</ele>
        <time>2011-10-22T11:15:00Z</time>
      </trkpt>
      <trkpt lat="48.76431" lon="2.02158">
        <ele>154.43</ele>
        <time>2011-10-22T11:14:54Z</time>
      </trkpt>
      <trkpt lat="48.76442" lon="2.02133">
        <ele>153.95</ele>
        <time>2011-10-22T11:14:50Z</time>
      </trkpt>
      <trkpt lat="48.76445" lon="2.02126">
        <ele>153.95</ele>
        <time>2011-10-22T11:14:49Z</time>
      </trkpt>
      <trkpt lat="48.76448" lon="2.02119">
        <ele>154.43</ele>
        <time>2011-10-22T11:14:48Z</time>
      </trkpt>
      <trkpt lat="48.7645" lon="2.02113">
        <ele>153.95</ele>
        <time>2011-10-22T11:14:47Z</time>
      </trkpt>
      <trkpt lat="48.76453" lon="2.02106">
        <ele>154.43</ele>
        <time>2011-10-22T11:14:46Z</time>
      </trkpt>
      <trkpt lat="48.76454" lon="2.02099">
        <ele>154.91</ele>
        <time>2011-10-22T11:14:45Z</time>
      </trkpt>
      <trkpt lat="48.76455" lon="2.02093">
        <ele>154.43</ele>
        <time>2011-10-22T11:14:44Z</time>
      </trkpt>
      <trkpt lat="48.76455" lon="2.02087">
        <ele>154.43</ele>
        <time>2011-10-22T11:14:43Z</time>
      </trkpt>
      <trkpt lat="48.76455" lon="2.02083">
        <ele>154.91</ele>
        <time>2011-10-22T11:14:42Z</time>
      </trkpt>
      <trkpt lat="48.76457" lon="2.02081">
        <ele>154.91</ele>
        <time>2011-10-22T11:14:41Z</time>
      </trkpt>
      <trkpt lat="48.76461" lon="2.02081">
        <ele>153.95</ele>
        <time>2011-10-22T11:14:40Z</time>
      </trkpt>
      <trkpt lat="48.76465" lon="2.02083">
        <ele>153.95</ele>
        <time>2011-10-22T11:14:39Z</time>
      </trkpt>
      <trkpt lat="48.76506" lon="2.02098">
        <ele>153.47</ele>
        <time>2011-10-22T11:14:31Z</time>
      </trkpt>
      <trkpt lat="48.76577" lon="2.02125">
        <ele>152.51</ele>
        <time>2011-10-22T11:14:17Z</time>
      </trkpt>
      <trkpt lat="48.76582" lon="2.02127">
        <ele>152.99</ele>
        <time>2011-10-22T11:14:16Z</time>
      </trkpt>
      <trkpt lat="48.76661" lon="2.02176">
        <ele>152.03</ele>
        <time>2011-10-22T11:13:59Z</time>
      </trkpt>
      <trkpt lat="48.76674" lon="2.02186">
        <ele>152.51</ele>
        <time>2011-10-22T11:13:56Z</time>
      </trkpt>
      <trkpt lat="48.76677" lon="2.0219">
        <ele>152.51</ele>
        <time>2011-10-22T11:13:55Z</time>
      </trkpt>
      <trkpt lat="48.7668" lon="2.02195">
        <ele>152.51</ele>
        <time>2011-10-22T11:13:54Z</time>
      </trkpt>
      <trkpt lat="48.76679" lon="2.02207">
        <ele>152.51</ele>
        <time>2011-10-22T11:13:52Z</time>
      </trkpt>
      <trkpt lat="48.7668" lon="2.0223">
        <ele>152.99</ele>
        <time>2011-10-22T11:13:48Z</time>
      </trkpt>
      <trkpt lat="48.7668" lon="2.02235">
        <ele>152.99</ele>
        <time>2011-10-22T11:13:47Z</time>
      </trkpt>
      <trkpt lat="48.76681" lon="2.0224">
        <ele>152.99</ele>
        <time>2011-10-22T11:13:46Z</time>
      </trkpt>
      <trkpt lat="48.76683" lon="2.02244">
        <ele>152.99</ele>
        <time>2011-10-22T11:13:45Z</time>
      </trkpt>
      <trkpt lat="48.76685" lon="2.02248">
        <ele>152.99</ele>
        <time>2011-10-22T11:13:44Z</time>
      </trkpt>
      <trkpt lat="48.76687" lon="2.02251">
        <ele>153.47</ele>
        <time>2011-10-22T11:13:43Z</time>
      </trkpt>
      <trkpt lat="48.76689" lon="2.02253">
        <ele>152.99</ele>
        <time>2011-10-22T11:13:42Z</time>
      </trkpt>
      <trkpt lat="48.76691" lon="2.02254">
        <ele>152.99</ele>
        <time>2011-10-22T11:13:41Z</time>
      </trkpt>
      <trkpt lat="48.76694" lon="2.02259">
        <ele>152.99</ele>
        <time>2011-10-22T11:13:39Z</time>
      </trkpt>
      <trkpt lat="48.76695" lon="2.02262">
        <ele>153.47</ele>
        <time>2011-10-22T11:13:38Z</time>
      </trkpt>
      <trkpt lat="48.76695" lon="2.02266">
        <ele>152.99</ele>
        <time>2011-10-22T11:13:37Z</time>
      </trkpt>
      <trkpt lat="48.76671" lon="2.02346">
        <ele>152.03</ele>
        <time>2011-10-22T11:13:26Z</time>
      </trkpt>
      <trkpt lat="48.7663" lon="2.02476">
        <ele>151.54</ele>
        <time>2011-10-22T11:13:10Z</time>
      </trkpt>
      <trkpt lat="48.76607" lon="2.02615">
        <ele>150.1</ele>
        <time>2011-10-22T11:12:55Z</time>
      </trkpt>
      <trkpt lat="48.76614" lon="2.02731">
        <ele>151.06</ele>
        <time>2011-10-22T11:12:43Z</time>
      </trkpt>
      <trkpt lat="48.76614" lon="2.0274">
        <ele>151.54</ele>
        <time>2011-10-22T11:12:42Z</time>
      </trkpt>
      <trkpt lat="48.76617" lon="2.02777">
        <ele>151.54</ele>
        <time>2011-10-22T11:12:38Z</time>
      </trkpt>
      <trkpt lat="48.76629" lon="2.0291">
        <ele>151.06</ele>
        <time>2011-10-22T11:12:23Z</time>
      </trkpt>
      <trkpt lat="48.76636" lon="2.03032">
        <ele>151.06</ele>
        <time>2011-10-22T11:12:09Z</time>
      </trkpt>
      <trkpt lat="48.76629" lon="2.03142">
        <ele>151.06</ele>
        <time>2011-10-22T11:11:56Z</time>
      </trkpt>
      <trkpt lat="48.76613" lon="2.03214">
        <ele>150.1</ele>
        <time>2011-10-22T11:11:45Z</time>
      </trkpt>
      <trkpt lat="48.76637" lon="2.03261">
        <ele>150.58</ele>
        <time>2011-10-22T11:11:31Z</time>
      </trkpt>
      <trkpt lat="48.76714" lon="2.03297">
        <ele>149.62</ele>
        <time>2011-10-22T11:11:14Z</time>
      </trkpt>
      <trkpt lat="48.76718" lon="2.03299">
        <ele>149.62</ele>
        <time>2011-10-22T11:11:13Z</time>
      </trkpt>
      <trkpt lat="48.76722" lon="2.03302">
        <ele>149.62</ele>
        <time>2011-10-22T11:11:12Z</time>
      </trkpt>
      <trkpt lat="48.76726" lon="2.03306">
        <ele>149.14</ele>
        <time>2011-10-22T11:11:11Z</time>
      </trkpt>
      <trkpt lat="48.7673" lon="2.0331">
        <ele>149.62</ele>
        <time>2011-10-22T11:11:10Z</time>
      </trkpt>
      <trkpt lat="48.76733" lon="2.03315">
        <ele>149.62</ele>
        <time>2011-10-22T11:11:09Z</time>
      </trkpt>
      <trkpt lat="48.76736" lon="2.03321">
        <ele>149.62</ele>
        <time>2011-10-22T11:11:08Z</time>
      </trkpt>
      <trkpt lat="48.76738" lon="2.03327">
        <ele>149.62</ele>
        <time>2011-10-22T11:11:07Z</time>
      </trkpt>
      <trkpt lat="48.7674" lon="2.03333">
        <ele>149.14</ele>
        <time>2011-10-22T11:11:06Z</time>
      </trkpt>
      <trkpt lat="48.76743" lon="2.03339">
        <ele>149.14</ele>
        <time>2011-10-22T11:11:05Z</time>
      </trkpt>
      <trkpt lat="48.76746" lon="2.03342">
        <ele>149.14</ele>
        <time>2011-10-22T11:11:04Z</time>
      </trkpt>
      <trkpt lat="48.76749" lon="2.03345">
        <ele>149.14</ele>
        <time>2011-10-22T11:11:03Z</time>
      </trkpt>
      <trkpt lat="48.76753" lon="2.03346">
        <ele>148.18</ele>
        <time>2011-10-22T11:11:02Z</time>
      </trkpt>
      <trkpt lat="48.76756" lon="2.03347">
        <ele>148.66</ele>
        <time>2011-10-22T11:11:01Z</time>
      </trkpt>
      <trkpt lat="48.7676" lon="2.03347">
        <ele>148.18</ele>
        <time>2011-10-22T11:11:00Z</time>
      </trkpt>
      <trkpt lat="48.76764" lon="2.03348">
        <ele>148.18</ele>
        <time>2011-10-22T11:10:59Z</time>
      </trkpt>
      <trkpt lat="48.76767" lon="2.03349">
        <ele>148.18</ele>
        <time>2011-10-22T11:10:58Z</time>
      </trkpt>
      <trkpt lat="48.7677" lon="2.03353">
        <ele>148.66</ele>
        <time>2011-10-22T11:10:57Z</time>
      </trkpt>
      <trkpt lat="48.76774" lon="2.03369">
        <ele>148.18</ele>
        <time>2011-10-22T11:10:54Z</time>
      </trkpt>
      <trkpt lat="48.76774" lon="2.03375">
        <ele>148.18</ele>
        <time>2011-10-22T11:10:53Z</time>
      </trkpt>
      <trkpt lat="48.76776" lon="2.0338">
        <ele>147.7</ele>
        <time>2011-10-22T11:10:52Z</time>
      </trkpt>
      <trkpt lat="48.76811" lon="2.03396">
        <ele>148.18</ele>
        <time>2011-10-22T11:10:42Z</time>
      </trkpt>
      <trkpt lat="48.76813" lon="2.03398">
        <ele>148.18</ele>
        <time>2011-10-22T11:10:41Z</time>
      </trkpt>
      <trkpt lat="48.76815" lon="2.03399">
        <ele>149.14</ele>
        <time>2011-10-22T11:10:40Z</time>
      </trkpt>
      <trkpt lat="48.76817" lon="2.03401">
        <ele>149.14</ele>
        <time>2011-10-22T11:10:39Z</time>
      </trkpt>
      <trkpt lat="48.76818" lon="2.03402">
        <ele>149.14</ele>
        <time>2011-10-22T11:10:38Z</time>
      </trkpt>
      <trkpt lat="48.76819" lon="2.03403">
        <ele>149.14</ele>
        <time>2011-10-22T11:10:37Z</time>
      </trkpt>
      <trkpt lat="48.76819" lon="2.03404">
        <ele>149.62</ele>
        <time>2011-10-22T11:10:27Z</time>
      </trkpt>
      <trkpt lat="48.76818" lon="2.03405">
        <ele>149.14</ele>
        <time>2011-10-22T11:10:18Z</time>
      </trkpt>
      <trkpt lat="48.76815" lon="2.03409">
        <ele>149.62</ele>
        <time>2011-10-22T11:09:57Z</time>
      </trkpt>
      <trkpt lat="48.76815" lon="2.03409">
        <ele>149.14</ele>
        <time>2011-10-22T11:09:27Z</time>
      </trkpt>
      <trkpt lat="48.76815" lon="2.03409">
        <ele>149.62</ele>
        <time>2011-10-22T11:08:59Z</time>
      </trkpt>
      <trkpt lat="48.76815" lon="2.03409">
        <ele>149.62</ele>
        <time>2011-10-22T11:08:36Z</time>
      </trkpt>
      <trkpt lat="48.76814" lon="2.03409">
        <ele>149.62</ele>
        <time>2011-10-22T11:08:09Z</time>
      </trkpt>
      <trkpt lat="48.76814" lon="2.03409">
        <ele>149.14</ele>
        <time>2011-10-22T11:07:45Z</time>
      </trkpt>
      <trkpt lat="48.76814" lon="2.03409">
        <ele>148.66</ele>
        <time>2011-10-22T11:07:17Z</time>
      </trkpt>
      <trkpt lat="48.76816" lon="2.03406">
        <ele>149.14</ele>
        <time>2011-10-22T11:07:07Z</time>
      </trkpt>
      <trkpt lat="48.76817" lon="2.03404">
        <ele>148.66</ele>
        <time>2011-10-22T11:07:06Z</time>
      </trkpt>
      <trkpt lat="48.76791" lon="2.0339">
        <ele>148.18</ele>
        <time>2011-10-22T11:07:00Z</time>
      </trkpt>
      <trkpt lat="48.76785" lon="2.03389">
        <ele>148.18</ele>
        <time>2011-10-22T11:06:59Z</time>
      </trkpt>
      <trkpt lat="48.7678" lon="2.03387">
        <ele>147.7</ele>
        <time>2011-10-22T11:06:58Z</time>
      </trkpt>
      <trkpt lat="48.76775" lon="2.03384">
        <ele>147.7</ele>
        <time>2011-10-22T11:06:57Z</time>
      </trkpt>
      <trkpt lat="48.76772" lon="2.03378">
        <ele>148.18</ele>
        <time>2011-10-22T11:06:56Z</time>
      </trkpt>
      <trkpt lat="48.76771" lon="2.03371">
        <ele>147.22</ele>
        <time>2011-10-22T11:06:55Z</time>
      </trkpt>
      <trkpt lat="48.76771" lon="2.03363">
        <ele>147.7</ele>
        <time>2011-10-22T11:06:54Z</time>
      </trkpt>
      <trkpt lat="48.76768" lon="2.03356">
        <ele>148.18</ele>
        <time>2011-10-22T11:06:53Z</time>
      </trkpt>
      <trkpt lat="48.76763" lon="2.03353">
        <ele>147.7</ele>
        <time>2011-10-22T11:06:52Z</time>
      </trkpt>
      <trkpt lat="48.76757" lon="2.03352">
        <ele>148.18</ele>
        <time>2011-10-22T11:06:51Z</time>
      </trkpt>
      <trkpt lat="48.76752" lon="2.0335">
        <ele>148.18</ele>
        <time>2011-10-22T11:06:50Z</time>
      </trkpt>
      <trkpt lat="48.76748" lon="2.03348">
        <ele>148.66</ele>
        <time>2011-10-22T11:06:49Z</time>
      </trkpt>
      <trkpt lat="48.76745" lon="2.03344">
        <ele>148.66</ele>
        <time>2011-10-22T11:06:48Z</time>
      </trkpt>
      <trkpt lat="48.76744" lon="2.03338">
        <ele>148.66</ele>
        <time>2011-10-22T11:06:47Z</time>
      </trkpt>
      <trkpt lat="48.76743" lon="2.0333">
        <ele>148.66</ele>
        <time>2011-10-22T11:06:46Z</time>
      </trkpt>
      <trkpt lat="48.76742" lon="2.03323">
        <ele>148.18</ele>
        <time>2011-10-22T11:06:45Z</time>
      </trkpt>
      <trkpt lat="48.7674" lon="2.03316">
        <ele>148.66</ele>
        <time>2011-10-22T11:06:44Z</time>
      </trkpt>
      <trkpt lat="48.76737" lon="2.03309">
        <ele>148.66</ele>
        <time>2011-10-22T11:06:43Z</time>
      </trkpt>
      <trkpt lat="48.76735" lon="2.03303">
        <ele>148.66</ele>
        <time>2011-10-22T11:06:42Z</time>
      </trkpt>
      <trkpt lat="48.76734" lon="2.03298">
        <ele>149.14</ele>
        <time>2011-10-22T11:06:41Z</time>
      </trkpt>
      <trkpt lat="48.76734" lon="2.03292">
        <ele>148.66</ele>
        <time>2011-10-22T11:06:40Z</time>
      </trkpt>
      <trkpt lat="48.76733" lon="2.03287">
        <ele>148.66</ele>
        <time>2011-10-22T11:06:39Z</time>
      </trkpt>
      <trkpt lat="48.76732" lon="2.03282">
        <ele>148.18</ele>
        <time>2011-10-22T11:06:38Z</time>
      </trkpt>
      <trkpt lat="48.76731" lon="2.03277">
        <ele>148.66</ele>
        <time>2011-10-22T11:06:37Z</time>
      </trkpt>
      <trkpt lat="48.7673" lon="2.03273">
        <ele>148.66</ele>
        <time>2011-10-22T11:06:36Z</time>
      </trkpt>
      <trkpt lat="48.76727" lon="2.0327">
        <ele>148.18</ele>
        <time>2011-10-22T11:06:35Z</time>
      </trkpt>
      <trkpt lat="48.76723" lon="2.03268">
        <ele>148.66</ele>
        <time>2011-10-22T11:06:34Z</time>
      </trkpt>
      <trkpt lat="48.76712" lon="2.03262">
        <ele>148.18</ele>
        <time>2011-10-22T11:06:32Z</time>
      </trkpt>
      <trkpt lat="48.76646" lon="2.03232">
        <ele>147.22</ele>
        <time>2011-10-22T11:06:21Z</time>
      </trkpt>
      <trkpt lat="48.7664" lon="2.03229">
        <ele>147.22</ele>
        <time>2011-10-22T11:06:20Z</time>
      </trkpt>
      <trkpt lat="48.76635" lon="2.03226">
        <ele>146.26</ele>
        <time>2011-10-22T11:06:19Z</time>
      </trkpt>
      <trkpt lat="48.76631" lon="2.03222">
        <ele>146.74</ele>
        <time>2011-10-22T11:06:18Z</time>
      </trkpt>
      <trkpt lat="48.76627" lon="2.03217">
        <ele>146.26</ele>
        <time>2011-10-22T11:06:17Z</time>
      </trkpt>
      <trkpt lat="48.76624" lon="2.0321">
        <ele>145.78</ele>
        <time>2011-10-22T11:06:16Z</time>
      </trkpt>
      <trkpt lat="48.76622" lon="2.03203">
        <ele>145.78</ele>
        <time>2011-10-22T11:06:15Z</time>
      </trkpt>
      <trkpt lat="48.76621" lon="2.03194">
        <ele>145.3</ele>
        <time>2011-10-22T11:06:14Z</time>
      </trkpt>
      <trkpt lat="48.76621" lon="2.03185">
        <ele>144.82</ele>
        <time>2011-10-22T11:06:13Z</time>
      </trkpt>
      <trkpt lat="48.7663" lon="2.03038">
        <ele>142.41</ele>
        <time>2011-10-22T11:05:57Z</time>
      </trkpt>
      <trkpt lat="48.76628" lon="2.02966">
        <ele>140.01</ele>
        <time>2011-10-22T11:05:49Z</time>
      </trkpt>
      <trkpt lat="48.76626" lon="2.02934">
        <ele>140.49</ele>
        <time>2011-10-22T11:05:45Z</time>
      </trkpt>
      <trkpt lat="48.76625" lon="2.02918">
        <ele>140.97</ele>
        <time>2011-10-22T11:05:42Z</time>
      </trkpt>
      <trkpt lat="48.76625" lon="2.02915">
        <ele>140.49</ele>
        <time>2011-10-22T11:05:41Z</time>
      </trkpt>
      <trkpt lat="48.76624" lon="2.02912">
        <ele>140.01</ele>
        <time>2011-10-22T11:05:40Z</time>
      </trkpt>
      <trkpt lat="48.76624" lon="2.02909">
        <ele>140.01</ele>
        <time>2011-10-22T11:05:39Z</time>
      </trkpt>
      <trkpt lat="48.76624" lon="2.02908">
        <ele>140.01</ele>
        <time>2011-10-22T11:05:38Z</time>
      </trkpt>
      <trkpt lat="48.76628" lon="2.02931">
        <ele>139.05</ele>
        <time>2011-10-22T11:05:32Z</time>
      </trkpt>
      <trkpt lat="48.76633" lon="2.03038">
        <ele>138.09</ele>
        <time>2011-10-22T11:05:18Z</time>
      </trkpt>
      <trkpt lat="48.76625" lon="2.03156">
        <ele>139.05</ele>
        <time>2011-10-22T11:05:02Z</time>
      </trkpt>
      <trkpt lat="48.76623" lon="2.0317">
        <ele>139.05</ele>
        <time>2011-10-22T11:05:00Z</time>
      </trkpt>
      <trkpt lat="48.76622" lon="2.03177">
        <ele>138.57</ele>
        <time>2011-10-22T11:04:59Z</time>
      </trkpt>
      <trkpt lat="48.76622" lon="2.03183">
        <ele>139.05</ele>
        <time>2011-10-22T11:04:58Z</time>
      </trkpt>
      <trkpt lat="48.76622" lon="2.0319">
        <ele>138.57</ele>
        <time>2011-10-22T11:04:57Z</time>
      </trkpt>
      <trkpt lat="48.76622" lon="2.03196">
        <ele>138.57</ele>
        <time>2011-10-22T11:04:56Z</time>
      </trkpt>
      <trkpt lat="48.76621" lon="2.03202">
        <ele>138.09</ele>
        <time>2011-10-22T11:04:55Z</time>
      </trkpt>
      <trkpt lat="48.76619" lon="2.03208">
        <ele>138.57</ele>
        <time>2011-10-22T11:04:54Z</time>
      </trkpt>
      <trkpt lat="48.76617" lon="2.03213">
        <ele>139.05</ele>
        <time>2011-10-22T11:04:53Z</time>
      </trkpt>
      <trkpt lat="48.76615" lon="2.03219">
        <ele>138.57</ele>
        <time>2011-10-22T11:04:52Z</time>
      </trkpt>
      <trkpt lat="48.76613" lon="2.03224">
        <ele>139.05</ele>
        <time>2011-10-22T11:04:51Z</time>
      </trkpt>
      <trkpt lat="48.76611" lon="2.0323">
        <ele>139.05</ele>
        <time>2011-10-22T11:04:50Z</time>
      </trkpt>
      <trkpt lat="48.76609" lon="2.03235">
        <ele>138.57</ele>
        <time>2011-10-22T11:04:49Z</time>
      </trkpt>
      <trkpt lat="48.76608" lon="2.0324">
        <ele>139.05</ele>
        <time>2011-10-22T11:04:48Z</time>
      </trkpt>
      <trkpt lat="48.76609" lon="2.03246">
        <ele>139.05</ele>
        <time>2011-10-22T11:04:47Z</time>
      </trkpt>
      <trkpt lat="48.76611" lon="2.0325">
        <ele>138.57</ele>
        <time>2011-10-22T11:04:46Z</time>
      </trkpt>
      <trkpt lat="48.76614" lon="2.03251">
        <ele>138.57</ele>
        <time>2011-10-22T11:04:45Z</time>
      </trkpt>
      <trkpt lat="48.7663" lon="2.03259">
        <ele>135.2</ele>
        <time>2011-10-22T11:04:41Z</time>
      </trkpt>
      <trkpt lat="48.76669" lon="2.03281">
        <ele>131.84</ele>
        <time>2011-10-22T11:04:32Z</time>
      </trkpt>
      <trkpt lat="48.76677" lon="2.03285">
        <ele>130.88</ele>
        <time>2011-10-22T11:04:30Z</time>
      </trkpt>
      <trkpt lat="48.76694" lon="2.03291">
        <ele>127.51</ele>
        <time>2011-10-22T11:04:25Z</time>
      </trkpt>
      <trkpt lat="48.76701" lon="2.03294">
        <ele>124.15</ele>
        <time>2011-10-22T11:04:20Z</time>
      </trkpt>
      <trkpt lat="48.767" lon="2.03291">
        <ele>120.78</ele>
        <time>2011-10-22T11:04:16Z</time>
      </trkpt>
      <trkpt lat="48.76701" lon="2.0329">
        <ele>116.46</ele>
        <time>2011-10-22T11:04:12Z</time>
      </trkpt>
      <trkpt lat="48.76702" lon="2.0329">
        <ele>112.61</ele>
        <time>2011-10-22T11:04:09Z</time>
      </trkpt>
      <trkpt lat="48.76702" lon="2.03289">
        <ele>112.61</ele>
        <time>2011-10-22T11:04:08Z</time>
      </trkpt>
    </trkseg>
  </trk>
  <trk>
    <name><![CDATA[Tracé 002]]></name>
    <trkseg>
      <trkpt lat="48.68065" lon="1.95338">
        <ele>160.0039063</ele>
      </trkpt>
      <trkpt lat="48.68072" lon="1.95335">
        <ele>166.45</ele>
        <time>2011-10-22T12:50:49Z</time>
      </trkpt>
      <trkpt lat="48.68074" lon="1.95331">
        <ele>165.96</ele>
        <time>2011-10-22T12:50:50Z</time>
      </trkpt>
      <trkpt lat="48.68075" lon="1.95328">
        <ele>166.45</ele>
        <time>2011-10-22T12:50:51Z</time>
      </trkpt>
      <trkpt lat="48.68077" lon="1.95325">
        <ele>166.45</ele>
        <time>2011-10-22T12:50:52Z</time>
      </trkpt>
      <trkpt lat="48.68079" lon="1.95322">
        <ele>166.45</ele>
        <time>2011-10-22T12:50:53Z</time>
      </trkpt>
      <trkpt lat="48.68081" lon="1.95318">
        <ele>166.45</ele>
        <time>2011-10-22T12:50:54Z</time>
      </trkpt>
      <trkpt lat="48.68082" lon="1.95315">
        <ele>166.45</ele>
        <time>2011-10-22T12:50:55Z</time>
      </trkpt>
      <trkpt lat="48.68084" lon="1.95311">
        <ele>166.45</ele>
        <time>2011-10-22T12:50:56Z</time>
      </trkpt>
      <trkpt lat="48.68086" lon="1.95307">
        <ele>166.45</ele>
        <time>2011-10-22T12:50:57Z</time>
      </trkpt>
      <trkpt lat="48.68087" lon="1.95304">
        <ele>166.93</ele>
        <time>2011-10-22T12:50:58Z</time>
      </trkpt>
      <trkpt lat="48.68089" lon="1.953">
        <ele>166.45</ele>
        <time>2011-10-22T12:50:59Z</time>
      </trkpt>
      <trkpt lat="48.68116" lon="1.95257">
        <ele>165.96</ele>
        <time>2011-10-22T12:51:10Z</time>
      </trkpt>
      <trkpt lat="48.68125" lon="1.9523">
        <ele>165.96</ele>
        <time>2011-10-22T12:51:15Z</time>
      </trkpt>
      <trkpt lat="48.68146" lon="1.95165">
        <ele>166.93</ele>
        <time>2011-10-22T12:51:27Z</time>
      </trkpt>
      <trkpt lat="48.68144" lon="1.95084">
        <ele>165.96</ele>
        <time>2011-10-22T12:51:40Z</time>
      </trkpt>
      <trkpt lat="48.68168" lon="1.95018">
        <ele>165.48</ele>
        <time>2011-10-22T12:51:52Z</time>
      </trkpt>
      <trkpt lat="48.68176" lon="1.95004">
        <ele>165</ele>
        <time>2011-10-22T12:51:55Z</time>
      </trkpt>
      <trkpt lat="48.68179" lon="1.94998">
        <ele>165</ele>
        <time>2011-10-22T12:51:56Z</time>
      </trkpt>
      <trkpt lat="48.68217" lon="1.94939">
        <ele>165.48</ele>
        <time>2011-10-22T12:52:09Z</time>
      </trkpt>
      <trkpt lat="48.68258" lon="1.94909">
        <ele>166.45</ele>
        <time>2011-10-22T12:52:20Z</time>
      </trkpt>
      <trkpt lat="48.68274" lon="1.94902">
        <ele>152.99</ele>
        <time>2011-10-22T12:52:24Z</time>
      </trkpt>
      <trkpt lat="48.68277" lon="1.949">
        <ele>170.29</ele>
        <time>2011-10-22T12:52:25Z</time>
      </trkpt>
      <trkpt lat="48.6828" lon="1.94899">
        <ele>166.93</ele>
        <time>2011-10-22T12:52:26Z</time>
      </trkpt>
      <trkpt lat="48.68289" lon="1.94895">
        <ele>146.74</ele>
        <time>2011-10-22T12:52:32Z</time>
      </trkpt>
      <trkpt lat="48.68289" lon="1.94895">
        <ele>166.93</ele>
        <time>2011-10-22T12:52:33Z</time>
      </trkpt>
      <trkpt lat="48.68289" lon="1.94895">
        <ele>166.93</ele>
        <time>2011-10-22T12:52:55Z</time>
      </trkpt>
      <trkpt lat="48.6829" lon="1.94894">
        <ele>166.93</ele>
        <time>2011-10-22T12:52:59Z</time>
      </trkpt>
      <trkpt lat="48.68292" lon="1.94893">
        <ele>166.93</ele>
        <time>2011-10-22T12:53:00Z</time>
      </trkpt>
      <trkpt lat="48.68293" lon="1.94891">
        <ele>166.45</ele>
        <time>2011-10-22T12:53:01Z</time>
      </trkpt>
      <trkpt lat="48.68296" lon="1.94889">
        <ele>166.45</ele>
        <time>2011-10-22T12:53:02Z</time>
      </trkpt>
      <trkpt lat="48.68299" lon="1.94885">
        <ele>165.96</ele>
        <time>2011-10-22T12:53:03Z</time>
      </trkpt>
      <trkpt lat="48.68301" lon="1.94882">
        <ele>165.96</ele>
        <time>2011-10-22T12:53:04Z</time>
      </trkpt>
      <trkpt lat="48.68303" lon="1.94879">
        <ele>165.48</ele>
        <time>2011-10-22T12:53:05Z</time>
      </trkpt>
      <trkpt lat="48.68305" lon="1.94876">
        <ele>165.48</ele>
        <time>2011-10-22T12:53:06Z</time>
      </trkpt>
      <trkpt lat="48.68307" lon="1.94873">
        <ele>165.48</ele>
        <time>2011-10-22T12:53:07Z</time>
      </trkpt>
      <trkpt lat="48.6831" lon="1.94868">
        <ele>160.68</ele>
        <time>2011-10-22T12:53:19Z</time>
      </trkpt>
      <trkpt lat="48.6831" lon="1.94868">
        <ele>165.96</ele>
        <time>2011-10-22T12:53:20Z</time>
      </trkpt>
      <trkpt lat="48.68316" lon="1.94847">
        <ele>165.96</ele>
        <time>2011-10-22T12:53:37Z</time>
      </trkpt>
      <trkpt lat="48.68324" lon="1.94824">
        <ele>167.41</ele>
        <time>2011-10-22T12:53:45Z</time>
      </trkpt>
      <trkpt lat="48.68323" lon="1.94821">
        <ele>167.41</ele>
        <time>2011-10-22T12:53:46Z</time>
      </trkpt>
      <trkpt lat="48.68321" lon="1.94819">
        <ele>166.93</ele>
        <time>2011-10-22T12:53:47Z</time>
      </trkpt>
      <trkpt lat="48.68319" lon="1.94816">
        <ele>166.93</ele>
        <time>2011-10-22T12:53:48Z</time>
      </trkpt>
      <trkpt lat="48.68316" lon="1.94813">
        <ele>167.41</ele>
        <time>2011-10-22T12:53:49Z</time>
      </trkpt>
      <trkpt lat="48.68314" lon="1.94812">
        <ele>166.93</ele>
        <time>2011-10-22T12:53:50Z</time>
      </trkpt>
      <trkpt lat="48.68285" lon="1.94797">
        <ele>166.93</ele>
        <time>2011-10-22T12:54:01Z</time>
      </trkpt>
      <trkpt lat="48.68244" lon="1.94804">
        <ele>163.56</ele>
        <time>2011-10-22T12:54:10Z</time>
      </trkpt>
      <trkpt lat="48.68209" lon="1.9478">
        <ele>164.04</ele>
        <time>2011-10-22T12:54:21Z</time>
      </trkpt>
      <trkpt lat="48.68216" lon="1.94766">
        <ele>164.52</ele>
        <time>2011-10-22T12:54:27Z</time>
      </trkpt>
      <trkpt lat="48.68226" lon="1.94724">
        <ele>166.93</ele>
        <time>2011-10-22T12:54:39Z</time>
      </trkpt>
      <trkpt lat="48.68232" lon="1.94701">
        <ele>163.56</ele>
        <time>2011-10-22T12:54:45Z</time>
      </trkpt>
      <trkpt lat="48.68234" lon="1.94697">
        <ele>163.08</ele>
        <time>2011-10-22T12:54:46Z</time>
      </trkpt>
      <trkpt lat="48.68232" lon="1.94666">
        <ele>162.6</ele>
        <time>2011-10-22T12:54:57Z</time>
      </trkpt>
      <trkpt lat="48.68234" lon="1.94663">
        <ele>162.6</ele>
        <time>2011-10-22T12:55:00Z</time>
      </trkpt>
      <trkpt lat="48.68235" lon="1.94661">
        <ele>162.6</ele>
        <time>2011-10-22T12:55:01Z</time>
      </trkpt>
      <trkpt lat="48.6824" lon="1.94657">
        <ele>162.6</ele>
        <time>2011-10-22T12:55:12Z</time>
      </trkpt>
      <trkpt lat="48.68247" lon="1.94647">
        <ele>163.08</ele>
        <time>2011-10-22T12:55:24Z</time>
      </trkpt>
      <trkpt lat="48.68247" lon="1.94641">
        <ele>163.08</ele>
        <time>2011-10-22T12:55:40Z</time>
      </trkpt>
      <trkpt lat="48.68247" lon="1.94635">
        <ele>163.56</ele>
        <time>2011-10-22T12:55:42Z</time>
      </trkpt>
      <trkpt lat="48.68249" lon="1.94632">
        <ele>163.56</ele>
        <time>2011-10-22T12:55:43Z</time>
      </trkpt>
      <trkpt lat="48.68273" lon="1.9458">
        <ele>165</ele>
        <time>2011-10-22T12:55:55Z</time>
      </trkpt>
      <trkpt lat="48.68302" lon="1.94548">
        <ele>165</ele>
        <time>2011-10-22T12:56:06Z</time>
      </trkpt>
      <trkpt lat="48.68309" lon="1.9455">
        <ele>165.96</ele>
        <time>2011-10-22T12:56:10Z</time>
      </trkpt>
      <trkpt lat="48.68311" lon="1.94555">
        <ele>165.96</ele>
        <time>2011-10-22T12:56:12Z</time>
      </trkpt>
      <trkpt lat="48.68311" lon="1.94558">
        <ele>165.96</ele>
        <time>2011-10-22T12:56:13Z</time>
      </trkpt>
      <trkpt lat="48.6831" lon="1.94561">
        <ele>165.48</ele>
        <time>2011-10-22T12:56:14Z</time>
      </trkpt>
      <trkpt lat="48.6831" lon="1.94564">
        <ele>165.96</ele>
        <time>2011-10-22T12:56:15Z</time>
      </trkpt>
      <trkpt lat="48.6831" lon="1.94567">
        <ele>165.96</ele>
        <time>2011-10-22T12:56:16Z</time>
      </trkpt>
      <trkpt lat="48.68309" lon="1.94571">
        <ele>165.96</ele>
        <time>2011-10-22T12:56:17Z</time>
      </trkpt>
      <trkpt lat="48.68308" lon="1.94577">
        <ele>167.41</ele>
        <time>2011-10-22T12:56:19Z</time>
      </trkpt>
      <trkpt lat="48.68306" lon="1.94595">
        <ele>167.41</ele>
        <time>2011-10-22T12:56:25Z</time>
      </trkpt>
      <trkpt lat="48.68311" lon="1.94614">
        <ele>169.33</ele>
        <time>2011-10-22T12:56:37Z</time>
      </trkpt>
      <trkpt lat="48.68311" lon="1.94607">
        <ele>168.37</ele>
        <time>2011-10-22T12:56:42Z</time>
      </trkpt>
      <trkpt lat="48.68311" lon="1.94603">
        <ele>168.37</ele>
        <time>2011-10-22T12:56:44Z</time>
      </trkpt>
      <trkpt lat="48.6831" lon="1.94601">
        <ele>168.37</ele>
        <time>2011-10-22T12:56:45Z</time>
      </trkpt>
      <trkpt lat="48.68309" lon="1.94598">
        <ele>168.37</ele>
        <time>2011-10-22T12:56:46Z</time>
      </trkpt>
      <trkpt lat="48.68308" lon="1.94595">
        <ele>167.89</ele>
        <time>2011-10-22T12:56:47Z</time>
      </trkpt>
      <trkpt lat="48.68307" lon="1.94591">
        <ele>167.41</ele>
        <time>2011-10-22T12:56:48Z</time>
      </trkpt>
      <trkpt lat="48.68306" lon="1.94586">
        <ele>167.41</ele>
        <time>2011-10-22T12:56:49Z</time>
      </trkpt>
      <trkpt lat="48.68306" lon="1.94582">
        <ele>166.93</ele>
        <time>2011-10-22T12:56:50Z</time>
      </trkpt>
      <trkpt lat="48.68307" lon="1.94579">
        <ele>166.93</ele>
        <time>2011-10-22T12:56:51Z</time>
      </trkpt>
      <trkpt lat="48.68308" lon="1.94577">
        <ele>167.41</ele>
        <time>2011-10-22T12:56:52Z</time>
      </trkpt>
      <trkpt lat="48.68309" lon="1.94568">
        <ele>165.48</ele>
        <time>2011-10-22T12:57:03Z</time>
      </trkpt>
      <trkpt lat="48.6831" lon="1.94565">
        <ele>165</ele>
        <time>2011-10-22T12:57:04Z</time>
      </trkpt>
      <trkpt lat="48.68311" lon="1.94558">
        <ele>165.48</ele>
        <time>2011-10-22T12:57:06Z</time>
      </trkpt>
      <trkpt lat="48.6831" lon="1.9454">
        <ele>164.04</ele>
        <time>2011-10-22T12:57:12Z</time>
      </trkpt>
      <trkpt lat="48.6831" lon="1.94536">
        <ele>163.56</ele>
        <time>2011-10-22T12:57:13Z</time>
      </trkpt>
      <trkpt lat="48.68309" lon="1.94527">
        <ele>164.04</ele>
        <time>2011-10-22T12:57:17Z</time>
      </trkpt>
      <trkpt lat="48.6831" lon="1.94526">
        <ele>164.04</ele>
        <time>2011-10-22T12:57:19Z</time>
      </trkpt>
      <trkpt lat="48.68313" lon="1.94522">
        <ele>164.04</ele>
        <time>2011-10-22T12:57:23Z</time>
      </trkpt>
      <trkpt lat="48.68314" lon="1.9452">
        <ele>164.04</ele>
        <time>2011-10-22T12:57:24Z</time>
      </trkpt>
      <trkpt lat="48.68315" lon="1.94518">
        <ele>164.04</ele>
        <time>2011-10-22T12:57:25Z</time>
      </trkpt>
      <trkpt lat="48.68316" lon="1.94516">
        <ele>164.52</ele>
        <time>2011-10-22T12:57:26Z</time>
      </trkpt>
      <trkpt lat="48.68316" lon="1.94514">
        <ele>164.52</ele>
        <time>2011-10-22T12:57:27Z</time>
      </trkpt>
      <trkpt lat="48.68317" lon="1.94512">
        <ele>164.52</ele>
        <time>2011-10-22T12:57:28Z</time>
      </trkpt>
      <trkpt lat="48.6832" lon="1.94513">
        <ele>165.48</ele>
        <time>2011-10-22T12:57:38Z</time>
      </trkpt>
      <trkpt lat="48.68322" lon="1.94515">
        <ele>165.96</ele>
        <time>2011-10-22T12:57:48Z</time>
      </trkpt>
      <trkpt lat="48.68324" lon="1.94517">
        <ele>165.96</ele>
        <time>2011-10-22T12:57:49Z</time>
      </trkpt>
      <trkpt lat="48.68325" lon="1.94519">
        <ele>165.96</ele>
        <time>2011-10-22T12:57:50Z</time>
      </trkpt>
      <trkpt lat="48.68326" lon="1.94523">
        <ele>165.96</ele>
        <time>2011-10-22T12:57:51Z</time>
      </trkpt>
      <trkpt lat="48.68327" lon="1.94526">
        <ele>166.45</ele>
        <time>2011-10-22T12:57:52Z</time>
      </trkpt>
      <trkpt lat="48.6833" lon="1.9453">
        <ele>166.93</ele>
        <time>2011-10-22T12:57:54Z</time>
      </trkpt>
      <trkpt lat="48.68332" lon="1.94532">
        <ele>166.45</ele>
        <time>2011-10-22T12:57:55Z</time>
      </trkpt>
      <trkpt lat="48.6834" lon="1.94552">
        <ele>167.89</ele>
        <time>2011-10-22T12:58:03Z</time>
      </trkpt>
      <trkpt lat="48.68342" lon="1.94554">
        <ele>167.89</ele>
        <time>2011-10-22T12:58:04Z</time>
      </trkpt>
      <trkpt lat="48.68345" lon="1.94556">
        <ele>167.41</ele>
        <time>2011-10-22T12:58:05Z</time>
      </trkpt>
      <trkpt lat="48.6837" lon="1.94566">
        <ele>168.37</ele>
        <time>2011-10-22T12:58:17Z</time>
      </trkpt>
      <trkpt lat="48.68373" lon="1.94569">
        <ele>168.37</ele>
        <time>2011-10-22T12:58:18Z</time>
      </trkpt>
      <trkpt lat="48.68374" lon="1.94572">
        <ele>169.33</ele>
        <time>2011-10-22T12:58:19Z</time>
      </trkpt>
      <trkpt lat="48.68375" lon="1.94576">
        <ele>169.81</ele>
        <time>2011-10-22T12:58:20Z</time>
      </trkpt>
      <trkpt lat="48.68375" lon="1.9458">
        <ele>170.29</ele>
        <time>2011-10-22T12:58:21Z</time>
      </trkpt>
      <trkpt lat="48.68379" lon="1.94606">
        <ele>171.73</ele>
        <time>2011-10-22T12:58:29Z</time>
      </trkpt>
      <trkpt lat="48.68388" lon="1.94622">
        <ele>170.77</ele>
        <time>2011-10-22T12:58:39Z</time>
      </trkpt>
      <trkpt lat="48.68392" lon="1.94624">
        <ele>171.25</ele>
        <time>2011-10-22T12:58:42Z</time>
      </trkpt>
      <trkpt lat="48.68419" lon="1.94624">
        <ele>169.81</ele>
        <time>2011-10-22T12:58:54Z</time>
      </trkpt>
      <trkpt lat="48.68445" lon="1.94578">
        <ele>170.77</ele>
        <time>2011-10-22T12:59:05Z</time>
      </trkpt>
      <trkpt lat="48.68466" lon="1.94524">
        <ele>172.69</ele>
        <time>2011-10-22T12:59:16Z</time>
      </trkpt>
      <trkpt lat="48.68488" lon="1.94467">
        <ele>172.69</ele>
        <time>2011-10-22T12:59:28Z</time>
      </trkpt>
      <trkpt lat="48.68513" lon="1.94406">
        <ele>172.21</ele>
        <time>2011-10-22T12:59:42Z</time>
      </trkpt>
      <trkpt lat="48.68533" lon="1.94365">
        <ele>168.85</ele>
        <time>2011-10-22T12:59:51Z</time>
      </trkpt>
      <trkpt lat="48.68538" lon="1.94351">
        <ele>167.89</ele>
        <time>2011-10-22T12:59:53Z</time>
      </trkpt>
      <trkpt lat="48.68542" lon="1.94344">
        <ele>167.89</ele>
        <time>2011-10-22T12:59:54Z</time>
      </trkpt>
      <trkpt lat="48.68546" lon="1.94336">
        <ele>167.41</ele>
        <time>2011-10-22T12:59:55Z</time>
      </trkpt>
      <trkpt lat="48.68557" lon="1.94309">
        <ele>169.33</ele>
        <time>2011-10-22T12:59:59Z</time>
      </trkpt>
      <trkpt lat="48.6856" lon="1.94305">
        <ele>168.37</ele>
        <time>2011-10-22T13:00:00Z</time>
      </trkpt>
      <trkpt lat="48.68575" lon="1.94285">
        <ele>166.93</ele>
        <time>2011-10-22T13:00:07Z</time>
      </trkpt>
      <trkpt lat="48.6858" lon="1.94275">
        <ele>163.08</ele>
        <time>2011-10-22T13:00:11Z</time>
      </trkpt>
      <trkpt lat="48.68582" lon="1.94268">
        <ele>160.2</ele>
        <time>2011-10-22T13:00:13Z</time>
      </trkpt>
      <trkpt lat="48.68587" lon="1.94258">
        <ele>158.75</ele>
        <time>2011-10-22T13:00:15Z</time>
      </trkpt>
      <trkpt lat="48.6859" lon="1.94253">
        <ele>158.27</ele>
        <time>2011-10-22T13:00:16Z</time>
      </trkpt>
      <trkpt lat="48.68592" lon="1.94247">
        <ele>158.27</ele>
        <time>2011-10-22T13:00:17Z</time>
      </trkpt>
      <trkpt lat="48.68593" lon="1.94241">
        <ele>159.72</ele>
        <time>2011-10-22T13:00:18Z</time>
      </trkpt>
      <trkpt lat="48.68594" lon="1.94236">
        <ele>161.16</ele>
        <time>2011-10-22T13:00:19Z</time>
      </trkpt>
      <trkpt lat="48.68596" lon="1.94227">
        <ele>162.6</ele>
        <time>2011-10-22T13:00:21Z</time>
      </trkpt>
      <trkpt lat="48.68599" lon="1.94221">
        <ele>163.08</ele>
        <time>2011-10-22T13:00:23Z</time>
      </trkpt>
      <trkpt lat="48.686" lon="1.94213">
        <ele>164.04</ele>
        <time>2011-10-22T13:00:25Z</time>
      </trkpt>
      <trkpt lat="48.68601" lon="1.9421">
        <ele>164.04</ele>
        <time>2011-10-22T13:00:26Z</time>
      </trkpt>
      <trkpt lat="48.68602" lon="1.94207">
        <ele>164.04</ele>
        <time>2011-10-22T13:00:27Z</time>
      </trkpt>
      <trkpt lat="48.68604" lon="1.94204">
        <ele>165</ele>
        <time>2011-10-22T13:00:28Z</time>
      </trkpt>
      <trkpt lat="48.68605" lon="1.94203">
        <ele>165</ele>
        <time>2011-10-22T13:00:29Z</time>
      </trkpt>
      <trkpt lat="48.68607" lon="1.942">
        <ele>165.48</ele>
        <time>2011-10-22T13:00:30Z</time>
      </trkpt>
      <trkpt lat="48.68608" lon="1.94199">
        <ele>165.48</ele>
        <time>2011-10-22T13:00:31Z</time>
      </trkpt>
      <trkpt lat="48.68609" lon="1.94196">
        <ele>165.96</ele>
        <time>2011-10-22T13:00:32Z</time>
      </trkpt>
      <trkpt lat="48.6861" lon="1.94195">
        <ele>166.45</ele>
        <time>2011-10-22T13:00:33Z</time>
      </trkpt>
      <trkpt lat="48.68611" lon="1.94193">
        <ele>166.93</ele>
        <time>2011-10-22T13:00:34Z</time>
      </trkpt>
      <trkpt lat="48.68612" lon="1.9419">
        <ele>166.93</ele>
        <time>2011-10-22T13:00:35Z</time>
      </trkpt>
      <trkpt lat="48.68613" lon="1.94187">
        <ele>167.41</ele>
        <time>2011-10-22T13:00:36Z</time>
      </trkpt>
      <trkpt lat="48.68613" lon="1.94184">
        <ele>168.37</ele>
        <time>2011-10-22T13:00:37Z</time>
      </trkpt>
      <trkpt lat="48.68615" lon="1.94182">
        <ele>168.37</ele>
        <time>2011-10-22T13:00:38Z</time>
      </trkpt>
      <trkpt lat="48.68633" lon="1.94143">
        <ele>170.29</ele>
        <time>2011-10-22T13:00:52Z</time>
      </trkpt>
      <trkpt lat="48.6865" lon="1.94101">
        <ele>170.77</ele>
        <time>2011-10-22T13:01:04Z</time>
      </trkpt>
      <trkpt lat="48.68667" lon="1.94061">
        <ele>166.45</ele>
        <time>2011-10-22T13:01:12Z</time>
      </trkpt>
      <trkpt lat="48.68671" lon="1.94047">
        <ele>163.08</ele>
        <time>2011-10-22T13:01:14Z</time>
      </trkpt>
      <trkpt lat="48.68678" lon="1.94037">
        <ele>161.16</ele>
        <time>2011-10-22T13:01:15Z</time>
      </trkpt>
      <trkpt lat="48.68682" lon="1.94027">
        <ele>162.6</ele>
        <time>2011-10-22T13:01:16Z</time>
      </trkpt>
      <trkpt lat="48.68686" lon="1.94019">
        <ele>163.56</ele>
        <time>2011-10-22T13:01:17Z</time>
      </trkpt>
      <trkpt lat="48.68691" lon="1.94011">
        <ele>164.52</ele>
        <time>2011-10-22T13:01:18Z</time>
      </trkpt>
      <trkpt lat="48.68695" lon="1.94005">
        <ele>165.48</ele>
        <time>2011-10-22T13:01:19Z</time>
      </trkpt>
      <trkpt lat="48.68698" lon="1.93999">
        <ele>165.48</ele>
        <time>2011-10-22T13:01:20Z</time>
      </trkpt>
      <trkpt lat="48.68708" lon="1.93975">
        <ele>168.85</ele>
        <time>2011-10-22T13:01:24Z</time>
      </trkpt>
      <trkpt lat="48.68723" lon="1.93929">
        <ele>171.73</ele>
        <time>2011-10-22T13:01:36Z</time>
      </trkpt>
      <trkpt lat="48.6873" lon="1.93915">
        <ele>170.77</ele>
        <time>2011-10-22T13:01:40Z</time>
      </trkpt>
      <trkpt lat="48.68742" lon="1.93878">
        <ele>171.25</ele>
        <time>2011-10-22T13:01:50Z</time>
      </trkpt>
      <trkpt lat="48.68749" lon="1.93831">
        <ele>172.21</ele>
        <time>2011-10-22T13:02:01Z</time>
      </trkpt>
      <trkpt lat="48.6875" lon="1.93823">
        <ele>172.21</ele>
        <time>2011-10-22T13:02:03Z</time>
      </trkpt>
      <trkpt lat="48.68776" lon="1.93786">
        <ele>171.25</ele>
        <time>2011-10-22T13:02:13Z</time>
      </trkpt>
      <trkpt lat="48.68788" lon="1.93771">
        <ele>171.25</ele>
        <time>2011-10-22T13:02:16Z</time>
      </trkpt>
      <trkpt lat="48.68791" lon="1.93764">
        <ele>170.77</ele>
        <time>2011-10-22T13:02:17Z</time>
      </trkpt>
      <trkpt lat="48.68794" lon="1.93757">
        <ele>170.77</ele>
        <time>2011-10-22T13:02:18Z</time>
      </trkpt>
      <trkpt lat="48.68795" lon="1.93749">
        <ele>170.77</ele>
        <time>2011-10-22T13:02:19Z</time>
      </trkpt>
      <trkpt lat="48.68797" lon="1.93741">
        <ele>170.77</ele>
        <time>2011-10-22T13:02:20Z</time>
      </trkpt>
      <trkpt lat="48.68799" lon="1.93734">
        <ele>171.25</ele>
        <time>2011-10-22T13:02:21Z</time>
      </trkpt>
      <trkpt lat="48.68801" lon="1.93727">
        <ele>171.25</ele>
        <time>2011-10-22T13:02:22Z</time>
      </trkpt>
      <trkpt lat="48.68802" lon="1.93719">
        <ele>171.73</ele>
        <time>2011-10-22T13:02:23Z</time>
      </trkpt>
      <trkpt lat="48.68803" lon="1.93712">
        <ele>171.73</ele>
        <time>2011-10-22T13:02:24Z</time>
      </trkpt>
      <trkpt lat="48.68803" lon="1.93704">
        <ele>171.73</ele>
        <time>2011-10-22T13:02:25Z</time>
      </trkpt>
      <trkpt lat="48.68801" lon="1.93697">
        <ele>171.73</ele>
        <time>2011-10-22T13:02:26Z</time>
      </trkpt>
      <trkpt lat="48.68797" lon="1.9369">
        <ele>171.25</ele>
        <time>2011-10-22T13:02:27Z</time>
      </trkpt>
      <trkpt lat="48.68791" lon="1.93684">
        <ele>170.29</ele>
        <time>2011-10-22T13:02:28Z</time>
      </trkpt>
      <trkpt lat="48.68785" lon="1.93678">
        <ele>169.81</ele>
        <time>2011-10-22T13:02:29Z</time>
      </trkpt>
      <trkpt lat="48.6878" lon="1.9367">
        <ele>169.81</ele>
        <time>2011-10-22T13:02:30Z</time>
      </trkpt>
      <trkpt lat="48.68776" lon="1.93661">
        <ele>169.33</ele>
        <time>2011-10-22T13:02:31Z</time>
      </trkpt>
      <trkpt lat="48.68773" lon="1.93651">
        <ele>169.81</ele>
        <time>2011-10-22T13:02:32Z</time>
      </trkpt>
      <trkpt lat="48.68773" lon="1.93642">
        <ele>169.81</ele>
        <time>2011-10-22T13:02:33Z</time>
      </trkpt>
      <trkpt lat="48.68774" lon="1.93632">
        <ele>169.81</ele>
        <time>2011-10-22T13:02:34Z</time>
      </trkpt>
      <trkpt lat="48.68776" lon="1.93624">
        <ele>170.29</ele>
        <time>2011-10-22T13:02:35Z</time>
      </trkpt>
      <trkpt lat="48.68791" lon="1.93526">
        <ele>171.25</ele>
        <time>2011-10-22T13:02:47Z</time>
      </trkpt>
      <trkpt lat="48.68796" lon="1.93483">
        <ele>171.25</ele>
        <time>2011-10-22T13:02:52Z</time>
      </trkpt>
      <trkpt lat="48.68798" lon="1.93475">
        <ele>170.77</ele>
        <time>2011-10-22T13:02:53Z</time>
      </trkpt>
      <trkpt lat="48.68801" lon="1.93466">
        <ele>170.29</ele>
        <time>2011-10-22T13:02:54Z</time>
      </trkpt>
      <trkpt lat="48.68805" lon="1.93459">
        <ele>170.29</ele>
        <time>2011-10-22T13:02:55Z</time>
      </trkpt>
      <trkpt lat="48.6881" lon="1.93451">
        <ele>169.81</ele>
        <time>2011-10-22T13:02:56Z</time>
      </trkpt>
      <trkpt lat="48.68824" lon="1.93425">
        <ele>168.85</ele>
        <time>2011-10-22T13:02:59Z</time>
      </trkpt>
      <trkpt lat="48.68828" lon="1.93416">
        <ele>168.85</ele>
        <time>2011-10-22T13:03:00Z</time>
      </trkpt>
      <trkpt lat="48.68833" lon="1.93406">
        <ele>168.37</ele>
        <time>2011-10-22T13:03:01Z</time>
      </trkpt>
      <trkpt lat="48.68866" lon="1.9335">
        <ele>171.25</ele>
        <time>2011-10-22T13:03:08Z</time>
      </trkpt>
      <trkpt lat="48.68872" lon="1.93338">
        <ele>172.21</ele>
        <time>2011-10-22T13:03:10Z</time>
      </trkpt>
      <trkpt lat="48.68878" lon="1.93326">
        <ele>171.73</ele>
        <time>2011-10-22T13:03:12Z</time>
      </trkpt>
      <trkpt lat="48.68881" lon="1.93321">
        <ele>172.69</ele>
        <time>2011-10-22T13:03:13Z</time>
      </trkpt>
      <trkpt lat="48.68883" lon="1.93316">
        <ele>172.69</ele>
        <time>2011-10-22T13:03:14Z</time>
      </trkpt>
      <trkpt lat="48.68902" lon="1.93285">
        <ele>166.93</ele>
        <time>2011-10-22T13:03:22Z</time>
      </trkpt>
      <trkpt lat="48.68904" lon="1.93282">
        <ele>176.06</ele>
        <time>2011-10-22T13:03:23Z</time>
      </trkpt>
      <trkpt lat="48.68907" lon="1.93275">
        <ele>164.52</ele>
        <time>2011-10-22T13:03:25Z</time>
      </trkpt>
      <trkpt lat="48.68908" lon="1.93272">
        <ele>174.62</ele>
        <time>2011-10-22T13:03:26Z</time>
      </trkpt>
      <trkpt lat="48.68925" lon="1.93241">
        <ele>174.62</ele>
        <time>2011-10-22T13:03:38Z</time>
      </trkpt>
      <trkpt lat="48.68934" lon="1.93206">
        <ele>173.66</ele>
        <time>2011-10-22T13:03:46Z</time>
      </trkpt>
      <trkpt lat="48.68971" lon="1.93141">
        <ele>173.17</ele>
        <time>2011-10-22T13:03:57Z</time>
      </trkpt>
      <trkpt lat="48.68974" lon="1.93135">
        <ele>173.17</ele>
        <time>2011-10-22T13:03:58Z</time>
      </trkpt>
      <trkpt lat="48.68978" lon="1.93129">
        <ele>172.69</ele>
        <time>2011-10-22T13:03:59Z</time>
      </trkpt>
      <trkpt lat="48.69" lon="1.93089">
        <ele>170.77</ele>
        <time>2011-10-22T13:04:05Z</time>
      </trkpt>
      <trkpt lat="48.69005" lon="1.93081">
        <ele>170.77</ele>
        <time>2011-10-22T13:04:06Z</time>
      </trkpt>
      <trkpt lat="48.6901" lon="1.93074">
        <ele>169.81</ele>
        <time>2011-10-22T13:04:07Z</time>
      </trkpt>
      <trkpt lat="48.69015" lon="1.93066">
        <ele>169.33</ele>
        <time>2011-10-22T13:04:08Z</time>
      </trkpt>
      <trkpt lat="48.69019" lon="1.93059">
        <ele>168.85</ele>
        <time>2011-10-22T13:04:09Z</time>
      </trkpt>
      <trkpt lat="48.69029" lon="1.93038">
        <ele>165.48</ele>
        <time>2011-10-22T13:04:12Z</time>
      </trkpt>
      <trkpt lat="48.69032" lon="1.93027">
        <ele>162.12</ele>
        <time>2011-10-22T13:04:13Z</time>
      </trkpt>
      <trkpt lat="48.69037" lon="1.93015">
        <ele>159.72</ele>
        <time>2011-10-22T13:04:14Z</time>
      </trkpt>
      <trkpt lat="48.69042" lon="1.93003">
        <ele>157.31</ele>
        <time>2011-10-22T13:04:15Z</time>
      </trkpt>
      <trkpt lat="48.69058" lon="1.92971">
        <ele>157.79</ele>
        <time>2011-10-22T13:04:18Z</time>
      </trkpt>
      <trkpt lat="48.69061" lon="1.92965">
        <ele>159.72</ele>
        <time>2011-10-22T13:04:19Z</time>
      </trkpt>
      <trkpt lat="48.69062" lon="1.92961">
        <ele>161.16</ele>
        <time>2011-10-22T13:04:20Z</time>
      </trkpt>
      <trkpt lat="48.69063" lon="1.9296">
        <ele>161.64</ele>
        <time>2011-10-22T13:04:21Z</time>
      </trkpt>
      <trkpt lat="48.69066" lon="1.92952">
        <ele>162.6</ele>
        <time>2011-10-22T13:04:37Z</time>
      </trkpt>
      <trkpt lat="48.69072" lon="1.92946">
        <ele>165.48</ele>
        <time>2011-10-22T13:04:48Z</time>
      </trkpt>
      <trkpt lat="48.69077" lon="1.92942">
        <ele>167.89</ele>
        <time>2011-10-22T13:05:00Z</time>
      </trkpt>
      <trkpt lat="48.69078" lon="1.92939">
        <ele>168.85</ele>
        <time>2011-10-22T13:05:03Z</time>
      </trkpt>
      <trkpt lat="48.69082" lon="1.9293">
        <ele>170.77</ele>
        <time>2011-10-22T13:05:15Z</time>
      </trkpt>
      <trkpt lat="48.69087" lon="1.92923">
        <ele>171.25</ele>
        <time>2011-10-22T13:05:26Z</time>
      </trkpt>
      <trkpt lat="48.69091" lon="1.92917">
        <ele>172.21</ele>
        <time>2011-10-22T13:05:33Z</time>
      </trkpt>
      <trkpt lat="48.69104" lon="1.929">
        <ele>172.69</ele>
        <time>2011-10-22T13:05:42Z</time>
      </trkpt>
      <trkpt lat="48.69124" lon="1.92862">
        <ele>170.77</ele>
        <time>2011-10-22T13:05:53Z</time>
      </trkpt>
      <trkpt lat="48.69135" lon="1.92843">
        <ele>166.93</ele>
        <time>2011-10-22T13:05:57Z</time>
      </trkpt>
      <trkpt lat="48.69143" lon="1.92834">
        <ele>162.6</ele>
        <time>2011-10-22T13:05:59Z</time>
      </trkpt>
      <trkpt lat="48.69157" lon="1.92812">
        <ele>160.68</ele>
        <time>2011-10-22T13:06:02Z</time>
      </trkpt>
      <trkpt lat="48.69161" lon="1.92805">
        <ele>160.68</ele>
        <time>2011-10-22T13:06:03Z</time>
      </trkpt>
      <trkpt lat="48.69167" lon="1.92787">
        <ele>162.6</ele>
        <time>2011-10-22T13:06:05Z</time>
      </trkpt>
      <trkpt lat="48.6917" lon="1.92775">
        <ele>163.56</ele>
        <time>2011-10-22T13:06:06Z</time>
      </trkpt>
      <trkpt lat="48.69161" lon="1.92736">
        <ele>166.93</ele>
        <time>2011-10-22T13:06:11Z</time>
      </trkpt>
      <trkpt lat="48.69149" lon="1.92695">
        <ele>160.2</ele>
        <time>2011-10-22T13:06:21Z</time>
      </trkpt>
      <trkpt lat="48.69148" lon="1.92693">
        <ele>170.29</ele>
        <time>2011-10-22T13:06:22Z</time>
      </trkpt>
      <trkpt lat="48.69147" lon="1.92689">
        <ele>169.81</ele>
        <time>2011-10-22T13:06:24Z</time>
      </trkpt>
      <trkpt lat="48.69145" lon="1.92687">
        <ele>169.81</ele>
        <time>2011-10-22T13:06:26Z</time>
      </trkpt>
      <trkpt lat="48.69144" lon="1.92685">
        <ele>169.81</ele>
        <time>2011-10-22T13:06:27Z</time>
      </trkpt>
      <trkpt lat="48.69113" lon="1.9266">
        <ele>168.85</ele>
        <time>2011-10-22T13:06:38Z</time>
      </trkpt>
      <trkpt lat="48.69109" lon="1.92657">
        <ele>168.85</ele>
        <time>2011-10-22T13:06:39Z</time>
      </trkpt>
      <trkpt lat="48.69073" lon="1.92631">
        <ele>170.77</ele>
        <time>2011-10-22T13:06:49Z</time>
      </trkpt>
      <trkpt lat="48.69041" lon="1.92601">
        <ele>171.73</ele>
        <time>2011-10-22T13:07:00Z</time>
      </trkpt>
      <trkpt lat="48.69047" lon="1.9255">
        <ele>169.81</ele>
        <time>2011-10-22T13:07:09Z</time>
      </trkpt>
      <trkpt lat="48.69055" lon="1.92531">
        <ele>169.33</ele>
        <time>2011-10-22T13:07:12Z</time>
      </trkpt>
      <trkpt lat="48.69066" lon="1.92505">
        <ele>168.85</ele>
        <time>2011-10-22T13:07:16Z</time>
      </trkpt>
      <trkpt lat="48.69068" lon="1.92498">
        <ele>169.33</ele>
        <time>2011-10-22T13:07:17Z</time>
      </trkpt>
      <trkpt lat="48.69088" lon="1.92424">
        <ele>166.93</ele>
        <time>2011-10-22T13:07:28Z</time>
      </trkpt>
      <trkpt lat="48.69108" lon="1.92367">
        <ele>167.41</ele>
        <time>2011-10-22T13:07:36Z</time>
      </trkpt>
      <trkpt lat="48.69113" lon="1.92345">
        <ele>163.56</ele>
        <time>2011-10-22T13:07:43Z</time>
      </trkpt>
      <trkpt lat="48.69115" lon="1.92341">
        <ele>161.64</ele>
        <time>2011-10-22T13:07:44Z</time>
      </trkpt>
      <trkpt lat="48.69116" lon="1.9232">
        <ele>158.75</ele>
        <time>2011-10-22T13:07:46Z</time>
      </trkpt>
      <trkpt lat="48.69109" lon="1.92275">
        <ele>158.75</ele>
        <time>2011-10-22T13:07:51Z</time>
      </trkpt>
      <trkpt lat="48.69115" lon="1.92241">
        <ele>161.64</ele>
        <time>2011-10-22T13:07:57Z</time>
      </trkpt>
      <trkpt lat="48.69116" lon="1.92235">
        <ele>162.6</ele>
        <time>2011-10-22T13:07:59Z</time>
      </trkpt>
      <trkpt lat="48.69115" lon="1.92229">
        <ele>163.56</ele>
        <time>2011-10-22T13:08:01Z</time>
      </trkpt>
      <trkpt lat="48.6912" lon="1.92209">
        <ele>167.89</ele>
        <time>2011-10-22T13:08:10Z</time>
      </trkpt>
      <trkpt lat="48.69125" lon="1.92176">
        <ele>170.29</ele>
        <time>2011-10-22T13:08:23Z</time>
      </trkpt>
      <trkpt lat="48.69128" lon="1.92138">
        <ele>170.77</ele>
        <time>2011-10-22T13:08:34Z</time>
      </trkpt>
      <trkpt lat="48.6914" lon="1.92095">
        <ele>171.25</ele>
        <time>2011-10-22T13:08:46Z</time>
      </trkpt>
      <trkpt lat="48.69168" lon="1.92044">
        <ele>170.77</ele>
        <time>2011-10-22T13:08:59Z</time>
      </trkpt>
      <trkpt lat="48.69204" lon="1.92044">
        <ele>169.81</ele>
        <time>2011-10-22T13:09:09Z</time>
      </trkpt>
      <trkpt lat="48.69239" lon="1.92051">
        <ele>166.93</ele>
        <time>2011-10-22T13:09:16Z</time>
      </trkpt>
      <trkpt lat="48.69245" lon="1.92049">
        <ele>166.45</ele>
        <time>2011-10-22T13:09:17Z</time>
      </trkpt>
      <trkpt lat="48.69251" lon="1.92045">
        <ele>165.48</ele>
        <time>2011-10-22T13:09:18Z</time>
      </trkpt>
      <trkpt lat="48.69257" lon="1.9204">
        <ele>165</ele>
        <time>2011-10-22T13:09:19Z</time>
      </trkpt>
      <trkpt lat="48.69262" lon="1.92033">
        <ele>165.48</ele>
        <time>2011-10-22T13:09:20Z</time>
      </trkpt>
      <trkpt lat="48.69266" lon="1.92027">
        <ele>166.45</ele>
        <time>2011-10-22T13:09:21Z</time>
      </trkpt>
      <trkpt lat="48.6927" lon="1.92023">
        <ele>166.93</ele>
        <time>2011-10-22T13:09:22Z</time>
      </trkpt>
      <trkpt lat="48.69273" lon="1.92019">
        <ele>168.37</ele>
        <time>2011-10-22T13:09:23Z</time>
      </trkpt>
      <trkpt lat="48.6929" lon="1.91979">
        <ele>169.81</ele>
        <time>2011-10-22T13:09:32Z</time>
      </trkpt>
      <trkpt lat="48.69293" lon="1.91967">
        <ele>169.33</ele>
        <time>2011-10-22T13:09:34Z</time>
      </trkpt>
      <trkpt lat="48.69294" lon="1.9196">
        <ele>169.33</ele>
        <time>2011-10-22T13:09:35Z</time>
      </trkpt>
      <trkpt lat="48.69307" lon="1.91894">
        <ele>171.25</ele>
        <time>2011-10-22T13:09:46Z</time>
      </trkpt>
      <trkpt lat="48.69315" lon="1.91837">
        <ele>172.21</ele>
        <time>2011-10-22T13:09:55Z</time>
      </trkpt>
      <trkpt lat="48.69317" lon="1.91831">
        <ele>172.21</ele>
        <time>2011-10-22T13:09:56Z</time>
      </trkpt>
      <trkpt lat="48.6932" lon="1.91818">
        <ele>172.21</ele>
        <time>2011-10-22T13:09:58Z</time>
      </trkpt>
      <trkpt lat="48.6933" lon="1.91786">
        <ele>172.21</ele>
        <time>2011-10-22T13:10:03Z</time>
      </trkpt>
      <trkpt lat="48.69332" lon="1.9178">
        <ele>172.69</ele>
        <time>2011-10-22T13:10:04Z</time>
      </trkpt>
      <trkpt lat="48.69333" lon="1.91775">
        <ele>172.69</ele>
        <time>2011-10-22T13:10:05Z</time>
      </trkpt>
      <trkpt lat="48.69333" lon="1.91757">
        <ele>171.25</ele>
        <time>2011-10-22T13:10:08Z</time>
      </trkpt>
      <trkpt lat="48.69333" lon="1.9175">
        <ele>170.29</ele>
        <time>2011-10-22T13:10:09Z</time>
      </trkpt>
      <trkpt lat="48.69337" lon="1.91736">
        <ele>168.85</ele>
        <time>2011-10-22T13:10:11Z</time>
      </trkpt>
      <trkpt lat="48.69339" lon="1.91729">
        <ele>167.89</ele>
        <time>2011-10-22T13:10:12Z</time>
      </trkpt>
      <trkpt lat="48.69342" lon="1.91722">
        <ele>167.41</ele>
        <time>2011-10-22T13:10:13Z</time>
      </trkpt>
      <trkpt lat="48.69349" lon="1.91704">
        <ele>165.96</ele>
        <time>2011-10-22T13:10:16Z</time>
      </trkpt>
      <trkpt lat="48.69352" lon="1.91699">
        <ele>165</ele>
        <time>2011-10-22T13:10:17Z</time>
      </trkpt>
      <trkpt lat="48.69353" lon="1.91694">
        <ele>164.04</ele>
        <time>2011-10-22T13:10:18Z</time>
      </trkpt>
      <trkpt lat="48.69354" lon="1.9169">
        <ele>164.04</ele>
        <time>2011-10-22T13:10:19Z</time>
      </trkpt>
      <trkpt lat="48.69352" lon="1.91683">
        <ele>158.6328125</ele>
      </trkpt>
      <trkpt lat="48.69356" lon="1.91654">
        <ele>154.9101563</ele>
      </trkpt>
      <trkpt lat="48.6936" lon="1.91625">
        <ele>151.265625</ele>
      </trkpt>
      <trkpt lat="48.6936" lon="1.916">
        <ele>146.8789063</ele>
      </trkpt>
      <trkpt lat="48.69358" lon="1.91571">
        <ele>141.2578125</ele>
      </trkpt>
      <trkpt lat="48.69357" lon="1.91555">
        <ele>137.6015625</ele>
      </trkpt>
      <trkpt lat="48.69367" lon="1.91526">
        <ele>134.6210938</ele>
      </trkpt>
      <trkpt lat="48.6937" lon="1.9151">
        <ele>132.6367188</ele>
      </trkpt>
      <trkpt lat="48.69373" lon="1.91508">
        <ele>132.671875</ele>
      </trkpt>
      <trkpt lat="48.69386" lon="1.91488">
        <ele>131.28125</ele>
      </trkpt>
      <trkpt lat="48.69419" lon="1.91485">
        <ele>134.015625</ele>
      </trkpt>
      <trkpt lat="48.69448" lon="1.91478">
        <ele>136.3046875</ele>
      </trkpt>
      <trkpt lat="48.69469" lon="1.91466">
        <ele>136.6601563</ele>
      </trkpt>
      <trkpt lat="48.69471" lon="1.91466">
        <ele>136.7226563</ele>
      </trkpt>
      <trkpt lat="48.69483" lon="1.91464">
        <ele>137.1953125</ele>
      </trkpt>
      <trkpt lat="48.69488" lon="1.9144">
        <ele>134.3007813</ele>
      </trkpt>
      <trkpt lat="48.69489" lon="1.91417">
        <ele>131.078125</ele>
      </trkpt>
      <trkpt lat="48.69494" lon="1.914">
        <ele>129.71875</ele>
      </trkpt>
      <trkpt lat="48.69506" lon="1.91384">
        <ele>129.15625</ele>
      </trkpt>
      <trkpt lat="48.6952" lon="1.91382">
        <ele>130.546875</ele>
      </trkpt>
      <trkpt lat="48.69548" lon="1.9136">
        <ele>131.0351563</ele>
      </trkpt>
      <trkpt lat="48.69554" lon="1.91356">
        <ele>130.7734375</ele>
      </trkpt>
      <trkpt lat="48.69578" lon="1.91358">
        <ele>131.9804688</ele>
      </trkpt>
      <trkpt lat="48.69596" lon="1.91375">
        <ele>135.7421875</ele>
      </trkpt>
      <trkpt lat="48.69621" lon="1.91393">
        <ele>140.1835938</ele>
      </trkpt>
      <trkpt lat="48.69662" lon="1.91396">
        <ele>137.8125</ele>
      </trkpt>
      <trkpt lat="48.69691" lon="1.91394">
        <ele>136.3007813</ele>
      </trkpt>
      <trkpt lat="48.69711" lon="1.91395">
        <ele>136.1367188</ele>
      </trkpt>
      <trkpt lat="48.69738" lon="1.91402">
        <ele>136.7148438</ele>
      </trkpt>
      <trkpt lat="48.69743" lon="1.91406">
        <ele>137.4453125</ele>
      </trkpt>
      <trkpt lat="48.69762" lon="1.91408">
        <ele>136.8007813</ele>
      </trkpt>
      <trkpt lat="48.69812" lon="1.91429">
        <ele>134.7890625</ele>
      </trkpt>
      <trkpt lat="48.69822" lon="1.91436">
        <ele>134.4609375</ele>
      </trkpt>
      <trkpt lat="48.69828" lon="1.9144">
        <ele>134.3203125</ele>
      </trkpt>
      <trkpt lat="48.69829" lon="1.91441">
        <ele>134.2539063</ele>
      </trkpt>
      <trkpt lat="48.69847" lon="1.91442">
        <ele>133.328125</ele>
      </trkpt>
      <trkpt lat="48.69858" lon="1.91429">
        <ele>132.296875</ele>
      </trkpt>
      <trkpt lat="48.69865" lon="1.91408">
        <ele>130.7929688</ele>
      </trkpt>
      <trkpt lat="48.69872" lon="1.91368">
        <ele>129.5664063</ele>
      </trkpt>
      <trkpt lat="48.69872" lon="1.91327">
        <ele>127.9648438</ele>
      </trkpt>
      <trkpt lat="48.69874" lon="1.91279">
        <ele>128.7070313</ele>
      </trkpt>
      <trkpt lat="48.69881" lon="1.91241">
        <ele>129.9375</ele>
      </trkpt>
      <trkpt lat="48.69892" lon="1.91225">
        <ele>129.5625</ele>
      </trkpt>
      <trkpt lat="48.69894" lon="1.91225">
        <ele>129.6132813</ele>
      </trkpt>
      <trkpt lat="48.69913" lon="1.91223">
        <ele>132.3242188</ele>
      </trkpt>
      <trkpt lat="48.69928" lon="1.91205">
        <ele>133.1484375</ele>
      </trkpt>
      <trkpt lat="48.69932" lon="1.91169">
        <ele>131.6289063</ele>
      </trkpt>
      <trkpt lat="48.69928" lon="1.91142">
        <ele>130.9296875</ele>
      </trkpt>
      <trkpt lat="48.69928" lon="1.9111">
        <ele>131.5820313</ele>
      </trkpt>
      <trkpt lat="48.69936" lon="1.91027">
        <ele>133.125</ele>
      </trkpt>
      <trkpt lat="48.69943" lon="1.90978">
        <ele>133.5</ele>
      </trkpt>
      <trkpt lat="48.69948" lon="1.90955">
        <ele>133.9140625</ele>
      </trkpt>
      <trkpt lat="48.69952" lon="1.90931">
        <ele>134.421875</ele>
      </trkpt>
      <trkpt lat="48.69952" lon="1.90935">
        <ele>134.6210938</ele>
      </trkpt>
      <trkpt lat="48.6996" lon="1.90947">
        <ele>136.3867188</ele>
      </trkpt>
      <trkpt lat="48.6996" lon="1.90947">
        <ele>136.3867188</ele>
      </trkpt>
      <trkpt lat="48.69971" lon="1.90963">
        <ele>138.7148438</ele>
      </trkpt>
      <trkpt lat="48.69971" lon="1.90969">
        <ele>138.8046875</ele>
      </trkpt>
      <trkpt lat="48.69971" lon="1.90996">
        <ele>140.3203125</ele>
      </trkpt>
      <trkpt lat="48.69979" lon="1.91032">
        <ele>143.9921875</ele>
      </trkpt>
      <trkpt lat="48.69984" lon="1.91067">
        <ele>146.1484375</ele>
      </trkpt>
      <trkpt lat="48.69991" lon="1.91106">
        <ele>147.9804688</ele>
      </trkpt>
      <trkpt lat="48.69995" lon="1.91128">
        <ele>147.9960938</ele>
      </trkpt>
      <trkpt lat="48.70005" lon="1.91153">
        <ele>150.4492188</ele>
      </trkpt>
      <trkpt lat="48.70006" lon="1.91156">
        <ele>150.6289063</ele>
      </trkpt>
      <trkpt lat="48.70015" lon="1.91178">
        <ele>151.9179688</ele>
      </trkpt>
      <trkpt lat="48.70044" lon="1.91196">
        <ele>159.4570313</ele>
      </trkpt>
      <trkpt lat="48.70065" lon="1.91203">
        <ele>164.8515625</ele>
      </trkpt>
      <trkpt lat="48.70075" lon="1.91227">
        <ele>168.6328125</ele>
      </trkpt>
      <trkpt lat="48.70075" lon="1.91232">
        <ele>169.0195313</ele>
      </trkpt>
      <trkpt lat="48.70075" lon="1.91251">
        <ele>170.6367188</ele>
      </trkpt>
      <trkpt lat="48.70076" lon="1.91257">
        <ele>171.1171875</ele>
      </trkpt>
      <trkpt lat="48.70076" lon="1.91276">
        <ele>172.2617188</ele>
      </trkpt>
      <trkpt lat="48.70076" lon="1.9128">
        <ele>172.4179688</ele>
      </trkpt>
      <trkpt lat="48.70072" lon="1.91299">
        <ele>172.765625</ele>
      </trkpt>
      <trkpt lat="48.70093" lon="1.91299">
        <ele>174.1328125</ele>
      </trkpt>
      <trkpt lat="48.70102" lon="1.91301">
        <ele>174.5351563</ele>
      </trkpt>
      <trkpt lat="48.70106" lon="1.91332">
        <ele>175.6875</ele>
      </trkpt>
      <trkpt lat="48.70127" lon="1.91363">
        <ele>176</ele>
      </trkpt>
      <trkpt lat="48.70145" lon="1.91385">
        <ele>176</ele>
      </trkpt>
      <trkpt lat="48.70266" lon="1.91466">
        <ele>175</ele>
      </trkpt>
      <trkpt lat="48.70267" lon="1.91471">
        <ele>175</ele>
      </trkpt>
      <trkpt lat="48.70348" lon="1.91517">
        <ele>176</ele>
      </trkpt>
      <trkpt lat="48.70421" lon="1.91567">
        <ele>175</ele>
      </trkpt>
      <trkpt lat="48.7046" lon="1.9159">
        <ele>174.546875</ele>
      </trkpt>
      <trkpt lat="48.70428" lon="1.91658">
        <ele>174</ele>
      </trkpt>
      <trkpt lat="48.70395" lon="1.91722">
        <ele>175</ele>
      </trkpt>
      <trkpt lat="48.70377" lon="1.91769">
        <ele>175</ele>
      </trkpt>
      <trkpt lat="48.70356" lon="1.91816">
        <ele>175</ele>
      </trkpt>
      <trkpt lat="48.70358" lon="1.91818">
        <ele>175</ele>
      </trkpt>
      <trkpt lat="48.70332" lon="1.91871">
        <ele>175</ele>
      </trkpt>
      <trkpt lat="48.70338" lon="1.91907">
        <ele>177.02</ele>
        <time>2011-10-22T13:26:16Z</time>
      </trkpt>
      <trkpt lat="48.70344" lon="1.9191">
        <ele>177.98</ele>
        <time>2011-10-22T13:26:17Z</time>
      </trkpt>
      <trkpt lat="48.70349" lon="1.91914">
        <ele>177.5</ele>
        <time>2011-10-22T13:26:18Z</time>
      </trkpt>
      <trkpt lat="48.70409" lon="1.91957">
        <ele>177.5</ele>
        <time>2011-10-22T13:26:30Z</time>
      </trkpt>
      <trkpt lat="48.70429" lon="1.91969">
        <ele>177.5</ele>
        <time>2011-10-22T13:26:34Z</time>
      </trkpt>
      <trkpt lat="48.70463" lon="1.91995">
        <ele>177.02</ele>
        <time>2011-10-22T13:26:44Z</time>
      </trkpt>
      <trkpt lat="48.70481" lon="1.92007">
        <ele>177.02</ele>
        <time>2011-10-22T13:26:48Z</time>
      </trkpt>
      <trkpt lat="48.70532" lon="1.92038">
        <ele>176.06</ele>
        <time>2011-10-22T13:26:59Z</time>
      </trkpt>
      <trkpt lat="48.70538" lon="1.92041">
        <ele>176.06</ele>
        <time>2011-10-22T13:27:00Z</time>
      </trkpt>
      <trkpt lat="48.70545" lon="1.92045">
        <ele>175.58</ele>
        <time>2011-10-22T13:27:01Z</time>
      </trkpt>
      <trkpt lat="48.70565" lon="1.92057">
        <ele>175.1</ele>
        <time>2011-10-22T13:27:05Z</time>
      </trkpt>
      <trkpt lat="48.70569" lon="1.92056">
        <ele>175.1</ele>
        <time>2011-10-22T13:27:06Z</time>
      </trkpt>
      <trkpt lat="48.70573" lon="1.92054">
        <ele>174.62</ele>
        <time>2011-10-22T13:27:07Z</time>
      </trkpt>
      <trkpt lat="48.70585" lon="1.92048">
        <ele>174.14</ele>
        <time>2011-10-22T13:27:09Z</time>
      </trkpt>
      <trkpt lat="48.7059" lon="1.92045">
        <ele>174.14</ele>
        <time>2011-10-22T13:27:10Z</time>
      </trkpt>
      <trkpt lat="48.70594" lon="1.92042">
        <ele>173.66</ele>
        <time>2011-10-22T13:27:11Z</time>
      </trkpt>
      <trkpt lat="48.70598" lon="1.92041">
        <ele>173.66</ele>
        <time>2011-10-22T13:27:12Z</time>
      </trkpt>
      <trkpt lat="48.70613" lon="1.92038">
        <ele>174.14</ele>
        <time>2011-10-22T13:27:19Z</time>
      </trkpt>
      <trkpt lat="48.70625" lon="1.92044">
        <ele>173.17</ele>
        <time>2011-10-22T13:27:28Z</time>
      </trkpt>
      <trkpt lat="48.70632" lon="1.92046">
        <ele>173.66</ele>
        <time>2011-10-22T13:27:38Z</time>
      </trkpt>
      <trkpt lat="48.70635" lon="1.92046">
        <ele>173.66</ele>
        <time>2011-10-22T13:27:39Z</time>
      </trkpt>
      <trkpt lat="48.70638" lon="1.92047">
        <ele>173.66</ele>
        <time>2011-10-22T13:27:40Z</time>
      </trkpt>
      <trkpt lat="48.70641" lon="1.92047">
        <ele>173.66</ele>
        <time>2011-10-22T13:27:41Z</time>
      </trkpt>
      <trkpt lat="48.70644" lon="1.92047">
        <ele>173.66</ele>
        <time>2011-10-22T13:27:42Z</time>
      </trkpt>
      <trkpt lat="48.70646" lon="1.92047">
        <ele>173.66</ele>
        <time>2011-10-22T13:27:43Z</time>
      </trkpt>
      <trkpt lat="48.7066" lon="1.92054">
        <ele>173.66</ele>
        <time>2011-10-22T13:27:54Z</time>
      </trkpt>
      <trkpt lat="48.70662" lon="1.92057">
        <ele>173.66</ele>
        <time>2011-10-22T13:27:57Z</time>
      </trkpt>
      <trkpt lat="48.70662" lon="1.92059">
        <ele>173.17</ele>
        <time>2011-10-22T13:28:05Z</time>
      </trkpt>
      <trkpt lat="48.70662" lon="1.92061">
        <ele>173.66</ele>
        <time>2011-10-22T13:28:06Z</time>
      </trkpt>
      <trkpt lat="48.70662" lon="1.92071">
        <ele>172.69</ele>
        <time>2011-10-22T13:28:09Z</time>
      </trkpt>
      <trkpt lat="48.70661" lon="1.92075">
        <ele>172.69</ele>
        <time>2011-10-22T13:28:10Z</time>
      </trkpt>
      <trkpt lat="48.70664" lon="1.92143">
        <ele>173.66</ele>
        <time>2011-10-22T13:28:21Z</time>
      </trkpt>
      <trkpt lat="48.70665" lon="1.9215">
        <ele>174.14</ele>
        <time>2011-10-22T13:28:22Z</time>
      </trkpt>
      <trkpt lat="48.70702" lon="1.92271">
        <ele>173.17</ele>
        <time>2011-10-22T13:28:40Z</time>
      </trkpt>
      <trkpt lat="48.70723" lon="1.92342">
        <ele>173.66</ele>
        <time>2011-10-22T13:28:51Z</time>
      </trkpt>
      <trkpt lat="48.70725" lon="1.92348">
        <ele>173.66</ele>
        <time>2011-10-22T13:28:52Z</time>
      </trkpt>
      <trkpt lat="48.70727" lon="1.92355">
        <ele>173.17</ele>
        <time>2011-10-22T13:28:53Z</time>
      </trkpt>
      <trkpt lat="48.7074" lon="1.92392">
        <ele>173.66</ele>
        <time>2011-10-22T13:28:59Z</time>
      </trkpt>
      <trkpt lat="48.70743" lon="1.92396">
        <ele>173.66</ele>
        <time>2011-10-22T13:29:00Z</time>
      </trkpt>
      <trkpt lat="48.70746" lon="1.92396">
        <ele>173.17</ele>
        <time>2011-10-22T13:29:01Z</time>
      </trkpt>
      <trkpt lat="48.70749" lon="1.92392">
        <ele>173.17</ele>
        <time>2011-10-22T13:29:02Z</time>
      </trkpt>
      <trkpt lat="48.70752" lon="1.92388">
        <ele>173.17</ele>
        <time>2011-10-22T13:29:03Z</time>
      </trkpt>
      <trkpt lat="48.70754" lon="1.92381">
        <ele>173.17</ele>
        <time>2011-10-22T13:29:04Z</time>
      </trkpt>
      <trkpt lat="48.70755" lon="1.92375">
        <ele>173.17</ele>
        <time>2011-10-22T13:29:05Z</time>
      </trkpt>
      <trkpt lat="48.70757" lon="1.92369">
        <ele>172.69</ele>
        <time>2011-10-22T13:29:06Z</time>
      </trkpt>
      <trkpt lat="48.70761" lon="1.9235">
        <ele>173.17</ele>
        <time>2011-10-22T13:29:09Z</time>
      </trkpt>
      <trkpt lat="48.7077" lon="1.92324">
        <ele>171.73</ele>
        <time>2011-10-22T13:29:13Z</time>
      </trkpt>
      <trkpt lat="48.70773" lon="1.92319">
        <ele>171.25</ele>
        <time>2011-10-22T13:29:14Z</time>
      </trkpt>
      <trkpt lat="48.70776" lon="1.92315">
        <ele>170.77</ele>
        <time>2011-10-22T13:29:15Z</time>
      </trkpt>
      <trkpt lat="48.7078" lon="1.92314">
        <ele>170.77</ele>
        <time>2011-10-22T13:29:16Z</time>
      </trkpt>
      <trkpt lat="48.70785" lon="1.92314">
        <ele>170.29</ele>
        <time>2011-10-22T13:29:17Z</time>
      </trkpt>
      <trkpt lat="48.70789" lon="1.92317">
        <ele>169.81</ele>
        <time>2011-10-22T13:29:18Z</time>
      </trkpt>
      <trkpt lat="48.70794" lon="1.9232">
        <ele>169.81</ele>
        <time>2011-10-22T13:29:19Z</time>
      </trkpt>
      <trkpt lat="48.70798" lon="1.92324">
        <ele>169.81</ele>
        <time>2011-10-22T13:29:20Z</time>
      </trkpt>
      <trkpt lat="48.70803" lon="1.92328">
        <ele>169.33</ele>
        <time>2011-10-22T13:29:21Z</time>
      </trkpt>
      <trkpt lat="48.70808" lon="1.92331">
        <ele>170.29</ele>
        <time>2011-10-22T13:29:22Z</time>
      </trkpt>
      <trkpt lat="48.70813" lon="1.92333">
        <ele>169.81</ele>
        <time>2011-10-22T13:29:23Z</time>
      </trkpt>
      <trkpt lat="48.70837" lon="1.92342">
        <ele>170.77</ele>
        <time>2011-10-22T13:29:28Z</time>
      </trkpt>
      <trkpt lat="48.70841" lon="1.92344">
        <ele>170.77</ele>
        <time>2011-10-22T13:29:29Z</time>
      </trkpt>
      <trkpt lat="48.70844" lon="1.92344">
        <ele>170.77</ele>
        <time>2011-10-22T13:29:30Z</time>
      </trkpt>
      <trkpt lat="48.70848" lon="1.92345">
        <ele>171.25</ele>
        <time>2011-10-22T13:29:31Z</time>
      </trkpt>
      <trkpt lat="48.7085" lon="1.92346">
        <ele>170.77</ele>
        <time>2011-10-22T13:29:32Z</time>
      </trkpt>
      <trkpt lat="48.70866" lon="1.92355">
        <ele>171.73</ele>
        <time>2011-10-22T13:29:38Z</time>
      </trkpt>
      <trkpt lat="48.70868" lon="1.92358">
        <ele>171.73</ele>
        <time>2011-10-22T13:29:39Z</time>
      </trkpt>
      <trkpt lat="48.70884" lon="1.92408">
        <ele>172.21</ele>
        <time>2011-10-22T13:29:49Z</time>
      </trkpt>
      <trkpt lat="48.70885" lon="1.92414">
        <ele>172.21</ele>
        <time>2011-10-22T13:29:50Z</time>
      </trkpt>
      <trkpt lat="48.70886" lon="1.92421">
        <ele>171.73</ele>
        <time>2011-10-22T13:29:51Z</time>
      </trkpt>
      <trkpt lat="48.70887" lon="1.92428">
        <ele>171.73</ele>
        <time>2011-10-22T13:29:52Z</time>
      </trkpt>
      <trkpt lat="48.7089" lon="1.92442">
        <ele>171.73</ele>
        <time>2011-10-22T13:29:54Z</time>
      </trkpt>
      <trkpt lat="48.70891" lon="1.9245">
        <ele>171.25</ele>
        <time>2011-10-22T13:29:55Z</time>
      </trkpt>
      <trkpt lat="48.70893" lon="1.92474">
        <ele>170.77</ele>
        <time>2011-10-22T13:29:58Z</time>
      </trkpt>
      <trkpt lat="48.70893" lon="1.92482">
        <ele>170.29</ele>
        <time>2011-10-22T13:29:59Z</time>
      </trkpt>
      <trkpt lat="48.70894" lon="1.92489">
        <ele>170.29</ele>
        <time>2011-10-22T13:30:00Z</time>
      </trkpt>
      <trkpt lat="48.70895" lon="1.92497">
        <ele>169.81</ele>
        <time>2011-10-22T13:30:01Z</time>
      </trkpt>
      <trkpt lat="48.70896" lon="1.92505">
        <ele>170.29</ele>
        <time>2011-10-22T13:30:02Z</time>
      </trkpt>
      <trkpt lat="48.70898" lon="1.92528">
        <ele>170.29</ele>
        <time>2011-10-22T13:30:05Z</time>
      </trkpt>
      <trkpt lat="48.709" lon="1.92535">
        <ele>170.77</ele>
        <time>2011-10-22T13:30:06Z</time>
      </trkpt>
      <trkpt lat="48.70902" lon="1.92541">
        <ele>170.29</ele>
        <time>2011-10-22T13:30:07Z</time>
      </trkpt>
      <trkpt lat="48.70906" lon="1.9256">
        <ele>170.77</ele>
        <time>2011-10-22T13:30:10Z</time>
      </trkpt>
      <trkpt lat="48.70908" lon="1.92567">
        <ele>171.25</ele>
        <time>2011-10-22T13:30:11Z</time>
      </trkpt>
      <trkpt lat="48.7091" lon="1.92574">
        <ele>170.77</ele>
        <time>2011-10-22T13:30:12Z</time>
      </trkpt>
      <trkpt lat="48.70917" lon="1.92594">
        <ele>170.77</ele>
        <time>2011-10-22T13:30:15Z</time>
      </trkpt>
      <trkpt lat="48.7092" lon="1.926">
        <ele>170.29</ele>
        <time>2011-10-22T13:30:16Z</time>
      </trkpt>
      <trkpt lat="48.70923" lon="1.92606">
        <ele>170.29</ele>
        <time>2011-10-22T13:30:17Z</time>
      </trkpt>
      <trkpt lat="48.70926" lon="1.92612">
        <ele>170.29</ele>
        <time>2011-10-22T13:30:18Z</time>
      </trkpt>
      <trkpt lat="48.70929" lon="1.92617">
        <ele>170.77</ele>
        <time>2011-10-22T13:30:19Z</time>
      </trkpt>
      <trkpt lat="48.70932" lon="1.92622">
        <ele>169.81</ele>
        <time>2011-10-22T13:30:20Z</time>
      </trkpt>
      <trkpt lat="48.70936" lon="1.92626">
        <ele>170.29</ele>
        <time>2011-10-22T13:30:21Z</time>
      </trkpt>
      <trkpt lat="48.70955" lon="1.92641">
        <ele>170.29</ele>
        <time>2011-10-22T13:30:25Z</time>
      </trkpt>
      <trkpt lat="48.7096" lon="1.92643">
        <ele>170.77</ele>
        <time>2011-10-22T13:30:26Z</time>
      </trkpt>
      <trkpt lat="48.70963" lon="1.92645">
        <ele>170.77</ele>
        <time>2011-10-22T13:30:27Z</time>
      </trkpt>
      <trkpt lat="48.71003" lon="1.92651">
        <ele>171.73</ele>
        <time>2011-10-22T13:30:38Z</time>
      </trkpt>
      <trkpt lat="48.71005" lon="1.92649">
        <ele>172.21</ele>
        <time>2011-10-22T13:30:39Z</time>
      </trkpt>
      <trkpt lat="48.71008" lon="1.92647">
        <ele>171.73</ele>
        <time>2011-10-22T13:30:40Z</time>
      </trkpt>
      <trkpt lat="48.71015" lon="1.9264">
        <ele>171.73</ele>
        <time>2011-10-22T13:30:43Z</time>
      </trkpt>
      <trkpt lat="48.71018" lon="1.92639">
        <ele>171.73</ele>
        <time>2011-10-22T13:30:44Z</time>
      </trkpt>
      <trkpt lat="48.71045" lon="1.92641">
        <ele>172.21</ele>
        <time>2011-10-22T13:30:54Z</time>
      </trkpt>
      <trkpt lat="48.71083" lon="1.92636">
        <ele>172.21</ele>
        <time>2011-10-22T13:31:06Z</time>
      </trkpt>
      <trkpt lat="48.71144" lon="1.92622">
        <ele>171.25</ele>
        <time>2011-10-22T13:31:21Z</time>
      </trkpt>
      <trkpt lat="48.71212" lon="1.92602">
        <ele>170.77</ele>
        <time>2011-10-22T13:31:37Z</time>
      </trkpt>
      <trkpt lat="48.71264" lon="1.92583">
        <ele>171.25</ele>
        <time>2011-10-22T13:31:51Z</time>
      </trkpt>
      <trkpt lat="48.71292" lon="1.9257">
        <ele>171.73</ele>
        <time>2011-10-22T13:32:04Z</time>
      </trkpt>
      <trkpt lat="48.71293" lon="1.92569">
        <ele>171.25</ele>
        <time>2011-10-22T13:32:06Z</time>
      </trkpt>
      <trkpt lat="48.71294" lon="1.92568">
        <ele>171.25</ele>
        <time>2011-10-22T13:32:08Z</time>
      </trkpt>
      <trkpt lat="48.71294" lon="1.92568">
        <ele>171.73</ele>
        <time>2011-10-22T13:32:09Z</time>
      </trkpt>
      <trkpt lat="48.71298" lon="1.92565">
        <ele>171.25</ele>
        <time>2011-10-22T13:32:14Z</time>
      </trkpt>
      <trkpt lat="48.71299" lon="1.92565">
        <ele>171.25</ele>
        <time>2011-10-22T13:32:15Z</time>
      </trkpt>
      <trkpt lat="48.71301" lon="1.92563">
        <ele>170.77</ele>
        <time>2011-10-22T13:32:16Z</time>
      </trkpt>
      <trkpt lat="48.71302" lon="1.92562">
        <ele>171.25</ele>
        <time>2011-10-22T13:32:17Z</time>
      </trkpt>
      <trkpt lat="48.71305" lon="1.9256">
        <ele>171.25</ele>
        <time>2011-10-22T13:32:18Z</time>
      </trkpt>
      <trkpt lat="48.71307" lon="1.92559">
        <ele>171.25</ele>
        <time>2011-10-22T13:32:19Z</time>
      </trkpt>
      <trkpt lat="48.7131" lon="1.92557">
        <ele>171.25</ele>
        <time>2011-10-22T13:32:20Z</time>
      </trkpt>
      <trkpt lat="48.71313" lon="1.92555">
        <ele>171.25</ele>
        <time>2011-10-22T13:32:21Z</time>
      </trkpt>
      <trkpt lat="48.71355" lon="1.92531">
        <ele>171.25</ele>
        <time>2011-10-22T13:32:33Z</time>
      </trkpt>
      <trkpt lat="48.71401" lon="1.92509">
        <ele>172.21</ele>
        <time>2011-10-22T13:32:47Z</time>
      </trkpt>
      <trkpt lat="48.71407" lon="1.92549">
        <ele>171.73</ele>
        <time>2011-10-22T13:32:55Z</time>
      </trkpt>
      <trkpt lat="48.71408" lon="1.92556">
        <ele>172.21</ele>
        <time>2011-10-22T13:32:56Z</time>
      </trkpt>
      <trkpt lat="48.71409" lon="1.92579">
        <ele>172.69</ele>
        <time>2011-10-22T13:32:59Z</time>
      </trkpt>
      <trkpt lat="48.7142" lon="1.92682">
        <ele>172.69</ele>
        <time>2011-10-22T13:33:14Z</time>
      </trkpt>
      <trkpt lat="48.71426" lon="1.92751">
        <ele>172.21</ele>
        <time>2011-10-22T13:33:26Z</time>
      </trkpt>
      <trkpt lat="48.71427" lon="1.92752">
        <ele>172.69</ele>
        <time>2011-10-22T13:33:39Z</time>
      </trkpt>
      <trkpt lat="48.71427" lon="1.92752">
        <ele>172.21</ele>
        <time>2011-10-22T13:34:07Z</time>
      </trkpt>
      <trkpt lat="48.71427" lon="1.92752">
        <ele>172.69</ele>
        <time>2011-10-22T13:34:30Z</time>
      </trkpt>
      <trkpt lat="48.71427" lon="1.92752">
        <ele>172.21</ele>
        <time>2011-10-22T13:35:08Z</time>
      </trkpt>
      <trkpt lat="48.71427" lon="1.92752">
        <ele>172.69</ele>
        <time>2011-10-22T13:35:43Z</time>
      </trkpt>
      <trkpt lat="48.71427" lon="1.92752">
        <ele>172.21</ele>
        <time>2011-10-22T13:36:08Z</time>
      </trkpt>
      <trkpt lat="48.71427" lon="1.92752">
        <ele>172.21</ele>
        <time>2011-10-22T13:36:35Z</time>
      </trkpt>
      <trkpt lat="48.71427" lon="1.92752">
        <ele>172.69</ele>
        <time>2011-10-22T13:37:06Z</time>
      </trkpt>
      <trkpt lat="48.71427" lon="1.92752">
        <ele>173.17</ele>
        <time>2011-10-22T13:37:37Z</time>
      </trkpt>
      <trkpt lat="48.71427" lon="1.92752">
        <ele>165.96</ele>
        <time>2011-10-22T13:37:39Z</time>
      </trkpt>
      <trkpt lat="48.71427" lon="1.92752">
        <ele>175.1</ele>
        <time>2011-10-22T13:37:41Z</time>
      </trkpt>
      <trkpt lat="48.71427" lon="1.92752">
        <ele>172.69</ele>
        <time>2011-10-22T13:37:42Z</time>
      </trkpt>
      <trkpt lat="48.71426" lon="1.92753">
        <ele>172.21</ele>
        <time>2011-10-22T13:37:53Z</time>
      </trkpt>
      <trkpt lat="48.71423" lon="1.92756">
        <ele>172.21</ele>
        <time>2011-10-22T13:37:56Z</time>
      </trkpt>
      <trkpt lat="48.71434" lon="1.92745">
        <ele>170.4882813</ele>
      </trkpt>
      <trkpt lat="48.71469" lon="1.92805">
        <ele>171</ele>
      </trkpt>
      <trkpt lat="48.71537" lon="1.92919">
        <ele>168.4882813</ele>
      </trkpt>
      <trkpt lat="48.71548" lon="1.92983">
        <ele>166.8085938</ele>
      </trkpt>
      <trkpt lat="48.71555" lon="1.93012">
        <ele>165.5976563</ele>
      </trkpt>
      <trkpt lat="48.71562" lon="1.93085">
        <ele>162.2421875</ele>
      </trkpt>
      <trkpt lat="48.71561" lon="1.93087">
        <ele>162.3242188</ele>
      </trkpt>
      <trkpt lat="48.71545" lon="1.93235">
        <ele>161.2421875</ele>
      </trkpt>
      <trkpt lat="48.71545" lon="1.93242">
        <ele>161.1171875</ele>
      </trkpt>
      <trkpt lat="48.71558" lon="1.93281">
        <ele>160.609375</ele>
      </trkpt>
      <trkpt lat="48.71598" lon="1.93368">
        <ele>158.640625</ele>
      </trkpt>
      <trkpt lat="48.71633" lon="1.93514">
        <ele>156.0546875</ele>
      </trkpt>
      <trkpt lat="48.71663" lon="1.93637">
        <ele>150.2421875</ele>
      </trkpt>
      <trkpt lat="48.71698" lon="1.93689">
        <ele>141.8710938</ele>
      </trkpt>
      <trkpt lat="48.71697" lon="1.93736">
        <ele>136.0429688</ele>
      </trkpt>
      <trkpt lat="48.71709" lon="1.93786">
        <ele>132.8671875</ele>
      </trkpt>
      <trkpt lat="48.71722" lon="1.93816">
        <ele>132.2109375</ele>
      </trkpt>
      <trkpt lat="48.71776" lon="1.93924">
        <ele>130</ele>
      </trkpt>
      <trkpt lat="48.71829" lon="1.93947">
        <ele>126.6523438</ele>
      </trkpt>
      <trkpt lat="48.71836" lon="1.93951">
        <ele>125.6367188</ele>
      </trkpt>
      <trkpt lat="48.71887" lon="1.93973">
        <ele>118.5273438</ele>
      </trkpt>
      <trkpt lat="48.71888" lon="1.93975">
        <ele>118.4257813</ele>
      </trkpt>
      <trkpt lat="48.71912" lon="1.93985">
        <ele>115.8632813</ele>
      </trkpt>
      <trkpt lat="48.71916" lon="1.93989">
        <ele>115.4765625</ele>
      </trkpt>
      <trkpt lat="48.71941" lon="1.94027">
        <ele>112.7578125</ele>
      </trkpt>
      <trkpt lat="48.71948" lon="1.94041">
        <ele>112.078125</ele>
      </trkpt>
      <trkpt lat="48.71965" lon="1.94035">
        <ele>111.3789063</ele>
      </trkpt>
      <trkpt lat="48.71985" lon="1.94029">
        <ele>110.6679688</ele>
      </trkpt>
      <trkpt lat="48.7199" lon="1.94026">
        <ele>110.5039063</ele>
      </trkpt>
      <trkpt lat="48.71992" lon="1.94021">
        <ele>110.4101563</ele>
      </trkpt>
      <trkpt lat="48.71992" lon="1.94023">
        <ele>110.4414063</ele>
      </trkpt>
      <trkpt lat="48.72016" lon="1.94018">
        <ele>110.8671875</ele>
      </trkpt>
      <trkpt lat="48.72018" lon="1.94017">
        <ele>110.9960938</ele>
      </trkpt>
      <trkpt lat="48.72026" lon="1.94014">
        <ele>111.578125</ele>
      </trkpt>
      <trkpt lat="48.72027" lon="1.94052">
        <ele>111.59375</ele>
      </trkpt>
      <trkpt lat="48.72022" lon="1.94106">
        <ele>110.7070313</ele>
      </trkpt>
      <trkpt lat="48.72016" lon="1.9416">
        <ele>111.4335938</ele>
      </trkpt>
      <trkpt lat="48.72016" lon="1.94205">
        <ele>111.3515625</ele>
      </trkpt>
      <trkpt lat="48.72023" lon="1.94248">
        <ele>111.9335938</ele>
      </trkpt>
      <trkpt lat="48.7205" lon="1.94337">
        <ele>112.3242188</ele>
      </trkpt>
      <trkpt lat="48.72061" lon="1.94372">
        <ele>112.4140625</ele>
      </trkpt>
      <trkpt lat="48.72076" lon="1.94469">
        <ele>111.5429688</ele>
      </trkpt>
      <trkpt lat="48.72077" lon="1.94504">
        <ele>111.0078125</ele>
      </trkpt>
      <trkpt lat="48.72077" lon="1.9451">
        <ele>110.8828125</ele>
      </trkpt>
      <trkpt lat="48.72084" lon="1.94559">
        <ele>109.9570313</ele>
      </trkpt>
      <trkpt lat="48.72132" lon="1.94752">
        <ele>109.2695313</ele>
      </trkpt>
      <trkpt lat="48.72141" lon="1.94811">
        <ele>108.9648438</ele>
      </trkpt>
      <trkpt lat="48.72141" lon="1.94813">
        <ele>108.96875</ele>
      </trkpt>
      <trkpt lat="48.72139" lon="1.94834">
        <ele>109</ele>
      </trkpt>
      <trkpt lat="48.72139" lon="1.94834">
        <ele>109</ele>
      </trkpt>
      <trkpt lat="48.72167" lon="1.94882">
        <ele>110.8710938</ele>
      </trkpt>
      <trkpt lat="48.7217" lon="1.94888">
        <ele>111</ele>
      </trkpt>
      <trkpt lat="48.72185" lon="1.94967">
        <ele>112.5078125</ele>
      </trkpt>
      <trkpt lat="48.72219" lon="1.95136">
        <ele>114.2382813</ele>
      </trkpt>
      <trkpt lat="48.72219" lon="1.95137">
        <ele>114.2382813</ele>
      </trkpt>
      <trkpt lat="48.72218" lon="1.95188">
        <ele>113.1445313</ele>
      </trkpt>
      <trkpt lat="48.72215" lon="1.95239">
        <ele>112.8515625</ele>
      </trkpt>
      <trkpt lat="48.72214" lon="1.95246">
        <ele>112.6640625</ele>
      </trkpt>
      <trkpt lat="48.72213" lon="1.95273">
        <ele>112.1054688</ele>
      </trkpt>
      <trkpt lat="48.72216" lon="1.95275">
        <ele>112.3007813</ele>
      </trkpt>
      <trkpt lat="48.72215" lon="1.95275">
        <ele>112.234375</ele>
      </trkpt>
      <trkpt lat="48.72241" lon="1.95401">
        <ele>112.3867188</ele>
      </trkpt>
      <trkpt lat="48.72248" lon="1.95419">
        <ele>112.3398438</ele>
      </trkpt>
      <trkpt lat="48.72313" lon="1.95459">
        <ele>112.1796875</ele>
      </trkpt>
      <trkpt lat="48.72348" lon="1.95456">
        <ele>112.3007813</ele>
      </trkpt>
      <trkpt lat="48.72393" lon="1.95579">
        <ele>110.2734375</ele>
      </trkpt>
      <trkpt lat="48.72392" lon="1.95588">
        <ele>110.8710938</ele>
      </trkpt>
      <trkpt lat="48.72397" lon="1.95619">
        <ele>112.921875</ele>
      </trkpt>
      <trkpt lat="48.72372" lon="1.95637">
        <ele>111.7695313</ele>
      </trkpt>
      <trkpt lat="48.72332" lon="1.95695">
        <ele>110.703125</ele>
      </trkpt>
      <trkpt lat="48.72319" lon="1.95731">
        <ele>111.1640625</ele>
      </trkpt>
      <trkpt lat="48.72323" lon="1.95735">
        <ele>106.36</ele>
        <time>2011-10-22T14:07:50Z</time>
      </trkpt>
      <trkpt lat="48.72327" lon="1.95735">
        <ele>106.84</ele>
        <time>2011-10-22T14:07:51Z</time>
      </trkpt>
      <trkpt lat="48.72352" lon="1.95738">
        <ele>110.21</ele>
        <time>2011-10-22T14:08:00Z</time>
      </trkpt>
      <trkpt lat="48.72369" lon="1.95747">
        <ele>113.09</ele>
        <time>2011-10-22T14:08:09Z</time>
      </trkpt>
      <trkpt lat="48.72376" lon="1.95763">
        <ele>115.5</ele>
        <time>2011-10-22T14:08:17Z</time>
      </trkpt>
      <trkpt lat="48.72377" lon="1.95765">
        <ele>115.5</ele>
        <time>2011-10-22T14:08:18Z</time>
      </trkpt>
      <trkpt lat="48.72378" lon="1.95767">
        <ele>115.98</ele>
        <time>2011-10-22T14:08:19Z</time>
      </trkpt>
      <trkpt lat="48.72387" lon="1.95787">
        <ele>119.34</ele>
        <time>2011-10-22T14:08:31Z</time>
      </trkpt>
      <trkpt lat="48.72387" lon="1.95793">
        <ele>120.3</ele>
        <time>2011-10-22T14:08:34Z</time>
      </trkpt>
      <trkpt lat="48.72387" lon="1.95795">
        <ele>120.3</ele>
        <time>2011-10-22T14:08:35Z</time>
      </trkpt>
      <trkpt lat="48.72387" lon="1.95797">
        <ele>120.3</ele>
        <time>2011-10-22T14:08:36Z</time>
      </trkpt>
      <trkpt lat="48.72396" lon="1.95825">
        <ele>123.19</ele>
        <time>2011-10-22T14:08:52Z</time>
      </trkpt>
      <trkpt lat="48.72405" lon="1.95843">
        <ele>125.11</ele>
        <time>2011-10-22T14:09:03Z</time>
      </trkpt>
      <trkpt lat="48.72406" lon="1.95843">
        <ele>125.11</ele>
        <time>2011-10-22T14:09:04Z</time>
      </trkpt>
      <trkpt lat="48.72406" lon="1.95845">
        <ele>125.59</ele>
        <time>2011-10-22T14:09:05Z</time>
      </trkpt>
      <trkpt lat="48.72407" lon="1.95846">
        <ele>126.07</ele>
        <time>2011-10-22T14:09:06Z</time>
      </trkpt>
      <trkpt lat="48.72408" lon="1.95847">
        <ele>125.59</ele>
        <time>2011-10-22T14:09:07Z</time>
      </trkpt>
      <trkpt lat="48.72409" lon="1.95849">
        <ele>126.07</ele>
        <time>2011-10-22T14:09:08Z</time>
      </trkpt>
      <trkpt lat="48.72409" lon="1.9585">
        <ele>126.07</ele>
        <time>2011-10-22T14:09:09Z</time>
      </trkpt>
      <trkpt lat="48.7241" lon="1.95852">
        <ele>126.07</ele>
        <time>2011-10-22T14:09:10Z</time>
      </trkpt>
      <trkpt lat="48.72411" lon="1.95853">
        <ele>126.55</ele>
        <time>2011-10-22T14:09:11Z</time>
      </trkpt>
      <trkpt lat="48.72412" lon="1.95855">
        <ele>126.55</ele>
        <time>2011-10-22T14:09:12Z</time>
      </trkpt>
      <trkpt lat="48.72413" lon="1.95856">
        <ele>126.55</ele>
        <time>2011-10-22T14:09:13Z</time>
      </trkpt>
      <trkpt lat="48.72426" lon="1.95884">
        <ele>127.03</ele>
        <time>2011-10-22T14:09:27Z</time>
      </trkpt>
      <trkpt lat="48.72439" lon="1.95916">
        <ele>127.03</ele>
        <time>2011-10-22T14:09:38Z</time>
      </trkpt>
      <trkpt lat="48.72448" lon="1.95958">
        <ele>127.99</ele>
        <time>2011-10-22T14:09:51Z</time>
      </trkpt>
      <trkpt lat="48.72453" lon="1.95998">
        <ele>130.4</ele>
        <time>2011-10-22T14:10:04Z</time>
      </trkpt>
      <trkpt lat="48.72453" lon="1.96039">
        <ele>133.76</ele>
        <time>2011-10-22T14:10:18Z</time>
      </trkpt>
      <trkpt lat="48.72453" lon="1.96078">
        <ele>135.68</ele>
        <time>2011-10-22T14:10:31Z</time>
      </trkpt>
      <trkpt lat="48.72456" lon="1.96116">
        <ele>138.09</ele>
        <time>2011-10-22T14:10:45Z</time>
      </trkpt>
      <trkpt lat="48.72464" lon="1.96155">
        <ele>140.01</ele>
        <time>2011-10-22T14:10:58Z</time>
      </trkpt>
      <trkpt lat="48.72466" lon="1.96184">
        <ele>142.41</ele>
        <time>2011-10-22T14:11:09Z</time>
      </trkpt>
      <trkpt lat="48.72466" lon="1.96185">
        <ele>142.41</ele>
        <time>2011-10-22T14:11:10Z</time>
      </trkpt>
      <trkpt lat="48.72467" lon="1.96187">
        <ele>142.41</ele>
        <time>2011-10-22T14:11:11Z</time>
      </trkpt>
      <trkpt lat="48.72467" lon="1.96189">
        <ele>142.89</ele>
        <time>2011-10-22T14:11:12Z</time>
      </trkpt>
      <trkpt lat="48.72467" lon="1.96191">
        <ele>142.89</ele>
        <time>2011-10-22T14:11:13Z</time>
      </trkpt>
      <trkpt lat="48.72467" lon="1.96192">
        <ele>142.89</ele>
        <time>2011-10-22T14:11:14Z</time>
      </trkpt>
      <trkpt lat="48.72467" lon="1.96194">
        <ele>142.89</ele>
        <time>2011-10-22T14:11:15Z</time>
      </trkpt>
      <trkpt lat="48.72467" lon="1.96196">
        <ele>143.37</ele>
        <time>2011-10-22T14:11:16Z</time>
      </trkpt>
      <trkpt lat="48.72467" lon="1.96198">
        <ele>143.37</ele>
        <time>2011-10-22T14:11:17Z</time>
      </trkpt>
      <trkpt lat="48.72468" lon="1.962">
        <ele>143.85</ele>
        <time>2011-10-22T14:11:18Z</time>
      </trkpt>
      <trkpt lat="48.72469" lon="1.96201">
        <ele>144.34</ele>
        <time>2011-10-22T14:11:19Z</time>
      </trkpt>
      <trkpt lat="48.7247" lon="1.96203">
        <ele>144.34</ele>
        <time>2011-10-22T14:11:20Z</time>
      </trkpt>
      <trkpt lat="48.72471" lon="1.96204">
        <ele>144.82</ele>
        <time>2011-10-22T14:11:21Z</time>
      </trkpt>
      <trkpt lat="48.72476" lon="1.96215">
        <ele>148.18</ele>
        <time>2011-10-22T14:11:33Z</time>
      </trkpt>
      <trkpt lat="48.72479" lon="1.96225">
        <ele>149.14</ele>
        <time>2011-10-22T14:11:40Z</time>
      </trkpt>
      <trkpt lat="48.72482" lon="1.96235">
        <ele>150.1</ele>
        <time>2011-10-22T14:11:45Z</time>
      </trkpt>
      <trkpt lat="48.72487" lon="1.9625">
        <ele>152.51</ele>
        <time>2011-10-22T14:11:53Z</time>
      </trkpt>
      <trkpt lat="48.7249" lon="1.96254">
        <ele>152.99</ele>
        <time>2011-10-22T14:11:55Z</time>
      </trkpt>
      <trkpt lat="48.72492" lon="1.96257">
        <ele>152.99</ele>
        <time>2011-10-22T14:11:56Z</time>
      </trkpt>
      <trkpt lat="48.72495" lon="1.96279">
        <ele>155.39</ele>
        <time>2011-10-22T14:12:09Z</time>
      </trkpt>
      <trkpt lat="48.72495" lon="1.96282">
        <ele>155.87</ele>
        <time>2011-10-22T14:12:11Z</time>
      </trkpt>
      <trkpt lat="48.72495" lon="1.96283">
        <ele>156.83</ele>
        <time>2011-10-22T14:12:12Z</time>
      </trkpt>
      <trkpt lat="48.72495" lon="1.96285">
        <ele>156.35</ele>
        <time>2011-10-22T14:12:13Z</time>
      </trkpt>
      <trkpt lat="48.72501" lon="1.96308">
        <ele>158.27</ele>
        <time>2011-10-22T14:12:26Z</time>
      </trkpt>
      <trkpt lat="48.72516" lon="1.96333">
        <ele>160.68</ele>
        <time>2011-10-22T14:12:42Z</time>
      </trkpt>
      <trkpt lat="48.72517" lon="1.96337">
        <ele>160.2</ele>
        <time>2011-10-22T14:12:44Z</time>
      </trkpt>
      <trkpt lat="48.72519" lon="1.96338">
        <ele>160.68</ele>
        <time>2011-10-22T14:12:45Z</time>
      </trkpt>
      <trkpt lat="48.7252" lon="1.9634">
        <ele>160.68</ele>
        <time>2011-10-22T14:12:46Z</time>
      </trkpt>
      <trkpt lat="48.7253" lon="1.96352">
        <ele>160.68</ele>
        <time>2011-10-22T14:12:54Z</time>
      </trkpt>
      <trkpt lat="48.72531" lon="1.96353">
        <ele>161.16</ele>
        <time>2011-10-22T14:12:55Z</time>
      </trkpt>
      <trkpt lat="48.72533" lon="1.96354">
        <ele>161.16</ele>
        <time>2011-10-22T14:12:56Z</time>
      </trkpt>
      <trkpt lat="48.72535" lon="1.96354">
        <ele>161.16</ele>
        <time>2011-10-22T14:12:57Z</time>
      </trkpt>
      <trkpt lat="48.72537" lon="1.96355">
        <ele>161.16</ele>
        <time>2011-10-22T14:12:58Z</time>
      </trkpt>
      <trkpt lat="48.72538" lon="1.96356">
        <ele>161.16</ele>
        <time>2011-10-22T14:12:59Z</time>
      </trkpt>
      <trkpt lat="48.7254" lon="1.96356">
        <ele>161.64</ele>
        <time>2011-10-22T14:13:00Z</time>
      </trkpt>
      <trkpt lat="48.72542" lon="1.96358">
        <ele>161.64</ele>
        <time>2011-10-22T14:13:01Z</time>
      </trkpt>
      <trkpt lat="48.72545" lon="1.96359">
        <ele>161.64</ele>
        <time>2011-10-22T14:13:02Z</time>
      </trkpt>
      <trkpt lat="48.72547" lon="1.96361">
        <ele>161.64</ele>
        <time>2011-10-22T14:13:03Z</time>
      </trkpt>
      <trkpt lat="48.72586" lon="1.96388">
        <ele>162.12</ele>
        <time>2011-10-22T14:13:17Z</time>
      </trkpt>
      <trkpt lat="48.72647" lon="1.96431">
        <ele>162.12</ele>
        <time>2011-10-22T14:13:34Z</time>
      </trkpt>
      <trkpt lat="48.72716" lon="1.96468">
        <ele>162.6</ele>
        <time>2011-10-22T14:13:51Z</time>
      </trkpt>
      <trkpt lat="48.72799" lon="1.96474">
        <ele>163.08</ele>
        <time>2011-10-22T14:14:08Z</time>
      </trkpt>
      <trkpt lat="48.72895" lon="1.96467">
        <ele>163.56</ele>
        <time>2011-10-22T14:14:26Z</time>
      </trkpt>
      <trkpt lat="48.72979" lon="1.96476">
        <ele>164.52</ele>
        <time>2011-10-22T14:14:42Z</time>
      </trkpt>
      <trkpt lat="48.73067" lon="1.9649">
        <ele>164.52</ele>
        <time>2011-10-22T14:14:59Z</time>
      </trkpt>
      <trkpt lat="48.73163" lon="1.96499">
        <ele>164.04</ele>
        <time>2011-10-22T14:15:16Z</time>
      </trkpt>
      <trkpt lat="48.73255" lon="1.96494">
        <ele>164.04</ele>
        <time>2011-10-22T14:15:33Z</time>
      </trkpt>
      <trkpt lat="48.73351" lon="1.96473">
        <ele>163.56</ele>
        <time>2011-10-22T14:15:51Z</time>
      </trkpt>
      <trkpt lat="48.73446" lon="1.9646">
        <ele>164.52</ele>
        <time>2011-10-22T14:16:09Z</time>
      </trkpt>
      <trkpt lat="48.73525" lon="1.96457">
        <ele>165.48</ele>
        <time>2011-10-22T14:16:24Z</time>
      </trkpt>
      <trkpt lat="48.73618" lon="1.9645">
        <ele>166.45</ele>
        <time>2011-10-22T14:16:42Z</time>
      </trkpt>
      <trkpt lat="48.73632" lon="1.96452">
        <ele>166.93</ele>
        <time>2011-10-22T14:16:46Z</time>
      </trkpt>
      <trkpt lat="48.73634" lon="1.9645">
        <ele>166.93</ele>
        <time>2011-10-22T14:16:47Z</time>
      </trkpt>
      <trkpt lat="48.73637" lon="1.96448">
        <ele>166.93</ele>
        <time>2011-10-22T14:16:48Z</time>
      </trkpt>
      <trkpt lat="48.7364" lon="1.96447">
        <ele>166.45</ele>
        <time>2011-10-22T14:16:49Z</time>
      </trkpt>
      <trkpt lat="48.73643" lon="1.96447">
        <ele>166.93</ele>
        <time>2011-10-22T14:16:50Z</time>
      </trkpt>
      <trkpt lat="48.73647" lon="1.96447">
        <ele>167.89</ele>
        <time>2011-10-22T14:16:51Z</time>
      </trkpt>
      <trkpt lat="48.73652" lon="1.96448">
        <ele>166.93</ele>
        <time>2011-10-22T14:16:52Z</time>
      </trkpt>
      <trkpt lat="48.73656" lon="1.9645">
        <ele>166.93</ele>
        <time>2011-10-22T14:16:53Z</time>
      </trkpt>
      <trkpt lat="48.73723" lon="1.96466">
        <ele>167.41</ele>
        <time>2011-10-22T14:17:09Z</time>
      </trkpt>
      <trkpt lat="48.73732" lon="1.96471">
        <ele>166.93</ele>
        <time>2011-10-22T14:17:11Z</time>
      </trkpt>
      <trkpt lat="48.73774" lon="1.96501">
        <ele>167.41</ele>
        <time>2011-10-22T14:17:21Z</time>
      </trkpt>
      <trkpt lat="48.73786" lon="1.96513">
        <ele>166.93</ele>
        <time>2011-10-22T14:17:24Z</time>
      </trkpt>
      <trkpt lat="48.73818" lon="1.96552">
        <ele>166.93</ele>
        <time>2011-10-22T14:17:32Z</time>
      </trkpt>
      <trkpt lat="48.73835" lon="1.96571">
        <ele>166.93</ele>
        <time>2011-10-22T14:17:36Z</time>
      </trkpt>
      <trkpt lat="48.73839" lon="1.96575">
        <ele>166.45</ele>
        <time>2011-10-22T14:17:37Z</time>
      </trkpt>
      <trkpt lat="48.73843" lon="1.96581">
        <ele>166.45</ele>
        <time>2011-10-22T14:17:38Z</time>
      </trkpt>
      <trkpt lat="48.73903" lon="1.96673">
        <ele>165.48</ele>
        <time>2011-10-22T14:17:53Z</time>
      </trkpt>
      <trkpt lat="48.73969" lon="1.96779">
        <ele>164.52</ele>
        <time>2011-10-22T14:18:09Z</time>
      </trkpt>
      <trkpt lat="48.7402" lon="1.96864">
        <ele>164.52</ele>
        <time>2011-10-22T14:18:22Z</time>
      </trkpt>
      <trkpt lat="48.74028" lon="1.96881">
        <ele>165</ele>
        <time>2011-10-22T14:18:29Z</time>
      </trkpt>
      <trkpt lat="48.74029" lon="1.96881">
        <ele>165</ele>
        <time>2011-10-22T14:18:41Z</time>
      </trkpt>
      <trkpt lat="48.74029" lon="1.96883">
        <ele>165</ele>
        <time>2011-10-22T14:18:54Z</time>
      </trkpt>
      <trkpt lat="48.74029" lon="1.96885">
        <ele>165</ele>
        <time>2011-10-22T14:18:55Z</time>
      </trkpt>
      <trkpt lat="48.74029" lon="1.96887">
        <ele>165</ele>
        <time>2011-10-22T14:18:56Z</time>
      </trkpt>
      <trkpt lat="48.74029" lon="1.9689">
        <ele>165</ele>
        <time>2011-10-22T14:18:57Z</time>
      </trkpt>
      <trkpt lat="48.74029" lon="1.96892">
        <ele>164.52</ele>
        <time>2011-10-22T14:18:58Z</time>
      </trkpt>
      <trkpt lat="48.74028" lon="1.96895">
        <ele>164.52</ele>
        <time>2011-10-22T14:18:59Z</time>
      </trkpt>
      <trkpt lat="48.74027" lon="1.96898">
        <ele>164.52</ele>
        <time>2011-10-22T14:19:00Z</time>
      </trkpt>
      <trkpt lat="48.74027" lon="1.96903">
        <ele>164.52</ele>
        <time>2011-10-22T14:19:01Z</time>
      </trkpt>
      <trkpt lat="48.74033" lon="1.96952">
        <ele>164.04</ele>
        <time>2011-10-22T14:19:09Z</time>
      </trkpt>
      <trkpt lat="48.74046" lon="1.97036">
        <ele>163.56</ele>
        <time>2011-10-22T14:19:20Z</time>
      </trkpt>
      <trkpt lat="48.74057" lon="1.97156">
        <ele>163.08</ele>
        <time>2011-10-22T14:19:35Z</time>
      </trkpt>
      <trkpt lat="48.74056" lon="1.9718">
        <ele>163.08</ele>
        <time>2011-10-22T14:19:38Z</time>
      </trkpt>
      <trkpt lat="48.74052" lon="1.97217">
        <ele>163.08</ele>
        <time>2011-10-22T14:19:43Z</time>
      </trkpt>
      <trkpt lat="48.74054" lon="1.97223">
        <ele>163.08</ele>
        <time>2011-10-22T14:19:44Z</time>
      </trkpt>
      <trkpt lat="48.74057" lon="1.97227">
        <ele>163.08</ele>
        <time>2011-10-22T14:19:45Z</time>
      </trkpt>
      <trkpt lat="48.74062" lon="1.97229">
        <ele>163.08</ele>
        <time>2011-10-22T14:19:46Z</time>
      </trkpt>
      <trkpt lat="48.74066" lon="1.9723">
        <ele>163.08</ele>
        <time>2011-10-22T14:19:47Z</time>
      </trkpt>
      <trkpt lat="48.7407" lon="1.97229">
        <ele>163.56</ele>
        <time>2011-10-22T14:19:48Z</time>
      </trkpt>
      <trkpt lat="48.74075" lon="1.97228">
        <ele>163.08</ele>
        <time>2011-10-22T14:19:49Z</time>
      </trkpt>
      <trkpt lat="48.74079" lon="1.97228">
        <ele>163.56</ele>
        <time>2011-10-22T14:19:50Z</time>
      </trkpt>
      <trkpt lat="48.74146" lon="1.97226">
        <ele>162.12</ele>
        <time>2011-10-22T14:20:02Z</time>
      </trkpt>
      <trkpt lat="48.7425" lon="1.97221">
        <ele>161.64</ele>
        <time>2011-10-22T14:20:19Z</time>
      </trkpt>
      <trkpt lat="48.74356" lon="1.97236">
        <ele>160.2</ele>
        <time>2011-10-22T14:20:36Z</time>
      </trkpt>
      <trkpt lat="48.74432" lon="1.97245">
        <ele>160.2</ele>
        <time>2011-10-22T14:20:50Z</time>
      </trkpt>
      <trkpt lat="48.74498" lon="1.97226">
        <ele>161.64</ele>
        <time>2011-10-22T14:21:03Z</time>
      </trkpt>
      <trkpt lat="48.74523" lon="1.9721">
        <ele>161.64</ele>
        <time>2011-10-22T14:21:09Z</time>
      </trkpt>
      <trkpt lat="48.74527" lon="1.97208">
        <ele>161.64</ele>
        <time>2011-10-22T14:21:10Z</time>
      </trkpt>
      <trkpt lat="48.74531" lon="1.97205">
        <ele>162.12</ele>
        <time>2011-10-22T14:21:11Z</time>
      </trkpt>
      <trkpt lat="48.74535" lon="1.97202">
        <ele>162.12</ele>
        <time>2011-10-22T14:21:12Z</time>
      </trkpt>
      <trkpt lat="48.74539" lon="1.97199">
        <ele>162.12</ele>
        <time>2011-10-22T14:21:13Z</time>
      </trkpt>
      <trkpt lat="48.74543" lon="1.97197">
        <ele>162.12</ele>
        <time>2011-10-22T14:21:14Z</time>
      </trkpt>
      <trkpt lat="48.74547" lon="1.97194">
        <ele>162.12</ele>
        <time>2011-10-22T14:21:15Z</time>
      </trkpt>
      <trkpt lat="48.74551" lon="1.97192">
        <ele>162.12</ele>
        <time>2011-10-22T14:21:16Z</time>
      </trkpt>
      <trkpt lat="48.74582" lon="1.97174">
        <ele>161.64</ele>
        <time>2011-10-22T14:21:25Z</time>
      </trkpt>
      <trkpt lat="48.74596" lon="1.97179">
        <ele>161.64</ele>
        <time>2011-10-22T14:21:28Z</time>
      </trkpt>
      <trkpt lat="48.746" lon="1.97183">
        <ele>161.16</ele>
        <time>2011-10-22T14:21:29Z</time>
      </trkpt>
      <trkpt lat="48.7461" lon="1.97198">
        <ele>161.16</ele>
        <time>2011-10-22T14:21:32Z</time>
      </trkpt>
      <trkpt lat="48.74613" lon="1.97204">
        <ele>161.16</ele>
        <time>2011-10-22T14:21:33Z</time>
      </trkpt>
      <trkpt lat="48.74617" lon="1.97217">
        <ele>160.68</ele>
        <time>2011-10-22T14:21:35Z</time>
      </trkpt>
      <trkpt lat="48.74617" lon="1.97224">
        <ele>160.68</ele>
        <time>2011-10-22T14:21:36Z</time>
      </trkpt>
      <trkpt lat="48.74618" lon="1.97255">
        <ele>160.2</ele>
        <time>2011-10-22T14:21:40Z</time>
      </trkpt>
      <trkpt lat="48.74618" lon="1.97263">
        <ele>160.2</ele>
        <time>2011-10-22T14:21:41Z</time>
      </trkpt>
      <trkpt lat="48.74618" lon="1.97271">
        <ele>160.68</ele>
        <time>2011-10-22T14:21:42Z</time>
      </trkpt>
      <trkpt lat="48.74618" lon="1.97279">
        <ele>160.2</ele>
        <time>2011-10-22T14:21:43Z</time>
      </trkpt>
      <trkpt lat="48.74618" lon="1.97286">
        <ele>159.72</ele>
        <time>2011-10-22T14:21:44Z</time>
      </trkpt>
      <trkpt lat="48.74619" lon="1.97324">
        <ele>159.72</ele>
        <time>2011-10-22T14:21:49Z</time>
      </trkpt>
      <trkpt lat="48.74618" lon="1.97331">
        <ele>159.72</ele>
        <time>2011-10-22T14:21:50Z</time>
      </trkpt>
      <trkpt lat="48.74612" lon="1.97361">
        <ele>160.68</ele>
        <time>2011-10-22T14:21:54Z</time>
      </trkpt>
      <trkpt lat="48.74606" lon="1.97398">
        <ele>159.72</ele>
        <time>2011-10-22T14:21:59Z</time>
      </trkpt>
      <trkpt lat="48.74603" lon="1.97414">
        <ele>159.72</ele>
        <time>2011-10-22T14:22:01Z</time>
      </trkpt>
      <trkpt lat="48.74589" lon="1.97498">
        <ele>158.75</ele>
        <time>2011-10-22T14:22:12Z</time>
      </trkpt>
      <trkpt lat="48.74589" lon="1.97505">
        <ele>159.24</ele>
        <time>2011-10-22T14:22:13Z</time>
      </trkpt>
      <trkpt lat="48.7459" lon="1.97513">
        <ele>159.24</ele>
        <time>2011-10-22T14:22:14Z</time>
      </trkpt>
      <trkpt lat="48.74592" lon="1.9752">
        <ele>159.72</ele>
        <time>2011-10-22T14:22:15Z</time>
      </trkpt>
      <trkpt lat="48.74595" lon="1.97527">
        <ele>159.72</ele>
        <time>2011-10-22T14:22:16Z</time>
      </trkpt>
      <trkpt lat="48.74598" lon="1.97533">
        <ele>159.72</ele>
        <time>2011-10-22T14:22:17Z</time>
      </trkpt>
      <trkpt lat="48.74601" lon="1.97539">
        <ele>159.72</ele>
        <time>2011-10-22T14:22:18Z</time>
      </trkpt>
      <trkpt lat="48.74617" lon="1.97568">
        <ele>160.68</ele>
        <time>2011-10-22T14:22:23Z</time>
      </trkpt>
      <trkpt lat="48.74619" lon="1.97574">
        <ele>160.2</ele>
        <time>2011-10-22T14:22:24Z</time>
      </trkpt>
      <trkpt lat="48.74632" lon="1.97616">
        <ele>160.68</ele>
        <time>2011-10-22T14:22:30Z</time>
      </trkpt>
      <trkpt lat="48.74639" lon="1.97646">
        <ele>160.68</ele>
        <time>2011-10-22T14:22:34Z</time>
      </trkpt>
      <trkpt lat="48.74641" lon="1.97653">
        <ele>161.16</ele>
        <time>2011-10-22T14:22:35Z</time>
      </trkpt>
      <trkpt lat="48.7465" lon="1.97681">
        <ele>160.68</ele>
        <time>2011-10-22T14:22:39Z</time>
      </trkpt>
      <trkpt lat="48.74651" lon="1.97688">
        <ele>160.68</ele>
        <time>2011-10-22T14:22:40Z</time>
      </trkpt>
      <trkpt lat="48.74654" lon="1.97694">
        <ele>160.68</ele>
        <time>2011-10-22T14:22:41Z</time>
      </trkpt>
      <trkpt lat="48.74657" lon="1.977">
        <ele>160.2</ele>
        <time>2011-10-22T14:22:42Z</time>
      </trkpt>
      <trkpt lat="48.7466" lon="1.97707">
        <ele>160.68</ele>
        <time>2011-10-22T14:22:43Z</time>
      </trkpt>
      <trkpt lat="48.74664" lon="1.97712">
        <ele>160.68</ele>
        <time>2011-10-22T14:22:44Z</time>
      </trkpt>
      <trkpt lat="48.74667" lon="1.97716">
        <ele>161.16</ele>
        <time>2011-10-22T14:22:45Z</time>
      </trkpt>
      <trkpt lat="48.74688" lon="1.97736">
        <ele>160.68</ele>
        <time>2011-10-22T14:22:50Z</time>
      </trkpt>
      <trkpt lat="48.74755" lon="1.97803">
        <ele>161.64</ele>
        <time>2011-10-22T14:23:05Z</time>
      </trkpt>
      <trkpt lat="48.74796" lon="1.97844">
        <ele>161.64</ele>
        <time>2011-10-22T14:23:14Z</time>
      </trkpt>
      <trkpt lat="48.748" lon="1.97849">
        <ele>161.64</ele>
        <time>2011-10-22T14:23:15Z</time>
      </trkpt>
      <trkpt lat="48.74839" lon="1.97894">
        <ele>160.68</ele>
        <time>2011-10-22T14:23:24Z</time>
      </trkpt>
      <trkpt lat="48.74867" lon="1.97933">
        <ele>160.68</ele>
        <time>2011-10-22T14:23:31Z</time>
      </trkpt>
      <trkpt lat="48.74915" lon="1.98029">
        <ele>160.68</ele>
        <time>2011-10-22T14:23:46Z</time>
      </trkpt>
      <trkpt lat="48.74918" lon="1.98035">
        <ele>160.2</ele>
        <time>2011-10-22T14:23:47Z</time>
      </trkpt>
      <trkpt lat="48.74938" lon="1.98073">
        <ele>161.16</ele>
        <time>2011-10-22T14:23:54Z</time>
      </trkpt>
      <trkpt lat="48.74981" lon="1.98164">
        <ele>161.16</ele>
        <time>2011-10-22T14:24:10Z</time>
      </trkpt>
      <trkpt lat="48.75011" lon="1.98221">
        <ele>161.16</ele>
        <time>2011-10-22T14:24:21Z</time>
      </trkpt>
      <trkpt lat="48.75014" lon="1.98227">
        <ele>161.64</ele>
        <time>2011-10-22T14:24:22Z</time>
      </trkpt>
      <trkpt lat="48.75017" lon="1.98232">
        <ele>161.16</ele>
        <time>2011-10-22T14:24:23Z</time>
      </trkpt>
      <trkpt lat="48.7502" lon="1.98238">
        <ele>160.68</ele>
        <time>2011-10-22T14:24:24Z</time>
      </trkpt>
      <trkpt lat="48.75023" lon="1.98244">
        <ele>160.68</ele>
        <time>2011-10-22T14:24:25Z</time>
      </trkpt>
      <trkpt lat="48.75053" lon="1.98294">
        <ele>161.16</ele>
        <time>2011-10-22T14:24:34Z</time>
      </trkpt>
      <trkpt lat="48.751" lon="1.98406">
        <ele>158.27</ele>
        <time>2011-10-22T14:24:50Z</time>
      </trkpt>
      <trkpt lat="48.75132" lon="1.98495">
        <ele>153.47</ele>
        <time>2011-10-22T14:25:00Z</time>
      </trkpt>
      <trkpt lat="48.75134" lon="1.98505">
        <ele>152.99</ele>
        <time>2011-10-22T14:25:01Z</time>
      </trkpt>
      <trkpt lat="48.75136" lon="1.98515">
        <ele>152.99</ele>
        <time>2011-10-22T14:25:02Z</time>
      </trkpt>
      <trkpt lat="48.75138" lon="1.98523">
        <ele>153.47</ele>
        <time>2011-10-22T14:25:03Z</time>
      </trkpt>
      <trkpt lat="48.75141" lon="1.98529">
        <ele>153.47</ele>
        <time>2011-10-22T14:25:04Z</time>
      </trkpt>
      <trkpt lat="48.75144" lon="1.98533">
        <ele>153.47</ele>
        <time>2011-10-22T14:25:05Z</time>
      </trkpt>
      <trkpt lat="48.75147" lon="1.98537">
        <ele>154.43</ele>
        <time>2011-10-22T14:25:06Z</time>
      </trkpt>
      <trkpt lat="48.75149" lon="1.98542">
        <ele>154.91</ele>
        <time>2011-10-22T14:25:07Z</time>
      </trkpt>
      <trkpt lat="48.7515" lon="1.98545">
        <ele>155.39</ele>
        <time>2011-10-22T14:25:08Z</time>
      </trkpt>
      <trkpt lat="48.7515" lon="1.98548">
        <ele>155.39</ele>
        <time>2011-10-22T14:25:09Z</time>
      </trkpt>
      <trkpt lat="48.75149" lon="1.98551">
        <ele>155.39</ele>
        <time>2011-10-22T14:25:10Z</time>
      </trkpt>
      <trkpt lat="48.75148" lon="1.98554">
        <ele>155.39</ele>
        <time>2011-10-22T14:25:11Z</time>
      </trkpt>
      <trkpt lat="48.75147" lon="1.98557">
        <ele>155.87</ele>
        <time>2011-10-22T14:25:12Z</time>
      </trkpt>
      <trkpt lat="48.75151" lon="1.98538">
        <ele>160.3710938</ele>
      </trkpt>
      <trkpt lat="48.75242" lon="1.98575">
        <ele>165.6796875</ele>
      </trkpt>
      <trkpt lat="48.75391" lon="1.98634">
        <ele>169.0039063</ele>
      </trkpt>
      <trkpt lat="48.75507" lon="1.98678">
        <ele>172.7539063</ele>
      </trkpt>
      <trkpt lat="48.75591" lon="1.98708">
        <ele>172.8125</ele>
      </trkpt>
      <trkpt lat="48.75634" lon="1.98727">
        <ele>171.5898438</ele>
      </trkpt>
      <trkpt lat="48.75675" lon="1.98754">
        <ele>170.4804688</ele>
      </trkpt>
      <trkpt lat="48.75685" lon="1.9899">
        <ele>168.3828125</ele>
      </trkpt>
      <trkpt lat="48.7569" lon="1.99179">
        <ele>168.2226563</ele>
      </trkpt>
      <trkpt lat="48.75692" lon="1.99258">
        <ele>168.7070313</ele>
      </trkpt>
      <trkpt lat="48.75693" lon="1.99308">
        <ele>169</ele>
      </trkpt>
      <trkpt lat="48.75866" lon="1.99445">
        <ele>166.8789063</ele>
      </trkpt>
      <trkpt lat="48.75946" lon="1.99506">
        <ele>165.9960938</ele>
      </trkpt>
      <trkpt lat="48.76024" lon="1.99571">
        <ele>165.0507813</ele>
      </trkpt>
      <trkpt lat="48.76082" lon="1.99718">
        <ele>164</ele>
      </trkpt>
      <trkpt lat="48.7617" lon="1.9993">
        <ele>164.0585938</ele>
      </trkpt>
      <trkpt lat="48.76234" lon="2.00092">
        <ele>165.5625</ele>
      </trkpt>
      <trkpt lat="48.76234" lon="2.00094">
        <ele>165.5390625</ele>
      </trkpt>
      <trkpt lat="48.76267" lon="2.0018">
        <ele>166</ele>
      </trkpt>
      <trkpt lat="48.7634" lon="2.00349">
        <ele>165.8203125</ele>
      </trkpt>
      <trkpt lat="48.76399" lon="2.00489">
        <ele>164</ele>
      </trkpt>
      <trkpt lat="48.76471" lon="2.00653">
        <ele>165.84375</ele>
      </trkpt>
      <trkpt lat="48.76487" lon="2.00684">
        <ele>166.4960938</ele>
      </trkpt>
      <trkpt lat="48.76464" lon="2.00719">
        <ele>165.8476563</ele>
      </trkpt>
      <trkpt lat="48.7646" lon="2.00763">
        <ele>166.4648438</ele>
      </trkpt>
      <trkpt lat="48.76451" lon="2.00794">
        <ele>166.203125</ele>
      </trkpt>
      <trkpt lat="48.76453" lon="2.00827">
        <ele>166.4335938</ele>
      </trkpt>
      <trkpt lat="48.76431" lon="2.00868">
        <ele>165.984375</ele>
      </trkpt>
      <trkpt lat="48.76431" lon="2.00866">
        <ele>165.984375</ele>
      </trkpt>
      <trkpt lat="48.76408" lon="2.00941">
        <ele>164.921875</ele>
      </trkpt>
      <trkpt lat="48.76392" lon="2.01004">
        <ele>165.0664063</ele>
      </trkpt>
      <trkpt lat="48.7639" lon="2.01002">
        <ele>165.0039063</ele>
      </trkpt>
      <trkpt lat="48.76363" lon="2.01197">
        <ele>165.53125</ele>
      </trkpt>
      <trkpt lat="48.76351" lon="2.01232">
        <ele>165.90625</ele>
      </trkpt>
      <trkpt lat="48.76334" lon="2.01305">
        <ele>165.9960938</ele>
      </trkpt>
      <trkpt lat="48.76333" lon="2.01384">
        <ele>167.9335938</ele>
      </trkpt>
      <trkpt lat="48.76336" lon="2.01419">
        <ele>168</ele>
      </trkpt>
      <trkpt lat="48.76336" lon="2.01421">
        <ele>168</ele>
      </trkpt>
      <trkpt lat="48.76342" lon="2.01432">
        <ele>168</ele>
      </trkpt>
      <trkpt lat="48.76338" lon="2.01425">
        <ele>168</ele>
      </trkpt>
      <trkpt lat="48.76354" lon="2.01485">
        <ele>169</ele>
      </trkpt>
      <trkpt lat="48.76349" lon="2.01572">
        <ele>169.5273438</ele>
      </trkpt>
      <trkpt lat="48.76342" lon="2.01654">
        <ele>170</ele>
      </trkpt>
      <trkpt lat="48.76316" lon="2.01645">
        <ele>169.7617188</ele>
      </trkpt>
      <trkpt lat="48.76293" lon="2.01629">
        <ele>169.0820313</ele>
      </trkpt>
      <trkpt lat="48.76216" lon="2.01739">
        <ele>167.734375</ele>
      </trkpt>
      <trkpt lat="48.76144" lon="2.01827">
        <ele>165.1367188</ele>
      </trkpt>
      <trkpt lat="48.76077" lon="2.01925">
        <ele>162.6757813</ele>
      </trkpt>
      <trkpt lat="48.76058" lon="2.0195">
        <ele>162.03125</ele>
      </trkpt>
      <trkpt lat="48.76052" lon="2.01998">
        <ele>161.8359375</ele>
      </trkpt>
      <trkpt lat="48.76042" lon="2.02033">
        <ele>161.4492188</ele>
      </trkpt>
      <trkpt lat="48.76022" lon="2.02038">
        <ele>152.99</ele>
        <time>2011-10-22T14:34:38Z</time>
      </trkpt>
      <trkpt lat="48.76028" lon="2.02096">
        <ele>153.95</ele>
        <time>2011-10-22T14:34:49Z</time>
      </trkpt>
      <trkpt lat="48.7602" lon="2.02122">
        <ele>153.47</ele>
        <time>2011-10-22T14:34:54Z</time>
      </trkpt>
      <trkpt lat="48.76019" lon="2.02127">
        <ele>153.47</ele>
        <time>2011-10-22T14:34:55Z</time>
      </trkpt>
      <trkpt lat="48.76018" lon="2.02133">
        <ele>153.95</ele>
        <time>2011-10-22T14:34:56Z</time>
      </trkpt>
      <trkpt lat="48.76017" lon="2.02138">
        <ele>153.47</ele>
        <time>2011-10-22T14:34:57Z</time>
      </trkpt>
      <trkpt lat="48.76017" lon="2.02144">
        <ele>153.47</ele>
        <time>2011-10-22T14:34:58Z</time>
      </trkpt>
      <trkpt lat="48.76016" lon="2.02151">
        <ele>153.47</ele>
        <time>2011-10-22T14:34:59Z</time>
      </trkpt>
      <trkpt lat="48.76015" lon="2.0217">
        <ele>153.47</ele>
        <time>2011-10-22T14:35:02Z</time>
      </trkpt>
      <trkpt lat="48.76006" lon="2.02226">
        <ele>153.47</ele>
        <time>2011-10-22T14:35:10Z</time>
      </trkpt>
      <trkpt lat="48.76005" lon="2.02233">
        <ele>153.47</ele>
        <time>2011-10-22T14:35:11Z</time>
      </trkpt>
      <trkpt lat="48.76004" lon="2.02241">
        <ele>152.99</ele>
        <time>2011-10-22T14:35:12Z</time>
      </trkpt>
      <trkpt lat="48.75998" lon="2.0227">
        <ele>153.47</ele>
        <time>2011-10-22T14:35:16Z</time>
      </trkpt>
      <trkpt lat="48.75997" lon="2.02278">
        <ele>153.47</ele>
        <time>2011-10-22T14:35:17Z</time>
      </trkpt>
      <trkpt lat="48.75991" lon="2.02365">
        <ele>152.99</ele>
        <time>2011-10-22T14:35:29Z</time>
      </trkpt>
      <trkpt lat="48.75989" lon="2.02388">
        <ele>152.99</ele>
        <time>2011-10-22T14:35:32Z</time>
      </trkpt>
      <trkpt lat="48.75988" lon="2.02409">
        <ele>152.51</ele>
        <time>2011-10-22T14:35:35Z</time>
      </trkpt>
      <trkpt lat="48.75987" lon="2.02416">
        <ele>152.51</ele>
        <time>2011-10-22T14:35:36Z</time>
      </trkpt>
      <trkpt lat="48.75988" lon="2.02437">
        <ele>152.99</ele>
        <time>2011-10-22T14:35:39Z</time>
      </trkpt>
      <trkpt lat="48.75988" lon="2.02444">
        <ele>152.51</ele>
        <time>2011-10-22T14:35:40Z</time>
      </trkpt>
      <trkpt lat="48.75988" lon="2.02474">
        <ele>152.51</ele>
        <time>2011-10-22T14:35:44Z</time>
      </trkpt>
      <trkpt lat="48.75987" lon="2.02483">
        <ele>152.03</ele>
        <time>2011-10-22T14:35:45Z</time>
      </trkpt>
      <trkpt lat="48.75987" lon="2.02491">
        <ele>152.51</ele>
        <time>2011-10-22T14:35:46Z</time>
      </trkpt>
      <trkpt lat="48.75987" lon="2.02498">
        <ele>152.51</ele>
        <time>2011-10-22T14:35:47Z</time>
      </trkpt>
      <trkpt lat="48.75986" lon="2.02506">
        <ele>152.03</ele>
        <time>2011-10-22T14:35:48Z</time>
      </trkpt>
      <trkpt lat="48.75985" lon="2.02515">
        <ele>152.03</ele>
        <time>2011-10-22T14:35:49Z</time>
      </trkpt>
      <trkpt lat="48.75982" lon="2.02557">
        <ele>152.51</ele>
        <time>2011-10-22T14:35:54Z</time>
      </trkpt>
      <trkpt lat="48.75981" lon="2.02566">
        <ele>152.03</ele>
        <time>2011-10-22T14:35:55Z</time>
      </trkpt>
      <trkpt lat="48.75979" lon="2.02582">
        <ele>152.03</ele>
        <time>2011-10-22T14:35:57Z</time>
      </trkpt>
      <trkpt lat="48.75978" lon="2.02588">
        <ele>152.51</ele>
        <time>2011-10-22T14:35:58Z</time>
      </trkpt>
      <trkpt lat="48.75976" lon="2.02595">
        <ele>152.51</ele>
        <time>2011-10-22T14:35:59Z</time>
      </trkpt>
      <trkpt lat="48.75975" lon="2.02602">
        <ele>152.51</ele>
        <time>2011-10-22T14:36:00Z</time>
      </trkpt>
      <trkpt lat="48.75972" lon="2.02609">
        <ele>152.99</ele>
        <time>2011-10-22T14:36:01Z</time>
      </trkpt>
      <trkpt lat="48.7597" lon="2.02615">
        <ele>152.99</ele>
        <time>2011-10-22T14:36:02Z</time>
      </trkpt>
      <trkpt lat="48.75968" lon="2.02621">
        <ele>152.51</ele>
        <time>2011-10-22T14:36:03Z</time>
      </trkpt>
      <trkpt lat="48.75967" lon="2.02628">
        <ele>152.99</ele>
        <time>2011-10-22T14:36:04Z</time>
      </trkpt>
      <trkpt lat="48.75954" lon="2.02671">
        <ele>152.51</ele>
        <time>2011-10-22T14:36:10Z</time>
      </trkpt>
      <trkpt lat="48.75952" lon="2.02678">
        <ele>152.51</ele>
        <time>2011-10-22T14:36:11Z</time>
      </trkpt>
      <trkpt lat="48.75949" lon="2.02695">
        <ele>152.51</ele>
        <time>2011-10-22T14:36:14Z</time>
      </trkpt>
      <trkpt lat="48.7595" lon="2.02699">
        <ele>152.99</ele>
        <time>2011-10-22T14:36:15Z</time>
      </trkpt>
      <trkpt lat="48.75953" lon="2.02701">
        <ele>152.51</ele>
        <time>2011-10-22T14:36:16Z</time>
      </trkpt>
      <trkpt lat="48.75956" lon="2.02702">
        <ele>152.51</ele>
        <time>2011-10-22T14:36:17Z</time>
      </trkpt>
      <trkpt lat="48.75959" lon="2.02703">
        <ele>152.51</ele>
        <time>2011-10-22T14:36:18Z</time>
      </trkpt>
      <trkpt lat="48.75965" lon="2.02705">
        <ele>152.51</ele>
        <time>2011-10-22T14:36:20Z</time>
      </trkpt>
      <trkpt lat="48.75968" lon="2.02706">
        <ele>152.51</ele>
        <time>2011-10-22T14:36:21Z</time>
      </trkpt>
      <trkpt lat="48.76012" lon="2.02712">
        <ele>152.99</ele>
        <time>2011-10-22T14:36:32Z</time>
      </trkpt>
      <trkpt lat="48.76086" lon="2.02724">
        <ele>153.95</ele>
        <time>2011-10-22T14:36:47Z</time>
      </trkpt>
      <trkpt lat="48.76133" lon="2.02727">
        <ele>154.43</ele>
        <time>2011-10-22T14:36:56Z</time>
      </trkpt>
      <trkpt lat="48.76207" lon="2.02731">
        <ele>155.39</ele>
        <time>2011-10-22T14:37:11Z</time>
      </trkpt>
      <trkpt lat="48.76258" lon="2.02742">
        <ele>155.39</ele>
        <time>2011-10-22T14:37:21Z</time>
      </trkpt>
      <trkpt lat="48.76284" lon="2.0275">
        <ele>155.87</ele>
        <time>2011-10-22T14:37:27Z</time>
      </trkpt>
      <trkpt lat="48.76286" lon="2.02756">
        <ele>155.39</ele>
        <time>2011-10-22T14:37:28Z</time>
      </trkpt>
      <trkpt lat="48.76286" lon="2.02762">
        <ele>155.39</ele>
        <time>2011-10-22T14:37:29Z</time>
      </trkpt>
      <trkpt lat="48.76285" lon="2.02767">
        <ele>155.39</ele>
        <time>2011-10-22T14:37:30Z</time>
      </trkpt>
      <trkpt lat="48.76283" lon="2.02773">
        <ele>154.91</ele>
        <time>2011-10-22T14:37:31Z</time>
      </trkpt>
      <trkpt lat="48.76281" lon="2.02779">
        <ele>155.39</ele>
        <time>2011-10-22T14:37:32Z</time>
      </trkpt>
      <trkpt lat="48.76279" lon="2.02785">
        <ele>155.39</ele>
        <time>2011-10-22T14:37:33Z</time>
      </trkpt>
      <trkpt lat="48.76269" lon="2.0281">
        <ele>154.91</ele>
        <time>2011-10-22T14:37:37Z</time>
      </trkpt>
      <trkpt lat="48.76267" lon="2.02817">
        <ele>154.91</ele>
        <time>2011-10-22T14:37:38Z</time>
      </trkpt>
      <trkpt lat="48.76261" lon="2.0286">
        <ele>155.39</ele>
        <time>2011-10-22T14:37:46Z</time>
      </trkpt>
      <trkpt lat="48.76264" lon="2.02863">
        <ele>154.91</ele>
        <time>2011-10-22T14:37:47Z</time>
      </trkpt>
      <trkpt lat="48.76267" lon="2.02865">
        <ele>155.39</ele>
        <time>2011-10-22T14:37:48Z</time>
      </trkpt>
      <trkpt lat="48.7627" lon="2.02867">
        <ele>155.39</ele>
        <time>2011-10-22T14:37:49Z</time>
      </trkpt>
      <trkpt lat="48.76275" lon="2.02868">
        <ele>155.39</ele>
        <time>2011-10-22T14:37:50Z</time>
      </trkpt>
      <trkpt lat="48.76362" lon="2.0288">
        <ele>155.39</ele>
        <time>2011-10-22T14:38:05Z</time>
      </trkpt>
      <trkpt lat="48.76381" lon="2.02883">
        <ele>154.91</ele>
        <time>2011-10-22T14:38:08Z</time>
      </trkpt>
      <trkpt lat="48.76386" lon="2.02886">
        <ele>154.43</ele>
        <time>2011-10-22T14:38:09Z</time>
      </trkpt>
      <trkpt lat="48.76392" lon="2.02891">
        <ele>154.43</ele>
        <time>2011-10-22T14:38:10Z</time>
      </trkpt>
      <trkpt lat="48.76401" lon="2.02902">
        <ele>154.91</ele>
        <time>2011-10-22T14:38:12Z</time>
      </trkpt>
      <trkpt lat="48.76407" lon="2.02906">
        <ele>154.91</ele>
        <time>2011-10-22T14:38:13Z</time>
      </trkpt>
      <trkpt lat="48.76413" lon="2.02907">
        <ele>154.91</ele>
        <time>2011-10-22T14:38:14Z</time>
      </trkpt>
      <trkpt lat="48.76419" lon="2.02905">
        <ele>154.91</ele>
        <time>2011-10-22T14:38:15Z</time>
      </trkpt>
      <trkpt lat="48.76424" lon="2.02902">
        <ele>154.91</ele>
        <time>2011-10-22T14:38:16Z</time>
      </trkpt>
      <trkpt lat="48.7643" lon="2.02899">
        <ele>154.91</ele>
        <time>2011-10-22T14:38:17Z</time>
      </trkpt>
      <trkpt lat="48.76436" lon="2.02895">
        <ele>155.39</ele>
        <time>2011-10-22T14:38:18Z</time>
      </trkpt>
      <trkpt lat="48.76442" lon="2.02893">
        <ele>154.91</ele>
        <time>2011-10-22T14:38:19Z</time>
      </trkpt>
      <trkpt lat="48.76449" lon="2.02892">
        <ele>154.91</ele>
        <time>2011-10-22T14:38:20Z</time>
      </trkpt>
      <trkpt lat="48.76455" lon="2.02893">
        <ele>154.43</ele>
        <time>2011-10-22T14:38:21Z</time>
      </trkpt>
      <trkpt lat="48.76462" lon="2.02894">
        <ele>154.43</ele>
        <time>2011-10-22T14:38:22Z</time>
      </trkpt>
      <trkpt lat="48.76494" lon="2.02899">
        <ele>154.43</ele>
        <time>2011-10-22T14:38:27Z</time>
      </trkpt>
      <trkpt lat="48.76588" lon="2.02916">
        <ele>153.95</ele>
        <time>2011-10-22T14:38:42Z</time>
      </trkpt>
      <trkpt lat="48.76594" lon="2.02918">
        <ele>153.95</ele>
        <time>2011-10-22T14:38:43Z</time>
      </trkpt>
      <trkpt lat="48.76599" lon="2.02923">
        <ele>153.95</ele>
        <time>2011-10-22T14:38:44Z</time>
      </trkpt>
      <trkpt lat="48.76603" lon="2.0293">
        <ele>153.47</ele>
        <time>2011-10-22T14:38:45Z</time>
      </trkpt>
      <trkpt lat="48.76605" lon="2.02938">
        <ele>153.47</ele>
        <time>2011-10-22T14:38:46Z</time>
      </trkpt>
      <trkpt lat="48.76606" lon="2.02947">
        <ele>153.95</ele>
        <time>2011-10-22T14:38:47Z</time>
      </trkpt>
      <trkpt lat="48.76606" lon="2.02957">
        <ele>153.95</ele>
        <time>2011-10-22T14:38:48Z</time>
      </trkpt>
      <trkpt lat="48.76606" lon="2.02966">
        <ele>153.47</ele>
        <time>2011-10-22T14:38:49Z</time>
      </trkpt>
      <trkpt lat="48.76607" lon="2.02975">
        <ele>153.95</ele>
        <time>2011-10-22T14:38:50Z</time>
      </trkpt>
      <trkpt lat="48.76603" lon="2.03127">
        <ele>153.47</ele>
        <time>2011-10-22T14:39:06Z</time>
      </trkpt>
      <trkpt lat="48.76594" lon="2.03178">
        <ele>152.99</ele>
        <time>2011-10-22T14:39:13Z</time>
      </trkpt>
      <trkpt lat="48.76593" lon="2.03183">
        <ele>152.99</ele>
        <time>2011-10-22T14:39:14Z</time>
      </trkpt>
      <trkpt lat="48.76594" lon="2.03189">
        <ele>152.99</ele>
        <time>2011-10-22T14:39:15Z</time>
      </trkpt>
      <trkpt lat="48.76597" lon="2.03193">
        <ele>152.99</ele>
        <time>2011-10-22T14:39:16Z</time>
      </trkpt>
      <trkpt lat="48.76601" lon="2.03195">
        <ele>153.47</ele>
        <time>2011-10-22T14:39:17Z</time>
      </trkpt>
      <trkpt lat="48.76604" lon="2.03199">
        <ele>153.47</ele>
        <time>2011-10-22T14:39:18Z</time>
      </trkpt>
      <trkpt lat="48.76605" lon="2.03203">
        <ele>153.47</ele>
        <time>2011-10-22T14:39:19Z</time>
      </trkpt>
      <trkpt lat="48.76606" lon="2.03206">
        <ele>153.47</ele>
        <time>2011-10-22T14:39:20Z</time>
      </trkpt>
      <trkpt lat="48.76608" lon="2.03209">
        <ele>153.47</ele>
        <time>2011-10-22T14:39:21Z</time>
      </trkpt>
      <trkpt lat="48.7661" lon="2.0321">
        <ele>153.95</ele>
        <time>2011-10-22T14:39:22Z</time>
      </trkpt>
      <trkpt lat="48.76613" lon="2.03212">
        <ele>154.43</ele>
        <time>2011-10-22T14:39:23Z</time>
      </trkpt>
      <trkpt lat="48.76615" lon="2.03216">
        <ele>154.91</ele>
        <time>2011-10-22T14:39:24Z</time>
      </trkpt>
      <trkpt lat="48.76616" lon="2.0322">
        <ele>154.43</ele>
        <time>2011-10-22T14:39:25Z</time>
      </trkpt>
      <trkpt lat="48.76615" lon="2.03225">
        <ele>154.43</ele>
        <time>2011-10-22T14:39:26Z</time>
      </trkpt>
      <trkpt lat="48.76614" lon="2.03229">
        <ele>153.47</ele>
        <time>2011-10-22T14:39:27Z</time>
      </trkpt>
      <trkpt lat="48.76612" lon="2.03234">
        <ele>153.95</ele>
        <time>2011-10-22T14:39:28Z</time>
      </trkpt>
      <trkpt lat="48.7661" lon="2.03244">
        <ele>153.95</ele>
        <time>2011-10-22T14:39:30Z</time>
      </trkpt>
      <trkpt lat="48.7661" lon="2.03248">
        <ele>154.43</ele>
        <time>2011-10-22T14:39:31Z</time>
      </trkpt>
      <trkpt lat="48.76611" lon="2.03251">
        <ele>153.95</ele>
        <time>2011-10-22T14:39:32Z</time>
      </trkpt>
      <trkpt lat="48.76613" lon="2.03252">
        <ele>153.95</ele>
        <time>2011-10-22T14:39:33Z</time>
      </trkpt>
      <trkpt lat="48.76614" lon="2.03254">
        <ele>153.95</ele>
        <time>2011-10-22T14:39:34Z</time>
      </trkpt>
      <trkpt lat="48.76617" lon="2.03256">
        <ele>153.95</ele>
        <time>2011-10-22T14:39:35Z</time>
      </trkpt>
      <trkpt lat="48.76622" lon="2.03258">
        <ele>153.95</ele>
        <time>2011-10-22T14:39:36Z</time>
      </trkpt>
      <trkpt lat="48.76703" lon="2.03294">
        <ele>152.99</ele>
        <time>2011-10-22T14:39:51Z</time>
      </trkpt>
      <trkpt lat="48.76719" lon="2.03303">
        <ele>153.47</ele>
        <time>2011-10-22T14:39:54Z</time>
      </trkpt>
      <trkpt lat="48.76727" lon="2.03312">
        <ele>152.99</ele>
        <time>2011-10-22T14:39:56Z</time>
      </trkpt>
      <trkpt lat="48.7673" lon="2.03318">
        <ele>152.99</ele>
        <time>2011-10-22T14:39:57Z</time>
      </trkpt>
      <trkpt lat="48.76733" lon="2.03325">
        <ele>152.51</ele>
        <time>2011-10-22T14:39:58Z</time>
      </trkpt>
      <trkpt lat="48.76736" lon="2.03331">
        <ele>152.51</ele>
        <time>2011-10-22T14:39:59Z</time>
      </trkpt>
      <trkpt lat="48.76739" lon="2.03337">
        <ele>152.99</ele>
        <time>2011-10-22T14:40:00Z</time>
      </trkpt>
      <trkpt lat="48.76742" lon="2.03342">
        <ele>152.99</ele>
        <time>2011-10-22T14:40:01Z</time>
      </trkpt>
      <trkpt lat="48.76747" lon="2.03346">
        <ele>152.51</ele>
        <time>2011-10-22T14:40:02Z</time>
      </trkpt>
      <trkpt lat="48.76751" lon="2.03348">
        <ele>152.03</ele>
        <time>2011-10-22T14:40:03Z</time>
      </trkpt>
      <trkpt lat="48.76756" lon="2.03349">
        <ele>151.54</ele>
        <time>2011-10-22T14:40:04Z</time>
      </trkpt>
      <trkpt lat="48.76761" lon="2.0335">
        <ele>151.54</ele>
        <time>2011-10-22T14:40:05Z</time>
      </trkpt>
      <trkpt lat="48.76766" lon="2.03354">
        <ele>151.06</ele>
        <time>2011-10-22T14:40:06Z</time>
      </trkpt>
      <trkpt lat="48.76769" lon="2.0336">
        <ele>151.54</ele>
        <time>2011-10-22T14:40:07Z</time>
      </trkpt>
      <trkpt lat="48.7677" lon="2.03367">
        <ele>151.54</ele>
        <time>2011-10-22T14:40:08Z</time>
      </trkpt>
      <trkpt lat="48.76771" lon="2.03374">
        <ele>151.54</ele>
        <time>2011-10-22T14:40:09Z</time>
      </trkpt>
      <trkpt lat="48.76773" lon="2.03379">
        <ele>151.54</ele>
        <time>2011-10-22T14:40:10Z</time>
      </trkpt>
      <trkpt lat="48.76777" lon="2.03383">
        <ele>151.54</ele>
        <time>2011-10-22T14:40:11Z</time>
      </trkpt>
      <trkpt lat="48.76781" lon="2.03385">
        <ele>151.54</ele>
        <time>2011-10-22T14:40:12Z</time>
      </trkpt>
      <trkpt lat="48.76785" lon="2.03387">
        <ele>151.06</ele>
        <time>2011-10-22T14:40:13Z</time>
      </trkpt>
      <trkpt lat="48.76807" lon="2.03395">
        <ele>152.03</ele>
        <time>2011-10-22T14:40:18Z</time>
      </trkpt>
      <trkpt lat="48.76811" lon="2.03399">
        <ele>152.51</ele>
        <time>2011-10-22T14:40:19Z</time>
      </trkpt>
      <trkpt lat="48.76812" lon="2.03403">
        <ele>152.51</ele>
        <time>2011-10-22T14:40:20Z</time>
      </trkpt>
      <trkpt lat="48.76815" lon="2.03407">
        <ele>152.51</ele>
        <time>2011-10-22T14:40:29Z</time>
      </trkpt>
      <trkpt lat="48.76815" lon="2.03407">
        <ele>152.99</ele>
        <time>2011-10-22T14:40:57Z</time>
      </trkpt>
      <trkpt lat="48.76815" lon="2.03407">
        <ele>152.51</ele>
        <time>2011-10-22T14:41:23Z</time>
      </trkpt>
      <trkpt lat="48.76815" lon="2.03407">
        <ele>152.99</ele>
        <time>2011-10-22T14:41:58Z</time>
      </trkpt>
      <trkpt lat="48.76815" lon="2.03407">
        <ele>152.99</ele>
        <time>2011-10-22T14:42:30Z</time>
      </trkpt>
      <trkpt lat="48.76816" lon="2.03407">
        <ele>153.47</ele>
        <time>2011-10-22T14:43:08Z</time>
      </trkpt>
      <trkpt lat="48.76816" lon="2.03407">
        <ele>152.99</ele>
        <time>2011-10-22T14:43:45Z</time>
      </trkpt>
      <trkpt lat="48.76816" lon="2.03407">
        <ele>153.47</ele>
        <time>2011-10-22T14:44:21Z</time>
      </trkpt>
      <trkpt lat="48.76816" lon="2.03407">
        <ele>153.95</ele>
        <time>2011-10-22T14:44:44Z</time>
      </trkpt>
      <trkpt lat="48.76816" lon="2.03407">
        <ele>153.47</ele>
        <time>2011-10-22T14:45:16Z</time>
      </trkpt>
      <trkpt lat="48.76816" lon="2.03406">
        <ele>152.99</ele>
        <time>2011-10-22T14:45:51Z</time>
      </trkpt>
      <trkpt lat="48.76816" lon="2.03406">
        <ele>153.95</ele>
        <time>2011-10-22T14:46:26Z</time>
      </trkpt>
      <trkpt lat="48.76816" lon="2.03406">
        <ele>153.95</ele>
        <time>2011-10-22T14:47:01Z</time>
      </trkpt>
      <trkpt lat="48.76817" lon="2.03406">
        <ele>154.91</ele>
        <time>2011-10-22T14:47:45Z</time>
      </trkpt>
      <trkpt lat="48.76817" lon="2.03406">
        <ele>152.51</ele>
        <time>2011-10-22T14:47:53Z</time>
      </trkpt>
      <trkpt lat="48.76817" lon="2.03406">
        <ele>155.39</ele>
        <time>2011-10-22T14:47:56Z</time>
      </trkpt>
      <trkpt lat="48.76816" lon="2.03406">
        <ele>154.91</ele>
        <time>2011-10-22T14:48:16Z</time>
      </trkpt>
      <trkpt lat="48.76815" lon="2.03406">
        <ele>154.91</ele>
        <time>2011-10-22T14:48:35Z</time>
      </trkpt>
      <trkpt lat="48.76815" lon="2.03406">
        <ele>154.91</ele>
        <time>2011-10-22T14:48:57Z</time>
      </trkpt>
      <trkpt lat="48.76815" lon="2.03406">
        <ele>154.91</ele>
        <time>2011-10-22T14:49:17Z</time>
      </trkpt>
    </trkseg>
  </trk>
  <trk>
    <name><![CDATA[Tracé 004]]></name>
    <trkseg>
      <trkpt lat="48.62643" lon="1.91998">
        <ele>171.354599</ele>
        <time>2011-11-14T11:25:42Z</time>
      </trkpt>
      <trkpt lat="48.62671" lon="1.9194">
        <ele>172</ele>
        <time>2011-11-14T11:26:00Z</time>
      </trkpt>
      <trkpt lat="48.62692" lon="1.91893">
        <ele>172</ele>
        <time>2011-11-14T11:26:15Z</time>
      </trkpt>
      <trkpt lat="48.62707" lon="1.91864">
        <ele>172</ele>
        <time>2011-11-14T11:26:25Z</time>
      </trkpt>
      <trkpt lat="48.6273" lon="1.91815">
        <ele>171.650375</ele>
        <time>2011-11-14T11:26:41Z</time>
      </trkpt>
      <trkpt lat="48.62749" lon="1.91799">
        <ele>171.237747</ele>
        <time>2011-11-14T11:26:50Z</time>
      </trkpt>
      <trkpt lat="48.62753" lon="1.91875">
        <ele>171.875717</ele>
        <time>2011-11-14T11:27:10Z</time>
      </trkpt>
      <trkpt lat="48.62763" lon="1.91941">
        <ele>171.930038</ele>
        <time>2011-11-14T11:27:28Z</time>
      </trkpt>
      <trkpt lat="48.62771" lon="1.92023">
        <ele>171</ele>
        <time>2011-11-14T11:27:50Z</time>
      </trkpt>
      <trkpt lat="48.62781" lon="1.92087">
        <ele>171</ele>
        <time>2011-11-14T11:28:07Z</time>
      </trkpt>
      <trkpt lat="48.62789" lon="1.9211">
        <ele>171</ele>
        <time>2011-11-14T11:28:14Z</time>
      </trkpt>
      <trkpt lat="48.62791" lon="1.92171">
        <ele>171</ele>
        <time>2011-11-14T11:28:30Z</time>
      </trkpt>
      <trkpt lat="48.6279" lon="1.92209">
        <ele>171</ele>
        <time>2011-11-14T11:28:40Z</time>
      </trkpt>
      <trkpt lat="48.62805" lon="1.92261">
        <ele>171</ele>
        <time>2011-11-14T11:28:56Z</time>
      </trkpt>
      <trkpt lat="48.62865" lon="1.92366">
        <ele>172</ele>
        <time>2011-11-14T11:29:32Z</time>
      </trkpt>
      <trkpt lat="48.62879" lon="1.9241">
        <ele>172</ele>
        <time>2011-11-14T11:29:45Z</time>
      </trkpt>
      <trkpt lat="48.62886" lon="1.92487">
        <ele>171.327103</ele>
        <time>2011-11-14T11:30:06Z</time>
      </trkpt>
      <trkpt lat="48.62893" lon="1.92532">
        <ele>171.036743</ele>
        <time>2011-11-14T11:30:18Z</time>
      </trkpt>
      <trkpt lat="48.62921" lon="1.9261">
        <ele>170.462967</ele>
        <time>2011-11-14T11:30:41Z</time>
      </trkpt>
      <trkpt lat="48.62939" lon="1.92638">
        <ele>170.083221</ele>
        <time>2011-11-14T11:30:51Z</time>
      </trkpt>
      <trkpt lat="48.62968" lon="1.9267">
        <ele>170</ele>
        <time>2011-11-14T11:31:06Z</time>
      </trkpt>
      <trkpt lat="48.62992" lon="1.92709">
        <ele>169.909271</ele>
        <time>2011-11-14T11:31:20Z</time>
      </trkpt>
      <trkpt lat="48.63019" lon="1.9278">
        <ele>170.232605</ele>
        <time>2011-11-14T11:31:42Z</time>
      </trkpt>
      <trkpt lat="48.63048" lon="1.92822">
        <ele>170.850647</ele>
        <time>2011-11-14T11:31:58Z</time>
      </trkpt>
      <trkpt lat="48.63084" lon="1.92851">
        <ele>170.756119</ele>
        <time>2011-11-14T11:32:14Z</time>
      </trkpt>
      <trkpt lat="48.63108" lon="1.92872">
        <ele>170.067108</ele>
        <time>2011-11-14T11:32:25Z</time>
      </trkpt>
      <trkpt lat="48.63189" lon="1.92939">
        <ele>171.283432</ele>
        <time>2011-11-14T11:33:02Z</time>
      </trkpt>
      <trkpt lat="48.63229" lon="1.92989">
        <ele>171.434616</ele>
        <time>2011-11-14T11:33:23Z</time>
      </trkpt>
      <trkpt lat="48.63255" lon="1.93047">
        <ele>171.180252</ele>
        <time>2011-11-14T11:33:42Z</time>
      </trkpt>
      <trkpt lat="48.63308" lon="1.93124">
        <ele>171.876312</ele>
        <time>2011-11-14T11:34:11Z</time>
      </trkpt>
      <trkpt lat="48.63326" lon="1.9315">
        <ele>171.713211</ele>
        <time>2011-11-14T11:34:21Z</time>
      </trkpt>
      <trkpt lat="48.63341" lon="1.93182">
        <ele>171.843445</ele>
        <time>2011-11-14T11:34:31Z</time>
      </trkpt>
      <trkpt lat="48.63349" lon="1.93206">
        <ele>171.44931</ele>
        <time>2011-11-14T11:34:38Z</time>
      </trkpt>
      <trkpt lat="48.63373" lon="1.93268">
        <ele>169.167419</ele>
        <time>2011-11-14T11:34:57Z</time>
      </trkpt>
      <trkpt lat="48.63383" lon="1.93317">
        <ele>167.818985</ele>
        <time>2011-11-14T11:35:11Z</time>
      </trkpt>
      <trkpt lat="48.63397" lon="1.93368">
        <ele>169.32341</ele>
        <time>2011-11-14T11:35:26Z</time>
      </trkpt>
      <trkpt lat="48.63403" lon="1.934">
        <ele>168.681747</ele>
        <time>2011-11-14T11:35:34Z</time>
      </trkpt>
      <trkpt lat="48.63404" lon="1.9346">
        <ele>168.677216</ele>
        <time>2011-11-14T11:35:50Z</time>
      </trkpt>
      <trkpt lat="48.63411" lon="1.93499">
        <ele>167.44722</ele>
        <time>2011-11-14T11:36:01Z</time>
      </trkpt>
      <trkpt lat="48.63437" lon="1.93531">
        <ele>164.03537</ele>
        <time>2011-11-14T11:36:14Z</time>
      </trkpt>
      <trkpt lat="48.63494" lon="1.93593">
        <ele>157.213608</ele>
        <time>2011-11-14T11:36:42Z</time>
      </trkpt>
      <trkpt lat="48.63562" lon="1.93629">
        <ele>150.94545</ele>
        <time>2011-11-14T11:37:11Z</time>
      </trkpt>
      <trkpt lat="48.63578" lon="1.93642">
        <ele>149.804108</ele>
        <time>2011-11-14T11:37:18Z</time>
      </trkpt>
      <trkpt lat="48.6366" lon="1.93701">
        <ele>142.440613</ele>
        <time>2011-11-14T11:37:55Z</time>
      </trkpt>
      <trkpt lat="48.63669" lon="1.93708">
        <ele>141.653519</ele>
        <time>2011-11-14T11:37:59Z</time>
      </trkpt>
      <trkpt lat="48.63715" lon="1.93755">
        <ele>138.349823</ele>
        <time>2011-11-14T11:38:21Z</time>
      </trkpt>
      <trkpt lat="48.63723" lon="1.93761">
        <ele>137.903229</ele>
        <time>2011-11-14T11:38:25Z</time>
      </trkpt>
      <trkpt lat="48.63771" lon="1.93782">
        <ele>135.302612</ele>
        <time>2011-11-14T11:38:45Z</time>
      </trkpt>
      <trkpt lat="48.63797" lon="1.93795">
        <ele>134.147644</ele>
        <time>2011-11-14T11:38:56Z</time>
      </trkpt>
      <trkpt lat="48.63818" lon="1.93736">
        <ele>134.227524</ele>
        <time>2011-11-14T11:39:13Z</time>
      </trkpt>
      <trkpt lat="48.63853" lon="1.93716">
        <ele>135.045227</ele>
        <time>2011-11-14T11:39:28Z</time>
      </trkpt>
      <trkpt lat="48.63899" lon="1.93684">
        <ele>137.497665</ele>
        <time>2011-11-14T11:39:49Z</time>
      </trkpt>
      <trkpt lat="48.63949" lon="1.93668">
        <ele>140.21788</ele>
        <time>2011-11-14T11:40:09Z</time>
      </trkpt>
      <trkpt lat="48.63997" lon="1.93649">
        <ele>142.61145</ele>
        <time>2011-11-14T11:40:29Z</time>
      </trkpt>
      <trkpt lat="48.64055" lon="1.93638">
        <ele>146.049728</ele>
        <time>2011-11-14T11:40:52Z</time>
      </trkpt>
      <trkpt lat="48.64151" lon="1.93642">
        <ele>148.7547</ele>
        <time>2011-11-14T11:41:31Z</time>
      </trkpt>
      <trkpt lat="48.64161" lon="1.9361">
        <ele>149.733459</ele>
        <time>2011-11-14T11:41:40Z</time>
      </trkpt>
      <trkpt lat="48.6419" lon="1.9355">
        <ele>150.280075</ele>
        <time>2011-11-14T11:42:00Z</time>
      </trkpt>
      <trkpt lat="48.64234" lon="1.93462">
        <ele>148.841614</ele>
        <time>2011-11-14T11:42:29Z</time>
      </trkpt>
      <trkpt lat="48.64281" lon="1.93477">
        <ele>145.177444</ele>
        <time>2011-11-14T11:42:48Z</time>
      </trkpt>
      <trkpt lat="48.64319" lon="1.93502">
        <ele>141.70874</ele>
        <time>2011-11-14T11:43:05Z</time>
      </trkpt>
      <trkpt lat="48.6434" lon="1.93487">
        <ele>140.481094</ele>
        <time>2011-11-14T11:43:14Z</time>
      </trkpt>
      <trkpt lat="48.6437" lon="1.93456">
        <ele>142.031418</ele>
        <time>2011-11-14T11:43:29Z</time>
      </trkpt>
      <trkpt lat="48.64377" lon="1.93425">
        <ele>142.043869</ele>
        <time>2011-11-14T11:43:37Z</time>
      </trkpt>
    </trkseg>
  </trk>
</gpx>